<?xml version="1.0" encoding="UTF-8"?>
<gpx version="1.1" creator="https://www.youtrack.es" xsi:schemaLocation="http://www.topografix.com/GPX/1/1 http://www.topografix.com/GPX/1/1/gpx.xsd http://www.garmin.com/xmlschemas/GpxExtensions/v3 http://www.garmin.com/xmlschemas/GpxExtensionsv3.xsd http://www.garmin.com/xmlschemas/TrackPointExtension/v1 http://www.garmin.com/xmlschemas/TrackPointExtensionv1.xsd" xmlns:gpxtpx="http://www.garmin.com/xmlschemas/TrackPointExtension/v1" xmlns:gpxx="http://www.garmin.com/xmlschemas/GpxExtensions/v3" xmlns:xsi="http://www.w3.org/2001/XMLSchema-instance">
  <metadata>
    <link href="https://www.youtrack.es">
      <text>YouTrack.es</text>
    </link>
    <time>2026-05-08T21:08:49Z</time>
  </metadata>
  <trk>
    <src>https://www.youtrack.es</src>
    <link href="https://www.youtrack.es/ruta/17262-can-i-take-flomax-with-propecia">
      <text>YouTrack.es</text>
    </link>
    <trkseg>
      <trkpt lat="19.082343" lon="-97.316765">
        <ele>3384.014</ele>
        <time>2020-11-07T16:23:30Z</time>
      </trkpt>
      <trkpt lat="19.082345" lon="-97.316717">
        <ele>3391.054</ele>
        <time>2020-11-07T16:24:00Z</time>
      </trkpt>
      <trkpt lat="19.082337" lon="-97.316666">
        <ele>3392.209</ele>
        <time>2020-11-07T16:24:04Z</time>
      </trkpt>
      <trkpt lat="19.082325" lon="-97.316616">
        <ele>3392.908</ele>
        <time>2020-11-07T16:24:09Z</time>
      </trkpt>
      <trkpt lat="19.082314" lon="-97.316569">
        <ele>3394.537</ele>
        <time>2020-11-07T16:24:15Z</time>
      </trkpt>
      <trkpt lat="19.082293" lon="-97.316526">
        <ele>3397.081</ele>
        <time>2020-11-07T16:24:23Z</time>
      </trkpt>
      <trkpt lat="19.082099" lon="-97.315876">
        <ele>3352.421</ele>
        <time>2020-11-07T16:25:33Z</time>
      </trkpt>
      <trkpt lat="19.082127" lon="-97.315834">
        <ele>3379.423</ele>
        <time>2020-11-07T16:25:39Z</time>
      </trkpt>
      <trkpt lat="19.082143" lon="-97.315778">
        <ele>3382.259</ele>
        <time>2020-11-07T16:25:44Z</time>
      </trkpt>
      <trkpt lat="19.082153" lon="-97.31573">
        <ele>3385.183</ele>
        <time>2020-11-07T16:25:49Z</time>
      </trkpt>
      <trkpt lat="19.082169" lon="-97.315677">
        <ele>3389.140</ele>
        <time>2020-11-07T16:25:55Z</time>
      </trkpt>
      <trkpt lat="19.082188" lon="-97.315633">
        <ele>3392.849</ele>
        <time>2020-11-07T16:26:01Z</time>
      </trkpt>
      <trkpt lat="19.082234" lon="-97.315601">
        <ele>3395.436</ele>
        <time>2020-11-07T16:26:06Z</time>
      </trkpt>
      <trkpt lat="19.082283" lon="-97.315574">
        <ele>3397.017</ele>
        <time>2020-11-07T16:26:10Z</time>
      </trkpt>
      <trkpt lat="19.082337" lon="-97.315568">
        <ele>3398.718</ele>
        <time>2020-11-07T16:26:15Z</time>
      </trkpt>
      <trkpt lat="19.082389" lon="-97.315582">
        <ele>3399.708</ele>
        <time>2020-11-07T16:26:19Z</time>
      </trkpt>
      <trkpt lat="19.08244" lon="-97.315585">
        <ele>3401.189</ele>
        <time>2020-11-07T16:26:24Z</time>
      </trkpt>
      <trkpt lat="19.082494" lon="-97.31558">
        <ele>3402.043</ele>
        <time>2020-11-07T16:26:30Z</time>
      </trkpt>
      <trkpt lat="19.08254" lon="-97.315578">
        <ele>3402.913</ele>
        <time>2020-11-07T16:26:34Z</time>
      </trkpt>
      <trkpt lat="19.082591" lon="-97.315566">
        <ele>3403.455</ele>
        <time>2020-11-07T16:26:39Z</time>
      </trkpt>
      <trkpt lat="19.082637" lon="-97.315572">
        <ele>3403.741</ele>
        <time>2020-11-07T16:26:43Z</time>
      </trkpt>
      <trkpt lat="19.082683" lon="-97.315573">
        <ele>3403.935</ele>
        <time>2020-11-07T16:26:47Z</time>
      </trkpt>
      <trkpt lat="19.082731" lon="-97.315571">
        <ele>3404.012</ele>
        <time>2020-11-07T16:26:51Z</time>
      </trkpt>
      <trkpt lat="19.082777" lon="-97.315569">
        <ele>3404.591</ele>
        <time>2020-11-07T16:26:55Z</time>
      </trkpt>
      <trkpt lat="19.082833" lon="-97.315562">
        <ele>3405.278</ele>
        <time>2020-11-07T16:27:00Z</time>
      </trkpt>
      <trkpt lat="19.082887" lon="-97.315562">
        <ele>3406.033</ele>
        <time>2020-11-07T16:27:05Z</time>
      </trkpt>
      <trkpt lat="19.082938" lon="-97.315564">
        <ele>3406.126</ele>
        <time>2020-11-07T16:27:10Z</time>
      </trkpt>
      <trkpt lat="19.082983" lon="-97.315556">
        <ele>3405.408</ele>
        <time>2020-11-07T16:27:14Z</time>
      </trkpt>
      <trkpt lat="19.083029" lon="-97.315546">
        <ele>3404.693</ele>
        <time>2020-11-07T16:27:18Z</time>
      </trkpt>
      <trkpt lat="19.083082" lon="-97.315533">
        <ele>3403.757</ele>
        <time>2020-11-07T16:27:22Z</time>
      </trkpt>
      <trkpt lat="19.08313" lon="-97.315523">
        <ele>3403.667</ele>
        <time>2020-11-07T16:27:26Z</time>
      </trkpt>
      <trkpt lat="19.083183" lon="-97.315512">
        <ele>3403.169</ele>
        <time>2020-11-07T16:27:31Z</time>
      </trkpt>
      <trkpt lat="19.083237" lon="-97.315509">
        <ele>3402.465</ele>
        <time>2020-11-07T16:27:36Z</time>
      </trkpt>
      <trkpt lat="19.083279" lon="-97.315486">
        <ele>3402.469</ele>
        <time>2020-11-07T16:27:40Z</time>
      </trkpt>
      <trkpt lat="19.083328" lon="-97.315484">
        <ele>3402.446</ele>
        <time>2020-11-07T16:27:44Z</time>
      </trkpt>
      <trkpt lat="19.083379" lon="-97.315474">
        <ele>3403.615</ele>
        <time>2020-11-07T16:27:48Z</time>
      </trkpt>
      <trkpt lat="19.083431" lon="-97.315467">
        <ele>3403.955</ele>
        <time>2020-11-07T16:27:52Z</time>
      </trkpt>
      <trkpt lat="19.084114" lon="-97.315013">
        <ele>3437.007</ele>
        <time>2020-11-07T16:29:49Z</time>
      </trkpt>
      <trkpt lat="19.084112" lon="-97.314964">
        <ele>3440.017</ele>
        <time>2020-11-07T16:30:02Z</time>
      </trkpt>
      <trkpt lat="19.0841" lon="-97.314913">
        <ele>3440.408</ele>
        <time>2020-11-07T16:30:11Z</time>
      </trkpt>
      <trkpt lat="19.084098" lon="-97.314865">
        <ele>3441.831</ele>
        <time>2020-11-07T16:30:16Z</time>
      </trkpt>
      <trkpt lat="19.084108" lon="-97.314815">
        <ele>3442.735</ele>
        <time>2020-11-07T16:30:22Z</time>
      </trkpt>
      <trkpt lat="19.084098" lon="-97.314767">
        <ele>3443.235</ele>
        <time>2020-11-07T16:30:34Z</time>
      </trkpt>
      <trkpt lat="19.084083" lon="-97.314719">
        <ele>3443.917</ele>
        <time>2020-11-07T16:30:40Z</time>
      </trkpt>
      <trkpt lat="19.084073" lon="-97.31467">
        <ele>3444.793</ele>
        <time>2020-11-07T16:30:45Z</time>
      </trkpt>
      <trkpt lat="19.084067" lon="-97.314615">
        <ele>3445.647</ele>
        <time>2020-11-07T16:30:54Z</time>
      </trkpt>
      <trkpt lat="19.084058" lon="-97.314559">
        <ele>3445.384</ele>
        <time>2020-11-07T16:31:00Z</time>
      </trkpt>
      <trkpt lat="19.084046" lon="-97.314508">
        <ele>3445.173</ele>
        <time>2020-11-07T16:31:06Z</time>
      </trkpt>
      <trkpt lat="19.084092" lon="-97.313864">
        <ele>3437.331</ele>
        <time>2020-11-07T16:32:21Z</time>
      </trkpt>
      <trkpt lat="19.084113" lon="-97.313819">
        <ele>3436.361</ele>
        <time>2020-11-07T16:32:26Z</time>
      </trkpt>
      <trkpt lat="19.084104" lon="-97.313768">
        <ele>3436.307</ele>
        <time>2020-11-07T16:32:32Z</time>
      </trkpt>
      <trkpt lat="19.084088" lon="-97.313712">
        <ele>3439.108</ele>
        <time>2020-11-07T16:32:45Z</time>
      </trkpt>
      <trkpt lat="19.084068" lon="-97.313659">
        <ele>3440.479</ele>
        <time>2020-11-07T16:32:50Z</time>
      </trkpt>
      <trkpt lat="19.084092" lon="-97.313617">
        <ele>3442.073</ele>
        <time>2020-11-07T16:32:56Z</time>
      </trkpt>
      <trkpt lat="19.084122" lon="-97.313575">
        <ele>3442.953</ele>
        <time>2020-11-07T16:33:03Z</time>
      </trkpt>
      <trkpt lat="19.08411" lon="-97.313527">
        <ele>3445.145</ele>
        <time>2020-11-07T16:33:09Z</time>
      </trkpt>
      <trkpt lat="19.08411" lon="-97.313479">
        <ele>3448.031</ele>
        <time>2020-11-07T16:33:14Z</time>
      </trkpt>
      <trkpt lat="19.08413" lon="-97.313426">
        <ele>3450.135</ele>
        <time>2020-11-07T16:33:20Z</time>
      </trkpt>
      <trkpt lat="19.084139" lon="-97.313376">
        <ele>3452.282</ele>
        <time>2020-11-07T16:33:26Z</time>
      </trkpt>
      <trkpt lat="19.084137" lon="-97.313322">
        <ele>3452.311</ele>
        <time>2020-11-07T16:33:32Z</time>
      </trkpt>
      <trkpt lat="19.084158" lon="-97.313274">
        <ele>3452.727</ele>
        <time>2020-11-07T16:33:38Z</time>
      </trkpt>
      <trkpt lat="19.084169" lon="-97.313227">
        <ele>3452.268</ele>
        <time>2020-11-07T16:33:43Z</time>
      </trkpt>
      <trkpt lat="19.084169" lon="-97.313176">
        <ele>3453.114</ele>
        <time>2020-11-07T16:33:49Z</time>
      </trkpt>
      <trkpt lat="19.084196" lon="-97.31313">
        <ele>3453.608</ele>
        <time>2020-11-07T16:33:54Z</time>
      </trkpt>
      <trkpt lat="19.084223" lon="-97.31309">
        <ele>3454.748</ele>
        <time>2020-11-07T16:34:00Z</time>
      </trkpt>
      <trkpt lat="19.084261" lon="-97.313045">
        <ele>3455.432</ele>
        <time>2020-11-07T16:34:05Z</time>
      </trkpt>
      <trkpt lat="19.084298" lon="-97.313009">
        <ele>3455.882</ele>
        <time>2020-11-07T16:34:08Z</time>
      </trkpt>
      <trkpt lat="19.084316" lon="-97.312958">
        <ele>3456.054</ele>
        <time>2020-11-07T16:34:13Z</time>
      </trkpt>
      <trkpt lat="19.084312" lon="-97.312904">
        <ele>3456.550</ele>
        <time>2020-11-07T16:34:18Z</time>
      </trkpt>
      <trkpt lat="19.08431" lon="-97.312853">
        <ele>3457.274</ele>
        <time>2020-11-07T16:34:24Z</time>
      </trkpt>
      <trkpt lat="19.084315" lon="-97.312805">
        <ele>3458.081</ele>
        <time>2020-11-07T16:34:30Z</time>
      </trkpt>
      <trkpt lat="19.084315" lon="-97.312749">
        <ele>3459.350</ele>
        <time>2020-11-07T16:34:36Z</time>
      </trkpt>
      <trkpt lat="19.084318" lon="-97.312692">
        <ele>3461.333</ele>
        <time>2020-11-07T16:34:42Z</time>
      </trkpt>
      <trkpt lat="19.084319" lon="-97.312641">
        <ele>3462.923</ele>
        <time>2020-11-07T16:34:47Z</time>
      </trkpt>
      <trkpt lat="19.08432" lon="-97.312591">
        <ele>3463.915</ele>
        <time>2020-11-07T16:34:52Z</time>
      </trkpt>
      <trkpt lat="19.084318" lon="-97.312541">
        <ele>3465.308</ele>
        <time>2020-11-07T16:34:57Z</time>
      </trkpt>
      <trkpt lat="19.084314" lon="-97.312483">
        <ele>3467.349</ele>
        <time>2020-11-07T16:35:03Z</time>
      </trkpt>
      <trkpt lat="19.084311" lon="-97.312431">
        <ele>3468.583</ele>
        <time>2020-11-07T16:35:08Z</time>
      </trkpt>
      <trkpt lat="19.084306" lon="-97.312381">
        <ele>3470.423</ele>
        <time>2020-11-07T16:35:13Z</time>
      </trkpt>
      <trkpt lat="19.084304" lon="-97.312331">
        <ele>3472.065</ele>
        <time>2020-11-07T16:35:19Z</time>
      </trkpt>
      <trkpt lat="19.084298" lon="-97.312283">
        <ele>3473.371</ele>
        <time>2020-11-07T16:35:24Z</time>
      </trkpt>
      <trkpt lat="19.084283" lon="-97.312234">
        <ele>3474.995</ele>
        <time>2020-11-07T16:35:30Z</time>
      </trkpt>
      <trkpt lat="19.084282" lon="-97.312182">
        <ele>3475.532</ele>
        <time>2020-11-07T16:35:36Z</time>
      </trkpt>
      <trkpt lat="19.084278" lon="-97.312132">
        <ele>3475.841</ele>
        <time>2020-11-07T16:35:41Z</time>
      </trkpt>
      <trkpt lat="19.084259" lon="-97.312081">
        <ele>3476.444</ele>
        <time>2020-11-07T16:35:46Z</time>
      </trkpt>
      <trkpt lat="19.084245" lon="-97.312034">
        <ele>3477.605</ele>
        <time>2020-11-07T16:35:51Z</time>
      </trkpt>
      <trkpt lat="19.084231" lon="-97.311979">
        <ele>3477.515</ele>
        <time>2020-11-07T16:35:57Z</time>
      </trkpt>
      <trkpt lat="19.084216" lon="-97.311932">
        <ele>3478.608</ele>
        <time>2020-11-07T16:36:02Z</time>
      </trkpt>
      <trkpt lat="19.084198" lon="-97.311886">
        <ele>3480.190</ele>
        <time>2020-11-07T16:36:08Z</time>
      </trkpt>
      <trkpt lat="19.084159" lon="-97.311846">
        <ele>3481.474</ele>
        <time>2020-11-07T16:36:14Z</time>
      </trkpt>
      <trkpt lat="19.084147" lon="-97.311798">
        <ele>3483.434</ele>
        <time>2020-11-07T16:36:20Z</time>
      </trkpt>
      <trkpt lat="19.084136" lon="-97.311751">
        <ele>3485.086</ele>
        <time>2020-11-07T16:36:25Z</time>
      </trkpt>
      <trkpt lat="19.084115" lon="-97.311703">
        <ele>3486.052</ele>
        <time>2020-11-07T16:36:29Z</time>
      </trkpt>
      <trkpt lat="19.084095" lon="-97.31166">
        <ele>3487.436</ele>
        <time>2020-11-07T16:36:33Z</time>
      </trkpt>
      <trkpt lat="19.084103" lon="-97.31161">
        <ele>3487.833</ele>
        <time>2020-11-07T16:36:40Z</time>
      </trkpt>
      <trkpt lat="19.084129" lon="-97.311562">
        <ele>3488.122</ele>
        <time>2020-11-07T16:36:45Z</time>
      </trkpt>
      <trkpt lat="19.084157" lon="-97.311515">
        <ele>3488.312</ele>
        <time>2020-11-07T16:36:50Z</time>
      </trkpt>
      <trkpt lat="19.084183" lon="-97.311473">
        <ele>3488.432</ele>
        <time>2020-11-07T16:36:54Z</time>
      </trkpt>
      <trkpt lat="19.084201" lon="-97.311422">
        <ele>3488.105</ele>
        <time>2020-11-07T16:36:59Z</time>
      </trkpt>
      <trkpt lat="19.08418" lon="-97.311379">
        <ele>3488.708</ele>
        <time>2020-11-07T16:37:04Z</time>
      </trkpt>
      <trkpt lat="19.084146" lon="-97.311338">
        <ele>3489.137</ele>
        <time>2020-11-07T16:37:10Z</time>
      </trkpt>
      <trkpt lat="19.084107" lon="-97.311314">
        <ele>3489.381</ele>
        <time>2020-11-07T16:37:15Z</time>
      </trkpt>
      <trkpt lat="19.084069" lon="-97.311288">
        <ele>3489.411</ele>
        <time>2020-11-07T16:37:20Z</time>
      </trkpt>
      <trkpt lat="19.08403" lon="-97.311261">
        <ele>3491.133</ele>
        <time>2020-11-07T16:37:25Z</time>
      </trkpt>
      <trkpt lat="19.083982" lon="-97.311241">
        <ele>3493.329</ele>
        <time>2020-11-07T16:37:31Z</time>
      </trkpt>
      <trkpt lat="19.083956" lon="-97.311198">
        <ele>3495.843</ele>
        <time>2020-11-07T16:37:37Z</time>
      </trkpt>
      <trkpt lat="19.083941" lon="-97.311153">
        <ele>3498.160</ele>
        <time>2020-11-07T16:37:42Z</time>
      </trkpt>
      <trkpt lat="19.083944" lon="-97.311102">
        <ele>3499.949</ele>
        <time>2020-11-07T16:37:46Z</time>
      </trkpt>
      <trkpt lat="19.083939" lon="-97.311045">
        <ele>3501.053</ele>
        <time>2020-11-07T16:37:50Z</time>
      </trkpt>
      <trkpt lat="19.08394" lon="-97.31099">
        <ele>3502.004</ele>
        <time>2020-11-07T16:37:54Z</time>
      </trkpt>
      <trkpt lat="19.083952" lon="-97.310944">
        <ele>3503.414</ele>
        <time>2020-11-07T16:37:58Z</time>
      </trkpt>
      <trkpt lat="19.083942" lon="-97.310888">
        <ele>3502.708</ele>
        <time>2020-11-07T16:38:03Z</time>
      </trkpt>
      <trkpt lat="19.083913" lon="-97.310843">
        <ele>3501.161</ele>
        <time>2020-11-07T16:38:08Z</time>
      </trkpt>
      <trkpt lat="19.083878" lon="-97.310797">
        <ele>3500.975</ele>
        <time>2020-11-07T16:38:13Z</time>
      </trkpt>
      <trkpt lat="19.083857" lon="-97.310746">
        <ele>3500.815</ele>
        <time>2020-11-07T16:38:21Z</time>
      </trkpt>
      <trkpt lat="19.08384" lon="-97.310695">
        <ele>3499.937</ele>
        <time>2020-11-07T16:38:25Z</time>
      </trkpt>
      <trkpt lat="19.083821" lon="-97.310651">
        <ele>3500.233</ele>
        <time>2020-11-07T16:38:29Z</time>
      </trkpt>
      <trkpt lat="19.083786" lon="-97.310618">
        <ele>3501.667</ele>
        <time>2020-11-07T16:38:36Z</time>
      </trkpt>
      <trkpt lat="19.083772" lon="-97.310565">
        <ele>3502.054</ele>
        <time>2020-11-07T16:38:42Z</time>
      </trkpt>
      <trkpt lat="19.083756" lon="-97.310516">
        <ele>3503.183</ele>
        <time>2020-11-07T16:38:50Z</time>
      </trkpt>
      <trkpt lat="19.083734" lon="-97.310464">
        <ele>3503.755</ele>
        <time>2020-11-07T16:38:56Z</time>
      </trkpt>
      <trkpt lat="19.083722" lon="-97.310406">
        <ele>3504.107</ele>
        <time>2020-11-07T16:39:01Z</time>
      </trkpt>
      <trkpt lat="19.083718" lon="-97.310349">
        <ele>3504.317</ele>
        <time>2020-11-07T16:39:06Z</time>
      </trkpt>
      <trkpt lat="19.083719" lon="-97.310293">
        <ele>3504.408</ele>
        <time>2020-11-07T16:39:12Z</time>
      </trkpt>
      <trkpt lat="19.083726" lon="-97.310238">
        <ele>3500.451</ele>
        <time>2020-11-07T16:39:17Z</time>
      </trkpt>
      <trkpt lat="19.083749" lon="-97.310187">
        <ele>3496.985</ele>
        <time>2020-11-07T16:39:22Z</time>
      </trkpt>
      <trkpt lat="19.083757" lon="-97.310138">
        <ele>3500.095</ele>
        <time>2020-11-07T16:39:26Z</time>
      </trkpt>
      <trkpt lat="19.083747" lon="-97.310076">
        <ele>3502.767</ele>
        <time>2020-11-07T16:39:30Z</time>
      </trkpt>
      <trkpt lat="19.083742" lon="-97.310028">
        <ele>3504.793</ele>
        <time>2020-11-07T16:39:33Z</time>
      </trkpt>
      <trkpt lat="19.083738" lon="-97.309969">
        <ele>3507.117</ele>
        <time>2020-11-07T16:39:37Z</time>
      </trkpt>
      <trkpt lat="19.083724" lon="-97.309912">
        <ele>3509.734</ele>
        <time>2020-11-07T16:39:41Z</time>
      </trkpt>
      <trkpt lat="19.083704" lon="-97.309858">
        <ele>3511.323</ele>
        <time>2020-11-07T16:39:47Z</time>
      </trkpt>
      <trkpt lat="19.083721" lon="-97.309802">
        <ele>3513.028</ele>
        <time>2020-11-07T16:39:51Z</time>
      </trkpt>
      <trkpt lat="19.083754" lon="-97.309752">
        <ele>3515.289</ele>
        <time>2020-11-07T16:39:55Z</time>
      </trkpt>
      <trkpt lat="19.083787" lon="-97.309714">
        <ele>3518.117</ele>
        <time>2020-11-07T16:39:59Z</time>
      </trkpt>
      <trkpt lat="19.083819" lon="-97.309667">
        <ele>3519.108</ele>
        <time>2020-11-07T16:40:04Z</time>
      </trkpt>
      <trkpt lat="19.083838" lon="-97.309615">
        <ele>3519.738</ele>
        <time>2020-11-07T16:40:09Z</time>
      </trkpt>
      <trkpt lat="19.083844" lon="-97.30956">
        <ele>3519.642</ele>
        <time>2020-11-07T16:40:14Z</time>
      </trkpt>
      <trkpt lat="19.083837" lon="-97.309509">
        <ele>3520.042</ele>
        <time>2020-11-07T16:40:22Z</time>
      </trkpt>
      <trkpt lat="19.083828" lon="-97.309459">
        <ele>3522.254</ele>
        <time>2020-11-07T16:40:40Z</time>
      </trkpt>
      <trkpt lat="19.083791" lon="-97.309407">
        <ele>3523.110</ele>
        <time>2020-11-07T16:40:45Z</time>
      </trkpt>
      <trkpt lat="19.083761" lon="-97.309348">
        <ele>3522.944</ele>
        <time>2020-11-07T16:40:48Z</time>
      </trkpt>
      <trkpt lat="19.083737" lon="-97.309288">
        <ele>3523.281</ele>
        <time>2020-11-07T16:40:51Z</time>
      </trkpt>
      <trkpt lat="19.083718" lon="-97.309228">
        <ele>3523.410</ele>
        <time>2020-11-07T16:40:54Z</time>
      </trkpt>
      <trkpt lat="19.083701" lon="-97.309169">
        <ele>3523.174</ele>
        <time>2020-11-07T16:40:57Z</time>
      </trkpt>
      <trkpt lat="19.083687" lon="-97.309122">
        <ele>3523.356</ele>
        <time>2020-11-07T16:41:00Z</time>
      </trkpt>
      <trkpt lat="19.083666" lon="-97.30907">
        <ele>3523.421</ele>
        <time>2020-11-07T16:41:04Z</time>
      </trkpt>
      <trkpt lat="19.083646" lon="-97.30902">
        <ele>3522.708</ele>
        <time>2020-11-07T16:41:09Z</time>
      </trkpt>
      <trkpt lat="19.083624" lon="-97.30897">
        <ele>3524.763</ele>
        <time>2020-11-07T16:41:14Z</time>
      </trkpt>
      <trkpt lat="19.083603" lon="-97.308921">
        <ele>3525.937</ele>
        <time>2020-11-07T16:41:17Z</time>
      </trkpt>
      <trkpt lat="19.083574" lon="-97.308859">
        <ele>3525.897</ele>
        <time>2020-11-07T16:41:20Z</time>
      </trkpt>
      <trkpt lat="19.083551" lon="-97.308815">
        <ele>3526.119</ele>
        <time>2020-11-07T16:41:22Z</time>
      </trkpt>
      <trkpt lat="19.083521" lon="-97.308754">
        <ele>3527.945</ele>
        <time>2020-11-07T16:41:25Z</time>
      </trkpt>
      <trkpt lat="19.083489" lon="-97.308713">
        <ele>3527.859</ele>
        <time>2020-11-07T16:41:31Z</time>
      </trkpt>
      <trkpt lat="19.083438" lon="-97.308705">
        <ele>3528.176</ele>
        <time>2020-11-07T16:41:36Z</time>
      </trkpt>
      <trkpt lat="19.083391" lon="-97.308699">
        <ele>3527.955</ele>
        <time>2020-11-07T16:41:40Z</time>
      </trkpt>
      <trkpt lat="19.083343" lon="-97.308704">
        <ele>3527.838</ele>
        <time>2020-11-07T16:41:48Z</time>
      </trkpt>
      <trkpt lat="19.083299" lon="-97.308721">
        <ele>3527.770</ele>
        <time>2020-11-07T16:41:59Z</time>
      </trkpt>
      <trkpt lat="19.083261" lon="-97.308756">
        <ele>3527.717</ele>
        <time>2020-11-07T16:42:12Z</time>
      </trkpt>
      <trkpt lat="19.083219" lon="-97.308792">
        <ele>3527.708</ele>
        <time>2020-11-07T16:42:16Z</time>
      </trkpt>
      <trkpt lat="19.083169" lon="-97.308811">
        <ele>3527.739</ele>
        <time>2020-11-07T16:42:20Z</time>
      </trkpt>
      <trkpt lat="19.083124" lon="-97.308821">
        <ele>3527.763</ele>
        <time>2020-11-07T16:42:23Z</time>
      </trkpt>
      <trkpt lat="19.083076" lon="-97.308825">
        <ele>3527.713</ele>
        <time>2020-11-07T16:42:27Z</time>
      </trkpt>
      <trkpt lat="19.083035" lon="-97.308802">
        <ele>3527.775</ele>
        <time>2020-11-07T16:42:34Z</time>
      </trkpt>
      <trkpt lat="19.083037" lon="-97.308752">
        <ele>3527.711</ele>
        <time>2020-11-07T16:43:00Z</time>
      </trkpt>
      <trkpt lat="19.083031" lon="-97.308703">
        <ele>3527.795</ele>
        <time>2020-11-07T16:43:04Z</time>
      </trkpt>
      <trkpt lat="19.083012" lon="-97.30865">
        <ele>3527.742</ele>
        <time>2020-11-07T16:43:08Z</time>
      </trkpt>
      <trkpt lat="19.082992" lon="-97.308606">
        <ele>3527.791</ele>
        <time>2020-11-07T16:43:12Z</time>
      </trkpt>
      <trkpt lat="19.082976" lon="-97.308561">
        <ele>3527.787</ele>
        <time>2020-11-07T16:43:16Z</time>
      </trkpt>
      <trkpt lat="19.082971" lon="-97.30851">
        <ele>3527.742</ele>
        <time>2020-11-07T16:43:21Z</time>
      </trkpt>
      <trkpt lat="19.082968" lon="-97.308458">
        <ele>3531.726</ele>
        <time>2020-11-07T16:43:26Z</time>
      </trkpt>
      <trkpt lat="19.08298" lon="-97.308408">
        <ele>3535.708</ele>
        <time>2020-11-07T16:43:31Z</time>
      </trkpt>
      <trkpt lat="19.083013" lon="-97.308374">
        <ele>3539.754</ele>
        <time>2020-11-07T16:43:36Z</time>
      </trkpt>
      <trkpt lat="19.083015" lon="-97.308324">
        <ele>3543.798</ele>
        <time>2020-11-07T16:43:48Z</time>
      </trkpt>
      <trkpt lat="19.083014" lon="-97.308275">
        <ele>3547.788</ele>
        <time>2020-11-07T16:43:57Z</time>
      </trkpt>
      <trkpt lat="19.083028" lon="-97.308218">
        <ele>3551.740</ele>
        <time>2020-11-07T16:44:08Z</time>
      </trkpt>
      <trkpt lat="19.083044" lon="-97.308166">
        <ele>3551.366</ele>
        <time>2020-11-07T16:44:11Z</time>
      </trkpt>
      <trkpt lat="19.083031" lon="-97.308109">
        <ele>3551.110</ele>
        <time>2020-11-07T16:44:14Z</time>
      </trkpt>
      <trkpt lat="19.083008" lon="-97.308043">
        <ele>3551.067</ele>
        <time>2020-11-07T16:44:17Z</time>
      </trkpt>
      <trkpt lat="19.083002" lon="-97.307975">
        <ele>3550.956</ele>
        <time>2020-11-07T16:44:20Z</time>
      </trkpt>
      <trkpt lat="19.083001" lon="-97.307925">
        <ele>3550.865</ele>
        <time>2020-11-07T16:44:23Z</time>
      </trkpt>
      <trkpt lat="19.083002" lon="-97.307868">
        <ele>3554.868</ele>
        <time>2020-11-07T16:44:27Z</time>
      </trkpt>
      <trkpt lat="19.082995" lon="-97.307818">
        <ele>3558.414</ele>
        <time>2020-11-07T16:44:31Z</time>
      </trkpt>
      <trkpt lat="19.082994" lon="-97.307757">
        <ele>3562.408</ele>
        <time>2020-11-07T16:44:35Z</time>
      </trkpt>
      <trkpt lat="19.082997" lon="-97.307702">
        <ele>3565.342</ele>
        <time>2020-11-07T16:44:41Z</time>
      </trkpt>
      <trkpt lat="19.082965" lon="-97.307656">
        <ele>3567.576</ele>
        <time>2020-11-07T16:44:46Z</time>
      </trkpt>
      <trkpt lat="19.082924" lon="-97.307632">
        <ele>3568.826</ele>
        <time>2020-11-07T16:44:51Z</time>
      </trkpt>
      <trkpt lat="19.082921" lon="-97.307581">
        <ele>3569.698</ele>
        <time>2020-11-07T16:44:59Z</time>
      </trkpt>
      <trkpt lat="19.082938" lon="-97.307532">
        <ele>3570.154</ele>
        <time>2020-11-07T16:45:22Z</time>
      </trkpt>
      <trkpt lat="19.082935" lon="-97.307469">
        <ele>3569.688</ele>
        <time>2020-11-07T16:45:27Z</time>
      </trkpt>
      <trkpt lat="19.082929" lon="-97.307417">
        <ele>3569.345</ele>
        <time>2020-11-07T16:45:30Z</time>
      </trkpt>
      <trkpt lat="19.08293" lon="-97.307364">
        <ele>3568.724</ele>
        <time>2020-11-07T16:45:33Z</time>
      </trkpt>
      <trkpt lat="19.082931" lon="-97.307313">
        <ele>3568.393</ele>
        <time>2020-11-07T16:45:36Z</time>
      </trkpt>
      <trkpt lat="19.082943" lon="-97.307253">
        <ele>3568.165</ele>
        <time>2020-11-07T16:45:40Z</time>
      </trkpt>
      <trkpt lat="19.082952" lon="-97.307196">
        <ele>3568.021</ele>
        <time>2020-11-07T16:45:44Z</time>
      </trkpt>
      <trkpt lat="19.082969" lon="-97.307141">
        <ele>3567.908</ele>
        <time>2020-11-07T16:45:48Z</time>
      </trkpt>
      <trkpt lat="19.08298" lon="-97.307091">
        <ele>3567.945</ele>
        <time>2020-11-07T16:45:53Z</time>
      </trkpt>
      <trkpt lat="19.082958" lon="-97.307043">
        <ele>3567.959</ele>
        <time>2020-11-07T16:45:59Z</time>
      </trkpt>
      <trkpt lat="19.082943" lon="-97.306989">
        <ele>3567.939</ele>
        <time>2020-11-07T16:46:05Z</time>
      </trkpt>
      <trkpt lat="19.082921" lon="-97.306945">
        <ele>3567.981</ele>
        <time>2020-11-07T16:46:12Z</time>
      </trkpt>
      <trkpt lat="19.082888" lon="-97.306906">
        <ele>3567.917</ele>
        <time>2020-11-07T16:46:17Z</time>
      </trkpt>
      <trkpt lat="19.082867" lon="-97.306858">
        <ele>3567.971</ele>
        <time>2020-11-07T16:46:21Z</time>
      </trkpt>
      <trkpt lat="19.082861" lon="-97.306799">
        <ele>3571.938</ele>
        <time>2020-11-07T16:46:25Z</time>
      </trkpt>
      <trkpt lat="19.082876" lon="-97.30675">
        <ele>3575.957</ele>
        <time>2020-11-07T16:46:30Z</time>
      </trkpt>
      <trkpt lat="19.082905" lon="-97.306708">
        <ele>3577.988</ele>
        <time>2020-11-07T16:46:40Z</time>
      </trkpt>
      <trkpt lat="19.082922" lon="-97.306661">
        <ele>3581.124</ele>
        <time>2020-11-07T16:46:50Z</time>
      </trkpt>
      <trkpt lat="19.082911" lon="-97.306603">
        <ele>3584.226</ele>
        <time>2020-11-07T16:47:02Z</time>
      </trkpt>
      <trkpt lat="19.082893" lon="-97.306545">
        <ele>3586.908</ele>
        <time>2020-11-07T16:47:06Z</time>
      </trkpt>
      <trkpt lat="19.082874" lon="-97.306492">
        <ele>3589.324</ele>
        <time>2020-11-07T16:47:10Z</time>
      </trkpt>
      <trkpt lat="19.082858" lon="-97.30644">
        <ele>3590.798</ele>
        <time>2020-11-07T16:47:14Z</time>
      </trkpt>
      <trkpt lat="19.082837" lon="-97.306381">
        <ele>3591.628</ele>
        <time>2020-11-07T16:47:18Z</time>
      </trkpt>
      <trkpt lat="19.082827" lon="-97.306322">
        <ele>3592.160</ele>
        <time>2020-11-07T16:47:22Z</time>
      </trkpt>
      <trkpt lat="19.082823" lon="-97.306271">
        <ele>3588.886</ele>
        <time>2020-11-07T16:47:26Z</time>
      </trkpt>
      <trkpt lat="19.082844" lon="-97.30622">
        <ele>3588.440</ele>
        <time>2020-11-07T16:47:31Z</time>
      </trkpt>
      <trkpt lat="19.082872" lon="-97.306182">
        <ele>3589.417</ele>
        <time>2020-11-07T16:47:34Z</time>
      </trkpt>
      <trkpt lat="19.082909" lon="-97.306135">
        <ele>3590.446</ele>
        <time>2020-11-07T16:47:38Z</time>
      </trkpt>
      <trkpt lat="19.082927" lon="-97.306079">
        <ele>3591.827</ele>
        <time>2020-11-07T16:47:42Z</time>
      </trkpt>
      <trkpt lat="19.082942" lon="-97.30603">
        <ele>3594.268</ele>
        <time>2020-11-07T16:47:46Z</time>
      </trkpt>
      <trkpt lat="19.082949" lon="-97.305974">
        <ele>3596.114</ele>
        <time>2020-11-07T16:47:51Z</time>
      </trkpt>
      <trkpt lat="19.082959" lon="-97.305926">
        <ele>3599.608</ele>
        <time>2020-11-07T16:47:58Z</time>
      </trkpt>
      <trkpt lat="19.082992" lon="-97.305888">
        <ele>3601.778</ele>
        <time>2020-11-07T16:48:06Z</time>
      </trkpt>
      <trkpt lat="19.083022" lon="-97.305847">
        <ele>3603.092</ele>
        <time>2020-11-07T16:48:12Z</time>
      </trkpt>
      <trkpt lat="19.083064" lon="-97.305821">
        <ele>3603.852</ele>
        <time>2020-11-07T16:48:17Z</time>
      </trkpt>
      <trkpt lat="19.083112" lon="-97.305794">
        <ele>3605.114</ele>
        <time>2020-11-07T16:48:23Z</time>
      </trkpt>
      <trkpt lat="19.083154" lon="-97.305763">
        <ele>3606.380</ele>
        <time>2020-11-07T16:48:27Z</time>
      </trkpt>
      <trkpt lat="19.083194" lon="-97.305738">
        <ele>3609.424</ele>
        <time>2020-11-07T16:48:31Z</time>
      </trkpt>
      <trkpt lat="19.08323" lon="-97.305702">
        <ele>3613.441</ele>
        <time>2020-11-07T16:48:37Z</time>
      </trkpt>
      <trkpt lat="19.083273" lon="-97.30568">
        <ele>3617.490</ele>
        <time>2020-11-07T16:48:41Z</time>
      </trkpt>
      <trkpt lat="19.083316" lon="-97.305655">
        <ele>3621.418</ele>
        <time>2020-11-07T16:48:45Z</time>
      </trkpt>
      <trkpt lat="19.083354" lon="-97.305618">
        <ele>3623.798</ele>
        <time>2020-11-07T16:48:48Z</time>
      </trkpt>
      <trkpt lat="19.083395" lon="-97.305568">
        <ele>3626.317</ele>
        <time>2020-11-07T16:48:51Z</time>
      </trkpt>
      <trkpt lat="19.083424" lon="-97.305516">
        <ele>3628.608</ele>
        <time>2020-11-07T16:48:55Z</time>
      </trkpt>
      <trkpt lat="19.083443" lon="-97.305471">
        <ele>3630.477</ele>
        <time>2020-11-07T16:48:59Z</time>
      </trkpt>
      <trkpt lat="19.083468" lon="-97.30543">
        <ele>3631.951</ele>
        <time>2020-11-07T16:49:05Z</time>
      </trkpt>
      <trkpt lat="19.083504" lon="-97.305391">
        <ele>3632.441</ele>
        <time>2020-11-07T16:49:11Z</time>
      </trkpt>
      <trkpt lat="19.083526" lon="-97.305344">
        <ele>3634.733</ele>
        <time>2020-11-07T16:49:17Z</time>
      </trkpt>
      <trkpt lat="19.083549" lon="-97.3053">
        <ele>3636.589</ele>
        <time>2020-11-07T16:49:22Z</time>
      </trkpt>
      <trkpt lat="19.083585" lon="-97.305259">
        <ele>3637.293</ele>
        <time>2020-11-07T16:49:27Z</time>
      </trkpt>
      <trkpt lat="19.083623" lon="-97.305216">
        <ele>3636.870</ele>
        <time>2020-11-07T16:49:32Z</time>
      </trkpt>
      <trkpt lat="19.083652" lon="-97.305178">
        <ele>3636.679</ele>
        <time>2020-11-07T16:49:36Z</time>
      </trkpt>
      <trkpt lat="19.083691" lon="-97.305149">
        <ele>3636.541</ele>
        <time>2020-11-07T16:49:41Z</time>
      </trkpt>
      <trkpt lat="19.083733" lon="-97.305131">
        <ele>3636.481</ele>
        <time>2020-11-07T16:49:51Z</time>
      </trkpt>
      <trkpt lat="19.083775" lon="-97.30511">
        <ele>3636.309</ele>
        <time>2020-11-07T16:50:01Z</time>
      </trkpt>
      <trkpt lat="19.08382" lon="-97.305097">
        <ele>3636.308</ele>
        <time>2020-11-07T16:50:26Z</time>
      </trkpt>
      <trkpt lat="19.083851" lon="-97.305059">
        <ele>3636.390</ele>
        <time>2020-11-07T16:50:29Z</time>
      </trkpt>
      <trkpt lat="19.083886" lon="-97.305016">
        <ele>3636.384</ele>
        <time>2020-11-07T16:50:32Z</time>
      </trkpt>
      <trkpt lat="19.083936" lon="-97.304976">
        <ele>3636.394</ele>
        <time>2020-11-07T16:50:35Z</time>
      </trkpt>
      <trkpt lat="19.083993" lon="-97.304945">
        <ele>3636.356</ele>
        <time>2020-11-07T16:50:38Z</time>
      </trkpt>
      <trkpt lat="19.084044" lon="-97.304916">
        <ele>3636.392</ele>
        <time>2020-11-07T16:50:41Z</time>
      </trkpt>
      <trkpt lat="19.084088" lon="-97.304899">
        <ele>3636.326</ele>
        <time>2020-11-07T16:50:44Z</time>
      </trkpt>
      <trkpt lat="19.084137" lon="-97.30487">
        <ele>3636.353</ele>
        <time>2020-11-07T16:50:47Z</time>
      </trkpt>
      <trkpt lat="19.084184" lon="-97.304838">
        <ele>3636.332</ele>
        <time>2020-11-07T16:50:50Z</time>
      </trkpt>
      <trkpt lat="19.084234" lon="-97.30481">
        <ele>3636.377</ele>
        <time>2020-11-07T16:50:53Z</time>
      </trkpt>
      <trkpt lat="19.084263" lon="-97.304762">
        <ele>3636.361</ele>
        <time>2020-11-07T16:50:58Z</time>
      </trkpt>
      <trkpt lat="19.084283" lon="-97.304719">
        <ele>3636.327</ele>
        <time>2020-11-07T16:51:02Z</time>
      </trkpt>
      <trkpt lat="19.084313" lon="-97.304684">
        <ele>3636.308</ele>
        <time>2020-11-07T16:51:07Z</time>
      </trkpt>
      <trkpt lat="19.084353" lon="-97.304662">
        <ele>3636.383</ele>
        <time>2020-11-07T16:51:15Z</time>
      </trkpt>
      <trkpt lat="19.084401" lon="-97.304637">
        <ele>3636.337</ele>
        <time>2020-11-07T16:51:38Z</time>
      </trkpt>
      <trkpt lat="19.084445" lon="-97.304603">
        <ele>3636.377</ele>
        <time>2020-11-07T16:51:41Z</time>
      </trkpt>
      <trkpt lat="19.084493" lon="-97.304569">
        <ele>3636.369</ele>
        <time>2020-11-07T16:51:44Z</time>
      </trkpt>
      <trkpt lat="19.08453" lon="-97.304532">
        <ele>3636.395</ele>
        <time>2020-11-07T16:51:48Z</time>
      </trkpt>
      <trkpt lat="19.08456" lon="-97.304493">
        <ele>3636.329</ele>
        <time>2020-11-07T16:51:57Z</time>
      </trkpt>
      <trkpt lat="19.0846" lon="-97.304442">
        <ele>3636.386</ele>
        <time>2020-11-07T16:52:09Z</time>
      </trkpt>
      <trkpt lat="19.084645" lon="-97.304391">
        <ele>3636.365</ele>
        <time>2020-11-07T16:52:12Z</time>
      </trkpt>
      <trkpt lat="19.084683" lon="-97.304349">
        <ele>3635.137</ele>
        <time>2020-11-07T16:52:15Z</time>
      </trkpt>
      <trkpt lat="19.084707" lon="-97.304301">
        <ele>3634.449</ele>
        <time>2020-11-07T16:52:19Z</time>
      </trkpt>
      <trkpt lat="19.084742" lon="-97.30426">
        <ele>3634.013</ele>
        <time>2020-11-07T16:52:24Z</time>
      </trkpt>
      <trkpt lat="19.084769" lon="-97.304212">
        <ele>3633.708</ele>
        <time>2020-11-07T16:52:30Z</time>
      </trkpt>
      <trkpt lat="19.084807" lon="-97.304178">
        <ele>3633.519</ele>
        <time>2020-11-07T16:52:35Z</time>
      </trkpt>
      <trkpt lat="19.084853" lon="-97.304164">
        <ele>3637.523</ele>
        <time>2020-11-07T16:52:40Z</time>
      </trkpt>
      <trkpt lat="19.084892" lon="-97.304134">
        <ele>3641.573</ele>
        <time>2020-11-07T16:52:44Z</time>
      </trkpt>
      <trkpt lat="19.084909" lon="-97.304087">
        <ele>3645.595</ele>
        <time>2020-11-07T16:52:49Z</time>
      </trkpt>
      <trkpt lat="19.084939" lon="-97.30404">
        <ele>3649.551</ele>
        <time>2020-11-07T16:52:53Z</time>
      </trkpt>
      <trkpt lat="19.084974" lon="-97.304001">
        <ele>3653.095</ele>
        <time>2020-11-07T16:52:57Z</time>
      </trkpt>
      <trkpt lat="19.085017" lon="-97.30397">
        <ele>3655.192</ele>
        <time>2020-11-07T16:53:02Z</time>
      </trkpt>
      <trkpt lat="19.08502" lon="-97.303919">
        <ele>3657.661</ele>
        <time>2020-11-07T16:53:11Z</time>
      </trkpt>
      <trkpt lat="19.085052" lon="-97.303872">
        <ele>3658.356</ele>
        <time>2020-11-07T16:53:17Z</time>
      </trkpt>
      <trkpt lat="19.085098" lon="-97.303852">
        <ele>3659.159</ele>
        <time>2020-11-07T16:53:23Z</time>
      </trkpt>
      <trkpt lat="19.085113" lon="-97.303803">
        <ele>3660.414</ele>
        <time>2020-11-07T16:53:29Z</time>
      </trkpt>
      <trkpt lat="19.085108" lon="-97.303752">
        <ele>3660.008</ele>
        <time>2020-11-07T16:53:36Z</time>
      </trkpt>
      <trkpt lat="19.085107" lon="-97.303696">
        <ele>3661.741</ele>
        <time>2020-11-07T16:53:42Z</time>
      </trkpt>
      <trkpt lat="19.085143" lon="-97.303666">
        <ele>3662.745</ele>
        <time>2020-11-07T16:53:46Z</time>
      </trkpt>
      <trkpt lat="19.085189" lon="-97.303637">
        <ele>3663.365</ele>
        <time>2020-11-07T16:53:50Z</time>
      </trkpt>
      <trkpt lat="19.085229" lon="-97.303603">
        <ele>3663.797</ele>
        <time>2020-11-07T16:53:54Z</time>
      </trkpt>
      <trkpt lat="19.085262" lon="-97.303559">
        <ele>3663.973</ele>
        <time>2020-11-07T16:53:58Z</time>
      </trkpt>
      <trkpt lat="19.085288" lon="-97.303516">
        <ele>3663.637</ele>
        <time>2020-11-07T16:54:02Z</time>
      </trkpt>
      <trkpt lat="19.085309" lon="-97.303465">
        <ele>3663.844</ele>
        <time>2020-11-07T16:54:07Z</time>
      </trkpt>
      <trkpt lat="19.08533" lon="-97.303419">
        <ele>3665.943</ele>
        <time>2020-11-07T16:54:11Z</time>
      </trkpt>
      <trkpt lat="19.08536" lon="-97.303375">
        <ele>3667.628</ele>
        <time>2020-11-07T16:54:15Z</time>
      </trkpt>
      <trkpt lat="19.085391" lon="-97.303329">
        <ele>3669.489</ele>
        <time>2020-11-07T16:54:19Z</time>
      </trkpt>
      <trkpt lat="19.085408" lon="-97.303278">
        <ele>3670.917</ele>
        <time>2020-11-07T16:54:23Z</time>
      </trkpt>
      <trkpt lat="19.085421" lon="-97.303231">
        <ele>3671.808</ele>
        <time>2020-11-07T16:54:28Z</time>
      </trkpt>
      <trkpt lat="19.085419" lon="-97.303181">
        <ele>3672.378</ele>
        <time>2020-11-07T16:54:34Z</time>
      </trkpt>
      <trkpt lat="19.085418" lon="-97.30313">
        <ele>3672.662</ele>
        <time>2020-11-07T16:54:38Z</time>
      </trkpt>
      <trkpt lat="19.085412" lon="-97.30307">
        <ele>3673.672</ele>
        <time>2020-11-07T16:54:42Z</time>
      </trkpt>
      <trkpt lat="19.08542" lon="-97.30302">
        <ele>3673.854</ele>
        <time>2020-11-07T16:54:46Z</time>
      </trkpt>
      <trkpt lat="19.085424" lon="-97.302962">
        <ele>3674.760</ele>
        <time>2020-11-07T16:54:50Z</time>
      </trkpt>
      <trkpt lat="19.085411" lon="-97.302916">
        <ele>3675.324</ele>
        <time>2020-11-07T16:54:53Z</time>
      </trkpt>
      <trkpt lat="19.085385" lon="-97.302869">
        <ele>3675.271</ele>
        <time>2020-11-07T16:54:57Z</time>
      </trkpt>
      <trkpt lat="19.085372" lon="-97.302817">
        <ele>3675.680</ele>
        <time>2020-11-07T16:55:02Z</time>
      </trkpt>
      <trkpt lat="19.085364" lon="-97.30276">
        <ele>3676.257</ele>
        <time>2020-11-07T16:55:07Z</time>
      </trkpt>
      <trkpt lat="19.085346" lon="-97.302714">
        <ele>3675.400</ele>
        <time>2020-11-07T16:55:11Z</time>
      </trkpt>
      <trkpt lat="19.085336" lon="-97.302655">
        <ele>3675.320</ele>
        <time>2020-11-07T16:55:17Z</time>
      </trkpt>
      <trkpt lat="19.085338" lon="-97.302603">
        <ele>3675.208</ele>
        <time>2020-11-07T16:55:20Z</time>
      </trkpt>
      <trkpt lat="19.085334" lon="-97.30255">
        <ele>3675.241</ele>
        <time>2020-11-07T16:55:22Z</time>
      </trkpt>
      <trkpt lat="19.085319" lon="-97.302493">
        <ele>3674.885</ele>
        <time>2020-11-07T16:55:25Z</time>
      </trkpt>
      <trkpt lat="19.085304" lon="-97.302445">
        <ele>3674.515</ele>
        <time>2020-11-07T16:55:29Z</time>
      </trkpt>
      <trkpt lat="19.085263" lon="-97.302421">
        <ele>3675.997</ele>
        <time>2020-11-07T16:55:36Z</time>
      </trkpt>
      <trkpt lat="19.085217" lon="-97.30243">
        <ele>3678.033</ele>
        <time>2020-11-07T16:55:46Z</time>
      </trkpt>
      <trkpt lat="19.08517" lon="-97.302425">
        <ele>3677.647</ele>
        <time>2020-11-07T16:55:53Z</time>
      </trkpt>
      <trkpt lat="19.085148" lon="-97.302379">
        <ele>3677.434</ele>
        <time>2020-11-07T16:55:59Z</time>
      </trkpt>
      <trkpt lat="19.085113" lon="-97.302341">
        <ele>3677.393</ele>
        <time>2020-11-07T16:56:05Z</time>
      </trkpt>
      <trkpt lat="19.085068" lon="-97.302321">
        <ele>3676.036</ele>
        <time>2020-11-07T16:56:11Z</time>
      </trkpt>
      <trkpt lat="19.085011" lon="-97.302297">
        <ele>3674.817</ele>
        <time>2020-11-07T16:56:15Z</time>
      </trkpt>
      <trkpt lat="19.084953" lon="-97.302268">
        <ele>3674.518</ele>
        <time>2020-11-07T16:56:18Z</time>
      </trkpt>
      <trkpt lat="19.084902" lon="-97.302246">
        <ele>3674.708</ele>
        <time>2020-11-07T16:56:21Z</time>
      </trkpt>
      <trkpt lat="19.084852" lon="-97.302226">
        <ele>3675.659</ele>
        <time>2020-11-07T16:56:24Z</time>
      </trkpt>
      <trkpt lat="19.08481" lon="-97.302202">
        <ele>3676.623</ele>
        <time>2020-11-07T16:56:27Z</time>
      </trkpt>
      <trkpt lat="19.08477" lon="-97.302179">
        <ele>3678.493</ele>
        <time>2020-11-07T16:56:30Z</time>
      </trkpt>
      <trkpt lat="19.084718" lon="-97.302151">
        <ele>3679.995</ele>
        <time>2020-11-07T16:56:34Z</time>
      </trkpt>
      <trkpt lat="19.084681" lon="-97.302109">
        <ele>3680.881</ele>
        <time>2020-11-07T16:56:38Z</time>
      </trkpt>
      <trkpt lat="19.084653" lon="-97.302066">
        <ele>3680.935</ele>
        <time>2020-11-07T16:56:43Z</time>
      </trkpt>
      <trkpt lat="19.084609" lon="-97.30204">
        <ele>3680.212</ele>
        <time>2020-11-07T16:56:48Z</time>
      </trkpt>
      <trkpt lat="19.084565" lon="-97.302007">
        <ele>3680.211</ele>
        <time>2020-11-07T16:56:54Z</time>
      </trkpt>
      <trkpt lat="19.084533" lon="-97.301972">
        <ele>3679.432</ele>
        <time>2020-11-07T16:56:59Z</time>
      </trkpt>
      <trkpt lat="19.0845" lon="-97.301933">
        <ele>3680.592</ele>
        <time>2020-11-07T16:57:03Z</time>
      </trkpt>
      <trkpt lat="19.084454" lon="-97.301913">
        <ele>3681.211</ele>
        <time>2020-11-07T16:57:09Z</time>
      </trkpt>
      <trkpt lat="19.08441" lon="-97.301898">
        <ele>3681.608</ele>
        <time>2020-11-07T16:57:16Z</time>
      </trkpt>
      <trkpt lat="19.08436" lon="-97.30187">
        <ele>3680.269</ele>
        <time>2020-11-07T16:57:22Z</time>
      </trkpt>
      <trkpt lat="19.084312" lon="-97.301856">
        <ele>3681.093</ele>
        <time>2020-11-07T16:57:25Z</time>
      </trkpt>
      <trkpt lat="19.084261" lon="-97.301836">
        <ele>3682.333</ele>
        <time>2020-11-07T16:57:29Z</time>
      </trkpt>
      <trkpt lat="19.084236" lon="-97.301796">
        <ele>3683.145</ele>
        <time>2020-11-07T16:57:38Z</time>
      </trkpt>
      <trkpt lat="19.084185" lon="-97.301801">
        <ele>3683.671</ele>
        <time>2020-11-07T16:57:43Z</time>
      </trkpt>
      <trkpt lat="19.084134" lon="-97.301823">
        <ele>3683.565</ele>
        <time>2020-11-07T16:57:48Z</time>
      </trkpt>
      <trkpt lat="19.084089" lon="-97.301828">
        <ele>3683.892</ele>
        <time>2020-11-07T16:57:54Z</time>
      </trkpt>
      <trkpt lat="19.084042" lon="-97.301826">
        <ele>3684.481</ele>
        <time>2020-11-07T16:58:00Z</time>
      </trkpt>
      <trkpt lat="19.08399" lon="-97.301838">
        <ele>3686.098</ele>
        <time>2020-11-07T16:58:05Z</time>
      </trkpt>
      <trkpt lat="19.083942" lon="-97.30184">
        <ele>3687.715</ele>
        <time>2020-11-07T16:58:09Z</time>
      </trkpt>
      <trkpt lat="19.083895" lon="-97.301841">
        <ele>3687.926</ele>
        <time>2020-11-07T16:58:14Z</time>
      </trkpt>
      <trkpt lat="19.083843" lon="-97.301835">
        <ele>3688.008</ele>
        <time>2020-11-07T16:58:19Z</time>
      </trkpt>
      <trkpt lat="19.083796" lon="-97.301826">
        <ele>3688.165</ele>
        <time>2020-11-07T16:58:23Z</time>
      </trkpt>
      <trkpt lat="19.083745" lon="-97.301839">
        <ele>3688.229</ele>
        <time>2020-11-07T16:58:29Z</time>
      </trkpt>
      <trkpt lat="19.083696" lon="-97.301863">
        <ele>3687.899</ele>
        <time>2020-11-07T16:58:34Z</time>
      </trkpt>
      <trkpt lat="19.083644" lon="-97.301865">
        <ele>3689.621</ele>
        <time>2020-11-07T16:58:39Z</time>
      </trkpt>
      <trkpt lat="19.083594" lon="-97.301862">
        <ele>3690.757</ele>
        <time>2020-11-07T16:58:44Z</time>
      </trkpt>
      <trkpt lat="19.08355" lon="-97.301876">
        <ele>3691.381</ele>
        <time>2020-11-07T16:58:48Z</time>
      </trkpt>
      <trkpt lat="19.083507" lon="-97.301895">
        <ele>3691.738</ele>
        <time>2020-11-07T16:58:52Z</time>
      </trkpt>
      <trkpt lat="19.083454" lon="-97.301902">
        <ele>3691.997</ele>
        <time>2020-11-07T16:58:57Z</time>
      </trkpt>
      <trkpt lat="19.083403" lon="-97.301898">
        <ele>3694.811</ele>
        <time>2020-11-07T16:59:03Z</time>
      </trkpt>
      <trkpt lat="19.083356" lon="-97.301902">
        <ele>3696.621</ele>
        <time>2020-11-07T16:59:10Z</time>
      </trkpt>
      <trkpt lat="19.083308" lon="-97.301904">
        <ele>3697.703</ele>
        <time>2020-11-07T16:59:16Z</time>
      </trkpt>
      <trkpt lat="19.083255" lon="-97.30191">
        <ele>3698.308</ele>
        <time>2020-11-07T16:59:21Z</time>
      </trkpt>
      <trkpt lat="19.083197" lon="-97.301909">
        <ele>3698.737</ele>
        <time>2020-11-07T16:59:25Z</time>
      </trkpt>
      <trkpt lat="19.08314" lon="-97.301909">
        <ele>3694.711</ele>
        <time>2020-11-07T16:59:29Z</time>
      </trkpt>
      <trkpt lat="19.083108" lon="-97.301874">
        <ele>3691.741</ele>
        <time>2020-11-07T16:59:35Z</time>
      </trkpt>
      <trkpt lat="19.083074" lon="-97.30183">
        <ele>3693.533</ele>
        <time>2020-11-07T16:59:40Z</time>
      </trkpt>
      <trkpt lat="19.083058" lon="-97.301782">
        <ele>3695.839</ele>
        <time>2020-11-07T16:59:44Z</time>
      </trkpt>
      <trkpt lat="19.083066" lon="-97.301731">
        <ele>3698.883</ele>
        <time>2020-11-07T16:59:52Z</time>
      </trkpt>
      <trkpt lat="19.083092" lon="-97.301687">
        <ele>3699.440</ele>
        <time>2020-11-07T16:59:55Z</time>
      </trkpt>
      <trkpt lat="19.083111" lon="-97.301643">
        <ele>3701.099</ele>
        <time>2020-11-07T16:59:58Z</time>
      </trkpt>
      <trkpt lat="19.083114" lon="-97.301592">
        <ele>3701.957</ele>
        <time>2020-11-07T17:00:01Z</time>
      </trkpt>
      <trkpt lat="19.0831" lon="-97.301543">
        <ele>3704.500</ele>
        <time>2020-11-07T17:00:04Z</time>
      </trkpt>
      <trkpt lat="19.083084" lon="-97.301498">
        <ele>3706.820</ele>
        <time>2020-11-07T17:00:07Z</time>
      </trkpt>
      <trkpt lat="19.083063" lon="-97.301455">
        <ele>3708.208</ele>
        <time>2020-11-07T17:00:10Z</time>
      </trkpt>
      <trkpt lat="19.08304" lon="-97.301407">
        <ele>3709.031</ele>
        <time>2020-11-07T17:00:14Z</time>
      </trkpt>
      <trkpt lat="19.083034" lon="-97.301357">
        <ele>3709.515</ele>
        <time>2020-11-07T17:00:19Z</time>
      </trkpt>
      <trkpt lat="19.083045" lon="-97.301305">
        <ele>3709.015</ele>
        <time>2020-11-07T17:00:24Z</time>
      </trkpt>
      <trkpt lat="19.083062" lon="-97.301253">
        <ele>3709.567</ele>
        <time>2020-11-07T17:00:32Z</time>
      </trkpt>
      <trkpt lat="19.083071" lon="-97.301204">
        <ele>3709.473</ele>
        <time>2020-11-07T17:00:37Z</time>
      </trkpt>
      <trkpt lat="19.08306" lon="-97.30115">
        <ele>3710.967</ele>
        <time>2020-11-07T17:00:42Z</time>
      </trkpt>
      <trkpt lat="19.083032" lon="-97.301112">
        <ele>3711.454</ele>
        <time>2020-11-07T17:00:47Z</time>
      </trkpt>
      <trkpt lat="19.082984" lon="-97.301087">
        <ele>3711.793</ele>
        <time>2020-11-07T17:00:52Z</time>
      </trkpt>
      <trkpt lat="19.082943" lon="-97.301055">
        <ele>3713.573</ele>
        <time>2020-11-07T17:00:58Z</time>
      </trkpt>
      <trkpt lat="19.08293" lon="-97.301008">
        <ele>3715.485</ele>
        <time>2020-11-07T17:01:15Z</time>
      </trkpt>
      <trkpt lat="19.082883" lon="-97.301008">
        <ele>3717.313</ele>
        <time>2020-11-07T17:01:21Z</time>
      </trkpt>
      <trkpt lat="19.082838" lon="-97.301024">
        <ele>3718.508</ele>
        <time>2020-11-07T17:01:27Z</time>
      </trkpt>
      <trkpt lat="19.082807" lon="-97.300971">
        <ele>3719.273</ele>
        <time>2020-11-07T17:01:44Z</time>
      </trkpt>
      <trkpt lat="19.082792" lon="-97.300922">
        <ele>3719.627</ele>
        <time>2020-11-07T17:01:47Z</time>
      </trkpt>
      <trkpt lat="19.082775" lon="-97.300861">
        <ele>3720.697</ele>
        <time>2020-11-07T17:01:51Z</time>
      </trkpt>
      <trkpt lat="19.082764" lon="-97.300809">
        <ele>3722.089</ele>
        <time>2020-11-07T17:01:54Z</time>
      </trkpt>
      <trkpt lat="19.082752" lon="-97.300748">
        <ele>3722.175</ele>
        <time>2020-11-07T17:01:57Z</time>
      </trkpt>
      <trkpt lat="19.082737" lon="-97.300687">
        <ele>3722.959</ele>
        <time>2020-11-07T17:02:00Z</time>
      </trkpt>
      <trkpt lat="19.082726" lon="-97.300634">
        <ele>3723.466</ele>
        <time>2020-11-07T17:02:04Z</time>
      </trkpt>
      <trkpt lat="19.08273" lon="-97.300587">
        <ele>3722.995</ele>
        <time>2020-11-07T17:02:10Z</time>
      </trkpt>
      <trkpt lat="19.082739" lon="-97.30054">
        <ele>3722.627</ele>
        <time>2020-11-07T17:02:16Z</time>
      </trkpt>
      <trkpt lat="19.082743" lon="-97.300476">
        <ele>3722.468</ele>
        <time>2020-11-07T17:02:20Z</time>
      </trkpt>
      <trkpt lat="19.082736" lon="-97.300427">
        <ele>3722.314</ele>
        <time>2020-11-07T17:02:23Z</time>
      </trkpt>
      <trkpt lat="19.082724" lon="-97.300375">
        <ele>3722.208</ele>
        <time>2020-11-07T17:02:27Z</time>
      </trkpt>
      <trkpt lat="19.082704" lon="-97.300332">
        <ele>3722.278</ele>
        <time>2020-11-07T17:02:31Z</time>
      </trkpt>
      <trkpt lat="19.082681" lon="-97.300277">
        <ele>3723.442</ele>
        <time>2020-11-07T17:02:35Z</time>
      </trkpt>
      <trkpt lat="19.082661" lon="-97.300222">
        <ele>3725.752</ele>
        <time>2020-11-07T17:02:39Z</time>
      </trkpt>
      <trkpt lat="19.082636" lon="-97.300181">
        <ele>3727.184</ele>
        <time>2020-11-07T17:02:43Z</time>
      </trkpt>
      <trkpt lat="19.082611" lon="-97.300141">
        <ele>3728.360</ele>
        <time>2020-11-07T17:02:47Z</time>
      </trkpt>
      <trkpt lat="19.08259" lon="-97.300092">
        <ele>3729.444</ele>
        <time>2020-11-07T17:02:51Z</time>
      </trkpt>
      <trkpt lat="19.082564" lon="-97.300043">
        <ele>3730.561</ele>
        <time>2020-11-07T17:02:55Z</time>
      </trkpt>
      <trkpt lat="19.082547" lon="-97.29999">
        <ele>3731.990</ele>
        <time>2020-11-07T17:02:59Z</time>
      </trkpt>
      <trkpt lat="19.082531" lon="-97.299933">
        <ele>3732.036</ele>
        <time>2020-11-07T17:03:03Z</time>
      </trkpt>
      <trkpt lat="19.082521" lon="-97.299886">
        <ele>3732.017</ele>
        <time>2020-11-07T17:03:06Z</time>
      </trkpt>
      <trkpt lat="19.0825" lon="-97.299842">
        <ele>3732.818</ele>
        <time>2020-11-07T17:03:10Z</time>
      </trkpt>
      <trkpt lat="19.08247" lon="-97.299802">
        <ele>3733.308</ele>
        <time>2020-11-07T17:03:14Z</time>
      </trkpt>
      <trkpt lat="19.082439" lon="-97.299765">
        <ele>3734.079</ele>
        <time>2020-11-07T17:03:20Z</time>
      </trkpt>
      <trkpt lat="19.082409" lon="-97.299724">
        <ele>3735.233</ele>
        <time>2020-11-07T17:03:26Z</time>
      </trkpt>
      <trkpt lat="19.082392" lon="-97.299676">
        <ele>3735.573</ele>
        <time>2020-11-07T17:03:31Z</time>
      </trkpt>
      <trkpt lat="19.082381" lon="-97.299625">
        <ele>3735.345</ele>
        <time>2020-11-07T17:03:36Z</time>
      </trkpt>
      <trkpt lat="19.082378" lon="-97.29957">
        <ele>3735.661</ele>
        <time>2020-11-07T17:03:45Z</time>
      </trkpt>
      <trkpt lat="19.082368" lon="-97.299511">
        <ele>3735.475</ele>
        <time>2020-11-07T17:03:50Z</time>
      </trkpt>
      <trkpt lat="19.082337" lon="-97.29946">
        <ele>3735.342</ele>
        <time>2020-11-07T17:03:54Z</time>
      </trkpt>
      <trkpt lat="19.082304" lon="-97.29942">
        <ele>3736.061</ele>
        <time>2020-11-07T17:03:57Z</time>
      </trkpt>
      <trkpt lat="19.082262" lon="-97.299386">
        <ele>3738.013</ele>
        <time>2020-11-07T17:04:01Z</time>
      </trkpt>
      <trkpt lat="19.08222" lon="-97.299358">
        <ele>3738.043</ele>
        <time>2020-11-07T17:04:06Z</time>
      </trkpt>
      <trkpt lat="19.082187" lon="-97.29932">
        <ele>3738.007</ele>
        <time>2020-11-07T17:04:10Z</time>
      </trkpt>
      <trkpt lat="19.082156" lon="-97.299284">
        <ele>3739.208</ele>
        <time>2020-11-07T17:04:13Z</time>
      </trkpt>
      <trkpt lat="19.082126" lon="-97.299247">
        <ele>3739.997</ele>
        <time>2020-11-07T17:04:16Z</time>
      </trkpt>
      <trkpt lat="19.082094" lon="-97.299205">
        <ele>3739.111</ele>
        <time>2020-11-07T17:04:20Z</time>
      </trkpt>
      <trkpt lat="19.082065" lon="-97.299153">
        <ele>3739.051</ele>
        <time>2020-11-07T17:04:25Z</time>
      </trkpt>
      <trkpt lat="19.082047" lon="-97.299106">
        <ele>3738.673</ele>
        <time>2020-11-07T17:04:29Z</time>
      </trkpt>
      <trkpt lat="19.082038" lon="-97.299058">
        <ele>3738.739</ele>
        <time>2020-11-07T17:04:33Z</time>
      </trkpt>
      <trkpt lat="19.082017" lon="-97.299012">
        <ele>3740.013</ele>
        <time>2020-11-07T17:04:37Z</time>
      </trkpt>
      <trkpt lat="19.081972" lon="-97.29899">
        <ele>3740.860</ele>
        <time>2020-11-07T17:04:41Z</time>
      </trkpt>
      <trkpt lat="19.081921" lon="-97.298965">
        <ele>3741.379</ele>
        <time>2020-11-07T17:04:45Z</time>
      </trkpt>
      <trkpt lat="19.081884" lon="-97.298928">
        <ele>3741.629</ele>
        <time>2020-11-07T17:04:51Z</time>
      </trkpt>
      <trkpt lat="19.081876" lon="-97.298875">
        <ele>3741.800</ele>
        <time>2020-11-07T17:04:57Z</time>
      </trkpt>
      <trkpt lat="19.081854" lon="-97.298831">
        <ele>3741.920</ele>
        <time>2020-11-07T17:05:05Z</time>
      </trkpt>
      <trkpt lat="19.081856" lon="-97.298783">
        <ele>3742.008</ele>
        <time>2020-11-07T17:05:12Z</time>
      </trkpt>
      <trkpt lat="19.081867" lon="-97.298735">
        <ele>3743.248</ele>
        <time>2020-11-07T17:05:16Z</time>
      </trkpt>
      <trkpt lat="19.081878" lon="-97.298684">
        <ele>3743.512</ele>
        <time>2020-11-07T17:05:22Z</time>
      </trkpt>
      <trkpt lat="19.081878" lon="-97.298635">
        <ele>3742.992</ele>
        <time>2020-11-07T17:05:29Z</time>
      </trkpt>
      <trkpt lat="19.081883" lon="-97.298573">
        <ele>3742.914</ele>
        <time>2020-11-07T17:05:33Z</time>
      </trkpt>
      <trkpt lat="19.081881" lon="-97.298515">
        <ele>3742.960</ele>
        <time>2020-11-07T17:05:37Z</time>
      </trkpt>
      <trkpt lat="19.081872" lon="-97.298463">
        <ele>3744.114</ele>
        <time>2020-11-07T17:05:41Z</time>
      </trkpt>
      <trkpt lat="19.081862" lon="-97.298407">
        <ele>3745.281</ele>
        <time>2020-11-07T17:05:45Z</time>
      </trkpt>
      <trkpt lat="19.08186" lon="-97.298349">
        <ele>3745.910</ele>
        <time>2020-11-07T17:05:49Z</time>
      </trkpt>
      <trkpt lat="19.081859" lon="-97.298292">
        <ele>3747.544</ele>
        <time>2020-11-07T17:05:53Z</time>
      </trkpt>
      <trkpt lat="19.081854" lon="-97.298239">
        <ele>3748.105</ele>
        <time>2020-11-07T17:05:57Z</time>
      </trkpt>
      <trkpt lat="19.08185" lon="-97.298188">
        <ele>3748.415</ele>
        <time>2020-11-07T17:06:01Z</time>
      </trkpt>
      <trkpt lat="19.08184" lon="-97.298141">
        <ele>3750.608</ele>
        <time>2020-11-07T17:06:06Z</time>
      </trkpt>
      <trkpt lat="19.081835" lon="-97.298082">
        <ele>3752.380</ele>
        <time>2020-11-07T17:06:11Z</time>
      </trkpt>
      <trkpt lat="19.081827" lon="-97.29803">
        <ele>3754.594</ele>
        <time>2020-11-07T17:06:15Z</time>
      </trkpt>
      <trkpt lat="19.081807" lon="-97.297978">
        <ele>3755.454</ele>
        <time>2020-11-07T17:06:19Z</time>
      </trkpt>
      <trkpt lat="19.081766" lon="-97.297937">
        <ele>3754.076</ele>
        <time>2020-11-07T17:06:22Z</time>
      </trkpt>
      <trkpt lat="19.081741" lon="-97.29789">
        <ele>3752.322</ele>
        <time>2020-11-07T17:06:27Z</time>
      </trkpt>
      <trkpt lat="19.081712" lon="-97.297851">
        <ele>3751.336</ele>
        <time>2020-11-07T17:06:34Z</time>
      </trkpt>
      <trkpt lat="19.081704" lon="-97.297799">
        <ele>3751.563</ele>
        <time>2020-11-07T17:06:39Z</time>
      </trkpt>
      <trkpt lat="19.081716" lon="-97.297744">
        <ele>3751.272</ele>
        <time>2020-11-07T17:06:43Z</time>
      </trkpt>
      <trkpt lat="19.081727" lon="-97.297686">
        <ele>3752.259</ele>
        <time>2020-11-07T17:06:47Z</time>
      </trkpt>
      <trkpt lat="19.081721" lon="-97.297638">
        <ele>3754.403</ele>
        <time>2020-11-07T17:06:52Z</time>
      </trkpt>
      <trkpt lat="19.081703" lon="-97.297589">
        <ele>3754.523</ele>
        <time>2020-11-07T17:06:58Z</time>
      </trkpt>
      <trkpt lat="19.081681" lon="-97.297536">
        <ele>3755.008</ele>
        <time>2020-11-07T17:07:03Z</time>
      </trkpt>
      <trkpt lat="19.081681" lon="-97.297487">
        <ele>3755.721</ele>
        <time>2020-11-07T17:07:08Z</time>
      </trkpt>
      <trkpt lat="19.081697" lon="-97.297435">
        <ele>3755.365</ele>
        <time>2020-11-07T17:07:15Z</time>
      </trkpt>
      <trkpt lat="19.081708" lon="-97.297381">
        <ele>3754.785</ele>
        <time>2020-11-07T17:07:21Z</time>
      </trkpt>
      <trkpt lat="19.081708" lon="-97.297331">
        <ele>3754.357</ele>
        <time>2020-11-07T17:07:25Z</time>
      </trkpt>
      <trkpt lat="19.081705" lon="-97.297278">
        <ele>3754.583</ele>
        <time>2020-11-07T17:07:29Z</time>
      </trkpt>
      <trkpt lat="19.081696" lon="-97.297222">
        <ele>3754.687</ele>
        <time>2020-11-07T17:07:34Z</time>
      </trkpt>
      <trkpt lat="19.08168" lon="-97.297173">
        <ele>3755.514</ele>
        <time>2020-11-07T17:07:40Z</time>
      </trkpt>
      <trkpt lat="19.081643" lon="-97.297132">
        <ele>3756.043</ele>
        <time>2020-11-07T17:07:47Z</time>
      </trkpt>
      <trkpt lat="19.081622" lon="-97.297088">
        <ele>3755.946</ele>
        <time>2020-11-07T17:07:50Z</time>
      </trkpt>
      <trkpt lat="19.081613" lon="-97.297035">
        <ele>3755.888</ele>
        <time>2020-11-07T17:07:54Z</time>
      </trkpt>
      <trkpt lat="19.081607" lon="-97.296988">
        <ele>3755.816</ele>
        <time>2020-11-07T17:07:57Z</time>
      </trkpt>
      <trkpt lat="19.081601" lon="-97.296937">
        <ele>3755.808</ele>
        <time>2020-11-07T17:08:00Z</time>
      </trkpt>
      <trkpt lat="19.0816" lon="-97.296888">
        <ele>3755.850</ele>
        <time>2020-11-07T17:08:04Z</time>
      </trkpt>
      <trkpt lat="19.081616" lon="-97.296839">
        <ele>3755.864</ele>
        <time>2020-11-07T17:08:08Z</time>
      </trkpt>
      <trkpt lat="19.081621" lon="-97.296789">
        <ele>3755.864</ele>
        <time>2020-11-07T17:08:12Z</time>
      </trkpt>
      <trkpt lat="19.081617" lon="-97.296739">
        <ele>3757.876</ele>
        <time>2020-11-07T17:08:16Z</time>
      </trkpt>
      <trkpt lat="19.081611" lon="-97.296688">
        <ele>3759.882</ele>
        <time>2020-11-07T17:08:20Z</time>
      </trkpt>
      <trkpt lat="19.081611" lon="-97.296631">
        <ele>3762.636</ele>
        <time>2020-11-07T17:08:25Z</time>
      </trkpt>
      <trkpt lat="19.0816" lon="-97.296575">
        <ele>3765.173</ele>
        <time>2020-11-07T17:08:30Z</time>
      </trkpt>
      <trkpt lat="19.081587" lon="-97.296527">
        <ele>3765.832</ele>
        <time>2020-11-07T17:08:36Z</time>
      </trkpt>
      <trkpt lat="19.081575" lon="-97.296478">
        <ele>3766.651</ele>
        <time>2020-11-07T17:08:41Z</time>
      </trkpt>
      <trkpt lat="19.081565" lon="-97.296425">
        <ele>3767.501</ele>
        <time>2020-11-07T17:08:46Z</time>
      </trkpt>
      <trkpt lat="19.081545" lon="-97.29637">
        <ele>3765.611</ele>
        <time>2020-11-07T17:08:51Z</time>
      </trkpt>
      <trkpt lat="19.081533" lon="-97.296323">
        <ele>3766.108</ele>
        <time>2020-11-07T17:08:55Z</time>
      </trkpt>
      <trkpt lat="19.081528" lon="-97.296273">
        <ele>3766.851</ele>
        <time>2020-11-07T17:08:59Z</time>
      </trkpt>
      <trkpt lat="19.081529" lon="-97.296223">
        <ele>3767.295</ele>
        <time>2020-11-07T17:09:03Z</time>
      </trkpt>
      <trkpt lat="19.081526" lon="-97.29617">
        <ele>3769.435</ele>
        <time>2020-11-07T17:09:07Z</time>
      </trkpt>
      <trkpt lat="19.081513" lon="-97.296115">
        <ele>3770.797</ele>
        <time>2020-11-07T17:09:12Z</time>
      </trkpt>
      <trkpt lat="19.08151" lon="-97.296059">
        <ele>3770.763</ele>
        <time>2020-11-07T17:09:18Z</time>
      </trkpt>
      <trkpt lat="19.081501" lon="-97.29601">
        <ele>3770.327</ele>
        <time>2020-11-07T17:09:23Z</time>
      </trkpt>
      <trkpt lat="19.081488" lon="-97.295963">
        <ele>3770.144</ele>
        <time>2020-11-07T17:09:27Z</time>
      </trkpt>
      <trkpt lat="19.081454" lon="-97.295919">
        <ele>3770.053</ele>
        <time>2020-11-07T17:09:32Z</time>
      </trkpt>
      <trkpt lat="19.08141" lon="-97.295884">
        <ele>3769.927</ele>
        <time>2020-11-07T17:09:37Z</time>
      </trkpt>
      <trkpt lat="19.081376" lon="-97.295839">
        <ele>3769.868</ele>
        <time>2020-11-07T17:09:42Z</time>
      </trkpt>
      <trkpt lat="19.08135" lon="-97.295793">
        <ele>3769.814</ele>
        <time>2020-11-07T17:09:48Z</time>
      </trkpt>
      <trkpt lat="19.081335" lon="-97.295747">
        <ele>3771.408</ele>
        <time>2020-11-07T17:09:57Z</time>
      </trkpt>
      <trkpt lat="19.081322" lon="-97.295694">
        <ele>3773.568</ele>
        <time>2020-11-07T17:10:07Z</time>
      </trkpt>
      <trkpt lat="19.081308" lon="-97.295643">
        <ele>3775.692</ele>
        <time>2020-11-07T17:10:10Z</time>
      </trkpt>
      <trkpt lat="19.081288" lon="-97.295589">
        <ele>3776.542</ele>
        <time>2020-11-07T17:10:14Z</time>
      </trkpt>
      <trkpt lat="19.081254" lon="-97.295545">
        <ele>3777.064</ele>
        <time>2020-11-07T17:10:19Z</time>
      </trkpt>
      <trkpt lat="19.081226" lon="-97.295506">
        <ele>3777.360</ele>
        <time>2020-11-07T17:10:23Z</time>
      </trkpt>
      <trkpt lat="19.081188" lon="-97.295473">
        <ele>3777.594</ele>
        <time>2020-11-07T17:10:28Z</time>
      </trkpt>
      <trkpt lat="19.081144" lon="-97.295452">
        <ele>3777.621</ele>
        <time>2020-11-07T17:10:35Z</time>
      </trkpt>
      <trkpt lat="19.081097" lon="-97.29543">
        <ele>3778.910</ele>
        <time>2020-11-07T17:10:42Z</time>
      </trkpt>
      <trkpt lat="19.08106" lon="-97.2954">
        <ele>3780.578</ele>
        <time>2020-11-07T17:10:48Z</time>
      </trkpt>
      <trkpt lat="19.08101" lon="-97.295389">
        <ele>3781.433</ele>
        <time>2020-11-07T17:10:56Z</time>
      </trkpt>
      <trkpt lat="19.08098" lon="-97.295347">
        <ele>3782.026</ele>
        <time>2020-11-07T17:11:01Z</time>
      </trkpt>
      <trkpt lat="19.08096" lon="-97.295292">
        <ele>3784.308</ele>
        <time>2020-11-07T17:11:05Z</time>
      </trkpt>
      <trkpt lat="19.08094" lon="-97.295249">
        <ele>3785.743</ele>
        <time>2020-11-07T17:11:09Z</time>
      </trkpt>
      <trkpt lat="19.080921" lon="-97.295195">
        <ele>3787.787</ele>
        <time>2020-11-07T17:11:14Z</time>
      </trkpt>
      <trkpt lat="19.080877" lon="-97.295174">
        <ele>3786.977</ele>
        <time>2020-11-07T17:11:25Z</time>
      </trkpt>
      <trkpt lat="19.080842" lon="-97.295137">
        <ele>3786.489</ele>
        <time>2020-11-07T17:11:33Z</time>
      </trkpt>
      <trkpt lat="19.080804" lon="-97.295104">
        <ele>3787.375</ele>
        <time>2020-11-07T17:11:39Z</time>
      </trkpt>
      <trkpt lat="19.080758" lon="-97.295082">
        <ele>3789.199</ele>
        <time>2020-11-07T17:11:44Z</time>
      </trkpt>
      <trkpt lat="19.080715" lon="-97.295066">
        <ele>3789.816</ele>
        <time>2020-11-07T17:11:48Z</time>
      </trkpt>
      <trkpt lat="19.080667" lon="-97.295039">
        <ele>3791.415</ele>
        <time>2020-11-07T17:11:53Z</time>
      </trkpt>
      <trkpt lat="19.080627" lon="-97.295016">
        <ele>3794.086</ele>
        <time>2020-11-07T17:11:57Z</time>
      </trkpt>
      <trkpt lat="19.080583" lon="-97.295003">
        <ele>3796.360</ele>
        <time>2020-11-07T17:12:01Z</time>
      </trkpt>
      <trkpt lat="19.080538" lon="-97.294994">
        <ele>3798.526</ele>
        <time>2020-11-07T17:12:05Z</time>
      </trkpt>
      <trkpt lat="19.080495" lon="-97.294973">
        <ele>3799.808</ele>
        <time>2020-11-07T17:12:10Z</time>
      </trkpt>
      <trkpt lat="19.080461" lon="-97.294938">
        <ele>3800.614</ele>
        <time>2020-11-07T17:12:15Z</time>
      </trkpt>
      <trkpt lat="19.08043" lon="-97.294892">
        <ele>3801.198</ele>
        <time>2020-11-07T17:12:21Z</time>
      </trkpt>
      <trkpt lat="19.080391" lon="-97.294867">
        <ele>3803.078</ele>
        <time>2020-11-07T17:12:27Z</time>
      </trkpt>
      <trkpt lat="19.080347" lon="-97.294846">
        <ele>3805.330</ele>
        <time>2020-11-07T17:12:32Z</time>
      </trkpt>
      <trkpt lat="19.080313" lon="-97.294814">
        <ele>3806.376</ele>
        <time>2020-11-07T17:12:35Z</time>
      </trkpt>
      <trkpt lat="19.080284" lon="-97.294771">
        <ele>3806.960</ele>
        <time>2020-11-07T17:12:39Z</time>
      </trkpt>
      <trkpt lat="19.080257" lon="-97.29473">
        <ele>3808.597</ele>
        <time>2020-11-07T17:12:44Z</time>
      </trkpt>
      <trkpt lat="19.080223" lon="-97.294697">
        <ele>3809.416</ele>
        <time>2020-11-07T17:12:49Z</time>
      </trkpt>
      <trkpt lat="19.080174" lon="-97.294707">
        <ele>3810.081</ele>
        <time>2020-11-07T17:13:08Z</time>
      </trkpt>
      <trkpt lat="19.080127" lon="-97.294703">
        <ele>3811.161</ele>
        <time>2020-11-07T17:13:20Z</time>
      </trkpt>
      <trkpt lat="19.080078" lon="-97.294703">
        <ele>3811.817</ele>
        <time>2020-11-07T17:13:25Z</time>
      </trkpt>
      <trkpt lat="19.08003" lon="-97.294706">
        <ele>3813.808</ele>
        <time>2020-11-07T17:13:30Z</time>
      </trkpt>
      <trkpt lat="19.079985" lon="-97.294707">
        <ele>3814.654</ele>
        <time>2020-11-07T17:13:35Z</time>
      </trkpt>
      <trkpt lat="19.079942" lon="-97.294728">
        <ele>3816.318</ele>
        <time>2020-11-07T17:13:39Z</time>
      </trkpt>
      <trkpt lat="19.079899" lon="-97.294747">
        <ele>3816.538</ele>
        <time>2020-11-07T17:13:44Z</time>
      </trkpt>
      <trkpt lat="19.079851" lon="-97.294763">
        <ele>3817.490</ele>
        <time>2020-11-07T17:13:52Z</time>
      </trkpt>
      <trkpt lat="19.079466" lon="-97.294788">
        <ele>3824.686</ele>
        <time>2020-11-07T17:14:40Z</time>
      </trkpt>
      <trkpt lat="19.079413" lon="-97.2948">
        <ele>3824.660</ele>
        <time>2020-11-07T17:15:18Z</time>
      </trkpt>
      <trkpt lat="19.079366" lon="-97.2948">
        <ele>3820.687</ele>
        <time>2020-11-07T17:15:20Z</time>
      </trkpt>
      <trkpt lat="19.0793" lon="-97.294797">
        <ele>3816.676</ele>
        <time>2020-11-07T17:15:23Z</time>
      </trkpt>
      <trkpt lat="19.079252" lon="-97.294802">
        <ele>3815.046</ele>
        <time>2020-11-07T17:15:26Z</time>
      </trkpt>
      <trkpt lat="19.079196" lon="-97.294803">
        <ele>3814.488</ele>
        <time>2020-11-07T17:15:30Z</time>
      </trkpt>
      <trkpt lat="19.079147" lon="-97.294781">
        <ele>3813.316</ele>
        <time>2020-11-07T17:15:34Z</time>
      </trkpt>
      <trkpt lat="19.079113" lon="-97.294742">
        <ele>3814.608</ele>
        <time>2020-11-07T17:15:40Z</time>
      </trkpt>
      <trkpt lat="19.079094" lon="-97.294694">
        <ele>3815.840</ele>
        <time>2020-11-07T17:15:46Z</time>
      </trkpt>
      <trkpt lat="19.079069" lon="-97.294643">
        <ele>3816.574</ele>
        <time>2020-11-07T17:15:52Z</time>
      </trkpt>
      <trkpt lat="19.079035" lon="-97.294604">
        <ele>3817.354</ele>
        <time>2020-11-07T17:15:58Z</time>
      </trkpt>
      <trkpt lat="19.079025" lon="-97.294556">
        <ele>3818.636</ele>
        <time>2020-11-07T17:16:04Z</time>
      </trkpt>
      <trkpt lat="19.079021" lon="-97.294506">
        <ele>3821.412</ele>
        <time>2020-11-07T17:16:22Z</time>
      </trkpt>
      <trkpt lat="19.079" lon="-97.294462">
        <ele>3823.126</ele>
        <time>2020-11-07T17:16:29Z</time>
      </trkpt>
      <trkpt lat="19.079004" lon="-97.2944">
        <ele>3825.783</ele>
        <time>2020-11-07T17:16:35Z</time>
      </trkpt>
      <trkpt lat="19.078983" lon="-97.294343">
        <ele>3828.182</ele>
        <time>2020-11-07T17:16:38Z</time>
      </trkpt>
      <trkpt lat="19.078951" lon="-97.294291">
        <ele>3829.969</ele>
        <time>2020-11-07T17:16:41Z</time>
      </trkpt>
      <trkpt lat="19.078924" lon="-97.294245">
        <ele>3831.404</ele>
        <time>2020-11-07T17:16:44Z</time>
      </trkpt>
      <trkpt lat="19.078898" lon="-97.294206">
        <ele>3831.524</ele>
        <time>2020-11-07T17:16:47Z</time>
      </trkpt>
      <trkpt lat="19.078892" lon="-97.294155">
        <ele>3834.008</ele>
        <time>2020-11-07T17:16:52Z</time>
      </trkpt>
      <trkpt lat="19.078895" lon="-97.294105">
        <ele>3834.342</ele>
        <time>2020-11-07T17:16:58Z</time>
      </trkpt>
      <trkpt lat="19.078872" lon="-97.294063">
        <ele>3834.526</ele>
        <time>2020-11-07T17:17:04Z</time>
      </trkpt>
      <trkpt lat="19.078832" lon="-97.294037">
        <ele>3834.646</ele>
        <time>2020-11-07T17:17:08Z</time>
      </trkpt>
      <trkpt lat="19.078781" lon="-97.294031">
        <ele>3834.788</ele>
        <time>2020-11-07T17:17:13Z</time>
      </trkpt>
      <trkpt lat="19.078736" lon="-97.294041">
        <ele>3834.774</ele>
        <time>2020-11-07T17:17:20Z</time>
      </trkpt>
      <trkpt lat="19.07869" lon="-97.294023">
        <ele>3834.788</ele>
        <time>2020-11-07T17:17:42Z</time>
      </trkpt>
      <trkpt lat="19.078641" lon="-97.29402">
        <ele>3835.945</ele>
        <time>2020-11-07T17:17:46Z</time>
      </trkpt>
      <trkpt lat="19.078587" lon="-97.294019">
        <ele>3837.454</ele>
        <time>2020-11-07T17:17:50Z</time>
      </trkpt>
      <trkpt lat="19.078534" lon="-97.294023">
        <ele>3837.924</ele>
        <time>2020-11-07T17:17:54Z</time>
      </trkpt>
      <trkpt lat="19.078486" lon="-97.294022">
        <ele>3839.404</ele>
        <time>2020-11-07T17:17:58Z</time>
      </trkpt>
      <trkpt lat="19.078455" lon="-97.294066">
        <ele>3841.914</ele>
        <time>2020-11-07T17:18:03Z</time>
      </trkpt>
      <trkpt lat="19.078409" lon="-97.29407">
        <ele>3842.208</ele>
        <time>2020-11-07T17:18:17Z</time>
      </trkpt>
      <trkpt lat="19.078355" lon="-97.294074">
        <ele>3841.278</ele>
        <time>2020-11-07T17:18:26Z</time>
      </trkpt>
      <trkpt lat="19.078309" lon="-97.294074">
        <ele>3839.882</ele>
        <time>2020-11-07T17:18:29Z</time>
      </trkpt>
      <trkpt lat="19.078256" lon="-97.294068">
        <ele>3838.642</ele>
        <time>2020-11-07T17:18:32Z</time>
      </trkpt>
      <trkpt lat="19.078208" lon="-97.294076">
        <ele>3840.314</ele>
        <time>2020-11-07T17:18:35Z</time>
      </trkpt>
      <trkpt lat="19.078152" lon="-97.294076">
        <ele>3841.760</ele>
        <time>2020-11-07T17:18:38Z</time>
      </trkpt>
      <trkpt lat="19.0781" lon="-97.294073">
        <ele>3842.984</ele>
        <time>2020-11-07T17:18:42Z</time>
      </trkpt>
      <trkpt lat="19.078055" lon="-97.294054">
        <ele>3843.621</ele>
        <time>2020-11-07T17:18:49Z</time>
      </trkpt>
      <trkpt lat="19.078016" lon="-97.294018">
        <ele>3844.090</ele>
        <time>2020-11-07T17:18:55Z</time>
      </trkpt>
      <trkpt lat="19.077981" lon="-97.293981">
        <ele>3844.311</ele>
        <time>2020-11-07T17:19:00Z</time>
      </trkpt>
      <trkpt lat="19.077935" lon="-97.293953">
        <ele>3844.521</ele>
        <time>2020-11-07T17:19:08Z</time>
      </trkpt>
      <trkpt lat="19.077901" lon="-97.293922">
        <ele>3848.203</ele>
        <time>2020-11-07T17:19:28Z</time>
      </trkpt>
      <trkpt lat="19.077854" lon="-97.29392">
        <ele>3847.608</ele>
        <time>2020-11-07T17:19:34Z</time>
      </trkpt>
      <trkpt lat="19.077805" lon="-97.293911">
        <ele>3847.327</ele>
        <time>2020-11-07T17:19:38Z</time>
      </trkpt>
      <trkpt lat="19.077759" lon="-97.293901">
        <ele>3850.761</ele>
        <time>2020-11-07T17:19:42Z</time>
      </trkpt>
      <trkpt lat="19.077705" lon="-97.293891">
        <ele>3853.171</ele>
        <time>2020-11-07T17:19:47Z</time>
      </trkpt>
      <trkpt lat="19.077659" lon="-97.29388">
        <ele>3855.433</ele>
        <time>2020-11-07T17:19:52Z</time>
      </trkpt>
      <trkpt lat="19.077613" lon="-97.293871">
        <ele>3856.099</ele>
        <time>2020-11-07T17:19:57Z</time>
      </trkpt>
      <trkpt lat="19.077562" lon="-97.293866">
        <ele>3856.343</ele>
        <time>2020-11-07T17:20:03Z</time>
      </trkpt>
      <trkpt lat="19.077518" lon="-97.293851">
        <ele>3856.140</ele>
        <time>2020-11-07T17:20:08Z</time>
      </trkpt>
      <trkpt lat="19.077469" lon="-97.293832">
        <ele>3856.069</ele>
        <time>2020-11-07T17:20:12Z</time>
      </trkpt>
      <trkpt lat="19.077419" lon="-97.293815">
        <ele>3856.762</ele>
        <time>2020-11-07T17:20:16Z</time>
      </trkpt>
      <trkpt lat="19.077369" lon="-97.293792">
        <ele>3858.383</ele>
        <time>2020-11-07T17:20:20Z</time>
      </trkpt>
      <trkpt lat="19.077321" lon="-97.293762">
        <ele>3858.511</ele>
        <time>2020-11-07T17:20:24Z</time>
      </trkpt>
      <trkpt lat="19.077282" lon="-97.293729">
        <ele>3859.808</ele>
        <time>2020-11-07T17:20:28Z</time>
      </trkpt>
      <trkpt lat="19.077248" lon="-97.293685">
        <ele>3861.092</ele>
        <time>2020-11-07T17:20:32Z</time>
      </trkpt>
      <trkpt lat="19.077218" lon="-97.29364">
        <ele>3862.186</ele>
        <time>2020-11-07T17:20:36Z</time>
      </trkpt>
      <trkpt lat="19.07719" lon="-97.293603">
        <ele>3862.826</ele>
        <time>2020-11-07T17:20:40Z</time>
      </trkpt>
      <trkpt lat="19.077154" lon="-97.293566">
        <ele>3864.418</ele>
        <time>2020-11-07T17:20:44Z</time>
      </trkpt>
      <trkpt lat="19.07712" lon="-97.293526">
        <ele>3862.224</ele>
        <time>2020-11-07T17:20:48Z</time>
      </trkpt>
      <trkpt lat="19.077086" lon="-97.293474">
        <ele>3862.158</ele>
        <time>2020-11-07T17:20:52Z</time>
      </trkpt>
      <trkpt lat="19.07706" lon="-97.29342">
        <ele>3862.895</ele>
        <time>2020-11-07T17:20:56Z</time>
      </trkpt>
      <trkpt lat="19.077035" lon="-97.293373">
        <ele>3862.874</ele>
        <time>2020-11-07T17:20:59Z</time>
      </trkpt>
      <trkpt lat="19.077007" lon="-97.293331">
        <ele>3863.655</ele>
        <time>2020-11-07T17:21:02Z</time>
      </trkpt>
      <trkpt lat="19.076981" lon="-97.293291">
        <ele>3864.107</ele>
        <time>2020-11-07T17:21:06Z</time>
      </trkpt>
      <trkpt lat="19.076941" lon="-97.293266">
        <ele>3864.417</ele>
        <time>2020-11-07T17:21:11Z</time>
      </trkpt>
      <trkpt lat="19.076909" lon="-97.293226">
        <ele>3865.808</ele>
        <time>2020-11-07T17:21:25Z</time>
      </trkpt>
      <trkpt lat="19.076867" lon="-97.293199">
        <ele>3866.271</ele>
        <time>2020-11-07T17:21:30Z</time>
      </trkpt>
      <trkpt lat="19.076831" lon="-97.293156">
        <ele>3866.185</ele>
        <time>2020-11-07T17:21:34Z</time>
      </trkpt>
      <trkpt lat="19.076795" lon="-97.293114">
        <ele>3864.895</ele>
        <time>2020-11-07T17:21:37Z</time>
      </trkpt>
      <trkpt lat="19.076761" lon="-97.293076">
        <ele>3864.467</ele>
        <time>2020-11-07T17:21:40Z</time>
      </trkpt>
      <trkpt lat="19.07673" lon="-97.293039">
        <ele>3865.033</ele>
        <time>2020-11-07T17:21:43Z</time>
      </trkpt>
      <trkpt lat="19.076699" lon="-97.292999">
        <ele>3866.517</ele>
        <time>2020-11-07T17:21:46Z</time>
      </trkpt>
      <trkpt lat="19.076661" lon="-97.292955">
        <ele>3869.084</ele>
        <time>2020-11-07T17:21:49Z</time>
      </trkpt>
      <trkpt lat="19.076624" lon="-97.292915">
        <ele>3870.593</ele>
        <time>2020-11-07T17:21:53Z</time>
      </trkpt>
      <trkpt lat="19.076591" lon="-97.292871">
        <ele>3871.484</ele>
        <time>2020-11-07T17:21:59Z</time>
      </trkpt>
      <trkpt lat="19.076556" lon="-97.292837">
        <ele>3871.107</ele>
        <time>2020-11-07T17:22:04Z</time>
      </trkpt>
      <trkpt lat="19.076516" lon="-97.292812">
        <ele>3870.917</ele>
        <time>2020-11-07T17:22:08Z</time>
      </trkpt>
      <trkpt lat="19.07647" lon="-97.292786">
        <ele>3870.408</ele>
        <time>2020-11-07T17:22:14Z</time>
      </trkpt>
      <trkpt lat="19.076442" lon="-97.292744">
        <ele>3870.144</ele>
        <time>2020-11-07T17:22:19Z</time>
      </trkpt>
      <trkpt lat="19.076425" lon="-97.292696">
        <ele>3870.778</ele>
        <time>2020-11-07T17:22:26Z</time>
      </trkpt>
      <trkpt lat="19.07638" lon="-97.292664">
        <ele>3871.958</ele>
        <time>2020-11-07T17:22:32Z</time>
      </trkpt>
      <trkpt lat="19.076338" lon="-97.292633">
        <ele>3872.270</ele>
        <time>2020-11-07T17:22:37Z</time>
      </trkpt>
      <trkpt lat="19.076309" lon="-97.292592">
        <ele>3872.486</ele>
        <time>2020-11-07T17:22:42Z</time>
      </trkpt>
      <trkpt lat="19.076306" lon="-97.292537">
        <ele>3873.770</ele>
        <time>2020-11-07T17:22:47Z</time>
      </trkpt>
      <trkpt lat="19.076285" lon="-97.292488">
        <ele>3874.187</ele>
        <time>2020-11-07T17:22:52Z</time>
      </trkpt>
      <trkpt lat="19.076262" lon="-97.292445">
        <ele>3875.956</ele>
        <time>2020-11-07T17:22:56Z</time>
      </trkpt>
      <trkpt lat="19.076214" lon="-97.292422">
        <ele>3876.264</ele>
        <time>2020-11-07T17:23:02Z</time>
      </trkpt>
      <trkpt lat="19.076159" lon="-97.292407">
        <ele>3876.406</ele>
        <time>2020-11-07T17:23:07Z</time>
      </trkpt>
      <trkpt lat="19.076103" lon="-97.292408">
        <ele>3876.516</ele>
        <time>2020-11-07T17:23:11Z</time>
      </trkpt>
      <trkpt lat="19.076054" lon="-97.292389">
        <ele>3877.008</ele>
        <time>2020-11-07T17:23:15Z</time>
      </trkpt>
      <trkpt lat="19.07602" lon="-97.292354">
        <ele>3878.562</ele>
        <time>2020-11-07T17:23:19Z</time>
      </trkpt>
      <trkpt lat="19.075989" lon="-97.292305">
        <ele>3878.666</ele>
        <time>2020-11-07T17:23:23Z</time>
      </trkpt>
      <trkpt lat="19.075975" lon="-97.292256">
        <ele>3879.556</ele>
        <time>2020-11-07T17:23:27Z</time>
      </trkpt>
      <trkpt lat="19.075967" lon="-97.292198">
        <ele>3879.298</ele>
        <time>2020-11-07T17:23:32Z</time>
      </trkpt>
      <trkpt lat="19.075957" lon="-97.292149">
        <ele>3880.234</ele>
        <time>2020-11-07T17:23:36Z</time>
      </trkpt>
      <trkpt lat="19.075938" lon="-97.292097">
        <ele>3882.028</ele>
        <time>2020-11-07T17:23:41Z</time>
      </trkpt>
      <trkpt lat="19.075911" lon="-97.292049">
        <ele>3883.995</ele>
        <time>2020-11-07T17:23:46Z</time>
      </trkpt>
      <trkpt lat="19.075889" lon="-97.292003">
        <ele>3885.864</ele>
        <time>2020-11-07T17:23:50Z</time>
      </trkpt>
      <trkpt lat="19.07587" lon="-97.291951">
        <ele>3886.235</ele>
        <time>2020-11-07T17:23:55Z</time>
      </trkpt>
      <trkpt lat="19.07584" lon="-97.291914">
        <ele>3886.486</ele>
        <time>2020-11-07T17:24:00Z</time>
      </trkpt>
      <trkpt lat="19.075808" lon="-97.29188">
        <ele>3886.914</ele>
        <time>2020-11-07T17:24:05Z</time>
      </trkpt>
      <trkpt lat="19.075775" lon="-97.291842">
        <ele>3886.808</ele>
        <time>2020-11-07T17:24:13Z</time>
      </trkpt>
      <trkpt lat="19.075738" lon="-97.291799">
        <ele>3886.029</ele>
        <time>2020-11-07T17:24:19Z</time>
      </trkpt>
      <trkpt lat="19.075701" lon="-97.291772">
        <ele>3885.533</ele>
        <time>2020-11-07T17:24:22Z</time>
      </trkpt>
      <trkpt lat="19.075651" lon="-97.29174">
        <ele>3885.673</ele>
        <time>2020-11-07T17:24:26Z</time>
      </trkpt>
      <trkpt lat="19.075599" lon="-97.291715">
        <ele>3884.115</ele>
        <time>2020-11-07T17:24:31Z</time>
      </trkpt>
      <trkpt lat="19.075548" lon="-97.29171">
        <ele>3882.841</ele>
        <time>2020-11-07T17:24:35Z</time>
      </trkpt>
      <trkpt lat="19.075499" lon="-97.291694">
        <ele>3883.285</ele>
        <time>2020-11-07T17:24:43Z</time>
      </trkpt>
      <trkpt lat="19.075477" lon="-97.291652">
        <ele>3883.482</ele>
        <time>2020-11-07T17:24:48Z</time>
      </trkpt>
      <trkpt lat="19.075459" lon="-97.291605">
        <ele>3883.561</ele>
        <time>2020-11-07T17:24:53Z</time>
      </trkpt>
      <trkpt lat="19.075426" lon="-97.29156">
        <ele>3883.695</ele>
        <time>2020-11-07T17:24:59Z</time>
      </trkpt>
      <trkpt lat="19.075388" lon="-97.291523">
        <ele>3883.749</ele>
        <time>2020-11-07T17:25:03Z</time>
      </trkpt>
      <trkpt lat="19.075352" lon="-97.291476">
        <ele>3883.723</ele>
        <time>2020-11-07T17:25:07Z</time>
      </trkpt>
      <trkpt lat="19.075328" lon="-97.291431">
        <ele>3879.708</ele>
        <time>2020-11-07T17:25:10Z</time>
      </trkpt>
      <trkpt lat="19.075288" lon="-97.291385">
        <ele>3875.795</ele>
        <time>2020-11-07T17:25:14Z</time>
      </trkpt>
      <trkpt lat="19.075253" lon="-97.291352">
        <ele>3878.979</ele>
        <time>2020-11-07T17:25:17Z</time>
      </trkpt>
      <trkpt lat="19.075208" lon="-97.291317">
        <ele>3880.899</ele>
        <time>2020-11-07T17:25:21Z</time>
      </trkpt>
      <trkpt lat="19.075177" lon="-97.291268">
        <ele>3882.041</ele>
        <time>2020-11-07T17:25:27Z</time>
      </trkpt>
      <trkpt lat="19.075165" lon="-97.291221">
        <ele>3883.147</ele>
        <time>2020-11-07T17:25:31Z</time>
      </trkpt>
      <trkpt lat="19.075173" lon="-97.291172">
        <ele>3884.271</ele>
        <time>2020-11-07T17:25:42Z</time>
      </trkpt>
      <trkpt lat="19.075143" lon="-97.291132">
        <ele>3885.268</ele>
        <time>2020-11-07T17:25:49Z</time>
      </trkpt>
      <trkpt lat="19.075118" lon="-97.291091">
        <ele>3885.017</ele>
        <time>2020-11-07T17:25:54Z</time>
      </trkpt>
      <trkpt lat="19.07508" lon="-97.291042">
        <ele>3884.179</ele>
        <time>2020-11-07T17:25:58Z</time>
      </trkpt>
      <trkpt lat="19.075047" lon="-97.290999">
        <ele>3883.605</ele>
        <time>2020-11-07T17:26:01Z</time>
      </trkpt>
      <trkpt lat="19.075021" lon="-97.290959">
        <ele>3882.925</ele>
        <time>2020-11-07T17:26:04Z</time>
      </trkpt>
      <trkpt lat="19.074996" lon="-97.290916">
        <ele>3883.308</ele>
        <time>2020-11-07T17:26:07Z</time>
      </trkpt>
      <trkpt lat="19.074966" lon="-97.290876">
        <ele>3884.343</ele>
        <time>2020-11-07T17:26:11Z</time>
      </trkpt>
      <trkpt lat="19.074932" lon="-97.290843">
        <ele>3884.997</ele>
        <time>2020-11-07T17:26:16Z</time>
      </trkpt>
      <trkpt lat="19.074892" lon="-97.29081">
        <ele>3885.727</ele>
        <time>2020-11-07T17:26:22Z</time>
      </trkpt>
      <trkpt lat="19.074848" lon="-97.29078">
        <ele>3887.059</ele>
        <time>2020-11-07T17:26:27Z</time>
      </trkpt>
      <trkpt lat="19.074812" lon="-97.290749">
        <ele>3887.895</ele>
        <time>2020-11-07T17:26:31Z</time>
      </trkpt>
      <trkpt lat="19.07477" lon="-97.290729">
        <ele>3888.799</ele>
        <time>2020-11-07T17:26:35Z</time>
      </trkpt>
      <trkpt lat="19.07473" lon="-97.290703">
        <ele>3889.236</ele>
        <time>2020-11-07T17:26:40Z</time>
      </trkpt>
      <trkpt lat="19.07469" lon="-97.290676">
        <ele>3889.145</ele>
        <time>2020-11-07T17:26:46Z</time>
      </trkpt>
      <trkpt lat="19.074639" lon="-97.290659">
        <ele>3889.421</ele>
        <time>2020-11-07T17:26:51Z</time>
      </trkpt>
      <trkpt lat="19.074596" lon="-97.290638">
        <ele>3889.641</ele>
        <time>2020-11-07T17:26:54Z</time>
      </trkpt>
      <trkpt lat="19.074548" lon="-97.29061">
        <ele>3889.305</ele>
        <time>2020-11-07T17:26:58Z</time>
      </trkpt>
      <trkpt lat="19.07451" lon="-97.290567">
        <ele>3891.108</ele>
        <time>2020-11-07T17:27:04Z</time>
      </trkpt>
      <trkpt lat="19.074464" lon="-97.290532">
        <ele>3893.068</ele>
        <time>2020-11-07T17:27:08Z</time>
      </trkpt>
      <trkpt lat="19.074419" lon="-97.290489">
        <ele>3894.932</ele>
        <time>2020-11-07T17:27:11Z</time>
      </trkpt>
      <trkpt lat="19.074377" lon="-97.290442">
        <ele>3896.522</ele>
        <time>2020-11-07T17:27:14Z</time>
      </trkpt>
      <trkpt lat="19.074342" lon="-97.290404">
        <ele>3897.094</ele>
        <time>2020-11-07T17:27:17Z</time>
      </trkpt>
      <trkpt lat="19.074299" lon="-97.290385">
        <ele>3898.190</ele>
        <time>2020-11-07T17:27:26Z</time>
      </trkpt>
      <trkpt lat="19.074264" lon="-97.290346">
        <ele>3899.224</ele>
        <time>2020-11-07T17:27:30Z</time>
      </trkpt>
      <trkpt lat="19.074234" lon="-97.290308">
        <ele>3899.041</ele>
        <time>2020-11-07T17:27:33Z</time>
      </trkpt>
      <trkpt lat="19.0742" lon="-97.290273">
        <ele>3899.360</ele>
        <time>2020-11-07T17:27:41Z</time>
      </trkpt>
      <trkpt lat="19.074172" lon="-97.290235">
        <ele>3899.992</ele>
        <time>2020-11-07T17:27:48Z</time>
      </trkpt>
      <trkpt lat="19.074139" lon="-97.290187">
        <ele>3899.973</ele>
        <time>2020-11-07T17:27:52Z</time>
      </trkpt>
      <trkpt lat="19.074104" lon="-97.290143">
        <ele>3901.520</ele>
        <time>2020-11-07T17:27:56Z</time>
      </trkpt>
      <trkpt lat="19.074072" lon="-97.290104">
        <ele>3902.408</ele>
        <time>2020-11-07T17:27:59Z</time>
      </trkpt>
      <trkpt lat="19.074051" lon="-97.290061">
        <ele>3903.415</ele>
        <time>2020-11-07T17:28:02Z</time>
      </trkpt>
      <trkpt lat="19.074038" lon="-97.290015">
        <ele>3905.289</ele>
        <time>2020-11-07T17:28:09Z</time>
      </trkpt>
      <trkpt lat="19.074001" lon="-97.289977">
        <ele>3908.789</ele>
        <time>2020-11-07T17:28:29Z</time>
      </trkpt>
      <trkpt lat="19.073955" lon="-97.289934">
        <ele>3910.451</ele>
        <time>2020-11-07T17:28:33Z</time>
      </trkpt>
      <trkpt lat="19.073916" lon="-97.289901">
        <ele>3912.247</ele>
        <time>2020-11-07T17:28:36Z</time>
      </trkpt>
      <trkpt lat="19.073881" lon="-97.289869">
        <ele>3914.191</ele>
        <time>2020-11-07T17:28:39Z</time>
      </trkpt>
      <trkpt lat="19.073837" lon="-97.289829">
        <ele>3914.438</ele>
        <time>2020-11-07T17:28:43Z</time>
      </trkpt>
      <trkpt lat="19.073803" lon="-97.289795">
        <ele>3915.087</ele>
        <time>2020-11-07T17:28:46Z</time>
      </trkpt>
      <trkpt lat="19.073767" lon="-97.289759">
        <ele>3915.875</ele>
        <time>2020-11-07T17:28:49Z</time>
      </trkpt>
      <trkpt lat="19.073733" lon="-97.289722">
        <ele>3916.728</ele>
        <time>2020-11-07T17:28:52Z</time>
      </trkpt>
      <trkpt lat="19.073693" lon="-97.289681">
        <ele>3916.820</ele>
        <time>2020-11-07T17:28:55Z</time>
      </trkpt>
      <trkpt lat="19.073658" lon="-97.289645">
        <ele>3916.908</ele>
        <time>2020-11-07T17:28:58Z</time>
      </trkpt>
      <trkpt lat="19.073615" lon="-97.289612">
        <ele>3916.933</ele>
        <time>2020-11-07T17:29:02Z</time>
      </trkpt>
      <trkpt lat="19.073575" lon="-97.289576">
        <ele>3916.947</ele>
        <time>2020-11-07T17:29:06Z</time>
      </trkpt>
      <trkpt lat="19.073531" lon="-97.289544">
        <ele>3916.957</ele>
        <time>2020-11-07T17:29:10Z</time>
      </trkpt>
      <trkpt lat="19.073489" lon="-97.289523">
        <ele>3916.959</ele>
        <time>2020-11-07T17:29:14Z</time>
      </trkpt>
      <trkpt lat="19.073443" lon="-97.289518">
        <ele>3912.935</ele>
        <time>2020-11-07T17:29:20Z</time>
      </trkpt>
      <trkpt lat="19.073394" lon="-97.289505">
        <ele>3908.969</ele>
        <time>2020-11-07T17:29:28Z</time>
      </trkpt>
      <trkpt lat="19.073354" lon="-97.289459">
        <ele>3904.966</ele>
        <time>2020-11-07T17:29:32Z</time>
      </trkpt>
      <trkpt lat="19.073325" lon="-97.289415">
        <ele>3908.945</ele>
        <time>2020-11-07T17:29:35Z</time>
      </trkpt>
      <trkpt lat="19.073293" lon="-97.289381">
        <ele>3912.995</ele>
        <time>2020-11-07T17:29:38Z</time>
      </trkpt>
      <trkpt lat="19.073257" lon="-97.289347">
        <ele>3916.949</ele>
        <time>2020-11-07T17:29:42Z</time>
      </trkpt>
      <trkpt lat="19.073214" lon="-97.289327">
        <ele>3919.323</ele>
        <time>2020-11-07T17:29:47Z</time>
      </trkpt>
      <trkpt lat="19.073179" lon="-97.289287">
        <ele>3919.508</ele>
        <time>2020-11-07T17:29:55Z</time>
      </trkpt>
      <trkpt lat="19.073184" lon="-97.28923">
        <ele>3919.295</ele>
        <time>2020-11-07T17:29:59Z</time>
      </trkpt>
      <trkpt lat="19.073179" lon="-97.289179">
        <ele>3919.039</ele>
        <time>2020-11-07T17:30:02Z</time>
      </trkpt>
      <trkpt lat="19.073152" lon="-97.289122">
        <ele>3919.789</ele>
        <time>2020-11-07T17:30:06Z</time>
      </trkpt>
      <trkpt lat="19.073113" lon="-97.289075">
        <ele>3921.311</ele>
        <time>2020-11-07T17:30:10Z</time>
      </trkpt>
      <trkpt lat="19.073075" lon="-97.28904">
        <ele>3923.137</ele>
        <time>2020-11-07T17:30:13Z</time>
      </trkpt>
      <trkpt lat="19.073022" lon="-97.289016">
        <ele>3923.881</ele>
        <time>2020-11-07T17:30:16Z</time>
      </trkpt>
      <trkpt lat="19.072966" lon="-97.288999">
        <ele>3924.288</ele>
        <time>2020-11-07T17:30:20Z</time>
      </trkpt>
      <trkpt lat="19.072916" lon="-97.288979">
        <ele>3924.477</ele>
        <time>2020-11-07T17:30:24Z</time>
      </trkpt>
      <trkpt lat="19.072867" lon="-97.288976">
        <ele>3924.549</ele>
        <time>2020-11-07T17:30:28Z</time>
      </trkpt>
      <trkpt lat="19.072815" lon="-97.288976">
        <ele>3924.602</ele>
        <time>2020-11-07T17:30:34Z</time>
      </trkpt>
      <trkpt lat="19.072766" lon="-97.288971">
        <ele>3925.922</ele>
        <time>2020-11-07T17:30:40Z</time>
      </trkpt>
      <trkpt lat="19.072723" lon="-97.288951">
        <ele>3926.708</ele>
        <time>2020-11-07T17:30:45Z</time>
      </trkpt>
      <trkpt lat="19.072678" lon="-97.288923">
        <ele>3926.890</ele>
        <time>2020-11-07T17:30:49Z</time>
      </trkpt>
      <trkpt lat="19.072649" lon="-97.288884">
        <ele>3927.644</ele>
        <time>2020-11-07T17:30:57Z</time>
      </trkpt>
      <trkpt lat="19.072599" lon="-97.288874">
        <ele>3928.134</ele>
        <time>2020-11-07T17:31:03Z</time>
      </trkpt>
      <trkpt lat="19.072546" lon="-97.288865">
        <ele>3929.646</ele>
        <time>2020-11-07T17:31:09Z</time>
      </trkpt>
      <trkpt lat="19.0725" lon="-97.288858">
        <ele>3930.572</ele>
        <time>2020-11-07T17:31:13Z</time>
      </trkpt>
      <trkpt lat="19.072449" lon="-97.288841">
        <ele>3932.676</ele>
        <time>2020-11-07T17:31:19Z</time>
      </trkpt>
      <trkpt lat="19.072405" lon="-97.288821">
        <ele>3933.953</ele>
        <time>2020-11-07T17:31:24Z</time>
      </trkpt>
      <trkpt lat="19.072401" lon="-97.288771">
        <ele>3933.942</ele>
        <time>2020-11-07T17:31:31Z</time>
      </trkpt>
      <trkpt lat="19.072361" lon="-97.288736">
        <ele>3933.919</ele>
        <time>2020-11-07T17:32:00Z</time>
      </trkpt>
      <trkpt lat="19.072307" lon="-97.288696">
        <ele>3934.309</ele>
        <time>2020-11-07T17:32:03Z</time>
      </trkpt>
      <trkpt lat="19.072257" lon="-97.288662">
        <ele>3934.119</ele>
        <time>2020-11-07T17:32:06Z</time>
      </trkpt>
      <trkpt lat="19.072212" lon="-97.28863">
        <ele>3933.608</ele>
        <time>2020-11-07T17:32:09Z</time>
      </trkpt>
      <trkpt lat="19.072167" lon="-97.288588">
        <ele>3932.947</ele>
        <time>2020-11-07T17:32:12Z</time>
      </trkpt>
      <trkpt lat="19.072109" lon="-97.288574">
        <ele>3931.041</ele>
        <time>2020-11-07T17:32:19Z</time>
      </trkpt>
      <trkpt lat="19.072268" lon="-97.288534">
        <ele>3932.911</ele>
        <time>2020-11-07T17:32:25Z</time>
      </trkpt>
      <trkpt lat="19.072202" lon="-97.288478">
        <ele>3931.393</ele>
        <time>2020-11-07T17:32:27Z</time>
      </trkpt>
      <trkpt lat="19.072149" lon="-97.288462">
        <ele>3929.599</ele>
        <time>2020-11-07T17:32:29Z</time>
      </trkpt>
      <trkpt lat="19.0721" lon="-97.288453">
        <ele>3929.683</ele>
        <time>2020-11-07T17:32:31Z</time>
      </trkpt>
      <trkpt lat="19.072046" lon="-97.288448">
        <ele>3930.990</ele>
        <time>2020-11-07T17:32:33Z</time>
      </trkpt>
      <trkpt lat="19.071991" lon="-97.28845">
        <ele>3930.959</ele>
        <time>2020-11-07T17:32:35Z</time>
      </trkpt>
      <trkpt lat="19.071943" lon="-97.288453">
        <ele>3931.795</ele>
        <time>2020-11-07T17:32:37Z</time>
      </trkpt>
      <trkpt lat="19.071882" lon="-97.288449">
        <ele>3933.049</ele>
        <time>2020-11-07T17:32:40Z</time>
      </trkpt>
      <trkpt lat="19.071835" lon="-97.288441">
        <ele>3934.223</ele>
        <time>2020-11-07T17:32:43Z</time>
      </trkpt>
      <trkpt lat="19.071785" lon="-97.28843">
        <ele>3934.908</ele>
        <time>2020-11-07T17:32:47Z</time>
      </trkpt>
      <trkpt lat="19.07174" lon="-97.28841">
        <ele>3935.365</ele>
        <time>2020-11-07T17:32:51Z</time>
      </trkpt>
      <trkpt lat="19.071699" lon="-97.288389">
        <ele>3936.059</ele>
        <time>2020-11-07T17:32:55Z</time>
      </trkpt>
      <trkpt lat="19.071656" lon="-97.288355">
        <ele>3936.879</ele>
        <time>2020-11-07T17:32:59Z</time>
      </trkpt>
      <trkpt lat="19.071613" lon="-97.288331">
        <ele>3936.941</ele>
        <time>2020-11-07T17:33:03Z</time>
      </trkpt>
      <trkpt lat="19.071573" lon="-97.288305">
        <ele>3936.587</ele>
        <time>2020-11-07T17:33:07Z</time>
      </trkpt>
      <trkpt lat="19.071532" lon="-97.288279">
        <ele>3936.761</ele>
        <time>2020-11-07T17:33:11Z</time>
      </trkpt>
      <trkpt lat="19.071494" lon="-97.288249">
        <ele>3936.438</ele>
        <time>2020-11-07T17:33:15Z</time>
      </trkpt>
      <trkpt lat="19.071457" lon="-97.288221">
        <ele>3936.287</ele>
        <time>2020-11-07T17:33:19Z</time>
      </trkpt>
      <trkpt lat="19.071408" lon="-97.288197">
        <ele>3935.717</ele>
        <time>2020-11-07T17:33:26Z</time>
      </trkpt>
      <trkpt lat="19.071365" lon="-97.288159">
        <ele>3935.487</ele>
        <time>2020-11-07T17:33:31Z</time>
      </trkpt>
      <trkpt lat="19.071323" lon="-97.288116">
        <ele>3935.215</ele>
        <time>2020-11-07T17:33:35Z</time>
      </trkpt>
      <trkpt lat="19.071289" lon="-97.288065">
        <ele>3935.908</ele>
        <time>2020-11-07T17:33:39Z</time>
      </trkpt>
      <trkpt lat="19.071257" lon="-97.288015">
        <ele>3937.127</ele>
        <time>2020-11-07T17:33:43Z</time>
      </trkpt>
      <trkpt lat="19.07122" lon="-97.287986">
        <ele>3938.211</ele>
        <time>2020-11-07T17:34:05Z</time>
      </trkpt>
      <trkpt lat="19.071169" lon="-97.287983">
        <ele>3940.981</ele>
        <time>2020-11-07T17:34:14Z</time>
      </trkpt>
      <trkpt lat="19.071111" lon="-97.287976">
        <ele>3942.573</ele>
        <time>2020-11-07T17:34:18Z</time>
      </trkpt>
      <trkpt lat="19.071061" lon="-97.287985">
        <ele>3943.559</ele>
        <time>2020-11-07T17:34:21Z</time>
      </trkpt>
      <trkpt lat="19.071012" lon="-97.287997">
        <ele>3944.943</ele>
        <time>2020-11-07T17:34:26Z</time>
      </trkpt>
      <trkpt lat="19.071057" lon="-97.288003">
        <ele>3943.320</ele>
        <time>2020-11-07T17:34:36Z</time>
      </trkpt>
      <trkpt lat="19.071055" lon="-97.287936">
        <ele>3941.639</ele>
        <time>2020-11-07T17:35:10Z</time>
      </trkpt>
      <trkpt lat="19.071035" lon="-97.287876">
        <ele>3939.882</ele>
        <time>2020-11-07T17:35:14Z</time>
      </trkpt>
      <trkpt lat="19.071018" lon="-97.287819">
        <ele>3938.743</ele>
        <time>2020-11-07T17:35:18Z</time>
      </trkpt>
      <trkpt lat="19.071006" lon="-97.287771">
        <ele>3937.617</ele>
        <time>2020-11-07T17:35:22Z</time>
      </trkpt>
      <trkpt lat="19.070973" lon="-97.287709">
        <ele>3937.008</ele>
        <time>2020-11-07T17:35:25Z</time>
      </trkpt>
      <trkpt lat="19.070956" lon="-97.287648">
        <ele>3936.234</ele>
        <time>2020-11-07T17:35:28Z</time>
      </trkpt>
      <trkpt lat="19.070955" lon="-97.287598">
        <ele>3937.348</ele>
        <time>2020-11-07T17:35:32Z</time>
      </trkpt>
      <trkpt lat="19.070956" lon="-97.287545">
        <ele>3938.498</ele>
        <time>2020-11-07T17:35:36Z</time>
      </trkpt>
      <trkpt lat="19.070954" lon="-97.287474">
        <ele>3939.420</ele>
        <time>2020-11-07T17:35:39Z</time>
      </trkpt>
      <trkpt lat="19.070944" lon="-97.287423">
        <ele>3940.446</ele>
        <time>2020-11-07T17:35:42Z</time>
      </trkpt>
      <trkpt lat="19.070921" lon="-97.287375">
        <ele>3940.620</ele>
        <time>2020-11-07T17:35:49Z</time>
      </trkpt>
      <trkpt lat="19.070944" lon="-97.287333">
        <ele>3941.167</ele>
        <time>2020-11-07T17:36:03Z</time>
      </trkpt>
      <trkpt lat="19.070935" lon="-97.287284">
        <ele>3941.056</ele>
        <time>2020-11-07T17:36:09Z</time>
      </trkpt>
      <trkpt lat="19.070905" lon="-97.287241">
        <ele>3940.674</ele>
        <time>2020-11-07T17:36:15Z</time>
      </trkpt>
      <trkpt lat="19.070872" lon="-97.287208">
        <ele>3941.556</ele>
        <time>2020-11-07T17:36:21Z</time>
      </trkpt>
      <trkpt lat="19.070848" lon="-97.28716">
        <ele>3941.321</ele>
        <time>2020-11-07T17:36:26Z</time>
      </trkpt>
      <trkpt lat="19.070822" lon="-97.287112">
        <ele>3942.008</ele>
        <time>2020-11-07T17:36:31Z</time>
      </trkpt>
      <trkpt lat="19.070797" lon="-97.287066">
        <ele>3942.833</ele>
        <time>2020-11-07T17:36:35Z</time>
      </trkpt>
      <trkpt lat="19.070764" lon="-97.287027">
        <ele>3943.727</ele>
        <time>2020-11-07T17:36:40Z</time>
      </trkpt>
      <trkpt lat="19.070732" lon="-97.286987">
        <ele>3944.647</ele>
        <time>2020-11-07T17:36:46Z</time>
      </trkpt>
      <trkpt lat="19.07071" lon="-97.286941">
        <ele>3946.829</ele>
        <time>2020-11-07T17:36:51Z</time>
      </trkpt>
      <trkpt lat="19.070675" lon="-97.286898">
        <ele>3948.115</ele>
        <time>2020-11-07T17:36:56Z</time>
      </trkpt>
      <trkpt lat="19.070643" lon="-97.286861">
        <ele>3949.759</ele>
        <time>2020-11-07T17:37:00Z</time>
      </trkpt>
      <trkpt lat="19.070618" lon="-97.286818">
        <ele>3950.216</ele>
        <time>2020-11-07T17:37:05Z</time>
      </trkpt>
      <trkpt lat="19.070582" lon="-97.286782">
        <ele>3950.535</ele>
        <time>2020-11-07T17:37:12Z</time>
      </trkpt>
      <trkpt lat="19.070572" lon="-97.28673">
        <ele>3946.553</ele>
        <time>2020-11-07T17:37:17Z</time>
      </trkpt>
      <trkpt lat="19.070551" lon="-97.286683">
        <ele>3945.904</ele>
        <time>2020-11-07T17:37:22Z</time>
      </trkpt>
      <trkpt lat="19.070528" lon="-97.28664">
        <ele>3946.314</ele>
        <time>2020-11-07T17:37:26Z</time>
      </trkpt>
      <trkpt lat="19.07051" lon="-97.286596">
        <ele>3943.808</ele>
        <time>2020-11-07T17:37:31Z</time>
      </trkpt>
      <trkpt lat="19.070508" lon="-97.286546">
        <ele>3942.371</ele>
        <time>2020-11-07T17:37:39Z</time>
      </trkpt>
      <trkpt lat="19.070498" lon="-97.286497">
        <ele>3945.075</ele>
        <time>2020-11-07T17:37:43Z</time>
      </trkpt>
      <trkpt lat="19.070463" lon="-97.286445">
        <ele>3947.025</ele>
        <time>2020-11-07T17:37:47Z</time>
      </trkpt>
      <trkpt lat="19.070442" lon="-97.286402">
        <ele>3947.047</ele>
        <time>2020-11-07T17:37:50Z</time>
      </trkpt>
      <trkpt lat="19.070411" lon="-97.286357">
        <ele>3947.053</ele>
        <time>2020-11-07T17:37:55Z</time>
      </trkpt>
      <trkpt lat="19.070378" lon="-97.286314">
        <ele>3944.297</ele>
        <time>2020-11-07T17:38:00Z</time>
      </trkpt>
      <trkpt lat="19.070363" lon="-97.286268">
        <ele>3945.334</ele>
        <time>2020-11-07T17:38:04Z</time>
      </trkpt>
      <trkpt lat="19.070349" lon="-97.286218">
        <ele>3948.053</ele>
        <time>2020-11-07T17:38:09Z</time>
      </trkpt>
      <trkpt lat="19.070318" lon="-97.286183">
        <ele>3951.245</ele>
        <time>2020-11-07T17:38:13Z</time>
      </trkpt>
      <trkpt lat="19.070275" lon="-97.286155">
        <ele>3954.747</ele>
        <time>2020-11-07T17:38:40Z</time>
      </trkpt>
      <trkpt lat="19.070248" lon="-97.286107">
        <ele>3956.811</ele>
        <time>2020-11-07T17:38:45Z</time>
      </trkpt>
      <trkpt lat="19.070228" lon="-97.28605">
        <ele>3956.108</ele>
        <time>2020-11-07T17:38:48Z</time>
      </trkpt>
      <trkpt lat="19.070203" lon="-97.286005">
        <ele>3956.190</ele>
        <time>2020-11-07T17:38:51Z</time>
      </trkpt>
      <trkpt lat="19.070171" lon="-97.285968">
        <ele>3957.344</ele>
        <time>2020-11-07T17:38:55Z</time>
      </trkpt>
      <trkpt lat="19.070139" lon="-97.285926">
        <ele>3958.874</ele>
        <time>2020-11-07T17:38:59Z</time>
      </trkpt>
      <trkpt lat="19.070107" lon="-97.285891">
        <ele>3959.786</ele>
        <time>2020-11-07T17:39:02Z</time>
      </trkpt>
      <trkpt lat="19.070072" lon="-97.285858">
        <ele>3961.032</ele>
        <time>2020-11-07T17:39:06Z</time>
      </trkpt>
      <trkpt lat="19.070026" lon="-97.28584">
        <ele>3961.416</ele>
        <time>2020-11-07T17:39:11Z</time>
      </trkpt>
      <trkpt lat="19.069986" lon="-97.285811">
        <ele>3960.813</ele>
        <time>2020-11-07T17:39:15Z</time>
      </trkpt>
      <trkpt lat="19.069947" lon="-97.285781">
        <ele>3961.752</ele>
        <time>2020-11-07T17:39:20Z</time>
      </trkpt>
      <trkpt lat="19.069918" lon="-97.285743">
        <ele>3962.246</ele>
        <time>2020-11-07T17:39:24Z</time>
      </trkpt>
      <trkpt lat="19.069914" lon="-97.285687">
        <ele>3958.988</ele>
        <time>2020-11-07T17:39:27Z</time>
      </trkpt>
      <trkpt lat="19.069867" lon="-97.285642">
        <ele>3960.516</ele>
        <time>2020-11-07T17:39:37Z</time>
      </trkpt>
      <trkpt lat="19.069846" lon="-97.285593">
        <ele>3960.708</ele>
        <time>2020-11-07T17:39:42Z</time>
      </trkpt>
      <trkpt lat="19.069844" lon="-97.285539">
        <ele>3960.860</ele>
        <time>2020-11-07T17:39:51Z</time>
      </trkpt>
      <trkpt lat="19.069801" lon="-97.285524">
        <ele>3960.944</ele>
        <time>2020-11-07T17:39:59Z</time>
      </trkpt>
      <trkpt lat="19.069782" lon="-97.285471">
        <ele>3961.324</ele>
        <time>2020-11-07T17:40:05Z</time>
      </trkpt>
      <trkpt lat="19.06976" lon="-97.285428">
        <ele>3962.056</ele>
        <time>2020-11-07T17:40:09Z</time>
      </trkpt>
      <trkpt lat="19.069725" lon="-97.285391">
        <ele>3964.442</ele>
        <time>2020-11-07T17:40:15Z</time>
      </trkpt>
      <trkpt lat="19.069697" lon="-97.285353">
        <ele>3965.856</ele>
        <time>2020-11-07T17:40:22Z</time>
      </trkpt>
      <trkpt lat="19.069668" lon="-97.285307">
        <ele>3966.733</ele>
        <time>2020-11-07T17:40:28Z</time>
      </trkpt>
      <trkpt lat="19.069651" lon="-97.285257">
        <ele>3967.222</ele>
        <time>2020-11-07T17:40:36Z</time>
      </trkpt>
      <trkpt lat="19.069662" lon="-97.285207">
        <ele>3968.346</ele>
        <time>2020-11-07T17:40:42Z</time>
      </trkpt>
      <trkpt lat="19.069675" lon="-97.285154">
        <ele>3969.488</ele>
        <time>2020-11-07T17:40:48Z</time>
      </trkpt>
      <trkpt lat="19.069669" lon="-97.285104">
        <ele>3970.016</ele>
        <time>2020-11-07T17:40:55Z</time>
      </trkpt>
      <trkpt lat="19.069631" lon="-97.285066">
        <ele>3972.008</ele>
        <time>2020-11-07T17:41:02Z</time>
      </trkpt>
      <trkpt lat="19.069597" lon="-97.28503">
        <ele>3973.230</ele>
        <time>2020-11-07T17:41:08Z</time>
      </trkpt>
      <trkpt lat="19.069571" lon="-97.284983">
        <ele>3969.574</ele>
        <time>2020-11-07T17:41:14Z</time>
      </trkpt>
      <trkpt lat="19.069569" lon="-97.284926">
        <ele>3967.384</ele>
        <time>2020-11-07T17:41:19Z</time>
      </trkpt>
      <trkpt lat="19.06956" lon="-97.284877">
        <ele>3971.386</ele>
        <time>2020-11-07T17:41:24Z</time>
      </trkpt>
      <trkpt lat="19.069518" lon="-97.284852">
        <ele>3974.892</ele>
        <time>2020-11-07T17:41:30Z</time>
      </trkpt>
      <trkpt lat="19.069476" lon="-97.284821">
        <ele>3976.556</ele>
        <time>2020-11-07T17:41:36Z</time>
      </trkpt>
      <trkpt lat="19.06944" lon="-97.284782">
        <ele>3977.173</ele>
        <time>2020-11-07T17:41:43Z</time>
      </trkpt>
      <trkpt lat="19.069411" lon="-97.284744">
        <ele>3977.542</ele>
        <time>2020-11-07T17:41:48Z</time>
      </trkpt>
      <trkpt lat="19.069367" lon="-97.284717">
        <ele>3978.555</ele>
        <time>2020-11-07T17:41:54Z</time>
      </trkpt>
      <trkpt lat="19.06934" lon="-97.284675">
        <ele>3979.107</ele>
        <time>2020-11-07T17:41:59Z</time>
      </trkpt>
      <trkpt lat="19.06933" lon="-97.284619">
        <ele>3979.517</ele>
        <time>2020-11-07T17:42:04Z</time>
      </trkpt>
      <trkpt lat="19.069309" lon="-97.28457">
        <ele>3976.108</ele>
        <time>2020-11-07T17:42:08Z</time>
      </trkpt>
      <trkpt lat="19.069281" lon="-97.284526">
        <ele>3974.181</ele>
        <time>2020-11-07T17:42:12Z</time>
      </trkpt>
      <trkpt lat="19.069263" lon="-97.284476">
        <ele>3974.145</ele>
        <time>2020-11-07T17:42:15Z</time>
      </trkpt>
      <trkpt lat="19.069255" lon="-97.284427">
        <ele>3975.365</ele>
        <time>2020-11-07T17:42:18Z</time>
      </trkpt>
      <trkpt lat="19.069253" lon="-97.284378">
        <ele>3977.697</ele>
        <time>2020-11-07T17:42:25Z</time>
      </trkpt>
      <trkpt lat="19.069216" lon="-97.284344">
        <ele>3979.033</ele>
        <time>2020-11-07T17:42:34Z</time>
      </trkpt>
      <trkpt lat="19.069193" lon="-97.2843">
        <ele>3977.897</ele>
        <time>2020-11-07T17:42:42Z</time>
      </trkpt>
      <trkpt lat="19.069163" lon="-97.284261">
        <ele>3977.544</ele>
        <time>2020-11-07T17:42:49Z</time>
      </trkpt>
      <trkpt lat="19.069132" lon="-97.284217">
        <ele>3977.733</ele>
        <time>2020-11-07T17:42:55Z</time>
      </trkpt>
      <trkpt lat="19.069105" lon="-97.284172">
        <ele>3977.858</ele>
        <time>2020-11-07T17:43:01Z</time>
      </trkpt>
      <trkpt lat="19.069091" lon="-97.284121">
        <ele>3978.752</ele>
        <time>2020-11-07T17:43:06Z</time>
      </trkpt>
      <trkpt lat="19.069083" lon="-97.284074">
        <ele>3979.617</ele>
        <time>2020-11-07T17:43:11Z</time>
      </trkpt>
      <trkpt lat="19.069083" lon="-97.284023">
        <ele>3980.208</ele>
        <time>2020-11-07T17:43:15Z</time>
      </trkpt>
      <trkpt lat="19.069088" lon="-97.283972">
        <ele>3980.581</ele>
        <time>2020-11-07T17:43:23Z</time>
      </trkpt>
      <trkpt lat="19.069108" lon="-97.283928">
        <ele>3980.735</ele>
        <time>2020-11-07T17:43:30Z</time>
      </trkpt>
      <trkpt lat="19.069076" lon="-97.283891">
        <ele>3980.845</ele>
        <time>2020-11-07T17:43:38Z</time>
      </trkpt>
      <trkpt lat="19.069039" lon="-97.283864">
        <ele>3980.967</ele>
        <time>2020-11-07T17:43:43Z</time>
      </trkpt>
      <trkpt lat="19.069004" lon="-97.28383">
        <ele>3980.933</ele>
        <time>2020-11-07T17:43:48Z</time>
      </trkpt>
      <trkpt lat="19.068952" lon="-97.283842">
        <ele>3980.917</ele>
        <time>2020-11-07T17:43:52Z</time>
      </trkpt>
      <trkpt lat="19.068907" lon="-97.283836">
        <ele>3984.984</ele>
        <time>2020-11-07T17:43:59Z</time>
      </trkpt>
      <trkpt lat="19.068902" lon="-97.283779">
        <ele>3988.973</ele>
        <time>2020-11-07T17:44:05Z</time>
      </trkpt>
      <trkpt lat="19.068911" lon="-97.283732">
        <ele>3991.312</ele>
        <time>2020-11-07T17:44:10Z</time>
      </trkpt>
      <trkpt lat="19.068913" lon="-97.283678">
        <ele>3993.532</ele>
        <time>2020-11-07T17:44:16Z</time>
      </trkpt>
      <trkpt lat="19.068921" lon="-97.283626">
        <ele>3995.205</ele>
        <time>2020-11-07T17:44:27Z</time>
      </trkpt>
      <trkpt lat="19.068928" lon="-97.283574">
        <ele>3994.608</ele>
        <time>2020-11-07T17:44:36Z</time>
      </trkpt>
      <trkpt lat="19.06891" lon="-97.283519">
        <ele>3995.597</ele>
        <time>2020-11-07T17:44:42Z</time>
      </trkpt>
      <trkpt lat="19.068914" lon="-97.283471">
        <ele>3996.421</ele>
        <time>2020-11-07T17:44:49Z</time>
      </trkpt>
      <trkpt lat="19.068934" lon="-97.28342">
        <ele>3997.091</ele>
        <time>2020-11-07T17:44:55Z</time>
      </trkpt>
      <trkpt lat="19.068945" lon="-97.283369">
        <ele>3997.393</ele>
        <time>2020-11-07T17:45:01Z</time>
      </trkpt>
      <trkpt lat="19.068946" lon="-97.283321">
        <ele>3997.589</ele>
        <time>2020-11-07T17:45:18Z</time>
      </trkpt>
      <trkpt lat="19.068939" lon="-97.283369">
        <ele>3998.013</ele>
        <time>2020-11-07T17:45:34Z</time>
      </trkpt>
      <trkpt lat="19.068981" lon="-97.283388">
        <ele>3998.390</ele>
        <time>2020-11-07T17:46:11Z</time>
      </trkpt>
      <trkpt lat="19.069028" lon="-97.283394">
        <ele>3994.379</ele>
        <time>2020-11-07T17:46:15Z</time>
      </trkpt>
      <trkpt lat="19.067876" lon="-97.281679">
        <ele>4030.382</ele>
        <time>2020-11-07T17:55:50Z</time>
      </trkpt>
      <trkpt lat="19.067826" lon="-97.281675">
        <ele>3994.343</ele>
        <time>2020-11-07T17:55:54Z</time>
      </trkpt>
      <trkpt lat="19.067788" lon="-97.281701">
        <ele>3994.317</ele>
        <time>2020-11-07T17:56:01Z</time>
      </trkpt>
      <trkpt lat="19.067742" lon="-97.281691">
        <ele>3994.308</ele>
        <time>2020-11-07T17:56:04Z</time>
      </trkpt>
      <trkpt lat="19.067761" lon="-97.281642">
        <ele>3994.354</ele>
        <time>2020-11-07T17:56:09Z</time>
      </trkpt>
      <trkpt lat="19.06778" lon="-97.281597">
        <ele>3994.368</ele>
        <time>2020-11-07T17:56:13Z</time>
      </trkpt>
      <trkpt lat="19.067763" lon="-97.281546">
        <ele>3990.318</ele>
        <time>2020-11-07T17:56:18Z</time>
      </trkpt>
      <trkpt lat="19.06778" lon="-97.281495">
        <ele>3989.510</ele>
        <time>2020-11-07T17:56:23Z</time>
      </trkpt>
      <trkpt lat="19.0678" lon="-97.281448">
        <ele>3989.816</ele>
        <time>2020-11-07T17:56:31Z</time>
      </trkpt>
      <trkpt lat="19.067804" lon="-97.281386">
        <ele>3990.830</ele>
        <time>2020-11-07T17:56:36Z</time>
      </trkpt>
      <trkpt lat="19.067808" lon="-97.281332">
        <ele>3991.867</ele>
        <time>2020-11-07T17:56:40Z</time>
      </trkpt>
      <trkpt lat="19.067804" lon="-97.281266">
        <ele>3993.216</ele>
        <time>2020-11-07T17:56:44Z</time>
      </trkpt>
      <trkpt lat="19.067779" lon="-97.281214">
        <ele>3996.096</ele>
        <time>2020-11-07T17:56:48Z</time>
      </trkpt>
      <trkpt lat="19.067772" lon="-97.281159">
        <ele>3998.131</ele>
        <time>2020-11-07T17:56:54Z</time>
      </trkpt>
      <trkpt lat="19.06777" lon="-97.281105">
        <ele>3999.824</ele>
        <time>2020-11-07T17:57:00Z</time>
      </trkpt>
      <trkpt lat="19.06774" lon="-97.281068">
        <ele>4000.808</ele>
        <time>2020-11-07T17:57:10Z</time>
      </trkpt>
      <trkpt lat="19.067708" lon="-97.281026">
        <ele>4001.415</ele>
        <time>2020-11-07T17:57:20Z</time>
      </trkpt>
      <trkpt lat="19.067714" lon="-97.28096">
        <ele>4001.449</ele>
        <time>2020-11-07T17:57:26Z</time>
      </trkpt>
      <trkpt lat="19.067695" lon="-97.280917">
        <ele>4003.429</ele>
        <time>2020-11-07T17:57:30Z</time>
      </trkpt>
      <trkpt lat="19.067683" lon="-97.280865">
        <ele>4005.811</ele>
        <time>2020-11-07T17:57:35Z</time>
      </trkpt>
      <trkpt lat="19.067665" lon="-97.280813">
        <ele>4007.617</ele>
        <time>2020-11-07T17:57:41Z</time>
      </trkpt>
      <trkpt lat="19.067636" lon="-97.280775">
        <ele>4008.311</ele>
        <time>2020-11-07T17:57:49Z</time>
      </trkpt>
      <trkpt lat="19.067608" lon="-97.280736">
        <ele>4008.778</ele>
        <time>2020-11-07T17:57:55Z</time>
      </trkpt>
      <trkpt lat="19.067576" lon="-97.280698">
        <ele>4007.417</ele>
        <time>2020-11-07T17:58:00Z</time>
      </trkpt>
      <trkpt lat="19.067572" lon="-97.28065">
        <ele>4008.692</ele>
        <time>2020-11-07T17:58:05Z</time>
      </trkpt>
      <trkpt lat="19.067577" lon="-97.280601">
        <ele>4009.373</ele>
        <time>2020-11-07T17:58:12Z</time>
      </trkpt>
      <trkpt lat="19.067591" lon="-97.280547">
        <ele>4009.720</ele>
        <time>2020-11-07T17:58:19Z</time>
      </trkpt>
      <trkpt lat="19.067594" lon="-97.280494">
        <ele>4007.208</ele>
        <time>2020-11-07T17:58:24Z</time>
      </trkpt>
      <trkpt lat="19.067572" lon="-97.280451">
        <ele>4003.365</ele>
        <time>2020-11-07T17:58:32Z</time>
      </trkpt>
      <trkpt lat="19.067562" lon="-97.2804">
        <ele>4000.919</ele>
        <time>2020-11-07T17:58:47Z</time>
      </trkpt>
      <trkpt lat="19.067549" lon="-97.280353">
        <ele>3999.599</ele>
        <time>2020-11-07T17:58:55Z</time>
      </trkpt>
      <trkpt lat="19.067533" lon="-97.280303">
        <ele>4003.571</ele>
        <time>2020-11-07T17:59:04Z</time>
      </trkpt>
      <trkpt lat="19.067524" lon="-97.280252">
        <ele>4007.537</ele>
        <time>2020-11-07T17:59:12Z</time>
      </trkpt>
      <trkpt lat="19.06751" lon="-97.280204">
        <ele>4011.521</ele>
        <time>2020-11-07T17:59:23Z</time>
      </trkpt>
      <trkpt lat="19.06752" lon="-97.280156">
        <ele>4015.548</ele>
        <time>2020-11-07T17:59:30Z</time>
      </trkpt>
      <trkpt lat="19.067485" lon="-97.280125">
        <ele>4019.557</ele>
        <time>2020-11-07T17:59:38Z</time>
      </trkpt>
      <trkpt lat="19.067486" lon="-97.280075">
        <ele>4022.355</ele>
        <time>2020-11-07T17:59:44Z</time>
      </trkpt>
      <trkpt lat="19.067449" lon="-97.280027">
        <ele>4024.007</ele>
        <time>2020-11-07T18:00:15Z</time>
      </trkpt>
      <trkpt lat="19.067446" lon="-97.27997">
        <ele>4027.817</ele>
        <time>2020-11-07T18:00:19Z</time>
      </trkpt>
      <trkpt lat="19.067465" lon="-97.279917">
        <ele>4029.308</ele>
        <time>2020-11-07T18:00:23Z</time>
      </trkpt>
      <trkpt lat="19.067457" lon="-97.279858">
        <ele>4029.471</ele>
        <time>2020-11-07T18:00:28Z</time>
      </trkpt>
      <trkpt lat="19.06745" lon="-97.279809">
        <ele>4029.925</ele>
        <time>2020-11-07T18:00:32Z</time>
      </trkpt>
      <trkpt lat="19.067422" lon="-97.279758">
        <ele>4031.445</ele>
        <time>2020-11-07T18:00:36Z</time>
      </trkpt>
      <trkpt lat="19.067402" lon="-97.27971">
        <ele>4031.967</ele>
        <time>2020-11-07T18:00:41Z</time>
      </trkpt>
      <trkpt lat="19.067402" lon="-97.279655">
        <ele>4032.233</ele>
        <time>2020-11-07T18:00:48Z</time>
      </trkpt>
      <trkpt lat="19.067383" lon="-97.279612">
        <ele>4032.487</ele>
        <time>2020-11-07T18:00:53Z</time>
      </trkpt>
      <trkpt lat="19.067343" lon="-97.279587">
        <ele>4034.194</ele>
        <time>2020-11-07T18:01:04Z</time>
      </trkpt>
      <trkpt lat="19.067327" lon="-97.279533">
        <ele>4035.963</ele>
        <time>2020-11-07T18:01:11Z</time>
      </trkpt>
      <trkpt lat="19.067325" lon="-97.279482">
        <ele>4037.475</ele>
        <time>2020-11-07T18:01:18Z</time>
      </trkpt>
      <trkpt lat="19.067331" lon="-97.279434">
        <ele>4039.928</ele>
        <time>2020-11-07T18:01:26Z</time>
      </trkpt>
      <trkpt lat="19.067343" lon="-97.279378">
        <ele>4041.420</ele>
        <time>2020-11-07T18:01:31Z</time>
      </trkpt>
      <trkpt lat="19.067308" lon="-97.279346">
        <ele>4042.308</ele>
        <time>2020-11-07T18:01:36Z</time>
      </trkpt>
      <trkpt lat="19.067268" lon="-97.279318">
        <ele>4042.873</ele>
        <time>2020-11-07T18:01:49Z</time>
      </trkpt>
      <trkpt lat="19.067246" lon="-97.279269">
        <ele>4043.137</ele>
        <time>2020-11-07T18:01:58Z</time>
      </trkpt>
      <trkpt lat="19.067203" lon="-97.279253">
        <ele>4043.777</ele>
        <time>2020-11-07T18:02:03Z</time>
      </trkpt>
      <trkpt lat="19.067173" lon="-97.279217">
        <ele>4045.799</ele>
        <time>2020-11-07T18:02:09Z</time>
      </trkpt>
      <trkpt lat="19.067205" lon="-97.27918">
        <ele>4046.125</ele>
        <time>2020-11-07T18:02:16Z</time>
      </trkpt>
      <trkpt lat="19.067168" lon="-97.279143">
        <ele>4046.779</ele>
        <time>2020-11-07T18:02:27Z</time>
      </trkpt>
      <trkpt lat="19.067161" lon="-97.279094">
        <ele>4047.176</ele>
        <time>2020-11-07T18:02:44Z</time>
      </trkpt>
      <trkpt lat="19.067114" lon="-97.279085">
        <ele>4047.345</ele>
        <time>2020-11-07T18:03:09Z</time>
      </trkpt>
      <trkpt lat="19.067061" lon="-97.279091">
        <ele>4049.816</ele>
        <time>2020-11-07T18:03:14Z</time>
      </trkpt>
      <trkpt lat="19.067039" lon="-97.279026">
        <ele>4052.576</ele>
        <time>2020-11-07T18:03:18Z</time>
      </trkpt>
      <trkpt lat="19.06705" lon="-97.278971">
        <ele>4055.313</ele>
        <time>2020-11-07T18:03:22Z</time>
      </trkpt>
      <trkpt lat="19.067093" lon="-97.278957">
        <ele>4055.808</ele>
        <time>2020-11-07T18:03:31Z</time>
      </trkpt>
      <trkpt lat="19.067064" lon="-97.278918">
        <ele>4056.997</ele>
        <time>2020-11-07T18:03:54Z</time>
      </trkpt>
      <trkpt lat="19.067028" lon="-97.278874">
        <ele>4056.841</ele>
        <time>2020-11-07T18:03:57Z</time>
      </trkpt>
      <trkpt lat="19.066996" lon="-97.278837">
        <ele>4057.191</ele>
        <time>2020-11-07T18:04:02Z</time>
      </trkpt>
      <trkpt lat="19.06695" lon="-97.27882">
        <ele>4058.163</ele>
        <time>2020-11-07T18:04:26Z</time>
      </trkpt>
      <trkpt lat="19.066918" lon="-97.278781">
        <ele>4058.759</ele>
        <time>2020-11-07T18:04:31Z</time>
      </trkpt>
      <trkpt lat="19.066883" lon="-97.278747">
        <ele>4059.143</ele>
        <time>2020-11-07T18:04:37Z</time>
      </trkpt>
      <trkpt lat="19.066854" lon="-97.278708">
        <ele>4059.380</ele>
        <time>2020-11-07T18:04:41Z</time>
      </trkpt>
      <trkpt lat="19.066897" lon="-97.278731">
        <ele>4059.489</ele>
        <time>2020-11-07T18:04:55Z</time>
      </trkpt>
      <trkpt lat="19.066877" lon="-97.278688">
        <ele>4060.724</ele>
        <time>2020-11-07T18:05:15Z</time>
      </trkpt>
      <trkpt lat="19.066844" lon="-97.278651">
        <ele>4061.504</ele>
        <time>2020-11-07T18:05:19Z</time>
      </trkpt>
      <trkpt lat="19.066812" lon="-97.278617">
        <ele>4062.014</ele>
        <time>2020-11-07T18:05:27Z</time>
      </trkpt>
      <trkpt lat="19.066787" lon="-97.278571">
        <ele>4062.308</ele>
        <time>2020-11-07T18:05:35Z</time>
      </trkpt>
      <trkpt lat="19.06677" lon="-97.278523">
        <ele>4062.528</ele>
        <time>2020-11-07T18:05:44Z</time>
      </trkpt>
      <trkpt lat="19.066763" lon="-97.278475">
        <ele>4065.492</ele>
        <time>2020-11-07T18:05:58Z</time>
      </trkpt>
      <trkpt lat="19.066714" lon="-97.27845">
        <ele>4069.142</ele>
        <time>2020-11-07T18:06:06Z</time>
      </trkpt>
      <trkpt lat="19.066751" lon="-97.278417">
        <ele>4071.374</ele>
        <time>2020-11-07T18:06:28Z</time>
      </trkpt>
      <trkpt lat="19.066714" lon="-97.278387">
        <ele>4072.680</ele>
        <time>2020-11-07T18:06:38Z</time>
      </trkpt>
      <trkpt lat="19.066677" lon="-97.27835">
        <ele>4073.434</ele>
        <time>2020-11-07T18:07:42Z</time>
      </trkpt>
      <trkpt lat="19.066681" lon="-97.278298">
        <ele>4073.991</ele>
        <time>2020-11-07T18:07:48Z</time>
      </trkpt>
      <trkpt lat="19.066658" lon="-97.27825">
        <ele>4074.660</ele>
        <time>2020-11-07T18:07:52Z</time>
      </trkpt>
      <trkpt lat="19.066647" lon="-97.278203">
        <ele>4076.617</ele>
        <time>2020-11-07T18:07:56Z</time>
      </trkpt>
      <trkpt lat="19.066646" lon="-97.278146">
        <ele>4077.887</ele>
        <time>2020-11-07T18:08:01Z</time>
      </trkpt>
      <trkpt lat="19.06664" lon="-97.278096">
        <ele>4078.515</ele>
        <time>2020-11-07T18:08:05Z</time>
      </trkpt>
      <trkpt lat="19.066631" lon="-97.278041">
        <ele>4078.508</ele>
        <time>2020-11-07T18:08:10Z</time>
      </trkpt>
      <trkpt lat="19.066624" lon="-97.277993">
        <ele>4078.567</ele>
        <time>2020-11-07T18:08:22Z</time>
      </trkpt>
      <trkpt lat="19.066608" lon="-97.277946">
        <ele>4082.581</ele>
        <time>2020-11-07T18:08:28Z</time>
      </trkpt>
      <trkpt lat="19.066578" lon="-97.277906">
        <ele>4086.571</ele>
        <time>2020-11-07T18:08:34Z</time>
      </trkpt>
      <trkpt lat="19.066539" lon="-97.277873">
        <ele>4090.153</ele>
        <time>2020-11-07T18:08:41Z</time>
      </trkpt>
      <trkpt lat="19.066498" lon="-97.277848">
        <ele>4092.359</ele>
        <time>2020-11-07T18:08:49Z</time>
      </trkpt>
      <trkpt lat="19.066452" lon="-97.277847">
        <ele>4094.023</ele>
        <time>2020-11-07T18:09:01Z</time>
      </trkpt>
      <trkpt lat="19.066405" lon="-97.277824">
        <ele>4096.680</ele>
        <time>2020-11-07T18:09:08Z</time>
      </trkpt>
      <trkpt lat="19.066361" lon="-97.277798">
        <ele>4100.659</ele>
        <time>2020-11-07T18:09:43Z</time>
      </trkpt>
      <trkpt lat="19.066312" lon="-97.277787">
        <ele>4103.856</ele>
        <time>2020-11-07T18:09:52Z</time>
      </trkpt>
      <trkpt lat="19.066271" lon="-97.277765">
        <ele>4105.759</ele>
        <time>2020-11-07T18:10:00Z</time>
      </trkpt>
      <trkpt lat="19.066235" lon="-97.277733">
        <ele>4106.814</ele>
        <time>2020-11-07T18:10:09Z</time>
      </trkpt>
      <trkpt lat="19.066195" lon="-97.27771">
        <ele>4106.308</ele>
        <time>2020-11-07T18:10:17Z</time>
      </trkpt>
      <trkpt lat="19.06615" lon="-97.277696">
        <ele>4106.441</ele>
        <time>2020-11-07T18:10:27Z</time>
      </trkpt>
      <trkpt lat="19.066116" lon="-97.277657">
        <ele>4106.155</ele>
        <time>2020-11-07T18:10:34Z</time>
      </trkpt>
      <trkpt lat="19.066088" lon="-97.277617">
        <ele>4106.315</ele>
        <time>2020-11-07T18:10:39Z</time>
      </trkpt>
      <trkpt lat="19.066047" lon="-97.277596">
        <ele>4106.477</ele>
        <time>2020-11-07T18:10:50Z</time>
      </trkpt>
      <trkpt lat="19.065639" lon="-97.276901">
        <ele>4110.943</ele>
        <time>2020-11-07T18:13:22Z</time>
      </trkpt>
      <trkpt lat="19.065615" lon="-97.276985">
        <ele>4098.957</ele>
        <time>2020-11-07T18:13:24Z</time>
      </trkpt>
      <trkpt lat="19.065593" lon="-97.276934">
        <ele>4100.544</ele>
        <time>2020-11-07T18:13:44Z</time>
      </trkpt>
      <trkpt lat="19.065586" lon="-97.276882">
        <ele>4103.123</ele>
        <time>2020-11-07T18:13:53Z</time>
      </trkpt>
      <trkpt lat="19.065542" lon="-97.276853">
        <ele>4105.463</ele>
        <time>2020-11-07T18:14:17Z</time>
      </trkpt>
      <trkpt lat="19.065524" lon="-97.276802">
        <ele>4105.644</ele>
        <time>2020-11-07T18:14:26Z</time>
      </trkpt>
      <trkpt lat="19.065515" lon="-97.276755">
        <ele>4106.118</ele>
        <time>2020-11-07T18:14:33Z</time>
      </trkpt>
      <trkpt lat="19.065475" lon="-97.276729">
        <ele>4106.408</ele>
        <time>2020-11-07T18:14:45Z</time>
      </trkpt>
      <trkpt lat="19.065441" lon="-97.276696">
        <ele>4108.282</ele>
        <time>2020-11-07T18:14:53Z</time>
      </trkpt>
      <trkpt lat="19.065398" lon="-97.276674">
        <ele>4110.586</ele>
        <time>2020-11-07T18:15:02Z</time>
      </trkpt>
      <trkpt lat="19.065359" lon="-97.276644">
        <ele>4111.926</ele>
        <time>2020-11-07T18:15:09Z</time>
      </trkpt>
      <trkpt lat="19.065356" lon="-97.276594">
        <ele>4112.748</ele>
        <time>2020-11-07T18:15:14Z</time>
      </trkpt>
      <trkpt lat="19.065334" lon="-97.276551">
        <ele>4113.634</ele>
        <time>2020-11-07T18:15:20Z</time>
      </trkpt>
      <trkpt lat="19.065305" lon="-97.276513">
        <ele>4113.388</ele>
        <time>2020-11-07T18:15:26Z</time>
      </trkpt>
      <trkpt lat="19.065276" lon="-97.276477">
        <ele>4113.565</ele>
        <time>2020-11-07T18:15:34Z</time>
      </trkpt>
      <trkpt lat="19.065257" lon="-97.276426">
        <ele>4115.234</ele>
        <time>2020-11-07T18:15:40Z</time>
      </trkpt>
      <trkpt lat="19.065241" lon="-97.276372">
        <ele>4117.437</ele>
        <time>2020-11-07T18:16:03Z</time>
      </trkpt>
      <trkpt lat="19.06521" lon="-97.276331">
        <ele>4119.949</ele>
        <time>2020-11-07T18:16:08Z</time>
      </trkpt>
      <trkpt lat="19.065168" lon="-97.276305">
        <ele>4121.013</ele>
        <time>2020-11-07T18:16:14Z</time>
      </trkpt>
      <trkpt lat="19.065138" lon="-97.276267">
        <ele>4123.708</ele>
        <time>2020-11-07T18:16:39Z</time>
      </trkpt>
      <trkpt lat="19.065097" lon="-97.276239">
        <ele>4125.739</ele>
        <time>2020-11-07T18:16:46Z</time>
      </trkpt>
      <trkpt lat="19.065084" lon="-97.276191">
        <ele>4127.763</ele>
        <time>2020-11-07T18:16:51Z</time>
      </trkpt>
      <trkpt lat="19.065077" lon="-97.276134">
        <ele>4129.323</ele>
        <time>2020-11-07T18:16:56Z</time>
      </trkpt>
      <trkpt lat="19.065048" lon="-97.276092">
        <ele>4130.765</ele>
        <time>2020-11-07T18:17:03Z</time>
      </trkpt>
      <trkpt lat="19.065019" lon="-97.276051">
        <ele>4130.351</ele>
        <time>2020-11-07T18:17:13Z</time>
      </trkpt>
      <trkpt lat="19.064973" lon="-97.276045">
        <ele>4128.985</ele>
        <time>2020-11-07T18:17:24Z</time>
      </trkpt>
      <trkpt lat="19.064937" lon="-97.276016">
        <ele>4126.462</ele>
        <time>2020-11-07T18:23:16Z</time>
      </trkpt>
      <trkpt lat="19.064913" lon="-97.275972">
        <ele>4123.391</ele>
        <time>2020-11-07T18:24:02Z</time>
      </trkpt>
      <trkpt lat="19.064882" lon="-97.275936">
        <ele>4121.186</ele>
        <time>2020-11-07T18:24:06Z</time>
      </trkpt>
      <trkpt lat="19.064858" lon="-97.275888">
        <ele>4120.260</ele>
        <time>2020-11-07T18:24:11Z</time>
      </trkpt>
      <trkpt lat="19.06483" lon="-97.275849">
        <ele>4119.226</ele>
        <time>2020-11-07T18:24:15Z</time>
      </trkpt>
      <trkpt lat="19.064794" lon="-97.27581">
        <ele>4118.608</ele>
        <time>2020-11-07T18:24:20Z</time>
      </trkpt>
      <trkpt lat="19.06476" lon="-97.275772">
        <ele>4119.144</ele>
        <time>2020-11-07T18:24:25Z</time>
      </trkpt>
      <trkpt lat="19.064733" lon="-97.275732">
        <ele>4119.478</ele>
        <time>2020-11-07T18:24:31Z</time>
      </trkpt>
      <trkpt lat="19.064703" lon="-97.275694">
        <ele>4118.458</ele>
        <time>2020-11-07T18:24:35Z</time>
      </trkpt>
      <trkpt lat="19.064662" lon="-97.275669">
        <ele>4119.820</ele>
        <time>2020-11-07T18:24:43Z</time>
      </trkpt>
      <trkpt lat="19.064635" lon="-97.275627">
        <ele>4120.226</ele>
        <time>2020-11-07T18:24:50Z</time>
      </trkpt>
      <trkpt lat="19.064611" lon="-97.275581">
        <ele>4120.580</ele>
        <time>2020-11-07T18:24:55Z</time>
      </trkpt>
      <trkpt lat="19.064588" lon="-97.275536">
        <ele>4121.137</ele>
        <time>2020-11-07T18:25:00Z</time>
      </trkpt>
      <trkpt lat="19.064556" lon="-97.275501">
        <ele>4120.236</ele>
        <time>2020-11-07T18:25:05Z</time>
      </trkpt>
      <trkpt lat="19.06452" lon="-97.275468">
        <ele>4120.536</ele>
        <time>2020-11-07T18:25:10Z</time>
      </trkpt>
      <trkpt lat="19.064499" lon="-97.275425">
        <ele>4121.117</ele>
        <time>2020-11-07T18:25:15Z</time>
      </trkpt>
      <trkpt lat="19.064473" lon="-97.275383">
        <ele>4120.618</ele>
        <time>2020-11-07T18:25:19Z</time>
      </trkpt>
      <trkpt lat="19.064439" lon="-97.275343">
        <ele>4119.508</ele>
        <time>2020-11-07T18:25:27Z</time>
      </trkpt>
      <trkpt lat="19.064401" lon="-97.275314">
        <ele>4118.919</ele>
        <time>2020-11-07T18:25:34Z</time>
      </trkpt>
      <trkpt lat="19.064384" lon="-97.27526">
        <ele>4120.133</ele>
        <time>2020-11-07T18:25:38Z</time>
      </trkpt>
      <trkpt lat="19.064367" lon="-97.275215">
        <ele>4120.883</ele>
        <time>2020-11-07T18:25:45Z</time>
      </trkpt>
      <trkpt lat="19.064323" lon="-97.275197">
        <ele>4120.875</ele>
        <time>2020-11-07T18:25:59Z</time>
      </trkpt>
      <trkpt lat="19.064316" lon="-97.275147">
        <ele>4121.651</ele>
        <time>2020-11-07T18:26:08Z</time>
      </trkpt>
      <trkpt lat="19.064287" lon="-97.2751">
        <ele>4121.365</ele>
        <time>2020-11-07T18:26:12Z</time>
      </trkpt>
      <trkpt lat="19.064262" lon="-97.275052">
        <ele>4122.772</ele>
        <time>2020-11-07T18:26:38Z</time>
      </trkpt>
      <trkpt lat="19.064263" lon="-97.275004">
        <ele>4123.941</ele>
        <time>2020-11-07T18:26:48Z</time>
      </trkpt>
      <trkpt lat="19.06429" lon="-97.274957">
        <ele>4125.491</ele>
        <time>2020-11-07T18:26:58Z</time>
      </trkpt>
      <trkpt lat="19.064306" lon="-97.274911">
        <ele>4127.181</ele>
        <time>2020-11-07T18:27:11Z</time>
      </trkpt>
      <trkpt lat="19.064322" lon="-97.274862">
        <ele>4126.919</ele>
        <time>2020-11-07T18:27:21Z</time>
      </trkpt>
      <trkpt lat="19.064335" lon="-97.274816">
        <ele>4125.608</ele>
        <time>2020-11-07T18:27:28Z</time>
      </trkpt>
      <trkpt lat="19.064331" lon="-97.274763">
        <ele>4125.615</ele>
        <time>2020-11-07T18:27:34Z</time>
      </trkpt>
      <trkpt lat="19.064321" lon="-97.274713">
        <ele>4125.299</ele>
        <time>2020-11-07T18:27:39Z</time>
      </trkpt>
      <trkpt lat="19.064338" lon="-97.274661">
        <ele>4124.289</ele>
        <time>2020-11-07T18:27:46Z</time>
      </trkpt>
      <trkpt lat="19.064353" lon="-97.274611">
        <ele>4123.631</ele>
        <time>2020-11-07T18:27:52Z</time>
      </trkpt>
      <trkpt lat="19.064348" lon="-97.27456">
        <ele>4123.697</ele>
        <time>2020-11-07T18:27:58Z</time>
      </trkpt>
      <trkpt lat="19.064353" lon="-97.274505">
        <ele>4123.251</ele>
        <time>2020-11-07T18:28:03Z</time>
      </trkpt>
      <trkpt lat="19.064345" lon="-97.274445">
        <ele>4121.888</ele>
        <time>2020-11-07T18:28:08Z</time>
      </trkpt>
      <trkpt lat="19.064334" lon="-97.274394">
        <ele>4119.327</ele>
        <time>2020-11-07T18:28:12Z</time>
      </trkpt>
      <trkpt lat="19.06433" lon="-97.274342">
        <ele>4119.095</ele>
        <time>2020-11-07T18:28:16Z</time>
      </trkpt>
      <trkpt lat="19.064343" lon="-97.274295">
        <ele>4116.449</ele>
        <time>2020-11-07T18:28:21Z</time>
      </trkpt>
      <trkpt lat="19.064358" lon="-97.274246">
        <ele>4115.323</ele>
        <time>2020-11-07T18:28:27Z</time>
      </trkpt>
      <trkpt lat="19.06435" lon="-97.274197">
        <ele>4113.808</ele>
        <time>2020-11-07T18:28:33Z</time>
      </trkpt>
      <trkpt lat="19.064363" lon="-97.27415">
        <ele>4115.745</ele>
        <time>2020-11-07T18:28:42Z</time>
      </trkpt>
      <trkpt lat="19.064311" lon="-97.274159">
        <ele>4116.499</ele>
        <time>2020-11-07T18:29:05Z</time>
      </trkpt>
      <trkpt lat="19.06426" lon="-97.274146">
        <ele>4117.219</ele>
        <time>2020-11-07T18:29:08Z</time>
      </trkpt>
      <trkpt lat="19.064217" lon="-97.274131">
        <ele>4118.521</ele>
        <time>2020-11-07T18:29:11Z</time>
      </trkpt>
      <trkpt lat="19.064178" lon="-97.274105">
        <ele>4117.327</ele>
        <time>2020-11-07T18:29:16Z</time>
      </trkpt>
      <trkpt lat="19.064149" lon="-97.274064">
        <ele>4115.051</ele>
        <time>2020-11-07T18:29:22Z</time>
      </trkpt>
      <trkpt lat="19.064107" lon="-97.274042">
        <ele>4116.038</ele>
        <time>2020-11-07T18:29:45Z</time>
      </trkpt>
      <trkpt lat="19.064059" lon="-97.274021">
        <ele>4117.847</ele>
        <time>2020-11-07T18:30:01Z</time>
      </trkpt>
      <trkpt lat="19.064013" lon="-97.273988">
        <ele>4115.764</ele>
        <time>2020-11-07T18:30:07Z</time>
      </trkpt>
      <trkpt lat="19.063968" lon="-97.273946">
        <ele>4114.006</ele>
        <time>2020-11-07T18:30:11Z</time>
      </trkpt>
      <trkpt lat="19.063924" lon="-97.27392">
        <ele>4111.816</ele>
        <time>2020-11-07T18:30:16Z</time>
      </trkpt>
      <trkpt lat="19.063888" lon="-97.273882">
        <ele>4110.908</ele>
        <time>2020-11-07T18:30:21Z</time>
      </trkpt>
      <trkpt lat="19.063855" lon="-97.273843">
        <ele>4110.782</ele>
        <time>2020-11-07T18:30:27Z</time>
      </trkpt>
      <trkpt lat="19.063825" lon="-97.273806">
        <ele>4109.446</ele>
        <time>2020-11-07T18:30:36Z</time>
      </trkpt>
      <trkpt lat="19.063818" lon="-97.273754">
        <ele>4108.286</ele>
        <time>2020-11-07T18:30:56Z</time>
      </trkpt>
      <trkpt lat="19.063786" lon="-97.273716">
        <ele>4108.728</ele>
        <time>2020-11-07T18:31:06Z</time>
      </trkpt>
      <trkpt lat="19.063763" lon="-97.273667">
        <ele>4107.834</ele>
        <time>2020-11-07T18:31:14Z</time>
      </trkpt>
      <trkpt lat="19.06373" lon="-97.273634">
        <ele>4106.928</ele>
        <time>2020-11-07T18:31:20Z</time>
      </trkpt>
      <trkpt lat="19.063699" lon="-97.273591">
        <ele>4105.115</ele>
        <time>2020-11-07T18:31:26Z</time>
      </trkpt>
      <trkpt lat="19.063665" lon="-97.273549">
        <ele>4103.254</ele>
        <time>2020-11-07T18:31:43Z</time>
      </trkpt>
      <trkpt lat="19.063645" lon="-97.2735">
        <ele>4102.176</ele>
        <time>2020-11-07T18:31:48Z</time>
      </trkpt>
      <trkpt lat="19.063613" lon="-97.273455">
        <ele>4100.690</ele>
        <time>2020-11-07T18:31:54Z</time>
      </trkpt>
      <trkpt lat="19.063595" lon="-97.27341">
        <ele>4098.919</ele>
        <time>2020-11-07T18:31:59Z</time>
      </trkpt>
      <trkpt lat="19.06355" lon="-97.273375">
        <ele>4095.908</ele>
        <time>2020-11-07T18:32:04Z</time>
      </trkpt>
      <trkpt lat="19.06351" lon="-97.273344">
        <ele>4094.533</ele>
        <time>2020-11-07T18:32:08Z</time>
      </trkpt>
      <trkpt lat="19.063465" lon="-97.273325">
        <ele>4094.987</ele>
        <time>2020-11-07T18:32:13Z</time>
      </trkpt>
      <trkpt lat="19.063422" lon="-97.27331">
        <ele>4094.717</ele>
        <time>2020-11-07T18:32:18Z</time>
      </trkpt>
      <trkpt lat="19.063384" lon="-97.273274">
        <ele>4095.879</ele>
        <time>2020-11-07T18:32:21Z</time>
      </trkpt>
      <trkpt lat="19.063343" lon="-97.273238">
        <ele>4095.395</ele>
        <time>2020-11-07T18:32:25Z</time>
      </trkpt>
      <trkpt lat="19.063306" lon="-97.27321">
        <ele>4095.459</ele>
        <time>2020-11-07T18:32:32Z</time>
      </trkpt>
      <trkpt lat="19.06326" lon="-97.273181">
        <ele>4095.496</ele>
        <time>2020-11-07T18:32:39Z</time>
      </trkpt>
      <trkpt lat="19.063228" lon="-97.273137">
        <ele>4093.495</ele>
        <time>2020-11-07T18:32:44Z</time>
      </trkpt>
      <trkpt lat="19.063185" lon="-97.27312">
        <ele>4091.834</ele>
        <time>2020-11-07T18:32:56Z</time>
      </trkpt>
      <trkpt lat="19.063148" lon="-97.273077">
        <ele>4090.855</ele>
        <time>2020-11-07T18:33:02Z</time>
      </trkpt>
      <trkpt lat="19.063109" lon="-97.273038">
        <ele>4089.810</ele>
        <time>2020-11-07T18:33:07Z</time>
      </trkpt>
      <trkpt lat="19.063061" lon="-97.273016">
        <ele>4089.208</ele>
        <time>2020-11-07T18:33:12Z</time>
      </trkpt>
      <trkpt lat="19.063027" lon="-97.27298">
        <ele>4088.139</ele>
        <time>2020-11-07T18:33:15Z</time>
      </trkpt>
      <trkpt lat="19.062986" lon="-97.272944">
        <ele>4086.613</ele>
        <time>2020-11-07T18:33:21Z</time>
      </trkpt>
      <trkpt lat="19.062942" lon="-97.272918">
        <ele>4084.563</ele>
        <time>2020-11-07T18:33:26Z</time>
      </trkpt>
      <trkpt lat="19.062898" lon="-97.272903">
        <ele>4084.425</ele>
        <time>2020-11-07T18:33:33Z</time>
      </trkpt>
      <trkpt lat="19.062861" lon="-97.272931">
        <ele>4084.831</ele>
        <time>2020-11-07T18:33:40Z</time>
      </trkpt>
      <trkpt lat="19.062817" lon="-97.272913">
        <ele>4087.085</ele>
        <time>2020-11-07T18:33:47Z</time>
      </trkpt>
      <trkpt lat="19.062784" lon="-97.272879">
        <ele>4087.962</ele>
        <time>2020-11-07T18:33:51Z</time>
      </trkpt>
      <trkpt lat="19.062756" lon="-97.272839">
        <ele>4088.111</ele>
        <time>2020-11-07T18:33:55Z</time>
      </trkpt>
      <trkpt lat="19.062722" lon="-97.2728">
        <ele>4087.839</ele>
        <time>2020-11-07T18:33:59Z</time>
      </trkpt>
      <trkpt lat="19.062683" lon="-97.272761">
        <ele>4086.401</ele>
        <time>2020-11-07T18:34:04Z</time>
      </trkpt>
      <trkpt lat="19.06264" lon="-97.272742">
        <ele>4086.421</ele>
        <time>2020-11-07T18:34:12Z</time>
      </trkpt>
      <trkpt lat="19.062601" lon="-97.272701">
        <ele>4086.008</ele>
        <time>2020-11-07T18:34:18Z</time>
      </trkpt>
      <trkpt lat="19.062564" lon="-97.272666">
        <ele>4085.399</ele>
        <time>2020-11-07T18:34:23Z</time>
      </trkpt>
      <trkpt lat="19.062528" lon="-97.272637">
        <ele>4086.513</ele>
        <time>2020-11-07T18:34:28Z</time>
      </trkpt>
      <trkpt lat="19.062485" lon="-97.272619">
        <ele>4088.013</ele>
        <time>2020-11-07T18:34:33Z</time>
      </trkpt>
      <trkpt lat="19.062451" lon="-97.272576">
        <ele>4088.115</ele>
        <time>2020-11-07T18:34:38Z</time>
      </trkpt>
      <trkpt lat="19.062412" lon="-97.272539">
        <ele>4088.621</ele>
        <time>2020-11-07T18:34:43Z</time>
      </trkpt>
      <trkpt lat="19.062369" lon="-97.272509">
        <ele>4088.955</ele>
        <time>2020-11-07T18:34:49Z</time>
      </trkpt>
      <trkpt lat="19.062318" lon="-97.272479">
        <ele>4089.572</ele>
        <time>2020-11-07T18:34:55Z</time>
      </trkpt>
      <trkpt lat="19.06229" lon="-97.272439">
        <ele>4090.691</ele>
        <time>2020-11-07T18:34:59Z</time>
      </trkpt>
      <trkpt lat="19.062265" lon="-97.272397">
        <ele>4091.777</ele>
        <time>2020-11-07T18:35:03Z</time>
      </trkpt>
      <trkpt lat="19.062233" lon="-97.272348">
        <ele>4092.461</ele>
        <time>2020-11-07T18:35:08Z</time>
      </trkpt>
      <trkpt lat="19.062187" lon="-97.272332">
        <ele>4092.427</ele>
        <time>2020-11-07T18:35:14Z</time>
      </trkpt>
      <trkpt lat="19.062146" lon="-97.272307">
        <ele>4094.008</ele>
        <time>2020-11-07T18:35:20Z</time>
      </trkpt>
      <trkpt lat="19.062096" lon="-97.27229">
        <ele>4095.853</ele>
        <time>2020-11-07T18:35:26Z</time>
      </trkpt>
      <trkpt lat="19.062055" lon="-97.27226">
        <ele>4097.357</ele>
        <time>2020-11-07T18:35:32Z</time>
      </trkpt>
      <trkpt lat="19.062027" lon="-97.272213">
        <ele>4098.267</ele>
        <time>2020-11-07T18:35:37Z</time>
      </trkpt>
      <trkpt lat="19.061983" lon="-97.272178">
        <ele>4098.799</ele>
        <time>2020-11-07T18:35:42Z</time>
      </trkpt>
      <trkpt lat="19.061946" lon="-97.27215">
        <ele>4097.485</ele>
        <time>2020-11-07T18:35:46Z</time>
      </trkpt>
      <trkpt lat="19.061898" lon="-97.27213">
        <ele>4096.259</ele>
        <time>2020-11-07T18:35:52Z</time>
      </trkpt>
      <trkpt lat="19.061857" lon="-97.27211">
        <ele>4095.956</ele>
        <time>2020-11-07T18:35:58Z</time>
      </trkpt>
      <trkpt lat="19.061824" lon="-97.27207">
        <ele>4096.555</ele>
        <time>2020-11-07T18:36:04Z</time>
      </trkpt>
      <trkpt lat="19.061788" lon="-97.272041">
        <ele>4096.996</ele>
        <time>2020-11-07T18:36:11Z</time>
      </trkpt>
      <trkpt lat="19.061743" lon="-97.272018">
        <ele>4097.931</ele>
        <time>2020-11-07T18:36:19Z</time>
      </trkpt>
      <trkpt lat="19.061694" lon="-97.272031">
        <ele>4098.524</ele>
        <time>2020-11-07T18:36:26Z</time>
      </trkpt>
      <trkpt lat="19.061646" lon="-97.272032">
        <ele>4098.908</ele>
        <time>2020-11-07T18:36:32Z</time>
      </trkpt>
      <trkpt lat="19.061602" lon="-97.272009">
        <ele>4099.585</ele>
        <time>2020-11-07T18:36:38Z</time>
      </trkpt>
      <trkpt lat="19.061558" lon="-97.271984">
        <ele>4099.969</ele>
        <time>2020-11-07T18:36:43Z</time>
      </trkpt>
      <trkpt lat="19.061511" lon="-97.271968">
        <ele>4100.169</ele>
        <time>2020-11-07T18:36:49Z</time>
      </trkpt>
      <trkpt lat="19.06146" lon="-97.271961">
        <ele>4100.281</ele>
        <time>2020-11-07T18:36:55Z</time>
      </trkpt>
      <trkpt lat="19.061411" lon="-97.271943">
        <ele>4100.337</ele>
        <time>2020-11-07T18:37:01Z</time>
      </trkpt>
      <trkpt lat="19.061367" lon="-97.271932">
        <ele>4096.331</ele>
        <time>2020-11-07T18:37:08Z</time>
      </trkpt>
      <trkpt lat="19.061321" lon="-97.271913">
        <ele>4092.368</ele>
        <time>2020-11-07T18:37:13Z</time>
      </trkpt>
      <trkpt lat="19.061277" lon="-97.271886">
        <ele>4088.317</ele>
        <time>2020-11-07T18:37:18Z</time>
      </trkpt>
      <trkpt lat="19.061238" lon="-97.271861">
        <ele>4092.392</ele>
        <time>2020-11-07T18:37:25Z</time>
      </trkpt>
      <trkpt lat="19.061196" lon="-97.271831">
        <ele>4094.773</ele>
        <time>2020-11-07T18:37:29Z</time>
      </trkpt>
      <trkpt lat="19.06116" lon="-97.2718">
        <ele>4095.420</ele>
        <time>2020-11-07T18:37:33Z</time>
      </trkpt>
      <trkpt lat="19.061124" lon="-97.271771">
        <ele>4095.808</ele>
        <time>2020-11-07T18:37:37Z</time>
      </trkpt>
      <trkpt lat="19.06109" lon="-97.271739">
        <ele>4096.825</ele>
        <time>2020-11-07T18:37:41Z</time>
      </trkpt>
      <trkpt lat="19.061054" lon="-97.271707">
        <ele>4097.449</ele>
        <time>2020-11-07T18:37:46Z</time>
      </trkpt>
      <trkpt lat="19.061019" lon="-97.271662">
        <ele>4097.869</ele>
        <time>2020-11-07T18:37:51Z</time>
      </trkpt>
      <trkpt lat="19.060985" lon="-97.271628">
        <ele>4098.051</ele>
        <time>2020-11-07T18:37:56Z</time>
      </trkpt>
      <trkpt lat="19.060948" lon="-97.271594">
        <ele>4098.197</ele>
        <time>2020-11-07T18:38:01Z</time>
      </trkpt>
      <trkpt lat="19.060909" lon="-97.271561">
        <ele>4094.111</ele>
        <time>2020-11-07T18:38:06Z</time>
      </trkpt>
      <trkpt lat="19.060869" lon="-97.271532">
        <ele>4090.158</ele>
        <time>2020-11-07T18:38:12Z</time>
      </trkpt>
      <trkpt lat="19.060824" lon="-97.27151">
        <ele>4086.157</ele>
        <time>2020-11-07T18:38:18Z</time>
      </trkpt>
      <trkpt lat="19.060775" lon="-97.271493">
        <ele>4082.112</ele>
        <time>2020-11-07T18:38:23Z</time>
      </trkpt>
      <trkpt lat="19.060727" lon="-97.271476">
        <ele>4086.132</ele>
        <time>2020-11-07T18:38:28Z</time>
      </trkpt>
      <trkpt lat="19.060679" lon="-97.271459">
        <ele>4090.105</ele>
        <time>2020-11-07T18:38:33Z</time>
      </trkpt>
      <trkpt lat="19.060634" lon="-97.271465">
        <ele>4094.108</ele>
        <time>2020-11-07T18:38:41Z</time>
      </trkpt>
      <trkpt lat="19.060594" lon="-97.271438">
        <ele>4098.167</ele>
        <time>2020-11-07T18:38:46Z</time>
      </trkpt>
      <trkpt lat="19.060566" lon="-97.271399">
        <ele>4100.291</ele>
        <time>2020-11-07T18:38:50Z</time>
      </trkpt>
      <trkpt lat="19.06053" lon="-97.271364">
        <ele>4100.671</ele>
        <time>2020-11-07T18:38:54Z</time>
      </trkpt>
      <trkpt lat="19.060495" lon="-97.271332">
        <ele>4102.943</ele>
        <time>2020-11-07T18:38:58Z</time>
      </trkpt>
      <trkpt lat="19.060459" lon="-97.271289">
        <ele>4104.349</ele>
        <time>2020-11-07T18:39:01Z</time>
      </trkpt>
      <trkpt lat="19.060425" lon="-97.271256">
        <ele>4107.163</ele>
        <time>2020-11-07T18:39:06Z</time>
      </trkpt>
      <trkpt lat="19.060378" lon="-97.271247">
        <ele>4110.420</ele>
        <time>2020-11-07T18:39:12Z</time>
      </trkpt>
      <trkpt lat="19.060327" lon="-97.271244">
        <ele>4111.689</ele>
        <time>2020-11-07T18:39:19Z</time>
      </trkpt>
      <trkpt lat="19.060279" lon="-97.271246">
        <ele>4112.754</ele>
        <time>2020-11-07T18:39:25Z</time>
      </trkpt>
      <trkpt lat="19.060235" lon="-97.271268">
        <ele>4114.256</ele>
        <time>2020-11-07T18:39:36Z</time>
      </trkpt>
      <trkpt lat="19.060193" lon="-97.271287">
        <ele>4115.111</ele>
        <time>2020-11-07T18:39:42Z</time>
      </trkpt>
      <trkpt lat="19.059864" lon="-97.271093">
        <ele>4118.708</ele>
        <time>2020-11-07T18:42:23Z</time>
      </trkpt>
      <trkpt lat="19.059839" lon="-97.271048">
        <ele>4118.761</ele>
        <time>2020-11-07T18:42:28Z</time>
      </trkpt>
      <trkpt lat="19.059794" lon="-97.271046">
        <ele>4118.725</ele>
        <time>2020-11-07T18:42:32Z</time>
      </trkpt>
      <trkpt lat="19.059843" lon="-97.271035">
        <ele>4118.795</ele>
        <time>2020-11-07T18:42:36Z</time>
      </trkpt>
      <trkpt lat="19.059793" lon="-97.271007">
        <ele>4115.977</ele>
        <time>2020-11-07T18:42:42Z</time>
      </trkpt>
      <trkpt lat="19.059745" lon="-97.270996">
        <ele>4114.273</ele>
        <time>2020-11-07T18:42:47Z</time>
      </trkpt>
      <trkpt lat="19.059704" lon="-97.270961">
        <ele>4113.687</ele>
        <time>2020-11-07T18:42:52Z</time>
      </trkpt>
      <trkpt lat="19.059663" lon="-97.270982">
        <ele>4114.494</ele>
        <time>2020-11-07T18:42:57Z</time>
      </trkpt>
      <trkpt lat="19.059619" lon="-97.271004">
        <ele>4114.923</ele>
        <time>2020-11-07T18:43:02Z</time>
      </trkpt>
      <trkpt lat="19.059576" lon="-97.270976">
        <ele>4115.651</ele>
        <time>2020-11-07T18:43:08Z</time>
      </trkpt>
      <trkpt lat="19.059555" lon="-97.270933">
        <ele>4114.801</ele>
        <time>2020-11-07T18:43:12Z</time>
      </trkpt>
      <trkpt lat="19.059532" lon="-97.270892">
        <ele>4113.911</ele>
        <time>2020-11-07T18:43:17Z</time>
      </trkpt>
      <trkpt lat="19.059494" lon="-97.270859">
        <ele>4115.008</ele>
        <time>2020-11-07T18:43:26Z</time>
      </trkpt>
      <trkpt lat="19.059448" lon="-97.270839">
        <ele>4116.411</ele>
        <time>2020-11-07T18:43:33Z</time>
      </trkpt>
      <trkpt lat="19.059407" lon="-97.270818">
        <ele>4117.735</ele>
        <time>2020-11-07T18:43:40Z</time>
      </trkpt>
      <trkpt lat="19.059379" lon="-97.27078">
        <ele>4118.575</ele>
        <time>2020-11-07T18:43:49Z</time>
      </trkpt>
      <trkpt lat="19.059339" lon="-97.270758">
        <ele>4119.497</ele>
        <time>2020-11-07T18:44:05Z</time>
      </trkpt>
      <trkpt lat="19.0593" lon="-97.270726">
        <ele>4120.723</ele>
        <time>2020-11-07T18:44:13Z</time>
      </trkpt>
      <trkpt lat="19.059253" lon="-97.270732">
        <ele>4121.517</ele>
        <time>2020-11-07T18:44:22Z</time>
      </trkpt>
      <trkpt lat="19.059208" lon="-97.270731">
        <ele>4125.554</ele>
        <time>2020-11-07T18:44:33Z</time>
      </trkpt>
      <trkpt lat="19.059177" lon="-97.27077">
        <ele>4126.033</ele>
        <time>2020-11-07T18:44:43Z</time>
      </trkpt>
      <trkpt lat="19.059128" lon="-97.270744">
        <ele>4128.345</ele>
        <time>2020-11-07T18:44:50Z</time>
      </trkpt>
      <trkpt lat="19.059092" lon="-97.270702">
        <ele>4130.947</ele>
        <time>2020-11-07T18:44:56Z</time>
      </trkpt>
      <trkpt lat="19.059055" lon="-97.270663">
        <ele>4132.011</ele>
        <time>2020-11-07T18:45:02Z</time>
      </trkpt>
      <trkpt lat="19.059013" lon="-97.270637">
        <ele>4132.308</ele>
        <time>2020-11-07T18:45:08Z</time>
      </trkpt>
      <trkpt lat="19.058967" lon="-97.270638">
        <ele>4132.910</ele>
        <time>2020-11-07T18:45:15Z</time>
      </trkpt>
      <trkpt lat="19.058917" lon="-97.270645">
        <ele>4133.244</ele>
        <time>2020-11-07T18:45:36Z</time>
      </trkpt>
      <trkpt lat="19.058892" lon="-97.270692">
        <ele>4129.434</ele>
        <time>2020-11-07T18:45:42Z</time>
      </trkpt>
      <trkpt lat="19.058838" lon="-97.270693">
        <ele>4127.196</ele>
        <time>2020-11-07T18:45:51Z</time>
      </trkpt>
      <trkpt lat="19.058817" lon="-97.270639">
        <ele>4124.522</ele>
        <time>2020-11-07T18:45:55Z</time>
      </trkpt>
      <trkpt lat="19.058788" lon="-97.2706">
        <ele>4121.456</ele>
        <time>2020-11-07T18:46:02Z</time>
      </trkpt>
      <trkpt lat="19.058735" lon="-97.270579">
        <ele>4119.593</ele>
        <time>2020-11-07T18:46:12Z</time>
      </trkpt>
      <trkpt lat="19.058709" lon="-97.270537">
        <ele>4118.492</ele>
        <time>2020-11-07T18:46:16Z</time>
      </trkpt>
      <trkpt lat="19.058663" lon="-97.27052">
        <ele>4122.412</ele>
        <time>2020-11-07T18:46:23Z</time>
      </trkpt>
      <trkpt lat="19.058616" lon="-97.270534">
        <ele>4126.432</ele>
        <time>2020-11-07T18:46:49Z</time>
      </trkpt>
      <trkpt lat="19.058567" lon="-97.270551">
        <ele>4130.405</ele>
        <time>2020-11-07T18:46:53Z</time>
      </trkpt>
      <trkpt lat="19.058522" lon="-97.270559">
        <ele>4134.408</ele>
        <time>2020-11-07T18:47:00Z</time>
      </trkpt>
      <trkpt lat="19.058475" lon="-97.270565">
        <ele>4138.427</ele>
        <time>2020-11-07T18:47:19Z</time>
      </trkpt>
      <trkpt lat="19.058426" lon="-97.270566">
        <ele>4141.741</ele>
        <time>2020-11-07T18:47:25Z</time>
      </trkpt>
      <trkpt lat="19.058378" lon="-97.270555">
        <ele>4143.721</ele>
        <time>2020-11-07T18:47:32Z</time>
      </trkpt>
      <trkpt lat="19.058334" lon="-97.270525">
        <ele>4147.743</ele>
        <time>2020-11-07T18:47:37Z</time>
      </trkpt>
      <trkpt lat="19.058288" lon="-97.2705">
        <ele>4151.779</ele>
        <time>2020-11-07T18:47:43Z</time>
      </trkpt>
      <trkpt lat="19.058241" lon="-97.2705">
        <ele>4153.793</ele>
        <time>2020-11-07T18:47:49Z</time>
      </trkpt>
      <trkpt lat="19.058206" lon="-97.27046">
        <ele>4155.720</ele>
        <time>2020-11-07T18:48:00Z</time>
      </trkpt>
      <trkpt lat="19.058205" lon="-97.270407">
        <ele>4156.979</ele>
        <time>2020-11-07T18:48:21Z</time>
      </trkpt>
      <trkpt lat="19.058222" lon="-97.270361">
        <ele>4158.023</ele>
        <time>2020-11-07T18:48:25Z</time>
      </trkpt>
      <trkpt lat="19.058217" lon="-97.270308">
        <ele>4158.783</ele>
        <time>2020-11-07T18:48:30Z</time>
      </trkpt>
      <trkpt lat="19.058202" lon="-97.270257">
        <ele>4160.711</ele>
        <time>2020-11-07T18:48:37Z</time>
      </trkpt>
      <trkpt lat="19.058168" lon="-97.270223">
        <ele>4163.108</ele>
        <time>2020-11-07T18:48:49Z</time>
      </trkpt>
      <trkpt lat="19.058123" lon="-97.270217">
        <ele>4164.928</ele>
        <time>2020-11-07T18:48:55Z</time>
      </trkpt>
      <trkpt lat="19.058074" lon="-97.270208">
        <ele>4166.022</ele>
        <time>2020-11-07T18:49:01Z</time>
      </trkpt>
      <trkpt lat="19.058025" lon="-97.270188">
        <ele>4166.732</ele>
        <time>2020-11-07T18:49:07Z</time>
      </trkpt>
      <trkpt lat="19.057981" lon="-97.270176">
        <ele>4163.944</ele>
        <time>2020-11-07T18:49:16Z</time>
      </trkpt>
      <trkpt lat="19.057968" lon="-97.270119">
        <ele>4159.930</ele>
        <time>2020-11-07T18:49:32Z</time>
      </trkpt>
      <trkpt lat="19.057971" lon="-97.269937">
        <ele>4251.046</ele>
        <time>2020-11-08T01:04:16Z</time>
      </trkpt>
      <trkpt lat="19.057936" lon="-97.269907">
        <ele>4253.088</ele>
        <time>2020-11-08T01:04:30Z</time>
      </trkpt>
      <trkpt lat="19.057936" lon="-97.269907">
        <ele>4253.016</ele>
        <time>2020-11-08T01:04:30Z</time>
      </trkpt>
      <trkpt lat="19.057893" lon="-97.269889">
        <ele>4251.408</ele>
        <time>2020-11-08T01:04:36Z</time>
      </trkpt>
      <trkpt lat="19.057845" lon="-97.269893">
        <ele>4249.680</ele>
        <time>2020-11-08T01:04:40Z</time>
      </trkpt>
      <trkpt lat="19.057799" lon="-97.269884">
        <ele>4248.944</ele>
        <time>2020-11-08T01:04:43Z</time>
      </trkpt>
      <trkpt lat="19.057754" lon="-97.269861">
        <ele>4248.995</ele>
        <time>2020-11-08T01:04:47Z</time>
      </trkpt>
      <trkpt lat="19.057705" lon="-97.269865">
        <ele>4248.957</ele>
        <time>2020-11-08T01:05:06Z</time>
      </trkpt>
      <trkpt lat="19.057661" lon="-97.269882">
        <ele>4248.910</ele>
        <time>2020-11-08T01:05:17Z</time>
      </trkpt>
      <trkpt lat="19.057618" lon="-97.269901">
        <ele>4247.319</ele>
        <time>2020-11-08T01:05:22Z</time>
      </trkpt>
      <trkpt lat="19.057579" lon="-97.269933">
        <ele>4246.323</ele>
        <time>2020-11-08T01:05:31Z</time>
      </trkpt>
      <trkpt lat="19.057533" lon="-97.269942">
        <ele>4248.129</ele>
        <time>2020-11-08T01:05:39Z</time>
      </trkpt>
      <trkpt lat="19.057488" lon="-97.269948">
        <ele>4249.678</ele>
        <time>2020-11-08T01:05:47Z</time>
      </trkpt>
      <trkpt lat="19.057441" lon="-97.269959">
        <ele>4250.533</ele>
        <time>2020-11-08T01:05:58Z</time>
      </trkpt>
      <trkpt lat="19.057394" lon="-97.26997">
        <ele>4251.826</ele>
        <time>2020-11-08T01:06:11Z</time>
      </trkpt>
      <trkpt lat="19.057349" lon="-97.269992">
        <ele>4252.608</ele>
        <time>2020-11-08T01:06:19Z</time>
      </trkpt>
      <trkpt lat="19.057302" lon="-97.270007">
        <ele>4253.113</ele>
        <time>2020-11-08T01:06:29Z</time>
      </trkpt>
      <trkpt lat="19.057257" lon="-97.270017">
        <ele>4255.837</ele>
        <time>2020-11-08T01:06:37Z</time>
      </trkpt>
      <trkpt lat="19.057211" lon="-97.270006">
        <ele>4256.618</ele>
        <time>2020-11-08T01:06:46Z</time>
      </trkpt>
      <trkpt lat="19.057172" lon="-97.270037">
        <ele>4257.570</ele>
        <time>2020-11-08T01:06:55Z</time>
      </trkpt>
      <trkpt lat="19.057125" lon="-97.270055">
        <ele>4258.473</ele>
        <time>2020-11-08T01:07:05Z</time>
      </trkpt>
      <trkpt lat="19.057079" lon="-97.270056">
        <ele>4258.282</ele>
        <time>2020-11-08T01:07:15Z</time>
      </trkpt>
      <trkpt lat="19.057033" lon="-97.270066">
        <ele>4258.096</ele>
        <time>2020-11-08T01:07:23Z</time>
      </trkpt>
      <trkpt lat="19.057033" lon="-97.270066">
        <ele>4258.032</ele>
        <time>2020-11-08T01:07:23Z</time>
      </trkpt>
      <trkpt lat="19.056995" lon="-97.270035">
        <ele>4257.983</ele>
        <time>2020-11-08T01:07:37Z</time>
      </trkpt>
      <trkpt lat="19.056947" lon="-97.270014">
        <ele>4261.925</ele>
        <time>2020-11-08T01:07:46Z</time>
      </trkpt>
      <trkpt lat="19.056909" lon="-97.270043">
        <ele>4265.117</ele>
        <time>2020-11-08T01:07:51Z</time>
      </trkpt>
      <trkpt lat="19.056917" lon="-97.270092">
        <ele>4267.408</ele>
        <time>2020-11-08T01:08:02Z</time>
      </trkpt>
      <trkpt lat="19.05687" lon="-97.270087">
        <ele>4268.864</ele>
        <time>2020-11-08T01:08:09Z</time>
      </trkpt>
      <trkpt lat="19.056826" lon="-97.270075">
        <ele>4269.648</ele>
        <time>2020-11-08T01:08:25Z</time>
      </trkpt>
      <trkpt lat="19.056782" lon="-97.270065">
        <ele>4270.159</ele>
        <time>2020-11-08T01:08:36Z</time>
      </trkpt>
      <trkpt lat="19.056737" lon="-97.270072">
        <ele>4270.011</ele>
        <time>2020-11-08T01:08:43Z</time>
      </trkpt>
      <trkpt lat="19.056692" lon="-97.270091">
        <ele>4269.974</ele>
        <time>2020-11-08T01:08:56Z</time>
      </trkpt>
      <trkpt lat="19.056659" lon="-97.270058">
        <ele>4269.933</ele>
        <time>2020-11-08T01:09:08Z</time>
      </trkpt>
      <trkpt lat="19.05661" lon="-97.270056">
        <ele>4269.977</ele>
        <time>2020-11-08T01:09:15Z</time>
      </trkpt>
      <trkpt lat="19.056569" lon="-97.27003">
        <ele>4269.993</ele>
        <time>2020-11-08T01:09:24Z</time>
      </trkpt>
      <trkpt lat="19.056523" lon="-97.270027">
        <ele>4269.957</ele>
        <time>2020-11-08T01:09:31Z</time>
      </trkpt>
      <trkpt lat="19.056479" lon="-97.270041">
        <ele>4269.900</ele>
        <time>2020-11-08T01:09:37Z</time>
      </trkpt>
      <trkpt lat="19.056433" lon="-97.270042">
        <ele>4273.920</ele>
        <time>2020-11-08T01:09:45Z</time>
      </trkpt>
      <trkpt lat="19.056385" lon="-97.270031">
        <ele>4277.908</ele>
        <time>2020-11-08T01:09:54Z</time>
      </trkpt>
      <trkpt lat="19.056345" lon="-97.27006">
        <ele>4281.951</ele>
        <time>2020-11-08T01:10:06Z</time>
      </trkpt>
      <trkpt lat="19.0563" lon="-97.270066">
        <ele>4285.565</ele>
        <time>2020-11-08T01:10:17Z</time>
      </trkpt>
      <trkpt lat="19.056251" lon="-97.270069">
        <ele>4287.396</ele>
        <time>2020-11-08T01:10:31Z</time>
      </trkpt>
      <trkpt lat="19.056205" lon="-97.270069">
        <ele>4289.248</ele>
        <time>2020-11-08T01:10:40Z</time>
      </trkpt>
      <trkpt lat="19.056158" lon="-97.270084">
        <ele>4290.391</ele>
        <time>2020-11-08T01:10:49Z</time>
      </trkpt>
      <trkpt lat="19.056112" lon="-97.270084">
        <ele>4291.030</ele>
        <time>2020-11-08T01:11:01Z</time>
      </trkpt>
      <trkpt lat="19.056066" lon="-97.270075">
        <ele>4293.464</ele>
        <time>2020-11-08T01:11:34Z</time>
      </trkpt>
      <trkpt lat="19.056028" lon="-97.270048">
        <ele>4295.220</ele>
        <time>2020-11-08T01:11:43Z</time>
      </trkpt>
      <trkpt lat="19.055979" lon="-97.27004">
        <ele>4294.385</ele>
        <time>2020-11-08T01:11:57Z</time>
      </trkpt>
      <trkpt lat="19.05593" lon="-97.270035">
        <ele>4296.689</ele>
        <time>2020-11-08T01:12:06Z</time>
      </trkpt>
      <trkpt lat="19.055885" lon="-97.270045">
        <ele>4298.817</ele>
        <time>2020-11-08T01:12:14Z</time>
      </trkpt>
      <trkpt lat="19.05585" lon="-97.270077">
        <ele>4301.308</ele>
        <time>2020-11-08T01:12:24Z</time>
      </trkpt>
      <trkpt lat="19.055823" lon="-97.270028">
        <ele>4300.064</ele>
        <time>2020-11-08T01:12:33Z</time>
      </trkpt>
      <trkpt lat="19.055797" lon="-97.269985">
        <ele>4299.298</ele>
        <time>2020-11-08T01:12:39Z</time>
      </trkpt>
      <trkpt lat="19.055752" lon="-97.269974">
        <ele>4298.779</ele>
        <time>2020-11-08T01:12:46Z</time>
      </trkpt>
      <trkpt lat="19.055705" lon="-97.269997">
        <ele>4298.421</ele>
        <time>2020-11-08T01:12:53Z</time>
      </trkpt>
      <trkpt lat="19.055668" lon="-97.270031">
        <ele>4302.474</ele>
        <time>2020-11-08T01:12:57Z</time>
      </trkpt>
      <trkpt lat="19.055621" lon="-97.270031">
        <ele>4306.453</ele>
        <time>2020-11-08T01:13:06Z</time>
      </trkpt>
      <trkpt lat="19.055579" lon="-97.270009">
        <ele>4308.297</ele>
        <time>2020-11-08T01:13:23Z</time>
      </trkpt>
      <trkpt lat="19.055527" lon="-97.270021">
        <ele>4309.363</ele>
        <time>2020-11-08T01:13:30Z</time>
      </trkpt>
      <trkpt lat="19.055482" lon="-97.270018">
        <ele>4309.682</ele>
        <time>2020-11-08T01:13:36Z</time>
      </trkpt>
      <trkpt lat="19.055445" lon="-97.269987">
        <ele>4311.043</ele>
        <time>2020-11-08T01:13:45Z</time>
      </trkpt>
      <trkpt lat="19.055402" lon="-97.269973">
        <ele>4312.617</ele>
        <time>2020-11-08T01:13:53Z</time>
      </trkpt>
      <trkpt lat="19.055358" lon="-97.269985">
        <ele>4314.008</ele>
        <time>2020-11-08T01:13:59Z</time>
      </trkpt>
      <trkpt lat="19.055329" lon="-97.270024">
        <ele>4314.834</ele>
        <time>2020-11-08T01:14:09Z</time>
      </trkpt>
      <trkpt lat="19.05532" lon="-97.269977">
        <ele>4317.718</ele>
        <time>2020-11-08T01:14:43Z</time>
      </trkpt>
      <trkpt lat="19.055274" lon="-97.269971">
        <ele>4319.479</ele>
        <time>2020-11-08T01:14:55Z</time>
      </trkpt>
      <trkpt lat="19.055229" lon="-97.269975">
        <ele>4321.191</ele>
        <time>2020-11-08T01:15:04Z</time>
      </trkpt>
      <trkpt lat="19.055229" lon="-97.269975">
        <ele>4321.144</ele>
        <time>2020-11-08T01:15:04Z</time>
      </trkpt>
      <trkpt lat="19.055189" lon="-97.270009">
        <ele>4329.133</ele>
        <time>2020-11-08T01:15:21Z</time>
      </trkpt>
      <trkpt lat="19.055189" lon="-97.270009">
        <ele>4329.177</ele>
        <time>2020-11-08T01:15:21Z</time>
      </trkpt>
      <trkpt lat="19.055171" lon="-97.270056">
        <ele>4332.313</ele>
        <time>2020-11-08T01:15:27Z</time>
      </trkpt>
      <trkpt lat="19.055126" lon="-97.270066">
        <ele>4335.472</ele>
        <time>2020-11-08T01:15:41Z</time>
      </trkpt>
      <trkpt lat="19.055082" lon="-97.270079">
        <ele>4338.113</ele>
        <time>2020-11-08T01:15:57Z</time>
      </trkpt>
      <trkpt lat="19.055036" lon="-97.270091">
        <ele>4340.114</ele>
        <time>2020-11-08T01:16:19Z</time>
      </trkpt>
      <trkpt lat="19.054991" lon="-97.270072">
        <ele>4342.108</ele>
        <time>2020-11-08T01:16:51Z</time>
      </trkpt>
      <trkpt lat="19.054941" lon="-97.270081">
        <ele>4346.123</ele>
        <time>2020-11-08T01:16:59Z</time>
      </trkpt>
      <trkpt lat="19.054899" lon="-97.270113">
        <ele>4349.387</ele>
        <time>2020-11-08T01:17:06Z</time>
      </trkpt>
      <trkpt lat="19.054854" lon="-97.270137">
        <ele>4351.648</ele>
        <time>2020-11-08T01:17:17Z</time>
      </trkpt>
      <trkpt lat="19.054813" lon="-97.270168">
        <ele>4352.680</ele>
        <time>2020-11-08T01:17:22Z</time>
      </trkpt>
      <trkpt lat="19.054785" lon="-97.270211">
        <ele>4354.413</ele>
        <time>2020-11-08T01:17:35Z</time>
      </trkpt>
      <trkpt lat="19.054744" lon="-97.270236">
        <ele>4357.982</ele>
        <time>2020-11-08T01:18:05Z</time>
      </trkpt>
      <trkpt lat="19.054696" lon="-97.270241">
        <ele>4360.896</ele>
        <time>2020-11-08T01:18:18Z</time>
      </trkpt>
      <trkpt lat="19.054649" lon="-97.270236">
        <ele>4364.552</ele>
        <time>2020-11-08T01:18:39Z</time>
      </trkpt>
      <trkpt lat="19.054604" lon="-97.270257">
        <ele>4367.532</ele>
        <time>2020-11-08T01:19:00Z</time>
      </trkpt>
      <trkpt lat="19.054573" lon="-97.270293">
        <ele>4370.192</ele>
        <time>2020-11-08T01:19:21Z</time>
      </trkpt>
      <trkpt lat="19.054527" lon="-97.27029">
        <ele>4373.311</ele>
        <time>2020-11-08T01:19:44Z</time>
      </trkpt>
      <trkpt lat="19.054508" lon="-97.270335">
        <ele>4375.208</ele>
        <time>2020-11-08T01:19:52Z</time>
      </trkpt>
      <trkpt lat="19.054471" lon="-97.270363">
        <ele>4376.349</ele>
        <time>2020-11-08T01:20:31Z</time>
      </trkpt>
      <trkpt lat="19.054445" lon="-97.270404">
        <ele>4377.093</ele>
        <time>2020-11-08T01:21:16Z</time>
      </trkpt>
      <trkpt lat="19.054424" lon="-97.270453">
        <ele>4373.434</ele>
        <time>2020-11-08T01:21:22Z</time>
      </trkpt>
      <trkpt lat="19.054424" lon="-97.270453">
        <ele>4373.426</ele>
        <time>2020-11-08T01:21:22Z</time>
      </trkpt>
      <trkpt lat="19.054422" lon="-97.270405">
        <ele>4369.449</ele>
        <time>2020-11-08T01:22:09Z</time>
      </trkpt>
      <trkpt lat="19.054373" lon="-97.270406">
        <ele>4361.488</ele>
        <time>2020-11-08T01:22:31Z</time>
      </trkpt>
      <trkpt lat="19.054373" lon="-97.270406">
        <ele>4361.452</ele>
        <time>2020-11-08T01:22:31Z</time>
      </trkpt>
      <trkpt lat="19.054342" lon="-97.27045">
        <ele>4358.828</ele>
        <time>2020-11-08T01:22:38Z</time>
      </trkpt>
      <trkpt lat="19.054331" lon="-97.270501">
        <ele>4357.353</ele>
        <time>2020-11-08T01:22:44Z</time>
      </trkpt>
      <trkpt lat="19.054316" lon="-97.270549">
        <ele>4356.404</ele>
        <time>2020-11-08T01:22:53Z</time>
      </trkpt>
      <trkpt lat="19.054304" lon="-97.270599">
        <ele>4355.814</ele>
        <time>2020-11-08T01:23:02Z</time>
      </trkpt>
      <trkpt lat="19.054262" lon="-97.27062">
        <ele>4355.508</ele>
        <time>2020-11-08T01:23:21Z</time>
      </trkpt>
      <trkpt lat="19.054248" lon="-97.270561">
        <ele>4355.281</ele>
        <time>2020-11-08T01:24:18Z</time>
      </trkpt>
      <trkpt lat="19.054248" lon="-97.270561">
        <ele>4355.215</ele>
        <time>2020-11-08T01:24:18Z</time>
      </trkpt>
      <trkpt lat="19.054226" lon="-97.270605">
        <ele>4355.136</ele>
        <time>2020-11-08T01:25:14Z</time>
      </trkpt>
      <trkpt lat="19.054208" lon="-97.270659">
        <ele>4355.118</ele>
        <time>2020-11-08T01:25:18Z</time>
      </trkpt>
      <trkpt lat="19.054191" lon="-97.270708">
        <ele>4355.121</ele>
        <time>2020-11-08T01:25:22Z</time>
      </trkpt>
      <trkpt lat="19.054142" lon="-97.270713">
        <ele>4355.150</ele>
        <time>2020-11-08T01:26:02Z</time>
      </trkpt>
      <trkpt lat="19.054124" lon="-97.270769">
        <ele>4355.134</ele>
        <time>2020-11-08T01:26:12Z</time>
      </trkpt>
      <trkpt lat="19.054097" lon="-97.270814">
        <ele>4355.140</ele>
        <time>2020-11-08T01:26:23Z</time>
      </trkpt>
      <trkpt lat="19.054073" lon="-97.270859">
        <ele>4355.138</ele>
        <time>2020-11-08T01:27:26Z</time>
      </trkpt>
      <trkpt lat="19.054044" lon="-97.2709">
        <ele>4359.170</ele>
        <time>2020-11-08T01:27:36Z</time>
      </trkpt>
      <trkpt lat="19.053994" lon="-97.270898">
        <ele>4363.117</ele>
        <time>2020-11-08T01:27:43Z</time>
      </trkpt>
      <trkpt lat="19.053971" lon="-97.270941">
        <ele>4367.108</ele>
        <time>2020-11-08T01:28:16Z</time>
      </trkpt>
      <trkpt lat="19.053953" lon="-97.270897">
        <ele>4371.149</ele>
        <time>2020-11-08T01:28:53Z</time>
      </trkpt>
      <trkpt lat="19.053907" lon="-97.270896">
        <ele>4375.193</ele>
        <time>2020-11-08T01:29:18Z</time>
      </trkpt>
      <trkpt lat="19.053863" lon="-97.270872">
        <ele>4379.174</ele>
        <time>2020-11-08T01:29:24Z</time>
      </trkpt>
      <trkpt lat="19.053815" lon="-97.270861">
        <ele>4383.166</ele>
        <time>2020-11-08T01:29:32Z</time>
      </trkpt>
      <trkpt lat="19.053767" lon="-97.270846">
        <ele>4387.199</ele>
        <time>2020-11-08T01:29:38Z</time>
      </trkpt>
      <trkpt lat="19.053745" lon="-97.270803">
        <ele>4391.198</ele>
        <time>2020-11-08T01:29:49Z</time>
      </trkpt>
      <trkpt lat="19.053703" lon="-97.270828">
        <ele>4395.182</ele>
        <time>2020-11-08T01:30:12Z</time>
      </trkpt>
      <trkpt lat="19.053657" lon="-97.270829">
        <ele>4397.978</ele>
        <time>2020-11-08T01:30:46Z</time>
      </trkpt>
      <trkpt lat="19.05364" lon="-97.270874">
        <ele>4399.648</ele>
        <time>2020-11-08T01:30:55Z</time>
      </trkpt>
      <trkpt lat="19.053617" lon="-97.270917">
        <ele>4403.661</ele>
        <time>2020-11-08T01:31:04Z</time>
      </trkpt>
      <trkpt lat="19.053577" lon="-97.270946">
        <ele>4407.617</ele>
        <time>2020-11-08T01:31:19Z</time>
      </trkpt>
      <trkpt lat="19.053534" lon="-97.270973">
        <ele>4411.608</ele>
        <time>2020-11-08T01:31:24Z</time>
      </trkpt>
      <trkpt lat="19.05349" lon="-97.270957">
        <ele>4415.650</ele>
        <time>2020-11-08T01:31:31Z</time>
      </trkpt>
      <trkpt lat="19.053459" lon="-97.270921">
        <ele>4419.834</ele>
        <time>2020-11-08T01:32:02Z</time>
      </trkpt>
      <trkpt lat="19.053459" lon="-97.270921">
        <ele>4419.865</ele>
        <time>2020-11-08T01:32:02Z</time>
      </trkpt>
      <trkpt lat="19.053412" lon="-97.270912">
        <ele>4420.777</ele>
        <time>2020-11-08T01:32:35Z</time>
      </trkpt>
      <trkpt lat="19.053363" lon="-97.270935">
        <ele>4421.330</ele>
        <time>2020-11-08T01:32:44Z</time>
      </trkpt>
      <trkpt lat="19.053325" lon="-97.270963">
        <ele>4421.649</ele>
        <time>2020-11-08T01:32:50Z</time>
      </trkpt>
      <trkpt lat="19.053274" lon="-97.270965">
        <ele>4421.843</ele>
        <time>2020-11-08T01:33:28Z</time>
      </trkpt>
      <trkpt lat="19.053229" lon="-97.270957">
        <ele>4421.979</ele>
        <time>2020-11-08T01:33:48Z</time>
      </trkpt>
      <trkpt lat="19.053187" lon="-97.27099">
        <ele>4425.969</ele>
        <time>2020-11-08T01:33:52Z</time>
      </trkpt>
      <trkpt lat="19.053137" lon="-97.271001">
        <ele>4429.904</ele>
        <time>2020-11-08T01:34:59Z</time>
      </trkpt>
      <trkpt lat="19.053096" lon="-97.270968">
        <ele>4437.924</ele>
        <time>2020-11-08T01:35:03Z</time>
      </trkpt>
      <trkpt lat="19.053096" lon="-97.270968">
        <ele>4437.908</ele>
        <time>2020-11-08T01:35:03Z</time>
      </trkpt>
      <trkpt lat="19.053063" lon="-97.270933">
        <ele>4441.972</ele>
        <time>2020-11-08T01:35:48Z</time>
      </trkpt>
      <trkpt lat="19.053019" lon="-97.270944">
        <ele>4445.936</ele>
        <time>2020-11-08T01:35:59Z</time>
      </trkpt>
      <trkpt lat="19.053009" lon="-97.270895">
        <ele>4449.927</ele>
        <time>2020-11-08T01:36:12Z</time>
      </trkpt>
      <trkpt lat="19.052958" lon="-97.270892">
        <ele>4453.989</ele>
        <time>2020-11-08T01:36:33Z</time>
      </trkpt>
      <trkpt lat="19.052964" lon="-97.270945">
        <ele>4457.992</ele>
        <time>2020-11-08T01:36:52Z</time>
      </trkpt>
      <trkpt lat="19.05268" lon="-97.271093">
        <ele>4457.971</ele>
        <time>2020-11-08T01:38:54Z</time>
      </trkpt>
      <trkpt lat="19.052721" lon="-97.271129">
        <ele>4457.925</ele>
        <time>2020-11-08T01:38:55Z</time>
      </trkpt>
      <trkpt lat="19.052669" lon="-97.271121">
        <ele>4457.971</ele>
        <time>2020-11-08T01:39:32Z</time>
      </trkpt>
      <trkpt lat="19.052626" lon="-97.27116">
        <ele>4457.968</ele>
        <time>2020-11-08T01:39:49Z</time>
      </trkpt>
      <trkpt lat="19.052582" lon="-97.271174">
        <ele>4457.942</ele>
        <time>2020-11-08T01:39:57Z</time>
      </trkpt>
      <trkpt lat="19.052543" lon="-97.271207">
        <ele>4457.926</ele>
        <time>2020-11-08T01:40:07Z</time>
      </trkpt>
      <trkpt lat="19.0525" lon="-97.271238">
        <ele>4457.908</ele>
        <time>2020-11-08T01:40:15Z</time>
      </trkpt>
      <trkpt lat="19.052454" lon="-97.271244">
        <ele>4457.992</ele>
        <time>2020-11-08T01:40:27Z</time>
      </trkpt>
      <trkpt lat="19.052413" lon="-97.271216">
        <ele>4457.916</ele>
        <time>2020-11-08T01:41:04Z</time>
      </trkpt>
      <trkpt lat="19.052373" lon="-97.271182">
        <ele>4457.937</ele>
        <time>2020-11-08T01:41:19Z</time>
      </trkpt>
      <trkpt lat="19.052344" lon="-97.271142">
        <ele>4457.979</ele>
        <time>2020-11-08T01:41:24Z</time>
      </trkpt>
      <trkpt lat="19.052296" lon="-97.271149">
        <ele>4457.922</ele>
        <time>2020-11-08T01:41:33Z</time>
      </trkpt>
      <trkpt lat="19.052271" lon="-97.271204">
        <ele>4457.971</ele>
        <time>2020-11-08T01:41:39Z</time>
      </trkpt>
      <trkpt lat="19.052253" lon="-97.271253">
        <ele>4457.935</ele>
        <time>2020-11-08T01:41:45Z</time>
      </trkpt>
      <trkpt lat="19.052207" lon="-97.271271">
        <ele>4457.931</ele>
        <time>2020-11-08T01:41:51Z</time>
      </trkpt>
      <trkpt lat="19.052173" lon="-97.271235">
        <ele>4457.933</ele>
        <time>2020-11-08T01:41:57Z</time>
      </trkpt>
      <trkpt lat="19.052128" lon="-97.271225">
        <ele>4457.923</ele>
        <time>2020-11-08T01:42:05Z</time>
      </trkpt>
      <trkpt lat="19.052109" lon="-97.271174">
        <ele>4457.915</ele>
        <time>2020-11-08T01:42:12Z</time>
      </trkpt>
      <trkpt lat="19.052058" lon="-97.271181">
        <ele>4457.908</ele>
        <time>2020-11-08T01:42:26Z</time>
      </trkpt>
      <trkpt lat="19.052012" lon="-97.271174">
        <ele>4457.989</ele>
        <time>2020-11-08T01:42:38Z</time>
      </trkpt>
      <trkpt lat="19.051967" lon="-97.271156">
        <ele>4457.913</ele>
        <time>2020-11-08T01:43:00Z</time>
      </trkpt>
      <trkpt lat="19.051929" lon="-97.271184">
        <ele>4457.944</ele>
        <time>2020-11-08T01:43:08Z</time>
      </trkpt>
      <trkpt lat="19.051886" lon="-97.2712">
        <ele>4457.996</ele>
        <time>2020-11-08T01:43:20Z</time>
      </trkpt>
      <trkpt lat="19.051839" lon="-97.271209">
        <ele>4457.989</ele>
        <time>2020-11-08T01:43:50Z</time>
      </trkpt>
      <trkpt lat="19.0518" lon="-97.271236">
        <ele>4457.948</ele>
        <time>2020-11-08T01:44:02Z</time>
      </trkpt>
      <trkpt lat="19.051759" lon="-97.271215">
        <ele>4457.972</ele>
        <time>2020-11-08T01:44:14Z</time>
      </trkpt>
      <trkpt lat="19.051711" lon="-97.271214">
        <ele>4457.928</ele>
        <time>2020-11-08T01:44:24Z</time>
      </trkpt>
      <trkpt lat="19.051661" lon="-97.271225">
        <ele>4457.964</ele>
        <time>2020-11-08T01:44:32Z</time>
      </trkpt>
      <trkpt lat="19.051616" lon="-97.271215">
        <ele>4457.906</ele>
        <time>2020-11-08T01:44:43Z</time>
      </trkpt>
      <trkpt lat="19.051604" lon="-97.271261">
        <ele>4457.916</ele>
        <time>2020-11-08T01:45:17Z</time>
      </trkpt>
      <trkpt lat="19.051562" lon="-97.271283">
        <ele>4457.908</ele>
        <time>2020-11-08T01:45:24Z</time>
      </trkpt>
      <trkpt lat="19.051549" lon="-97.271236">
        <ele>4457.982</ele>
        <time>2020-11-08T01:45:30Z</time>
      </trkpt>
      <trkpt lat="19.05152" lon="-97.271198">
        <ele>4457.916</ele>
        <time>2020-11-08T01:46:11Z</time>
      </trkpt>
      <trkpt lat="19.051492" lon="-97.271155">
        <ele>4457.997</ele>
        <time>2020-11-08T01:46:16Z</time>
      </trkpt>
      <trkpt lat="19.05144" lon="-97.271151">
        <ele>4457.949</ele>
        <time>2020-11-08T01:46:39Z</time>
      </trkpt>
      <trkpt lat="19.051391" lon="-97.271154">
        <ele>4457.912</ele>
        <time>2020-11-08T01:46:44Z</time>
      </trkpt>
      <trkpt lat="19.051361" lon="-97.271117">
        <ele>4457.971</ele>
        <time>2020-11-08T01:46:55Z</time>
      </trkpt>
      <trkpt lat="19.051341" lon="-97.271074">
        <ele>4457.945</ele>
        <time>2020-11-08T01:47:15Z</time>
      </trkpt>
      <trkpt lat="19.051311" lon="-97.271111">
        <ele>4457.911</ele>
        <time>2020-11-08T01:47:51Z</time>
      </trkpt>
      <trkpt lat="19.051267" lon="-97.271123">
        <ele>4457.944</ele>
        <time>2020-11-08T01:48:01Z</time>
      </trkpt>
      <trkpt lat="19.051248" lon="-97.271077">
        <ele>4461.905</ele>
        <time>2020-11-08T01:48:06Z</time>
      </trkpt>
      <trkpt lat="19.051204" lon="-97.271067">
        <ele>4465.915</ele>
        <time>2020-11-08T01:48:19Z</time>
      </trkpt>
      <trkpt lat="19.051167" lon="-97.2711">
        <ele>4469.908</ele>
        <time>2020-11-08T01:48:28Z</time>
      </trkpt>
      <trkpt lat="19.051118" lon="-97.27112">
        <ele>4473.990</ele>
        <time>2020-11-08T01:48:34Z</time>
      </trkpt>
      <trkpt lat="19.051104" lon="-97.271073">
        <ele>4477.914</ele>
        <time>2020-11-08T01:48:41Z</time>
      </trkpt>
      <trkpt lat="19.05107" lon="-97.271039">
        <ele>4481.925</ele>
        <time>2020-11-08T01:48:47Z</time>
      </trkpt>
      <trkpt lat="19.051021" lon="-97.271049">
        <ele>4485.987</ele>
        <time>2020-11-08T01:49:21Z</time>
      </trkpt>
      <trkpt lat="19.050989" lon="-97.271015">
        <ele>4489.960</ele>
        <time>2020-11-08T01:49:27Z</time>
      </trkpt>
      <trkpt lat="19.050956" lon="-97.271049">
        <ele>4493.939</ele>
        <time>2020-11-08T01:49:56Z</time>
      </trkpt>
      <trkpt lat="19.050923" lon="-97.271083">
        <ele>4497.993</ele>
        <time>2020-11-08T01:50:19Z</time>
      </trkpt>
      <trkpt lat="19.050884" lon="-97.271106">
        <ele>4501.939</ele>
        <time>2020-11-08T01:50:33Z</time>
      </trkpt>
      <trkpt lat="19.050844" lon="-97.271084">
        <ele>4505.931</ele>
        <time>2020-11-08T01:51:00Z</time>
      </trkpt>
      <trkpt lat="19.050798" lon="-97.271101">
        <ele>4509.961</ele>
        <time>2020-11-08T01:51:45Z</time>
      </trkpt>
      <trkpt lat="19.050749" lon="-97.271102">
        <ele>4513.907</ele>
        <time>2020-11-08T01:51:57Z</time>
      </trkpt>
      <trkpt lat="19.050697" lon="-97.271097">
        <ele>4517.908</ele>
        <time>2020-11-08T01:52:07Z</time>
      </trkpt>
      <trkpt lat="19.050656" lon="-97.271073">
        <ele>4521.989</ele>
        <time>2020-11-08T01:52:20Z</time>
      </trkpt>
      <trkpt lat="19.050623" lon="-97.271106">
        <ele>4525.973</ele>
        <time>2020-11-08T01:52:33Z</time>
      </trkpt>
      <trkpt lat="19.050624" lon="-97.271156">
        <ele>4529.964</ele>
        <time>2020-11-08T01:52:44Z</time>
      </trkpt>
      <trkpt lat="19.050598" lon="-97.271197">
        <ele>4533.976</ele>
        <time>2020-11-08T01:53:14Z</time>
      </trkpt>
      <trkpt lat="19.050551" lon="-97.271206">
        <ele>4537.979</ele>
        <time>2020-11-08T01:53:20Z</time>
      </trkpt>
      <trkpt lat="19.05051" lon="-97.271183">
        <ele>4541.998</ele>
        <time>2020-11-08T01:53:28Z</time>
      </trkpt>
      <trkpt lat="19.050466" lon="-97.271166">
        <ele>4545.992</ele>
        <time>2020-11-08T01:53:52Z</time>
      </trkpt>
      <trkpt lat="19.050421" lon="-97.271159">
        <ele>4549.998</ele>
        <time>2020-11-08T01:53:59Z</time>
      </trkpt>
      <trkpt lat="19.050378" lon="-97.271145">
        <ele>4553.933</ele>
        <time>2020-11-08T01:54:21Z</time>
      </trkpt>
      <trkpt lat="19.050423" lon="-97.271119">
        <ele>4557.923</ele>
        <time>2020-11-08T01:54:43Z</time>
      </trkpt>
      <trkpt lat="19.050393" lon="-97.271083">
        <ele>4561.915</ele>
        <time>2020-11-08T01:55:00Z</time>
      </trkpt>
      <trkpt lat="19.050349" lon="-97.271069">
        <ele>4565.908</ele>
        <time>2020-11-08T01:55:16Z</time>
      </trkpt>
      <trkpt lat="19.050338" lon="-97.27102">
        <ele>4569.939</ele>
        <time>2020-11-08T01:55:23Z</time>
      </trkpt>
      <trkpt lat="19.050294" lon="-97.271009">
        <ele>4573.913</ele>
        <time>2020-11-08T01:55:29Z</time>
      </trkpt>
      <trkpt lat="19.050257" lon="-97.270981">
        <ele>4577.994</ele>
        <time>2020-11-08T01:55:37Z</time>
      </trkpt>
      <trkpt lat="19.050211" lon="-97.270992">
        <ele>4581.956</ele>
        <time>2020-11-08T01:55:48Z</time>
      </trkpt>
      <trkpt lat="19.050163" lon="-97.270993">
        <ele>4585.989</ele>
        <time>2020-11-08T01:55:58Z</time>
      </trkpt>
      <trkpt lat="19.05012" lon="-97.270978">
        <ele>4589.918</ele>
        <time>2020-11-08T01:56:05Z</time>
      </trkpt>
      <trkpt lat="19.050094" lon="-97.270927">
        <ele>4593.942</ele>
        <time>2020-11-08T01:56:11Z</time>
      </trkpt>
      <trkpt lat="19.050051" lon="-97.270899">
        <ele>4597.978</ele>
        <time>2020-11-08T01:56:17Z</time>
      </trkpt>
      <trkpt lat="19.050011" lon="-97.270929">
        <ele>4601.918</ele>
        <time>2020-11-08T01:56:23Z</time>
      </trkpt>
      <trkpt lat="19.049968" lon="-97.270904">
        <ele>4605.998</ele>
        <time>2020-11-08T01:57:05Z</time>
      </trkpt>
      <trkpt lat="19.049921" lon="-97.270894">
        <ele>4609.917</ele>
        <time>2020-11-08T01:57:11Z</time>
      </trkpt>
      <trkpt lat="19.049874" lon="-97.270906">
        <ele>4613.908</ele>
        <time>2020-11-08T01:57:22Z</time>
      </trkpt>
      <trkpt lat="19.049852" lon="-97.27095">
        <ele>4617.967</ele>
        <time>2020-11-08T01:57:32Z</time>
      </trkpt>
      <trkpt lat="19.049809" lon="-97.270927">
        <ele>4621.961</ele>
        <time>2020-11-08T01:58:23Z</time>
      </trkpt>
      <trkpt lat="19.049755" lon="-97.270926">
        <ele>4625.912</ele>
        <time>2020-11-08T01:58:30Z</time>
      </trkpt>
      <trkpt lat="19.049706" lon="-97.270911">
        <ele>4629.964</ele>
        <time>2020-11-08T01:58:36Z</time>
      </trkpt>
      <trkpt lat="19.049667" lon="-97.270936">
        <ele>4633.977</ele>
        <time>2020-11-08T01:58:50Z</time>
      </trkpt>
      <trkpt lat="19.049619" lon="-97.270931">
        <ele>4637.966</ele>
        <time>2020-11-08T01:58:57Z</time>
      </trkpt>
      <trkpt lat="19.049575" lon="-97.270912">
        <ele>4641.990</ele>
        <time>2020-11-08T01:59:06Z</time>
      </trkpt>
      <trkpt lat="19.049545" lon="-97.270876">
        <ele>4645.936</ele>
        <time>2020-11-08T01:59:15Z</time>
      </trkpt>
      <trkpt lat="19.049501" lon="-97.270857">
        <ele>4649.979</ele>
        <time>2020-11-08T01:59:20Z</time>
      </trkpt>
      <trkpt lat="19.049453" lon="-97.270846">
        <ele>4653.905</ele>
        <time>2020-11-08T01:59:34Z</time>
      </trkpt>
      <trkpt lat="19.049406" lon="-97.27082">
        <ele>4657.925</ele>
        <time>2020-11-08T01:59:41Z</time>
      </trkpt>
      <trkpt lat="19.049359" lon="-97.270811">
        <ele>4661.908</ele>
        <time>2020-11-08T01:59:53Z</time>
      </trkpt>
      <trkpt lat="19.049316" lon="-97.270832">
        <ele>4665.923</ele>
        <time>2020-11-08T02:00:01Z</time>
      </trkpt>
      <trkpt lat="19.049271" lon="-97.270823">
        <ele>4669.977</ele>
        <time>2020-11-08T02:00:07Z</time>
      </trkpt>
      <trkpt lat="19.049223" lon="-97.270835">
        <ele>4673.978</ele>
        <time>2020-11-08T02:00:14Z</time>
      </trkpt>
      <trkpt lat="19.049213" lon="-97.270884">
        <ele>4677.920</ele>
        <time>2020-11-08T02:00:20Z</time>
      </trkpt>
      <trkpt lat="19.049175" lon="-97.270912">
        <ele>4681.913</ele>
        <time>2020-11-08T02:00:30Z</time>
      </trkpt>
      <trkpt lat="19.049127" lon="-97.270918">
        <ele>4685.962</ele>
        <time>2020-11-08T02:00:39Z</time>
      </trkpt>
      <trkpt lat="19.049081" lon="-97.270933">
        <ele>4689.916</ele>
        <time>2020-11-08T02:00:48Z</time>
      </trkpt>
      <trkpt lat="19.049036" lon="-97.270921">
        <ele>4693.912</ele>
        <time>2020-11-08T02:00:58Z</time>
      </trkpt>
      <trkpt lat="19.049" lon="-97.270954">
        <ele>4697.978</ele>
        <time>2020-11-08T02:01:16Z</time>
      </trkpt>
      <trkpt lat="19.048958" lon="-97.270977">
        <ele>4701.933</ele>
        <time>2020-11-08T02:01:30Z</time>
      </trkpt>
      <trkpt lat="19.048914" lon="-97.270955">
        <ele>4705.926</ele>
        <time>2020-11-08T02:01:36Z</time>
      </trkpt>
      <trkpt lat="19.048888" lon="-97.270913">
        <ele>4709.908</ele>
        <time>2020-11-08T02:01:44Z</time>
      </trkpt>
      <trkpt lat="19.048842" lon="-97.270897">
        <ele>4713.983</ele>
        <time>2020-11-08T02:01:51Z</time>
      </trkpt>
      <trkpt lat="19.048804" lon="-97.270867">
        <ele>4717.977</ele>
        <time>2020-11-08T02:02:04Z</time>
      </trkpt>
      <trkpt lat="19.04876" lon="-97.270881">
        <ele>4721.958</ele>
        <time>2020-11-08T02:02:19Z</time>
      </trkpt>
      <trkpt lat="19.048734" lon="-97.27084">
        <ele>4725.910</ele>
        <time>2020-11-08T02:02:39Z</time>
      </trkpt>
      <trkpt lat="19.048718" lon="-97.270795">
        <ele>4729.983</ele>
        <time>2020-11-08T02:02:48Z</time>
      </trkpt>
      <trkpt lat="19.048694" lon="-97.270838">
        <ele>4733.942</ele>
        <time>2020-11-08T02:03:00Z</time>
      </trkpt>
      <trkpt lat="19.048645" lon="-97.270853">
        <ele>4737.916</ele>
        <time>2020-11-08T02:03:13Z</time>
      </trkpt>
      <trkpt lat="19.048606" lon="-97.27088">
        <ele>4741.922</ele>
        <time>2020-11-08T02:03:19Z</time>
      </trkpt>
      <trkpt lat="19.048574" lon="-97.270843">
        <ele>4745.943</ele>
        <time>2020-11-08T02:03:47Z</time>
      </trkpt>
      <trkpt lat="19.048534" lon="-97.270815">
        <ele>4749.964</ele>
        <time>2020-11-08T02:04:03Z</time>
      </trkpt>
      <trkpt lat="19.048507" lon="-97.270772">
        <ele>4753.910</ele>
        <time>2020-11-08T02:04:11Z</time>
      </trkpt>
      <trkpt lat="19.048461" lon="-97.270787">
        <ele>4757.908</ele>
        <time>2020-11-08T02:04:24Z</time>
      </trkpt>
      <trkpt lat="19.048416" lon="-97.270782">
        <ele>4761.950</ele>
        <time>2020-11-08T02:04:55Z</time>
      </trkpt>
      <trkpt lat="19.048392" lon="-97.27074">
        <ele>4765.924</ele>
        <time>2020-11-08T02:05:07Z</time>
      </trkpt>
      <trkpt lat="19.048346" lon="-97.270742">
        <ele>4769.935</ele>
        <time>2020-11-08T02:05:12Z</time>
      </trkpt>
      <trkpt lat="19.048316" lon="-97.270704">
        <ele>4773.927</ele>
        <time>2020-11-08T02:05:21Z</time>
      </trkpt>
      <trkpt lat="19.048267" lon="-97.270708">
        <ele>4777.930</ele>
        <time>2020-11-08T02:05:28Z</time>
      </trkpt>
      <trkpt lat="19.04822" lon="-97.270719">
        <ele>4781.919</ele>
        <time>2020-11-08T02:05:36Z</time>
      </trkpt>
      <trkpt lat="19.04816" lon="-97.270707">
        <ele>4773.963</ele>
        <time>2020-11-08T02:06:09Z</time>
      </trkpt>
      <trkpt lat="19.048208" lon="-97.270707">
        <ele>4773.999</ele>
        <time>2020-11-08T02:06:12Z</time>
      </trkpt>
      <trkpt lat="19.048166" lon="-97.270675">
        <ele>4773.917</ele>
        <time>2020-11-08T02:06:41Z</time>
      </trkpt>
      <trkpt lat="19.048104" lon="-97.270664">
        <ele>4773.987</ele>
        <time>2020-11-08T02:06:45Z</time>
      </trkpt>
      <trkpt lat="19.048063" lon="-97.270638">
        <ele>4773.915</ele>
        <time>2020-11-08T02:06:48Z</time>
      </trkpt>
      <trkpt lat="19.048016" lon="-97.270625">
        <ele>4773.908</ele>
        <time>2020-11-08T02:06:54Z</time>
      </trkpt>
      <trkpt lat="19.047967" lon="-97.270609">
        <ele>4777.977</ele>
        <time>2020-11-08T02:07:01Z</time>
      </trkpt>
      <trkpt lat="19.047918" lon="-97.270598">
        <ele>4781.961</ele>
        <time>2020-11-08T02:07:08Z</time>
      </trkpt>
      <trkpt lat="19.04787" lon="-97.270575">
        <ele>4785.912</ele>
        <time>2020-11-08T02:07:15Z</time>
      </trkpt>
      <trkpt lat="19.047822" lon="-97.270584">
        <ele>4789.944</ele>
        <time>2020-11-08T02:07:35Z</time>
      </trkpt>
      <trkpt lat="19.047781" lon="-97.270565">
        <ele>4793.917</ele>
        <time>2020-11-08T02:07:43Z</time>
      </trkpt>
      <trkpt lat="19.047741" lon="-97.270595">
        <ele>4797.926</ele>
        <time>2020-11-08T02:08:16Z</time>
      </trkpt>
      <trkpt lat="19.047692" lon="-97.27058">
        <ele>4801.550</ele>
        <time>2020-11-08T02:08:27Z</time>
      </trkpt>
      <trkpt lat="19.047647" lon="-97.270563">
        <ele>4805.566</ele>
        <time>2020-11-08T02:08:39Z</time>
      </trkpt>
      <trkpt lat="19.047609" lon="-97.270533">
        <ele>4809.535</ele>
        <time>2020-11-08T02:08:47Z</time>
      </trkpt>
      <trkpt lat="19.047562" lon="-97.270526">
        <ele>4810.586</ele>
        <time>2020-11-08T02:08:56Z</time>
      </trkpt>
      <trkpt lat="19.047514" lon="-97.270522">
        <ele>4811.114</ele>
        <time>2020-11-08T02:09:07Z</time>
      </trkpt>
      <trkpt lat="19.04747" lon="-97.270509">
        <ele>4811.408</ele>
        <time>2020-11-08T02:09:27Z</time>
      </trkpt>
      <trkpt lat="19.047421" lon="-97.270496">
        <ele>4811.619</ele>
        <time>2020-11-08T02:09:37Z</time>
      </trkpt>
      <trkpt lat="19.047378" lon="-97.270483">
        <ele>4811.743</ele>
        <time>2020-11-08T02:09:47Z</time>
      </trkpt>
      <trkpt lat="19.047332" lon="-97.270503">
        <ele>4811.824</ele>
        <time>2020-11-08T02:10:02Z</time>
      </trkpt>
      <trkpt lat="19.047289" lon="-97.270488">
        <ele>4811.846</ele>
        <time>2020-11-08T02:10:21Z</time>
      </trkpt>
      <trkpt lat="19.047258" lon="-97.270451">
        <ele>4811.859</ele>
        <time>2020-11-08T02:10:29Z</time>
      </trkpt>
      <trkpt lat="19.047215" lon="-97.270472">
        <ele>4811.818</ele>
        <time>2020-11-08T02:10:38Z</time>
      </trkpt>
      <trkpt lat="19.047167" lon="-97.270468">
        <ele>4811.862</ele>
        <time>2020-11-08T02:10:48Z</time>
      </trkpt>
      <trkpt lat="19.047125" lon="-97.27049">
        <ele>4811.828</ele>
        <time>2020-11-08T02:10:52Z</time>
      </trkpt>
      <trkpt lat="19.047073" lon="-97.270497">
        <ele>4811.817</ele>
        <time>2020-11-08T02:10:59Z</time>
      </trkpt>
      <trkpt lat="19.047027" lon="-97.270485">
        <ele>4811.887</ele>
        <time>2020-11-08T02:11:05Z</time>
      </trkpt>
      <trkpt lat="19.046998" lon="-97.270448">
        <ele>4811.815</ele>
        <time>2020-11-08T02:11:12Z</time>
      </trkpt>
      <trkpt lat="19.04695" lon="-97.270467">
        <ele>4811.808</ele>
        <time>2020-11-08T02:11:38Z</time>
      </trkpt>
      <trkpt lat="19.046909" lon="-97.270445">
        <ele>4815.897</ele>
        <time>2020-11-08T02:11:49Z</time>
      </trkpt>
      <trkpt lat="19.046951" lon="-97.270473">
        <ele>4809.331</ele>
        <time>2020-11-08T02:14:14Z</time>
      </trkpt>
      <trkpt lat="19.046991" lon="-97.270497">
        <ele>4811.722</ele>
        <time>2020-11-08T02:14:19Z</time>
      </trkpt>
      <trkpt lat="19.04695" lon="-97.270464">
        <ele>4813.164</ele>
        <time>2020-11-08T02:14:48Z</time>
      </trkpt>
      <trkpt lat="19.046919" lon="-97.270427">
        <ele>4814.487</ele>
        <time>2020-11-08T02:14:52Z</time>
      </trkpt>
      <trkpt lat="19.046877" lon="-97.270411">
        <ele>4814.026</ele>
        <time>2020-11-08T02:14:59Z</time>
      </trkpt>
      <trkpt lat="19.046831" lon="-97.27042">
        <ele>4814.960</ele>
        <time>2020-11-08T02:15:09Z</time>
      </trkpt>
      <trkpt lat="19.046784" lon="-97.270433">
        <ele>4815.536</ele>
        <time>2020-11-08T02:15:18Z</time>
      </trkpt>
      <trkpt lat="19.046736" lon="-97.270426">
        <ele>4815.846</ele>
        <time>2020-11-08T02:15:26Z</time>
      </trkpt>
      <trkpt lat="19.046691" lon="-97.270416">
        <ele>4816.088</ele>
        <time>2020-11-08T02:15:32Z</time>
      </trkpt>
      <trkpt lat="19.046642" lon="-97.270404">
        <ele>4816.116</ele>
        <time>2020-11-08T02:15:37Z</time>
      </trkpt>
      <trkpt lat="19.04661" lon="-97.270364">
        <ele>4816.208</ele>
        <time>2020-11-08T02:15:54Z</time>
      </trkpt>
      <trkpt lat="19.046563" lon="-97.270357">
        <ele>4816.270</ele>
        <time>2020-11-08T02:16:34Z</time>
      </trkpt>
      <trkpt lat="19.046518" lon="-97.270357">
        <ele>4816.284</ele>
        <time>2020-11-08T02:16:42Z</time>
      </trkpt>
      <trkpt lat="19.046472" lon="-97.270346">
        <ele>4816.285</ele>
        <time>2020-11-08T02:16:50Z</time>
      </trkpt>
      <trkpt lat="19.04643" lon="-97.270317">
        <ele>4816.237</ele>
        <time>2020-11-08T02:17:06Z</time>
      </trkpt>
      <trkpt lat="19.046394" lon="-97.270285">
        <ele>4816.230</ele>
        <time>2020-11-08T02:17:20Z</time>
      </trkpt>
      <trkpt lat="19.046348" lon="-97.270285">
        <ele>4816.259</ele>
        <time>2020-11-08T02:17:31Z</time>
      </trkpt>
      <trkpt lat="19.046305" lon="-97.27026">
        <ele>4816.293</ele>
        <time>2020-11-08T02:17:40Z</time>
      </trkpt>
      <trkpt lat="19.046253" lon="-97.270256">
        <ele>4816.239</ele>
        <time>2020-11-08T02:17:48Z</time>
      </trkpt>
      <trkpt lat="19.046219" lon="-97.270299">
        <ele>4816.247</ele>
        <time>2020-11-08T02:17:53Z</time>
      </trkpt>
      <trkpt lat="19.046172" lon="-97.270308">
        <ele>4816.229</ele>
        <time>2020-11-08T02:18:18Z</time>
      </trkpt>
      <trkpt lat="19.046122" lon="-97.270287">
        <ele>4816.221</ele>
        <time>2020-11-08T02:18:27Z</time>
      </trkpt>
      <trkpt lat="19.046076" lon="-97.270278">
        <ele>4816.208</ele>
        <time>2020-11-08T02:18:33Z</time>
      </trkpt>
      <trkpt lat="19.046025" lon="-97.270288">
        <ele>4816.220</ele>
        <time>2020-11-08T02:18:38Z</time>
      </trkpt>
      <trkpt lat="19.045976" lon="-97.27028">
        <ele>4816.214</ele>
        <time>2020-11-08T02:18:46Z</time>
      </trkpt>
      <trkpt lat="19.04593" lon="-97.270278">
        <ele>4820.215</ele>
        <time>2020-11-08T02:19:04Z</time>
      </trkpt>
      <trkpt lat="19.045878" lon="-97.270267">
        <ele>4824.267</ele>
        <time>2020-11-08T02:19:48Z</time>
      </trkpt>
      <trkpt lat="19.045847" lon="-97.270231">
        <ele>4828.230</ele>
        <time>2020-11-08T02:19:58Z</time>
      </trkpt>
      <trkpt lat="19.045851" lon="-97.27018">
        <ele>4832.249</ele>
        <time>2020-11-08T02:20:05Z</time>
      </trkpt>
      <trkpt lat="19.045877" lon="-97.270138">
        <ele>4836.293</ele>
        <time>2020-11-08T02:20:10Z</time>
      </trkpt>
      <trkpt lat="19.045881" lon="-97.27009">
        <ele>4840.239</ele>
        <time>2020-11-08T02:20:32Z</time>
      </trkpt>
      <trkpt lat="19.045837" lon="-97.270063">
        <ele>4844.243</ele>
        <time>2020-11-08T02:20:38Z</time>
      </trkpt>
      <trkpt lat="19.045839" lon="-97.270012">
        <ele>4848.264</ele>
        <time>2020-11-08T02:21:03Z</time>
      </trkpt>
      <trkpt lat="19.045831" lon="-97.269951">
        <ele>4274.010</ele>
        <time>2020-11-08T02:21:51Z</time>
      </trkpt>
      <trkpt lat="19.045813" lon="-97.269905">
        <ele>4274.008</ele>
        <time>2020-11-08T02:22:18Z</time>
      </trkpt>
      <trkpt lat="19.045781" lon="-97.269871">
        <ele>4274.010</ele>
        <time>2020-11-08T02:22:28Z</time>
      </trkpt>
      <trkpt lat="19.045736" lon="-97.269881">
        <ele>4274.064</ele>
        <time>2020-11-08T02:22:42Z</time>
      </trkpt>
      <trkpt lat="19.045699" lon="-97.269844">
        <ele>4274.085</ele>
        <time>2020-11-08T02:22:52Z</time>
      </trkpt>
      <trkpt lat="19.045693" lon="-97.269787">
        <ele>4274.097</ele>
        <time>2020-11-08T02:23:05Z</time>
      </trkpt>
      <trkpt lat="19.045654" lon="-97.269762">
        <ele>4274.060</ele>
        <time>2020-11-08T02:23:43Z</time>
      </trkpt>
      <trkpt lat="19.045623" lon="-97.269721">
        <ele>4274.069</ele>
        <time>2020-11-08T02:23:48Z</time>
      </trkpt>
      <trkpt lat="19.045574" lon="-97.269719">
        <ele>4274.083</ele>
        <time>2020-11-08T02:23:53Z</time>
      </trkpt>
      <trkpt lat="19.045536" lon="-97.269748">
        <ele>4274.059</ele>
        <time>2020-11-08T02:25:43Z</time>
      </trkpt>
      <trkpt lat="19.04549" lon="-97.269752">
        <ele>4274.077</ele>
        <time>2020-11-08T02:25:54Z</time>
      </trkpt>
      <trkpt lat="19.045454" lon="-97.269721">
        <ele>4274.061</ele>
        <time>2020-11-08T02:26:48Z</time>
      </trkpt>
      <trkpt lat="19.045413" lon="-97.269691">
        <ele>4262.327</ele>
        <time>2020-11-08T02:27:27Z</time>
      </trkpt>
      <trkpt lat="19.045378" lon="-97.26966">
        <ele>4262.308</ele>
        <time>2020-11-08T02:28:15Z</time>
      </trkpt>
      <trkpt lat="19.045331" lon="-97.269665">
        <ele>4262.353</ele>
        <time>2020-11-08T02:28:26Z</time>
      </trkpt>
      <trkpt lat="19.045279" lon="-97.269665">
        <ele>4262.367</ele>
        <time>2020-11-08T02:28:37Z</time>
      </trkpt>
      <trkpt lat="19.045238" lon="-97.269636">
        <ele>4265.598</ele>
        <time>2020-11-08T02:28:50Z</time>
      </trkpt>
      <trkpt lat="19.045193" lon="-97.269627">
        <ele>4268.260</ele>
        <time>2020-11-08T02:29:13Z</time>
      </trkpt>
      <trkpt lat="19.045148" lon="-97.269607">
        <ele>4271.813</ele>
        <time>2020-11-08T02:29:25Z</time>
      </trkpt>
      <trkpt lat="19.045118" lon="-97.269568">
        <ele>4274.092</ele>
        <time>2020-11-08T02:29:41Z</time>
      </trkpt>
      <trkpt lat="19.04507" lon="-97.269581">
        <ele>4275.336</ele>
        <time>2020-11-08T02:29:58Z</time>
      </trkpt>
      <trkpt lat="19.045025" lon="-97.269563">
        <ele>4276.162</ele>
        <time>2020-11-08T02:30:07Z</time>
      </trkpt>
      <trkpt lat="19.04498" lon="-97.269548">
        <ele>4276.647</ele>
        <time>2020-11-08T02:30:19Z</time>
      </trkpt>
      <trkpt lat="19.044937" lon="-97.269566">
        <ele>4276.929</ele>
        <time>2020-11-08T02:30:25Z</time>
      </trkpt>
      <trkpt lat="19.044889" lon="-97.269547">
        <ele>4277.121</ele>
        <time>2020-11-08T02:30:35Z</time>
      </trkpt>
      <trkpt lat="19.04484" lon="-97.269534">
        <ele>4277.208</ele>
        <time>2020-11-08T02:30:43Z</time>
      </trkpt>
      <trkpt lat="19.044803" lon="-97.269561">
        <ele>4277.350</ele>
        <time>2020-11-08T02:31:07Z</time>
      </trkpt>
      <trkpt lat="19.044758" lon="-97.269556">
        <ele>4277.324</ele>
        <time>2020-11-08T02:31:47Z</time>
      </trkpt>
      <trkpt lat="19.044711" lon="-97.269553">
        <ele>4281.345</ele>
        <time>2020-11-08T02:31:54Z</time>
      </trkpt>
      <trkpt lat="19.044664" lon="-97.269554">
        <ele>4285.367</ele>
        <time>2020-11-08T02:32:06Z</time>
      </trkpt>
      <trkpt lat="19.044621" lon="-97.269574">
        <ele>4288.980</ele>
        <time>2020-11-08T02:33:27Z</time>
      </trkpt>
      <trkpt lat="19.044579" lon="-97.269543">
        <ele>4291.119</ele>
        <time>2020-11-08T02:33:51Z</time>
      </trkpt>
      <trkpt lat="19.044532" lon="-97.269522">
        <ele>4292.443</ele>
        <time>2020-11-08T02:34:01Z</time>
      </trkpt>
      <trkpt lat="19.044499" lon="-97.269488">
        <ele>4294.849</ele>
        <time>2020-11-08T02:34:09Z</time>
      </trkpt>
      <trkpt lat="19.044472" lon="-97.269449">
        <ele>4296.695</ele>
        <time>2020-11-08T02:34:27Z</time>
      </trkpt>
      <trkpt lat="19.04443" lon="-97.269421">
        <ele>4299.349</ele>
        <time>2020-11-08T02:34:53Z</time>
      </trkpt>
      <trkpt lat="19.044424" lon="-97.269369">
        <ele>4300.923</ele>
        <time>2020-11-08T02:35:04Z</time>
      </trkpt>
      <trkpt lat="19.044432" lon="-97.269319">
        <ele>4302.308</ele>
        <time>2020-11-08T02:35:10Z</time>
      </trkpt>
      <trkpt lat="19.044419" lon="-97.269271">
        <ele>4303.545</ele>
        <time>2020-11-08T02:35:19Z</time>
      </trkpt>
      <trkpt lat="19.044423" lon="-97.269223">
        <ele>4303.889</ele>
        <time>2020-11-08T02:35:25Z</time>
      </trkpt>
      <trkpt lat="19.044405" lon="-97.269171">
        <ele>4306.420</ele>
        <time>2020-11-08T02:35:34Z</time>
      </trkpt>
      <trkpt lat="19.044355" lon="-97.269178">
        <ele>4307.232</ele>
        <time>2020-11-08T02:36:39Z</time>
      </trkpt>
      <trkpt lat="19.044318" lon="-97.269208">
        <ele>4308.125</ele>
        <time>2020-11-08T02:36:48Z</time>
      </trkpt>
      <trkpt lat="19.044273" lon="-97.269223">
        <ele>4309.034</ele>
        <time>2020-11-08T02:36:55Z</time>
      </trkpt>
      <trkpt lat="19.04426" lon="-97.269175">
        <ele>4310.728</ele>
        <time>2020-11-08T02:37:06Z</time>
      </trkpt>
      <trkpt lat="19.044248" lon="-97.269126">
        <ele>4310.524</ele>
        <time>2020-11-08T02:37:14Z</time>
      </trkpt>
      <trkpt lat="19.04426" lon="-97.269077">
        <ele>4308.021</ele>
        <time>2020-11-08T02:37:28Z</time>
      </trkpt>
      <trkpt lat="19.044231" lon="-97.269038">
        <ele>4306.541</ele>
        <time>2020-11-08T02:37:49Z</time>
      </trkpt>
      <trkpt lat="19.0442" lon="-97.269001">
        <ele>4305.605</ele>
        <time>2020-11-08T02:37:58Z</time>
      </trkpt>
      <trkpt lat="19.044186" lon="-97.26895">
        <ele>4305.108</ele>
        <time>2020-11-08T02:38:15Z</time>
      </trkpt>
      <trkpt lat="19.04417" lon="-97.268901">
        <ele>4304.868</ele>
        <time>2020-11-08T02:38:22Z</time>
      </trkpt>
      <trkpt lat="19.044192" lon="-97.268848">
        <ele>4304.672</ele>
        <time>2020-11-08T02:38:32Z</time>
      </trkpt>
      <trkpt lat="19.044187" lon="-97.268798">
        <ele>4304.593</ele>
        <time>2020-11-08T02:39:48Z</time>
      </trkpt>
      <trkpt lat="19.044189" lon="-97.26875">
        <ele>4304.425</ele>
        <time>2020-11-08T02:39:55Z</time>
      </trkpt>
      <trkpt lat="19.04414" lon="-97.268746">
        <ele>4304.448</ele>
        <time>2020-11-08T02:40:15Z</time>
      </trkpt>
      <trkpt lat="19.044097" lon="-97.268783">
        <ele>4304.487</ele>
        <time>2020-11-08T02:40:37Z</time>
      </trkpt>
      <trkpt lat="19.044054" lon="-97.268763">
        <ele>4304.491</ele>
        <time>2020-11-08T02:41:04Z</time>
      </trkpt>
      <trkpt lat="19.044018" lon="-97.268731">
        <ele>4304.487</ele>
        <time>2020-11-08T02:41:29Z</time>
      </trkpt>
      <trkpt lat="19.044034" lon="-97.268685">
        <ele>4304.475</ele>
        <time>2020-11-08T02:41:54Z</time>
      </trkpt>
      <trkpt lat="19.044076" lon="-97.268703">
        <ele>4304.428</ele>
        <time>2020-11-08T02:42:00Z</time>
      </trkpt>
      <trkpt lat="19.044052" lon="-97.268661">
        <ele>4304.420</ele>
        <time>2020-11-08T02:42:56Z</time>
      </trkpt>
      <trkpt lat="19.044015" lon="-97.268632">
        <ele>4304.408</ele>
        <time>2020-11-08T02:43:25Z</time>
      </trkpt>
      <trkpt lat="19.044026" lon="-97.268585">
        <ele>4304.463</ele>
        <time>2020-11-08T02:43:40Z</time>
      </trkpt>
      <trkpt lat="19.044016" lon="-97.268535">
        <ele>4304.477</ele>
        <time>2020-11-08T02:43:50Z</time>
      </trkpt>
      <trkpt lat="19.043983" lon="-97.2685">
        <ele>4304.428</ele>
        <time>2020-11-08T02:43:57Z</time>
      </trkpt>
      <trkpt lat="19.043965" lon="-97.268454">
        <ele>4308.440</ele>
        <time>2020-11-08T02:44:24Z</time>
      </trkpt>
      <trkpt lat="19.04393" lon="-97.268423">
        <ele>4312.483</ele>
        <time>2020-11-08T02:44:36Z</time>
      </trkpt>
      <trkpt lat="19.043885" lon="-97.268412">
        <ele>4316.462</ele>
        <time>2020-11-08T02:44:45Z</time>
      </trkpt>
      <trkpt lat="19.04384" lon="-97.268396">
        <ele>4320.496</ele>
        <time>2020-11-08T02:46:00Z</time>
      </trkpt>
      <trkpt lat="19.043841" lon="-97.268343">
        <ele>4324.422</ele>
        <time>2020-11-08T02:46:50Z</time>
      </trkpt>
      <trkpt lat="19.043809" lon="-97.268299">
        <ele>4328.441</ele>
        <time>2020-11-08T02:46:55Z</time>
      </trkpt>
      <trkpt lat="19.043771" lon="-97.268271">
        <ele>4332.481</ele>
        <time>2020-11-08T02:47:02Z</time>
      </trkpt>
      <trkpt lat="19.043817" lon="-97.268272">
        <ele>4336.409</ele>
        <time>2020-11-08T02:47:17Z</time>
      </trkpt>
      <trkpt lat="19.043774" lon="-97.268255">
        <ele>4340.408</ele>
        <time>2020-11-08T02:48:07Z</time>
      </trkpt>
      <trkpt lat="19.043813" lon="-97.268221">
        <ele>4343.680</ele>
        <time>2020-11-08T02:48:29Z</time>
      </trkpt>
      <trkpt lat="19.043844" lon="-97.268182">
        <ele>4345.544</ele>
        <time>2020-11-08T02:48:36Z</time>
      </trkpt>
      <trkpt lat="19.043873" lon="-97.268137">
        <ele>4346.795</ele>
        <time>2020-11-08T02:48:44Z</time>
      </trkpt>
      <trkpt lat="19.043896" lon="-97.268094">
        <ele>4347.467</ele>
        <time>2020-11-08T02:48:50Z</time>
      </trkpt>
      <trkpt lat="19.04392" lon="-97.268053">
        <ele>4347.830</ele>
        <time>2020-11-08T02:49:12Z</time>
      </trkpt>
      <trkpt lat="19.04391" lon="-97.268002">
        <ele>4348.039</ele>
        <time>2020-11-08T02:49:46Z</time>
      </trkpt>
      <trkpt lat="19.043932" lon="-97.267958">
        <ele>4348.173</ele>
        <time>2020-11-08T02:50:04Z</time>
      </trkpt>
      <trkpt lat="19.043972" lon="-97.267935">
        <ele>4348.249</ele>
        <time>2020-11-08T02:50:14Z</time>
      </trkpt>
      <trkpt lat="19.043993" lon="-97.267892">
        <ele>4352.261</ele>
        <time>2020-11-08T02:50:19Z</time>
      </trkpt>
      <trkpt lat="19.04399" lon="-97.267837">
        <ele>4356.221</ele>
        <time>2020-11-08T02:50:25Z</time>
      </trkpt>
      <trkpt lat="19.04403" lon="-97.267815">
        <ele>4360.213</ele>
        <time>2020-11-08T02:50:37Z</time>
      </trkpt>
      <trkpt lat="19.044072" lon="-97.267785">
        <ele>4363.108</ele>
        <time>2020-11-08T02:50:42Z</time>
      </trkpt>
      <trkpt lat="19.04405" lon="-97.267743">
        <ele>4363.262</ele>
        <time>2020-11-08T02:51:45Z</time>
      </trkpt>
      <trkpt lat="19.044002" lon="-97.267738">
        <ele>4364.546</ele>
        <time>2020-11-08T02:51:56Z</time>
      </trkpt>
      <trkpt lat="19.043959" lon="-97.267718">
        <ele>4365.357</ele>
        <time>2020-11-08T02:52:06Z</time>
      </trkpt>
      <trkpt lat="19.043936" lon="-97.267677">
        <ele>4365.879</ele>
        <time>2020-11-08T02:52:24Z</time>
      </trkpt>
      <trkpt lat="19.043897" lon="-97.267651">
        <ele>4366.162</ele>
        <time>2020-11-08T02:52:32Z</time>
      </trkpt>
      <trkpt lat="19.043846" lon="-97.267638">
        <ele>4367.921</ele>
        <time>2020-11-08T02:52:39Z</time>
      </trkpt>
      <trkpt lat="19.043804" lon="-97.267618">
        <ele>4369.035</ele>
        <time>2020-11-08T02:53:26Z</time>
      </trkpt>
      <trkpt lat="19.043761" lon="-97.267601">
        <ele>4369.621</ele>
        <time>2020-11-08T02:54:32Z</time>
      </trkpt>
      <trkpt lat="19.043735" lon="-97.267559">
        <ele>4365.629</ele>
        <time>2020-11-08T02:54:39Z</time>
      </trkpt>
      <trkpt lat="19.043697" lon="-97.267526">
        <ele>4362.400</ele>
        <time>2020-11-08T02:54:48Z</time>
      </trkpt>
      <trkpt lat="19.043655" lon="-97.267503">
        <ele>4360.520</ele>
        <time>2020-11-08T02:55:04Z</time>
      </trkpt>
      <trkpt lat="19.043614" lon="-97.267528">
        <ele>4359.308</ele>
        <time>2020-11-08T02:55:14Z</time>
      </trkpt>
      <trkpt lat="19.043575" lon="-97.267552">
        <ele>4358.688</ele>
        <time>2020-11-08T02:55:57Z</time>
      </trkpt>
      <trkpt lat="19.043524" lon="-97.267574">
        <ele>4358.242</ele>
        <time>2020-11-08T02:56:02Z</time>
      </trkpt>
      <trkpt lat="19.043481" lon="-97.267606">
        <ele>4357.933</ele>
        <time>2020-11-08T02:56:06Z</time>
      </trkpt>
      <trkpt lat="19.043444" lon="-97.267634">
        <ele>4361.985</ele>
        <time>2020-11-08T02:56:59Z</time>
      </trkpt>
      <trkpt lat="19.043391" lon="-97.267649">
        <ele>4365.978</ele>
        <time>2020-11-08T02:57:04Z</time>
      </trkpt>
      <trkpt lat="19.043341" lon="-97.267634">
        <ele>4369.937</ele>
        <time>2020-11-08T02:57:10Z</time>
      </trkpt>
      <trkpt lat="19.043295" lon="-97.267613">
        <ele>4373.991</ele>
        <time>2020-11-08T02:57:17Z</time>
      </trkpt>
      <trkpt lat="19.043246" lon="-97.267623">
        <ele>4377.947</ele>
        <time>2020-11-08T02:57:25Z</time>
      </trkpt>
      <trkpt lat="19.043196" lon="-97.26762">
        <ele>4381.943</ele>
        <time>2020-11-08T02:57:33Z</time>
      </trkpt>
      <trkpt lat="19.043154" lon="-97.267638">
        <ele>4385.964</ele>
        <time>2020-11-08T02:57:39Z</time>
      </trkpt>
      <trkpt lat="19.043112" lon="-97.26766">
        <ele>4389.910</ele>
        <time>2020-11-08T02:57:46Z</time>
      </trkpt>
      <trkpt lat="19.043064" lon="-97.267673">
        <ele>4393.908</ele>
        <time>2020-11-08T02:57:58Z</time>
      </trkpt>
      <trkpt lat="19.043079" lon="-97.267725">
        <ele>4397.360</ele>
        <time>2020-11-08T02:58:06Z</time>
      </trkpt>
      <trkpt lat="19.0431" lon="-97.267772">
        <ele>4401.064</ele>
        <time>2020-11-08T02:58:12Z</time>
      </trkpt>
      <trkpt lat="19.043113" lon="-97.267822">
        <ele>4404.025</ele>
        <time>2020-11-08T02:58:19Z</time>
      </trkpt>
      <trkpt lat="19.043068" lon="-97.267813">
        <ele>4406.277</ele>
        <time>2020-11-08T02:59:33Z</time>
      </trkpt>
      <trkpt lat="19.043023" lon="-97.267796">
        <ele>4407.530</ele>
        <time>2020-11-08T02:59:41Z</time>
      </trkpt>
      <trkpt lat="19.042978" lon="-97.267778">
        <ele>4408.379</ele>
        <time>2020-11-08T02:59:50Z</time>
      </trkpt>
      <trkpt lat="19.042964" lon="-97.267827">
        <ele>4412.363</ele>
        <time>2020-11-08T02:59:58Z</time>
      </trkpt>
      <trkpt lat="19.042916" lon="-97.267808">
        <ele>4416.359</ele>
        <time>2020-11-08T03:00:13Z</time>
      </trkpt>
      <trkpt lat="19.042869" lon="-97.267793">
        <ele>4419.647</ele>
        <time>2020-11-08T03:00:19Z</time>
      </trkpt>
      <trkpt lat="19.04282" lon="-97.267783">
        <ele>4420.829</ele>
        <time>2020-11-08T03:00:25Z</time>
      </trkpt>
      <trkpt lat="19.042791" lon="-97.267828">
        <ele>4420.721</ele>
        <time>2020-11-08T03:00:30Z</time>
      </trkpt>
      <trkpt lat="19.042748" lon="-97.267841">
        <ele>4421.008</ele>
        <time>2020-11-08T03:00:45Z</time>
      </trkpt>
      <trkpt lat="19.042716" lon="-97.26788">
        <ele>4421.230</ele>
        <time>2020-11-08T03:01:06Z</time>
      </trkpt>
      <trkpt lat="19.042678" lon="-97.267913">
        <ele>4424.914</ele>
        <time>2020-11-08T03:01:52Z</time>
      </trkpt>
      <trkpt lat="19.042637" lon="-97.267947">
        <ele>4428.795</ele>
        <time>2020-11-08T03:02:06Z</time>
      </trkpt>
      <trkpt lat="19.042595" lon="-97.267972">
        <ele>4429.487</ele>
        <time>2020-11-08T03:02:19Z</time>
      </trkpt>
      <trkpt lat="19.042556" lon="-97.268">
        <ele>4430.660</ele>
        <time>2020-11-08T03:02:25Z</time>
      </trkpt>
      <trkpt lat="19.042518" lon="-97.268035">
        <ele>4434.179</ele>
        <time>2020-11-08T03:02:39Z</time>
      </trkpt>
      <trkpt lat="19.042508" lon="-97.268084">
        <ele>4435.043</ele>
        <time>2020-11-08T03:02:44Z</time>
      </trkpt>
      <trkpt lat="19.042502" lon="-97.268136">
        <ele>4435.699</ele>
        <time>2020-11-08T03:02:51Z</time>
      </trkpt>
      <trkpt lat="19.042503" lon="-97.26819">
        <ele>4435.954</ele>
        <time>2020-11-08T03:02:58Z</time>
      </trkpt>
      <trkpt lat="19.04246" lon="-97.268206">
        <ele>4436.156</ele>
        <time>2020-11-08T03:03:46Z</time>
      </trkpt>
      <trkpt lat="19.042411" lon="-97.268209">
        <ele>4436.211</ele>
        <time>2020-11-08T03:03:53Z</time>
      </trkpt>
      <trkpt lat="19.042372" lon="-97.268234">
        <ele>4436.308</ele>
        <time>2020-11-08T03:04:13Z</time>
      </trkpt>
      <trkpt lat="19.042331" lon="-97.268262">
        <ele>4436.391</ele>
        <time>2020-11-08T03:04:19Z</time>
      </trkpt>
      <trkpt lat="19.042291" lon="-97.268286">
        <ele>4436.385</ele>
        <time>2020-11-08T03:04:34Z</time>
      </trkpt>
      <trkpt lat="19.042245" lon="-97.268304">
        <ele>4436.396</ele>
        <time>2020-11-08T03:04:43Z</time>
      </trkpt>
      <trkpt lat="19.042198" lon="-97.268301">
        <ele>4436.358</ele>
        <time>2020-11-08T03:04:57Z</time>
      </trkpt>
      <trkpt lat="19.042151" lon="-97.26831">
        <ele>4440.351</ele>
        <time>2020-11-08T03:05:15Z</time>
      </trkpt>
      <trkpt lat="19.042107" lon="-97.268335">
        <ele>4444.340</ele>
        <time>2020-11-08T03:06:05Z</time>
      </trkpt>
      <trkpt lat="19.042067" lon="-97.26837">
        <ele>4447.564</ele>
        <time>2020-11-08T03:06:11Z</time>
      </trkpt>
      <trkpt lat="19.042022" lon="-97.268367">
        <ele>4447.840</ele>
        <time>2020-11-08T03:06:16Z</time>
      </trkpt>
      <trkpt lat="19.041972" lon="-97.268378">
        <ele>4449.261</ele>
        <time>2020-11-08T03:06:25Z</time>
      </trkpt>
      <trkpt lat="19.041923" lon="-97.268399">
        <ele>4450.821</ele>
        <time>2020-11-08T03:06:32Z</time>
      </trkpt>
      <trkpt lat="19.041874" lon="-97.268416">
        <ele>4451.413</ele>
        <time>2020-11-08T03:06:38Z</time>
      </trkpt>
      <trkpt lat="19.041832" lon="-97.268442">
        <ele>4454.108</ele>
        <time>2020-11-08T03:06:45Z</time>
      </trkpt>
      <trkpt lat="19.041795" lon="-97.268475">
        <ele>4455.772</ele>
        <time>2020-11-08T03:06:54Z</time>
      </trkpt>
      <trkpt lat="19.041779" lon="-97.268524">
        <ele>4456.736</ele>
        <time>2020-11-08T03:07:07Z</time>
      </trkpt>
      <trkpt lat="19.041768" lon="-97.268573">
        <ele>4457.367</ele>
        <time>2020-11-08T03:07:20Z</time>
      </trkpt>
      <trkpt lat="19.041731" lon="-97.268607">
        <ele>4457.779</ele>
        <time>2020-11-08T03:07:31Z</time>
      </trkpt>
      <trkpt lat="19.041724" lon="-97.268666">
        <ele>4460.312</ele>
        <time>2020-11-08T03:07:51Z</time>
      </trkpt>
      <trkpt lat="19.041683" lon="-97.268686">
        <ele>4461.981</ele>
        <time>2020-11-08T03:07:56Z</time>
      </trkpt>
      <trkpt lat="19.04163" lon="-97.268698">
        <ele>4462.855</ele>
        <time>2020-11-08T03:08:57Z</time>
      </trkpt>
      <trkpt lat="19.041584" lon="-97.268699">
        <ele>4463.441</ele>
        <time>2020-11-08T03:09:02Z</time>
      </trkpt>
      <trkpt lat="19.041561" lon="-97.268742">
        <ele>4463.771</ele>
        <time>2020-11-08T03:09:16Z</time>
      </trkpt>
      <trkpt lat="19.041565" lon="-97.26879">
        <ele>4463.941</ele>
        <time>2020-11-08T03:09:24Z</time>
      </trkpt>
      <trkpt lat="19.041592" lon="-97.268828">
        <ele>4466.815</ele>
        <time>2020-11-08T03:09:40Z</time>
      </trkpt>
      <trkpt lat="19.041592" lon="-97.268881">
        <ele>4469.008</ele>
        <time>2020-11-08T03:09:52Z</time>
      </trkpt>
      <trkpt lat="19.041548" lon="-97.268892">
        <ele>4470.313</ele>
        <time>2020-11-08T03:10:06Z</time>
      </trkpt>
      <trkpt lat="19.041508" lon="-97.26892">
        <ele>4471.117</ele>
        <time>2020-11-08T03:11:09Z</time>
      </trkpt>
      <trkpt lat="19.041459" lon="-97.268929">
        <ele>4474.868</ele>
        <time>2020-11-08T03:11:22Z</time>
      </trkpt>
      <trkpt lat="19.041429" lon="-97.268973">
        <ele>4477.830</ele>
        <time>2020-11-08T03:11:29Z</time>
      </trkpt>
      <trkpt lat="19.041399" lon="-97.269009">
        <ele>4480.823</ele>
        <time>2020-11-08T03:12:23Z</time>
      </trkpt>
      <trkpt lat="19.041354" lon="-97.269008">
        <ele>4483.472</ele>
        <time>2020-11-08T03:12:33Z</time>
      </trkpt>
      <trkpt lat="19.041302" lon="-97.269008">
        <ele>4485.446</ele>
        <time>2020-11-08T03:12:49Z</time>
      </trkpt>
      <trkpt lat="19.041253" lon="-97.269023">
        <ele>4488.692</ele>
        <time>2020-11-08T03:12:58Z</time>
      </trkpt>
      <trkpt lat="19.041214" lon="-97.269047">
        <ele>4490.568</ele>
        <time>2020-11-08T03:13:08Z</time>
      </trkpt>
      <trkpt lat="19.041179" lon="-97.269078">
        <ele>4491.642</ele>
        <time>2020-11-08T03:13:22Z</time>
      </trkpt>
      <trkpt lat="19.041172" lon="-97.269126">
        <ele>4492.326</ele>
        <time>2020-11-08T03:13:44Z</time>
      </trkpt>
      <trkpt lat="19.041156" lon="-97.269171">
        <ele>4496.308</ele>
        <time>2020-11-08T03:14:02Z</time>
      </trkpt>
      <trkpt lat="19.04111" lon="-97.269176">
        <ele>4500.392</ele>
        <time>2020-11-08T03:14:55Z</time>
      </trkpt>
      <trkpt lat="19.041062" lon="-97.269182">
        <ele>4503.516</ele>
        <time>2020-11-08T03:15:09Z</time>
      </trkpt>
      <trkpt lat="19.041025" lon="-97.269213">
        <ele>4506.277</ele>
        <time>2020-11-08T03:15:20Z</time>
      </trkpt>
      <trkpt lat="19.041011" lon="-97.269259">
        <ele>4508.239</ele>
        <time>2020-11-08T03:15:33Z</time>
      </trkpt>
      <trkpt lat="19.040969" lon="-97.269285">
        <ele>4510.682</ele>
        <time>2020-11-08T03:15:47Z</time>
      </trkpt>
      <trkpt lat="19.040939" lon="-97.269321">
        <ele>4510.191</ele>
        <time>2020-11-08T03:16:01Z</time>
      </trkpt>
      <trkpt lat="19.040893" lon="-97.269338">
        <ele>4509.885</ele>
        <time>2020-11-08T03:17:24Z</time>
      </trkpt>
      <trkpt lat="19.040852" lon="-97.26936">
        <ele>4513.641</ele>
        <time>2020-11-08T03:17:37Z</time>
      </trkpt>
      <trkpt lat="19.040828" lon="-97.269406">
        <ele>4515.985</ele>
        <time>2020-11-08T03:17:59Z</time>
      </trkpt>
      <trkpt lat="19.040799" lon="-97.269443">
        <ele>4517.389</ele>
        <time>2020-11-08T03:18:15Z</time>
      </trkpt>
      <trkpt lat="19.040757" lon="-97.269467">
        <ele>4518.117</ele>
        <time>2020-11-08T03:18:29Z</time>
      </trkpt>
      <trkpt lat="19.040722" lon="-97.269504">
        <ele>4518.608</ele>
        <time>2020-11-08T03:18:37Z</time>
      </trkpt>
      <trkpt lat="19.040674" lon="-97.269511">
        <ele>4518.994</ele>
        <time>2020-11-08T03:18:46Z</time>
      </trkpt>
      <trkpt lat="19.040637" lon="-97.269541">
        <ele>4519.198</ele>
        <time>2020-11-08T03:18:51Z</time>
      </trkpt>
      <trkpt lat="19.040594" lon="-97.269568">
        <ele>4519.229</ele>
        <time>2020-11-08T03:19:11Z</time>
      </trkpt>
      <trkpt lat="19.040567" lon="-97.269609">
        <ele>4519.381</ele>
        <time>2020-11-08T03:19:19Z</time>
      </trkpt>
      <trkpt lat="19.04053" lon="-97.269643">
        <ele>4519.344</ele>
        <time>2020-11-08T03:19:30Z</time>
      </trkpt>
      <trkpt lat="19.040486" lon="-97.269657">
        <ele>4523.333</ele>
        <time>2020-11-08T03:19:37Z</time>
      </trkpt>
      <trkpt lat="19.040448" lon="-97.269687">
        <ele>4527.357</ele>
        <time>2020-11-08T03:19:44Z</time>
      </trkpt>
      <trkpt lat="19.040402" lon="-97.269703">
        <ele>4530.583</ele>
        <time>2020-11-08T03:19:59Z</time>
      </trkpt>
      <trkpt lat="19.04038" lon="-97.269746">
        <ele>4533.261</ele>
        <time>2020-11-08T03:20:13Z</time>
      </trkpt>
      <trkpt lat="19.040339" lon="-97.269772">
        <ele>4534.821</ele>
        <time>2020-11-08T03:20:23Z</time>
      </trkpt>
      <trkpt lat="19.040297" lon="-97.269803">
        <ele>4535.813</ele>
        <time>2020-11-08T03:20:38Z</time>
      </trkpt>
      <trkpt lat="19.040259" lon="-97.269831">
        <ele>4539.808</ele>
        <time>2020-11-08T03:20:54Z</time>
      </trkpt>
      <trkpt lat="19.040209" lon="-97.269831">
        <ele>4543.652</ele>
        <time>2020-11-08T03:21:03Z</time>
      </trkpt>
      <trkpt lat="19.040188" lon="-97.269874">
        <ele>4547.696</ele>
        <time>2020-11-08T03:21:10Z</time>
      </trkpt>
      <trkpt lat="19.040147" lon="-97.269902">
        <ele>4550.387</ele>
        <time>2020-11-08T03:21:18Z</time>
      </trkpt>
      <trkpt lat="19.040129" lon="-97.269956">
        <ele>4551.959</ele>
        <time>2020-11-08T03:21:23Z</time>
      </trkpt>
      <trkpt lat="19.040119" lon="-97.270007">
        <ele>4552.922</ele>
        <time>2020-11-08T03:21:28Z</time>
      </trkpt>
      <trkpt lat="19.040112" lon="-97.270059">
        <ele>4553.561</ele>
        <time>2020-11-08T03:21:35Z</time>
      </trkpt>
      <trkpt lat="19.040063" lon="-97.270078">
        <ele>4553.865</ele>
        <time>2020-11-08T03:21:44Z</time>
      </trkpt>
      <trkpt lat="19.040028" lon="-97.270107">
        <ele>4555.621</ele>
        <time>2020-11-08T03:21:51Z</time>
      </trkpt>
      <trkpt lat="19.040002" lon="-97.270148">
        <ele>4556.771</ele>
        <time>2020-11-08T03:21:58Z</time>
      </trkpt>
      <trkpt lat="19.039969" lon="-97.270182">
        <ele>4558.241</ele>
        <time>2020-11-08T03:22:13Z</time>
      </trkpt>
      <trkpt lat="19.039934" lon="-97.270214">
        <ele>4557.115</ele>
        <time>2020-11-08T03:22:25Z</time>
      </trkpt>
      <trkpt lat="19.039921" lon="-97.27026">
        <ele>4557.208</ele>
        <time>2020-11-08T03:22:41Z</time>
      </trkpt>
      <trkpt lat="19.039911" lon="-97.270309">
        <ele>4557.313</ele>
        <time>2020-11-08T03:23:09Z</time>
      </trkpt>
      <trkpt lat="19.039866" lon="-97.270303">
        <ele>4557.327</ele>
        <time>2020-11-08T03:23:42Z</time>
      </trkpt>
      <trkpt lat="19.039823" lon="-97.270323">
        <ele>4557.318</ele>
        <time>2020-11-08T03:23:52Z</time>
      </trkpt>
      <trkpt lat="19.039777" lon="-97.270334">
        <ele>4556.910</ele>
        <time>2020-11-08T03:24:04Z</time>
      </trkpt>
      <trkpt lat="19.039732" lon="-97.270341">
        <ele>4557.543</ele>
        <time>2020-11-08T03:24:16Z</time>
      </trkpt>
      <trkpt lat="19.039701" lon="-97.270376">
        <ele>4558.682</ele>
        <time>2020-11-08T03:24:27Z</time>
      </trkpt>
      <trkpt lat="19.039684" lon="-97.270421">
        <ele>4560.996</ele>
        <time>2020-11-08T03:24:39Z</time>
      </trkpt>
      <trkpt lat="19.039652" lon="-97.270463">
        <ele>4562.392</ele>
        <time>2020-11-08T03:24:51Z</time>
      </trkpt>
      <trkpt lat="19.039633" lon="-97.27051">
        <ele>4564.747</ele>
        <time>2020-11-08T03:24:58Z</time>
      </trkpt>
      <trkpt lat="19.039599" lon="-97.270541">
        <ele>4565.429</ele>
        <time>2020-11-08T03:25:04Z</time>
      </trkpt>
      <trkpt lat="19.039564" lon="-97.270573">
        <ele>4565.021</ele>
        <time>2020-11-08T03:29:25Z</time>
      </trkpt>
      <trkpt lat="19.039578" lon="-97.270622">
        <ele>4565.608</ele>
        <time>2020-11-08T03:30:02Z</time>
      </trkpt>
      <trkpt lat="19.03957" lon="-97.27054">
        <ele>4565.960</ele>
        <time>2020-11-08T03:34:54Z</time>
      </trkpt>
      <trkpt lat="19.039552" lon="-97.270584">
        <ele>4566.124</ele>
        <time>2020-11-08T03:35:17Z</time>
      </trkpt>
      <trkpt lat="19.039554" lon="-97.270632">
        <ele>4570.145</ele>
        <time>2020-11-08T03:39:45Z</time>
      </trkpt>
      <trkpt lat="19.039525" lon="-97.270672">
        <ele>4573.827</ele>
        <time>2020-11-08T03:39:55Z</time>
      </trkpt>
      <trkpt lat="19.039489" lon="-97.270704">
        <ele>4576.010</ele>
        <time>2020-11-08T03:40:10Z</time>
      </trkpt>
      <trkpt lat="19.039443" lon="-97.270695">
        <ele>4578.139</ele>
        <time>2020-11-08T03:40:27Z</time>
      </trkpt>
      <trkpt lat="19.039397" lon="-97.270711">
        <ele>4579.893</ele>
        <time>2020-11-08T03:40:42Z</time>
      </trkpt>
      <trkpt lat="19.039358" lon="-97.270739">
        <ele>4582.069</ele>
        <time>2020-11-08T03:40:52Z</time>
      </trkpt>
      <trkpt lat="19.039309" lon="-97.270734">
        <ele>4584.569</ele>
        <time>2020-11-08T03:41:14Z</time>
      </trkpt>
      <trkpt lat="19.039264" lon="-97.270741">
        <ele>4585.204</ele>
        <time>2020-11-08T03:41:24Z</time>
      </trkpt>
      <trkpt lat="19.039219" lon="-97.270746">
        <ele>4586.824</ele>
        <time>2020-11-08T03:41:48Z</time>
      </trkpt>
      <trkpt lat="19.039175" lon="-97.270761">
        <ele>4587.008</ele>
        <time>2020-11-08T03:42:00Z</time>
      </trkpt>
      <trkpt lat="19.039159" lon="-97.270808">
        <ele>4589.522</ele>
        <time>2020-11-08T03:42:13Z</time>
      </trkpt>
      <trkpt lat="19.039113" lon="-97.27081">
        <ele>4590.636</ele>
        <time>2020-11-08T03:42:50Z</time>
      </trkpt>
      <trkpt lat="19.039072" lon="-97.270838">
        <ele>4592.127</ele>
        <time>2020-11-08T03:43:47Z</time>
      </trkpt>
      <trkpt lat="19.039029" lon="-97.270856">
        <ele>4593.439</ele>
        <time>2020-11-08T03:44:09Z</time>
      </trkpt>
      <trkpt lat="19.038993" lon="-97.270889">
        <ele>4594.262</ele>
        <time>2020-11-08T03:45:19Z</time>
      </trkpt>
      <trkpt lat="19.038949" lon="-97.270912">
        <ele>4594.721</ele>
        <time>2020-11-08T03:45:31Z</time>
      </trkpt>
      <trkpt lat="19.038914" lon="-97.270942">
        <ele>4598.675</ele>
        <time>2020-11-08T03:45:39Z</time>
      </trkpt>
      <trkpt lat="19.038889" lon="-97.270988">
        <ele>4602.121</ele>
        <time>2020-11-08T03:45:50Z</time>
      </trkpt>
      <trkpt lat="19.038849" lon="-97.271016">
        <ele>4604.289</ele>
        <time>2020-11-08T03:46:07Z</time>
      </trkpt>
      <trkpt lat="19.038808" lon="-97.27104">
        <ele>4605.106</ele>
        <time>2020-11-08T03:46:24Z</time>
      </trkpt>
      <trkpt lat="19.038772" lon="-97.27107">
        <ele>4605.226</ele>
        <time>2020-11-08T03:46:35Z</time>
      </trkpt>
      <trkpt lat="19.038738" lon="-97.271102">
        <ele>4605.708</ele>
        <time>2020-11-08T03:47:01Z</time>
      </trkpt>
      <trkpt lat="19.038718" lon="-97.27115">
        <ele>4608.444</ele>
        <time>2020-11-08T03:47:09Z</time>
      </trkpt>
      <trkpt lat="19.038692" lon="-97.271192">
        <ele>4611.298</ele>
        <time>2020-11-08T03:47:17Z</time>
      </trkpt>
      <trkpt lat="19.038654" lon="-97.27122">
        <ele>4613.759</ele>
        <time>2020-11-08T03:47:31Z</time>
      </trkpt>
      <trkpt lat="19.038618" lon="-97.271249">
        <ele>4615.621</ele>
        <time>2020-11-08T03:48:14Z</time>
      </trkpt>
      <trkpt lat="19.038569" lon="-97.271258">
        <ele>4615.984</ele>
        <time>2020-11-08T03:48:28Z</time>
      </trkpt>
      <trkpt lat="19.03853" lon="-97.27129">
        <ele>4618.193</ele>
        <time>2020-11-08T03:48:40Z</time>
      </trkpt>
      <trkpt lat="19.038497" lon="-97.27133">
        <ele>4620.617</ele>
        <time>2020-11-08T03:48:50Z</time>
      </trkpt>
      <trkpt lat="19.038465" lon="-97.271366">
        <ele>4622.943</ele>
        <time>2020-11-08T03:49:17Z</time>
      </trkpt>
      <trkpt lat="19.038435" lon="-97.271407">
        <ele>4626.793</ele>
        <time>2020-11-08T03:49:32Z</time>
      </trkpt>
      <trkpt lat="19.038397" lon="-97.271434">
        <ele>4630.265</ele>
        <time>2020-11-08T03:49:41Z</time>
      </trkpt>
      <trkpt lat="19.038352" lon="-97.271449">
        <ele>4631.521</ele>
        <time>2020-11-08T03:49:50Z</time>
      </trkpt>
      <trkpt lat="19.038308" lon="-97.271464">
        <ele>4633.508</ele>
        <time>2020-11-08T03:50:04Z</time>
      </trkpt>
      <trkpt lat="19.038266" lon="-97.271487">
        <ele>4635.955</ele>
        <time>2020-11-08T03:50:14Z</time>
      </trkpt>
      <trkpt lat="19.038227" lon="-97.271516">
        <ele>4637.379</ele>
        <time>2020-11-08T03:50:50Z</time>
      </trkpt>
      <trkpt lat="19.038185" lon="-97.271542">
        <ele>4636.610</ele>
        <time>2020-11-08T03:51:01Z</time>
      </trkpt>
      <trkpt lat="19.038142" lon="-97.27156">
        <ele>4636.232</ele>
        <time>2020-11-08T03:52:05Z</time>
      </trkpt>
      <trkpt lat="19.038112" lon="-97.271598">
        <ele>4640.295</ele>
        <time>2020-11-08T03:52:12Z</time>
      </trkpt>
      <trkpt lat="19.038086" lon="-97.271641">
        <ele>4643.984</ele>
        <time>2020-11-08T03:52:23Z</time>
      </trkpt>
      <trkpt lat="19.038037" lon="-97.271654">
        <ele>4645.318</ele>
        <time>2020-11-08T03:52:40Z</time>
      </trkpt>
      <trkpt lat="19.038002" lon="-97.271687">
        <ele>4647.044</ele>
        <time>2020-11-08T03:52:55Z</time>
      </trkpt>
      <trkpt lat="19.037955" lon="-97.271698">
        <ele>4649.619</ele>
        <time>2020-11-08T03:53:36Z</time>
      </trkpt>
      <trkpt lat="19.037922" lon="-97.271734">
        <ele>4653.209</ele>
        <time>2020-11-08T03:53:42Z</time>
      </trkpt>
      <trkpt lat="19.037887" lon="-97.271766">
        <ele>4655.319</ele>
        <time>2020-11-08T03:53:50Z</time>
      </trkpt>
      <trkpt lat="19.037875" lon="-97.271813">
        <ele>4657.408</ele>
        <time>2020-11-08T03:53:57Z</time>
      </trkpt>
      <trkpt lat="19.037828" lon="-97.271805">
        <ele>4661.027</ele>
        <time>2020-11-08T03:54:15Z</time>
      </trkpt>
      <trkpt lat="19.037783" lon="-97.271795">
        <ele>4661.231</ele>
        <time>2020-11-08T03:55:26Z</time>
      </trkpt>
      <trkpt lat="19.037747" lon="-97.271766">
        <ele>4662.942</ele>
        <time>2020-11-08T03:55:41Z</time>
      </trkpt>
      <trkpt lat="19.037717" lon="-97.27173">
        <ele>4664.734</ele>
        <time>2020-11-08T03:55:49Z</time>
      </trkpt>
      <trkpt lat="19.03767" lon="-97.271713">
        <ele>4667.057</ele>
        <time>2020-11-08T03:56:16Z</time>
      </trkpt>
      <trkpt lat="19.037628" lon="-97.271686">
        <ele>4666.846</ele>
        <time>2020-11-08T03:59:35Z</time>
      </trkpt>
      <trkpt lat="19.037581" lon="-97.27169">
        <ele>4669.540</ele>
        <time>2020-11-08T04:03:38Z</time>
      </trkpt>
      <trkpt lat="19.037529" lon="-97.27169">
        <ele>4671.136</ele>
        <time>2020-11-08T04:03:49Z</time>
      </trkpt>
      <trkpt lat="19.037493" lon="-97.271655">
        <ele>4673.748</ele>
        <time>2020-11-08T04:04:28Z</time>
      </trkpt>
      <trkpt lat="19.037446" lon="-97.27165">
        <ele>4674.861</ele>
        <time>2020-11-08T04:04:35Z</time>
      </trkpt>
      <trkpt lat="19.037398" lon="-97.27165">
        <ele>4677.517</ele>
        <time>2020-11-08T04:04:42Z</time>
      </trkpt>
      <trkpt lat="19.037352" lon="-97.271643">
        <ele>4680.308</ele>
        <time>2020-11-08T04:05:06Z</time>
      </trkpt>
      <trkpt lat="19.037307" lon="-97.271635">
        <ele>4683.620</ele>
        <time>2020-11-08T04:06:21Z</time>
      </trkpt>
      <trkpt lat="19.037261" lon="-97.271651">
        <ele>4685.644</ele>
        <time>2020-11-08T04:06:27Z</time>
      </trkpt>
      <trkpt lat="19.037217" lon="-97.271664">
        <ele>4688.835</ele>
        <time>2020-11-08T04:06:36Z</time>
      </trkpt>
      <trkpt lat="19.037179" lon="-97.271693">
        <ele>4690.797</ele>
        <time>2020-11-08T04:06:48Z</time>
      </trkpt>
      <trkpt lat="19.037134" lon="-97.271704">
        <ele>4693.070</ele>
        <time>2020-11-08T04:06:56Z</time>
      </trkpt>
      <trkpt lat="19.037091" lon="-97.27169">
        <ele>4691.619</ele>
        <time>2020-11-08T04:07:23Z</time>
      </trkpt>
      <trkpt lat="19.037068" lon="-97.271735">
        <ele>4690.883</ele>
        <time>2020-11-08T04:07:31Z</time>
      </trkpt>
      <trkpt lat="19.037025" lon="-97.271753">
        <ele>4694.889</ele>
        <time>2020-11-08T04:07:42Z</time>
      </trkpt>
      <trkpt lat="19.036994" lon="-97.271792">
        <ele>4697.184</ele>
        <time>2020-11-08T04:07:52Z</time>
      </trkpt>
      <trkpt lat="19.036946" lon="-97.271791">
        <ele>4700.507</ele>
        <time>2020-11-08T04:08:33Z</time>
      </trkpt>
      <trkpt lat="19.036899" lon="-97.271797">
        <ele>4702.517</ele>
        <time>2020-11-08T04:08:54Z</time>
      </trkpt>
      <trkpt lat="19.036851" lon="-97.271801">
        <ele>4703.708</ele>
        <time>2020-11-08T04:09:08Z</time>
      </trkpt>
      <trkpt lat="19.036806" lon="-97.271792">
        <ele>4704.494</ele>
        <time>2020-11-08T04:09:21Z</time>
      </trkpt>
      <trkpt lat="19.03676" lon="-97.271802">
        <ele>4700.838</ele>
        <time>2020-11-08T04:09:30Z</time>
      </trkpt>
      <trkpt lat="19.036707" lon="-97.271806">
        <ele>4698.789</ele>
        <time>2020-11-08T04:09:48Z</time>
      </trkpt>
      <trkpt lat="19.036667" lon="-97.271832">
        <ele>4697.421</ele>
        <time>2020-11-08T04:09:57Z</time>
      </trkpt>
      <trkpt lat="19.036627" lon="-97.271855">
        <ele>4696.684</ele>
        <time>2020-11-08T04:10:44Z</time>
      </trkpt>
      <trkpt lat="19.036585" lon="-97.271838">
        <ele>4700.643</ele>
        <time>2020-11-08T04:10:53Z</time>
      </trkpt>
      <trkpt lat="19.036553" lon="-97.271805">
        <ele>4704.677</ele>
        <time>2020-11-08T04:11:06Z</time>
      </trkpt>
      <trkpt lat="19.036505" lon="-97.271805">
        <ele>4708.673</ele>
        <time>2020-11-08T04:11:28Z</time>
      </trkpt>
      <trkpt lat="19.036468" lon="-97.271763">
        <ele>4712.624</ele>
        <time>2020-11-08T04:11:41Z</time>
      </trkpt>
      <trkpt lat="19.03642" lon="-97.27173">
        <ele>4715.704</ele>
        <time>2020-11-08T04:11:46Z</time>
      </trkpt>
      <trkpt lat="19.036378" lon="-97.271708">
        <ele>4717.614</ele>
        <time>2020-11-08T04:11:54Z</time>
      </trkpt>
      <trkpt lat="19.03642" lon="-97.271727">
        <ele>4718.708</ele>
        <time>2020-11-08T04:12:20Z</time>
      </trkpt>
      <trkpt lat="19.036379" lon="-97.271706">
        <ele>4719.428</ele>
        <time>2020-11-08T04:13:03Z</time>
      </trkpt>
      <trkpt lat="19.036333" lon="-97.271705">
        <ele>4723.442</ele>
        <time>2020-11-08T04:13:15Z</time>
      </trkpt>
      <trkpt lat="19.036299" lon="-97.271666">
        <ele>4727.423</ele>
        <time>2020-11-08T04:13:24Z</time>
      </trkpt>
      <trkpt lat="19.036268" lon="-97.271626">
        <ele>4730.295</ele>
        <time>2020-11-08T04:14:01Z</time>
      </trkpt>
      <trkpt lat="19.036266" lon="-97.271578">
        <ele>4731.928</ele>
        <time>2020-11-08T04:14:16Z</time>
      </trkpt>
      <trkpt lat="19.036224" lon="-97.271554">
        <ele>4732.997</ele>
        <time>2020-11-08T04:14:56Z</time>
      </trkpt>
      <trkpt lat="19.03618" lon="-97.271535">
        <ele>4733.521</ele>
        <time>2020-11-08T04:15:02Z</time>
      </trkpt>
      <trkpt lat="19.036153" lon="-97.271494">
        <ele>4733.987</ele>
        <time>2020-11-08T04:15:17Z</time>
      </trkpt>
      <trkpt lat="19.036136" lon="-97.271449">
        <ele>4734.153</ele>
        <time>2020-11-08T04:15:27Z</time>
      </trkpt>
      <trkpt lat="19.036097" lon="-97.271423">
        <ele>4734.204</ele>
        <time>2020-11-08T04:15:38Z</time>
      </trkpt>
      <trkpt lat="19.036069" lon="-97.271381">
        <ele>4738.214</ele>
        <time>2020-11-08T04:15:57Z</time>
      </trkpt>
      <trkpt lat="19.036046" lon="-97.27134">
        <ele>4742.208</ele>
        <time>2020-11-08T04:16:12Z</time>
      </trkpt>
      <trkpt lat="19.035999" lon="-97.271322">
        <ele>4746.271</ele>
        <time>2020-11-08T04:17:07Z</time>
      </trkpt>
      <trkpt lat="19.035962" lon="-97.271286">
        <ele>4750.275</ele>
        <time>2020-11-08T04:17:39Z</time>
      </trkpt>
      <trkpt lat="19.035917" lon="-97.27126">
        <ele>4752.716</ele>
        <time>2020-11-08T04:17:45Z</time>
      </trkpt>
      <trkpt lat="19.035871" lon="-97.271204">
        <ele>4754.248</ele>
        <time>2020-11-08T04:18:27Z</time>
      </trkpt>
      <trkpt lat="19.035843" lon="-97.271167">
        <ele>4758.291</ele>
        <time>2020-11-08T04:18:29Z</time>
      </trkpt>
      <trkpt lat="19.035806" lon="-97.271139">
        <ele>4762.230</ele>
        <time>2020-11-08T04:19:22Z</time>
      </trkpt>
      <trkpt lat="19.035768" lon="-97.271101">
        <ele>4766.214</ele>
        <time>2020-11-08T04:19:25Z</time>
      </trkpt>
      <trkpt lat="19.035734" lon="-97.271067">
        <ele>4768.720</ele>
        <time>2020-11-08T04:20:01Z</time>
      </trkpt>
      <trkpt lat="19.035717" lon="-97.271016">
        <ele>4772.739</ele>
        <time>2020-11-08T04:21:53Z</time>
      </trkpt>
      <trkpt lat="19.035693" lon="-97.270965">
        <ele>4776.701</ele>
        <time>2020-11-08T04:21:59Z</time>
      </trkpt>
      <trkpt lat="19.035687" lon="-97.270914">
        <ele>4780.721</ele>
        <time>2020-11-08T04:24:54Z</time>
      </trkpt>
      <trkpt lat="19.035643" lon="-97.270929">
        <ele>4783.808</ele>
        <time>2020-11-08T04:30:44Z</time>
      </trkpt>
      <trkpt lat="19.035597" lon="-97.27092">
        <ele>4784.589</ele>
        <time>2020-11-08T04:31:07Z</time>
      </trkpt>
      <trkpt lat="19.03555" lon="-97.27092">
        <ele>4784.963</ele>
        <time>2020-11-08T04:31:59Z</time>
      </trkpt>
      <trkpt lat="19.035503" lon="-97.270935">
        <ele>4785.124</ele>
        <time>2020-11-08T04:32:09Z</time>
      </trkpt>
      <trkpt lat="19.035461" lon="-97.270912">
        <ele>4789.146</ele>
        <time>2020-11-08T04:32:18Z</time>
      </trkpt>
      <trkpt lat="19.035416" lon="-97.270893">
        <ele>4792.899</ele>
        <time>2020-11-08T04:32:23Z</time>
      </trkpt>
      <trkpt lat="19.035372" lon="-97.270883">
        <ele>4795.078</ele>
        <time>2020-11-08T04:34:59Z</time>
      </trkpt>
      <trkpt lat="19.035339" lon="-97.270849">
        <ele>4798.792</ele>
        <time>2020-11-08T04:35:13Z</time>
      </trkpt>
      <trkpt lat="19.035307" lon="-97.270808">
        <ele>4800.998</ele>
        <time>2020-11-08T04:35:26Z</time>
      </trkpt>
      <trkpt lat="19.03526" lon="-97.270806">
        <ele>4804.918</ele>
        <time>2020-11-08T04:36:19Z</time>
      </trkpt>
      <trkpt lat="19.035212" lon="-97.270793">
        <ele>4808.698</ele>
        <time>2020-11-08T04:36:35Z</time>
      </trkpt>
      <trkpt lat="19.03517" lon="-97.270774">
        <ele>4812.617</ele>
        <time>2020-11-08T04:38:38Z</time>
      </trkpt>
      <trkpt lat="19.035123" lon="-97.270788">
        <ele>4815.608</ele>
        <time>2020-11-08T04:38:48Z</time>
      </trkpt>
      <trkpt lat="19.035075" lon="-97.2708">
        <ele>4818.237</ele>
        <time>2020-11-08T04:38:57Z</time>
      </trkpt>
      <trkpt lat="19.035031" lon="-97.270782">
        <ele>4819.871</ele>
        <time>2020-11-08T04:39:58Z</time>
      </trkpt>
      <trkpt lat="19.03499" lon="-97.270759">
        <ele>4823.832</ele>
        <time>2020-11-08T04:40:08Z</time>
      </trkpt>
      <trkpt lat="19.034953" lon="-97.270726">
        <ele>4825.954</ele>
        <time>2020-11-08T04:40:36Z</time>
      </trkpt>
      <trkpt lat="19.034914" lon="-97.270702">
        <ele>4827.237</ele>
        <time>2020-11-08T04:41:20Z</time>
      </trkpt>
      <trkpt lat="19.034871" lon="-97.270718">
        <ele>4830.086</ele>
        <time>2020-11-08T04:41:59Z</time>
      </trkpt>
      <trkpt lat="19.034839" lon="-97.270757">
        <ele>4832.590</ele>
        <time>2020-11-08T04:42:13Z</time>
      </trkpt>
      <trkpt lat="19.0348" lon="-97.27073">
        <ele>4833.686</ele>
        <time>2020-11-08T04:42:27Z</time>
      </trkpt>
      <trkpt lat="19.034769" lon="-97.27069">
        <ele>4834.292</ele>
        <time>2020-11-08T04:43:53Z</time>
      </trkpt>
      <trkpt lat="19.034744" lon="-97.270648">
        <ele>4834.673</ele>
        <time>2020-11-08T04:44:53Z</time>
      </trkpt>
      <trkpt lat="19.034698" lon="-97.270647">
        <ele>4834.820</ele>
        <time>2020-11-08T04:45:17Z</time>
      </trkpt>
      <trkpt lat="19.034735" lon="-97.270675">
        <ele>4834.908</ele>
        <time>2020-11-08T04:46:17Z</time>
      </trkpt>
      <trkpt lat="19.034687" lon="-97.270662">
        <ele>4838.935</ele>
        <time>2020-11-08T04:46:45Z</time>
      </trkpt>
      <trkpt lat="19.034638" lon="-97.270648">
        <ele>4842.649</ele>
        <time>2020-11-08T04:47:27Z</time>
      </trkpt>
      <trkpt lat="19.034595" lon="-97.270633">
        <ele>4845.280</ele>
        <time>2020-11-08T04:47:41Z</time>
      </trkpt>
      <trkpt lat="19.034554" lon="-97.270613">
        <ele>4848.472</ele>
        <time>2020-11-08T04:48:01Z</time>
      </trkpt>
      <trkpt lat="19.034506" lon="-97.270607">
        <ele>4851.125</ele>
        <time>2020-11-08T04:49:33Z</time>
      </trkpt>
      <trkpt lat="19.034462" lon="-97.270619">
        <ele>4852.314</ele>
        <time>2020-11-08T04:49:42Z</time>
      </trkpt>
      <trkpt lat="19.034422" lon="-97.270595">
        <ele>4854.698</ele>
        <time>2020-11-08T04:50:00Z</time>
      </trkpt>
      <trkpt lat="19.034401" lon="-97.27055">
        <ele>4857.654</ele>
        <time>2020-11-08T04:51:10Z</time>
      </trkpt>
      <trkpt lat="19.03441" lon="-97.270597">
        <ele>4859.437</ele>
        <time>2020-11-08T04:52:52Z</time>
      </trkpt>
      <trkpt lat="19.034362" lon="-97.270588">
        <ele>4860.549</ele>
        <time>2020-11-08T04:53:07Z</time>
      </trkpt>
      <trkpt lat="19.034319" lon="-97.27057">
        <ele>4864.513</ele>
        <time>2020-11-08T04:53:18Z</time>
      </trkpt>
      <trkpt lat="19.034273" lon="-97.27057">
        <ele>4867.508</ele>
        <time>2020-11-08T04:53:52Z</time>
      </trkpt>
      <trkpt lat="19.034268" lon="-97.270521">
        <ele>4869.399</ele>
        <time>2020-11-08T04:58:21Z</time>
      </trkpt>
      <trkpt lat="19.034247" lon="-97.270476">
        <ele>4870.423</ele>
        <time>2020-11-08T04:58:37Z</time>
      </trkpt>
      <trkpt lat="19.034225" lon="-97.270433">
        <ele>4873.594</ele>
        <time>2020-11-08T04:58:59Z</time>
      </trkpt>
      <trkpt lat="19.03419" lon="-97.270399">
        <ele>4875.376</ele>
        <time>2020-11-08T04:59:16Z</time>
      </trkpt>
      <trkpt lat="19.034144" lon="-97.270396">
        <ele>4876.489</ele>
        <time>2020-11-08T05:01:51Z</time>
      </trkpt>
      <trkpt lat="19.034094" lon="-97.270397">
        <ele>4880.468</ele>
        <time>2020-11-08T05:01:59Z</time>
      </trkpt>
      <trkpt lat="19.03405" lon="-97.27037">
        <ele>4884.322</ele>
        <time>2020-11-08T05:02:08Z</time>
      </trkpt>
      <trkpt lat="19.034052" lon="-97.270418">
        <ele>4885.468</ele>
        <time>2020-11-08T05:03:01Z</time>
      </trkpt>
      <trkpt lat="19.034073" lon="-97.270373">
        <ele>4888.952</ele>
        <time>2020-11-08T05:03:32Z</time>
      </trkpt>
      <trkpt lat="19.034027" lon="-97.270381">
        <ele>4891.053</ele>
        <time>2020-11-08T05:03:58Z</time>
      </trkpt>
      <trkpt lat="19.03398" lon="-97.270371">
        <ele>4892.208</ele>
        <time>2020-11-08T05:04:16Z</time>
      </trkpt>
      <trkpt lat="19.033941" lon="-97.270396">
        <ele>4892.908</ele>
        <time>2020-11-08T05:05:52Z</time>
      </trkpt>
      <trkpt lat="19.03392" lon="-97.270442">
        <ele>4896.971</ele>
        <time>2020-11-08T05:06:02Z</time>
      </trkpt>
      <trkpt lat="19.033876" lon="-97.270427">
        <ele>4900.125</ele>
        <time>2020-11-08T05:06:28Z</time>
      </trkpt>
      <trkpt lat="19.033831" lon="-97.270425">
        <ele>4902.016</ele>
        <time>2020-11-08T05:07:08Z</time>
      </trkpt>
      <trkpt lat="19.033787" lon="-97.27041">
        <ele>4903.268</ele>
        <time>2020-11-08T05:09:46Z</time>
      </trkpt>
      <trkpt lat="19.033755" lon="-97.270444">
        <ele>4903.921</ele>
        <time>2020-11-08T05:09:56Z</time>
      </trkpt>
      <trkpt lat="19.033708" lon="-97.270448">
        <ele>4904.360</ele>
        <time>2020-11-08T05:10:12Z</time>
      </trkpt>
      <trkpt lat="19.033664" lon="-97.270461">
        <ele>4904.684</ele>
        <time>2020-11-08T05:10:22Z</time>
      </trkpt>
      <trkpt lat="19.033663" lon="-97.270413">
        <ele>4904.890</ele>
        <time>2020-11-08T05:10:50Z</time>
      </trkpt>
      <trkpt lat="19.033633" lon="-97.270376">
        <ele>4904.985</ele>
        <time>2020-11-08T05:13:29Z</time>
      </trkpt>
      <trkpt lat="19.033597" lon="-97.270347">
        <ele>4905.089</ele>
        <time>2020-11-08T05:13:57Z</time>
      </trkpt>
      <trkpt lat="19.033551" lon="-97.27034">
        <ele>4905.017</ele>
        <time>2020-11-08T05:15:20Z</time>
      </trkpt>
      <trkpt lat="19.03351" lon="-97.270371">
        <ele>4909.008</ele>
        <time>2020-11-08T05:15:28Z</time>
      </trkpt>
      <trkpt lat="19.033467" lon="-97.270357">
        <ele>4913.094</ele>
        <time>2020-11-08T05:15:49Z</time>
      </trkpt>
      <trkpt lat="19.033419" lon="-97.270368">
        <ele>4917.048</ele>
        <time>2020-11-08T05:16:12Z</time>
      </trkpt>
      <trkpt lat="19.033231" lon="-97.270414">
        <ele>4912.079</ele>
        <time>2020-11-08T05:22:34Z</time>
      </trkpt>
      <trkpt lat="19.033243" lon="-97.270368">
        <ele>4917.041</ele>
        <time>2020-11-08T05:24:35Z</time>
      </trkpt>
      <trkpt lat="19.033229" lon="-97.270317">
        <ele>4917.414</ele>
        <time>2020-11-08T05:24:43Z</time>
      </trkpt>
      <trkpt lat="19.033196" lon="-97.270283">
        <ele>4918.083</ele>
        <time>2020-11-08T05:24:47Z</time>
      </trkpt>
      <trkpt lat="19.033172" lon="-97.270242">
        <ele>4918.437</ele>
        <time>2020-11-08T05:26:20Z</time>
      </trkpt>
      <trkpt lat="19.033164" lon="-97.270194">
        <ele>4918.623</ele>
        <time>2020-11-08T05:26:34Z</time>
      </trkpt>
      <trkpt lat="19.033146" lon="-97.270148">
        <ele>4915.519</ele>
        <time>2020-11-08T05:26:48Z</time>
      </trkpt>
      <trkpt lat="19.033114" lon="-97.270109">
        <ele>4913.709</ele>
        <time>2020-11-08T05:26:56Z</time>
      </trkpt>
      <trkpt lat="19.033084" lon="-97.270073">
        <ele>4912.619</ele>
        <time>2020-11-08T05:28:26Z</time>
      </trkpt>
      <trkpt lat="19.033043" lon="-97.270054">
        <ele>4911.908</ele>
        <time>2020-11-08T05:28:36Z</time>
      </trkpt>
      <trkpt lat="19.033036" lon="-97.270001">
        <ele>4911.527</ele>
        <time>2020-11-08T05:28:47Z</time>
      </trkpt>
      <trkpt lat="19.033022" lon="-97.269955">
        <ele>4915.551</ele>
        <time>2020-11-08T05:29:32Z</time>
      </trkpt>
      <trkpt lat="19.032999" lon="-97.269914">
        <ele>4919.562</ele>
        <time>2020-11-08T05:30:43Z</time>
      </trkpt>
      <trkpt lat="19.032965" lon="-97.269878">
        <ele>4923.514</ele>
        <time>2020-11-08T05:32:53Z</time>
      </trkpt>
      <trkpt lat="19.032943" lon="-97.269836">
        <ele>4927.537</ele>
        <time>2020-11-08T05:33:12Z</time>
      </trkpt>
      <trkpt lat="19.032918" lon="-97.269796">
        <ele>4931.566</ele>
        <time>2020-11-08T05:36:09Z</time>
      </trkpt>
      <trkpt lat="19.032889" lon="-97.269757">
        <ele>4935.540</ele>
        <time>2020-11-08T05:36:12Z</time>
      </trkpt>
      <trkpt lat="19.032854" lon="-97.269727">
        <ele>4939.546</ele>
        <time>2020-11-08T05:37:19Z</time>
      </trkpt>
      <trkpt lat="19.032801" lon="-97.269711">
        <ele>4943.535</ele>
        <time>2020-11-08T05:38:00Z</time>
      </trkpt>
      <trkpt lat="19.032825" lon="-97.269751">
        <ele>4947.586</ele>
        <time>2020-11-08T05:40:27Z</time>
      </trkpt>
      <trkpt lat="19.03278" lon="-97.269769">
        <ele>4951.514</ele>
        <time>2020-11-08T05:41:01Z</time>
      </trkpt>
      <trkpt lat="19.032735" lon="-97.269779">
        <ele>4955.308</ele>
        <time>2020-11-08T05:41:31Z</time>
      </trkpt>
      <trkpt lat="19.032692" lon="-97.269796">
        <ele>4957.669</ele>
        <time>2020-11-08T05:42:31Z</time>
      </trkpt>
      <trkpt lat="19.032647" lon="-97.269803">
        <ele>4961.613</ele>
        <time>2020-11-08T05:42:45Z</time>
      </trkpt>
      <trkpt lat="19.032612" lon="-97.269838">
        <ele>4965.654</ele>
        <time>2020-11-08T05:43:14Z</time>
      </trkpt>
      <trkpt lat="19.032568" lon="-97.269852">
        <ele>4969.676</ele>
        <time>2020-11-08T05:43:40Z</time>
      </trkpt>
      <trkpt lat="19.032541" lon="-97.269893">
        <ele>4973.459</ele>
        <time>2020-11-08T05:44:42Z</time>
      </trkpt>
      <trkpt lat="19.032495" lon="-97.269897">
        <ele>4976.998</ele>
        <time>2020-11-08T05:44:56Z</time>
      </trkpt>
      <trkpt lat="19.03245" lon="-97.269895">
        <ele>4979.082</ele>
        <time>2020-11-08T05:45:50Z</time>
      </trkpt>
      <trkpt lat="19.032428" lon="-97.269853">
        <ele>4980.648</ele>
        <time>2020-11-08T05:46:31Z</time>
      </trkpt>
      <trkpt lat="19.032395" lon="-97.26982">
        <ele>4981.621</ele>
        <time>2020-11-08T05:47:16Z</time>
      </trkpt>
      <trkpt lat="19.032352" lon="-97.269806">
        <ele>4982.241</ele>
        <time>2020-11-08T05:48:49Z</time>
      </trkpt>
      <trkpt lat="19.032308" lon="-97.269777">
        <ele>4986.205</ele>
        <time>2020-11-08T05:49:03Z</time>
      </trkpt>
      <trkpt lat="19.032266" lon="-97.269756">
        <ele>4988.608</ele>
        <time>2020-11-08T05:49:22Z</time>
      </trkpt>
      <trkpt lat="19.032222" lon="-97.269738">
        <ele>4990.038</ele>
        <time>2020-11-08T05:49:27Z</time>
      </trkpt>
      <trkpt lat="19.032267" lon="-97.269731">
        <ele>4990.922</ele>
        <time>2020-11-08T05:51:51Z</time>
      </trkpt>
      <trkpt lat="19.032297" lon="-97.26977">
        <ele>4991.433</ele>
        <time>2020-11-08T05:55:06Z</time>
      </trkpt>
      <trkpt lat="19.032336" lon="-97.269799">
        <ele>4987.425</ele>
        <time>2020-11-08T05:55:09Z</time>
      </trkpt>
      <trkpt lat="19.032345" lon="-97.26975">
        <ele>4984.138</ele>
        <time>2020-11-08T05:55:43Z</time>
      </trkpt>
      <trkpt lat="19.032141" lon="-97.269792">
        <ele>4982.137</ele>
        <time>2020-11-08T05:56:07Z</time>
      </trkpt>
      <trkpt lat="19.032156" lon="-97.269735">
        <ele>4980.981</ele>
        <time>2020-11-08T05:56:08Z</time>
      </trkpt>
      <trkpt lat="19.032185" lon="-97.269622">
        <ele>4980.227</ele>
        <time>2020-11-08T05:56:10Z</time>
      </trkpt>
      <trkpt lat="19.032179" lon="-97.269671">
        <ele>4979.847</ele>
        <time>2020-11-08T05:57:42Z</time>
      </trkpt>
      <trkpt lat="19.032143" lon="-97.269641">
        <ele>4979.529</ele>
        <time>2020-11-08T05:58:05Z</time>
      </trkpt>
      <trkpt lat="19.032137" lon="-97.269594">
        <ele>4979.321</ele>
        <time>2020-11-08T05:58:20Z</time>
      </trkpt>
      <trkpt lat="19.032114" lon="-97.26955">
        <ele>4979.208</ele>
        <time>2020-11-08T05:58:38Z</time>
      </trkpt>
      <trkpt lat="19.03208" lon="-97.269512">
        <ele>4979.160</ele>
        <time>2020-11-08T05:59:19Z</time>
      </trkpt>
      <trkpt lat="19.032037" lon="-97.269497">
        <ele>4983.114</ele>
        <time>2020-11-08T06:00:10Z</time>
      </trkpt>
      <trkpt lat="19.03199" lon="-97.269512">
        <ele>4987.155</ele>
        <time>2020-11-08T06:00:43Z</time>
      </trkpt>
      <trkpt lat="19.031955" lon="-97.269479">
        <ele>4991.197</ele>
        <time>2020-11-08T06:01:00Z</time>
      </trkpt>
      <trkpt lat="19.03193" lon="-97.269439">
        <ele>4995.110</ele>
        <time>2020-11-08T06:01:17Z</time>
      </trkpt>
      <trkpt lat="19.031916" lon="-97.269389">
        <ele>4999.179</ele>
        <time>2020-11-08T06:01:33Z</time>
      </trkpt>
      <trkpt lat="19.031879" lon="-97.269422">
        <ele>5003.183</ele>
        <time>2020-11-08T06:03:33Z</time>
      </trkpt>
      <trkpt lat="19.031846" lon="-97.269456">
        <ele>5007.119</ele>
        <time>2020-11-08T06:03:42Z</time>
      </trkpt>
      <trkpt lat="19.031801" lon="-97.269486">
        <ele>5011.144</ele>
        <time>2020-11-08T06:03:49Z</time>
      </trkpt>
      <trkpt lat="19.031763" lon="-97.269517">
        <ele>5015.105</ele>
        <time>2020-11-08T06:03:56Z</time>
      </trkpt>
      <trkpt lat="19.031746" lon="-97.269567">
        <ele>5019.115</ele>
        <time>2020-11-08T06:04:05Z</time>
      </trkpt>
      <trkpt lat="19.031711" lon="-97.26961">
        <ele>5023.108</ele>
        <time>2020-11-08T06:04:11Z</time>
      </trkpt>
      <trkpt lat="19.030875" lon="-97.269707">
        <ele>5030.320</ele>
        <time>2020-11-08T06:11:11Z</time>
      </trkpt>
      <trkpt lat="19.030883" lon="-97.269758">
        <ele>5030.354</ele>
        <time>2020-11-08T06:11:12Z</time>
      </trkpt>
      <trkpt lat="19.030861" lon="-97.269803">
        <ele>5030.395</ele>
        <time>2020-11-08T06:11:15Z</time>
      </trkpt>
      <trkpt lat="19.030899" lon="-97.269733">
        <ele>5030.367</ele>
        <time>2020-11-08T06:11:18Z</time>
      </trkpt>
      <trkpt lat="19.030875" lon="-97.269775">
        <ele>5030.310</ele>
        <time>2020-11-08T06:11:38Z</time>
      </trkpt>
      <trkpt lat="19.030834" lon="-97.269803">
        <ele>5026.349</ele>
        <time>2020-11-08T06:11:47Z</time>
      </trkpt>
      <trkpt lat="19.030792" lon="-97.269825">
        <ele>5023.123</ele>
        <time>2020-11-08T06:11:51Z</time>
      </trkpt>
      <trkpt lat="19.030753" lon="-97.269858">
        <ele>5021.279</ele>
        <time>2020-11-08T06:11:58Z</time>
      </trkpt>
      <trkpt lat="19.030706" lon="-97.269879">
        <ele>5019.695</ele>
        <time>2020-11-08T06:12:05Z</time>
      </trkpt>
      <trkpt lat="19.030664" lon="-97.269909">
        <ele>5019.549</ele>
        <time>2020-11-08T06:12:11Z</time>
      </trkpt>
      <trkpt lat="19.030616" lon="-97.269928">
        <ele>5019.423</ele>
        <time>2020-11-08T06:12:18Z</time>
      </trkpt>
      <trkpt lat="19.030565" lon="-97.269923">
        <ele>5019.008</ele>
        <time>2020-11-08T06:12:25Z</time>
      </trkpt>
      <trkpt lat="19.030514" lon="-97.269917">
        <ele>5020.345</ele>
        <time>2020-11-08T06:12:32Z</time>
      </trkpt>
      <trkpt lat="19.030465" lon="-97.269921">
        <ele>5021.589</ele>
        <time>2020-11-08T06:12:40Z</time>
      </trkpt>
      <trkpt lat="19.030417" lon="-97.269915">
        <ele>5024.220</ele>
        <time>2020-11-08T06:12:50Z</time>
      </trkpt>
      <trkpt lat="19.030373" lon="-97.269939">
        <ele>5025.892</ele>
        <time>2020-11-08T06:13:31Z</time>
      </trkpt>
      <trkpt lat="19.030465" lon="-97.269909">
        <ele>5637.085</ele>
        <time>2020-11-08T06:42:46Z</time>
      </trkpt>
      <trkpt lat="19.030503" lon="-97.269948">
        <ele>5627.024</ele>
        <time>2020-11-08T06:42:51Z</time>
      </trkpt>
      <trkpt lat="19.030426" lon="-97.269955">
        <ele>5627.028</ele>
        <time>2020-11-08T06:42:54Z</time>
      </trkpt>
      <trkpt lat="19.030477" lon="-97.269941">
        <ele>5627.094</ele>
        <time>2020-11-08T06:43:43Z</time>
      </trkpt>
      <trkpt lat="19.030525" lon="-97.269943">
        <ele>5625.438</ele>
        <time>2020-11-08T06:43:49Z</time>
      </trkpt>
      <trkpt lat="19.030577" lon="-97.269934">
        <ele>5622.870</ele>
        <time>2020-11-08T06:43:55Z</time>
      </trkpt>
      <trkpt lat="19.030624" lon="-97.269922">
        <ele>5620.917</ele>
        <time>2020-11-08T06:44:02Z</time>
      </trkpt>
      <trkpt lat="19.030669" lon="-97.269904">
        <ele>5619.308</ele>
        <time>2020-11-08T06:44:08Z</time>
      </trkpt>
      <trkpt lat="19.030716" lon="-97.269887">
        <ele>5619.079</ele>
        <time>2020-11-08T06:44:16Z</time>
      </trkpt>
      <trkpt lat="19.032736" lon="-97.269739">
        <ele>5521.033</ele>
        <time>2020-11-08T07:08:00Z</time>
      </trkpt>
      <trkpt lat="19.032778" lon="-97.269711">
        <ele>5524.064</ele>
        <time>2020-11-08T07:08:43Z</time>
      </trkpt>
      <trkpt lat="19.032824" lon="-97.269723">
        <ele>5521.236</ele>
        <time>2020-11-08T07:08:58Z</time>
      </trkpt>
      <trkpt lat="19.032862" lon="-97.269756">
        <ele>5517.929</ele>
        <time>2020-11-08T07:09:09Z</time>
      </trkpt>
      <trkpt lat="19.032905" lon="-97.269776">
        <ele>5514.378</ele>
        <time>2020-11-08T07:09:35Z</time>
      </trkpt>
      <trkpt lat="19.032947" lon="-97.269805">
        <ele>5510.392</ele>
        <time>2020-11-08T07:09:44Z</time>
      </trkpt>
      <trkpt lat="19.032974" lon="-97.269849">
        <ele>5506.668</ele>
        <time>2020-11-08T07:09:54Z</time>
      </trkpt>
      <trkpt lat="19.033013" lon="-97.269884">
        <ele>5503.211</ele>
        <time>2020-11-08T07:10:01Z</time>
      </trkpt>
      <trkpt lat="19.033009" lon="-97.269933">
        <ele>5499.921</ele>
        <time>2020-11-08T07:10:11Z</time>
      </trkpt>
      <trkpt lat="19.033024" lon="-97.269981">
        <ele>5496.303</ele>
        <time>2020-11-08T07:10:20Z</time>
      </trkpt>
      <trkpt lat="19.033063" lon="-97.270009">
        <ele>5493.008</ele>
        <time>2020-11-08T07:10:40Z</time>
      </trkpt>
      <trkpt lat="19.03307" lon="-97.270056">
        <ele>5507.857</ele>
        <time>2020-11-08T07:14:41Z</time>
      </trkpt>
      <trkpt lat="19.033114" lon="-97.270066">
        <ele>5507.851</ele>
        <time>2020-11-08T07:19:04Z</time>
      </trkpt>
      <trkpt lat="19.033126" lon="-97.270113">
        <ele>5506.282</ele>
        <time>2020-11-08T07:19:15Z</time>
      </trkpt>
      <trkpt lat="19.033148" lon="-97.270156">
        <ele>5504.034</ele>
        <time>2020-11-08T07:19:22Z</time>
      </trkpt>
      <trkpt lat="19.033186" lon="-97.270192">
        <ele>5501.517</ele>
        <time>2020-11-08T07:19:29Z</time>
      </trkpt>
      <trkpt lat="19.033226" lon="-97.270222">
        <ele>5498.816</ele>
        <time>2020-11-08T07:19:45Z</time>
      </trkpt>
      <trkpt lat="19.03325" lon="-97.270263">
        <ele>5496.450</ele>
        <time>2020-11-08T07:19:55Z</time>
      </trkpt>
      <trkpt lat="19.033237" lon="-97.270309">
        <ele>5492.996</ele>
        <time>2020-11-08T07:20:09Z</time>
      </trkpt>
      <trkpt lat="19.03326" lon="-97.270353">
        <ele>5490.026</ele>
        <time>2020-11-08T07:20:19Z</time>
      </trkpt>
      <trkpt lat="19.033287" lon="-97.270399">
        <ele>5487.547</ele>
        <time>2020-11-08T07:20:26Z</time>
      </trkpt>
      <trkpt lat="19.033283" lon="-97.270447">
        <ele>5484.811</ele>
        <time>2020-11-08T07:20:38Z</time>
      </trkpt>
      <trkpt lat="19.033325" lon="-97.270422">
        <ele>5482.008</ele>
        <time>2020-11-08T07:20:52Z</time>
      </trkpt>
      <trkpt lat="19.03337" lon="-97.270397">
        <ele>5478.348</ele>
        <time>2020-11-08T07:21:02Z</time>
      </trkpt>
      <trkpt lat="19.033413" lon="-97.270365">
        <ele>5474.522</ele>
        <time>2020-11-08T07:21:18Z</time>
      </trkpt>
      <trkpt lat="19.033441" lon="-97.270327">
        <ele>5473.473</ele>
        <time>2020-11-08T07:23:04Z</time>
      </trkpt>
      <trkpt lat="19.033487" lon="-97.270301">
        <ele>5472.745</ele>
        <time>2020-11-08T07:23:10Z</time>
      </trkpt>
      <trkpt lat="19.033522" lon="-97.270269">
        <ele>5471.938</ele>
        <time>2020-11-08T07:23:16Z</time>
      </trkpt>
      <trkpt lat="19.033559" lon="-97.270298">
        <ele>5469.497</ele>
        <time>2020-11-08T07:23:23Z</time>
      </trkpt>
      <trkpt lat="19.033581" lon="-97.270343">
        <ele>5466.361</ele>
        <time>2020-11-08T07:23:31Z</time>
      </trkpt>
      <trkpt lat="19.03363" lon="-97.270373">
        <ele>5463.287</ele>
        <time>2020-11-08T07:23:37Z</time>
      </trkpt>
      <trkpt lat="19.033674" lon="-97.270359">
        <ele>5459.292</ele>
        <time>2020-11-08T07:24:12Z</time>
      </trkpt>
      <trkpt lat="19.033721" lon="-97.270376">
        <ele>5455.473</ele>
        <time>2020-11-08T07:24:52Z</time>
      </trkpt>
      <trkpt lat="19.033765" lon="-97.270395">
        <ele>5453.120</ele>
        <time>2020-11-08T07:25:00Z</time>
      </trkpt>
      <trkpt lat="19.033815" lon="-97.270391">
        <ele>5450.508</ele>
        <time>2020-11-08T07:25:06Z</time>
      </trkpt>
      <trkpt lat="19.033864" lon="-97.270386">
        <ele>5449.015</ele>
        <time>2020-11-08T07:25:20Z</time>
      </trkpt>
      <trkpt lat="19.033908" lon="-97.27037">
        <ele>5448.179</ele>
        <time>2020-11-08T07:25:41Z</time>
      </trkpt>
      <trkpt lat="19.033954" lon="-97.270355">
        <ele>5447.530</ele>
        <time>2020-11-08T07:25:51Z</time>
      </trkpt>
      <trkpt lat="19.033998" lon="-97.270368">
        <ele>5443.522</ele>
        <time>2020-11-08T07:26:08Z</time>
      </trkpt>
      <trkpt lat="19.034045" lon="-97.270379">
        <ele>5439.525</ele>
        <time>2020-11-08T07:26:20Z</time>
      </trkpt>
      <trkpt lat="19.034093" lon="-97.270392">
        <ele>5436.454</ele>
        <time>2020-11-08T07:26:32Z</time>
      </trkpt>
      <trkpt lat="19.03414" lon="-97.270396">
        <ele>5434.558</ele>
        <time>2020-11-08T07:26:48Z</time>
      </trkpt>
      <trkpt lat="19.034188" lon="-97.27041">
        <ele>5433.454</ele>
        <time>2020-11-08T07:26:54Z</time>
      </trkpt>
      <trkpt lat="19.034235" lon="-97.270419">
        <ele>5432.731</ele>
        <time>2020-11-08T07:27:19Z</time>
      </trkpt>
      <trkpt lat="19.034281" lon="-97.27041">
        <ele>5432.361</ele>
        <time>2020-11-08T07:27:41Z</time>
      </trkpt>
      <trkpt lat="19.034333" lon="-97.270393">
        <ele>5432.107</ele>
        <time>2020-11-08T07:27:48Z</time>
      </trkpt>
      <trkpt lat="19.034371" lon="-97.270365">
        <ele>5432.008</ele>
        <time>2020-11-08T07:27:55Z</time>
      </trkpt>
      <trkpt lat="19.034755" lon="-97.270427">
        <ele>5372.169</ele>
        <time>2020-11-08T07:34:41Z</time>
      </trkpt>
      <trkpt lat="19.034758" lon="-97.270409">
        <ele>5372.113</ele>
        <time>2020-11-08T07:36:00Z</time>
      </trkpt>
      <trkpt lat="19.034804" lon="-97.270427">
        <ele>5373.724</ele>
        <time>2020-11-08T07:36:32Z</time>
      </trkpt>
      <trkpt lat="19.034849" lon="-97.27042">
        <ele>5373.556</ele>
        <time>2020-11-08T07:36:39Z</time>
      </trkpt>
      <trkpt lat="19.034896" lon="-97.270428">
        <ele>5371.499</ele>
        <time>2020-11-08T07:36:49Z</time>
      </trkpt>
      <trkpt lat="19.034938" lon="-97.270446">
        <ele>5367.758</ele>
        <time>2020-11-08T07:37:01Z</time>
      </trkpt>
      <trkpt lat="19.034982" lon="-97.270461">
        <ele>5364.712</ele>
        <time>2020-11-08T07:37:09Z</time>
      </trkpt>
      <trkpt lat="19.035028" lon="-97.270468">
        <ele>5362.138</ele>
        <time>2020-11-08T07:37:19Z</time>
      </trkpt>
      <trkpt lat="19.035072" lon="-97.270478">
        <ele>5360.129</ele>
        <time>2020-11-08T07:37:29Z</time>
      </trkpt>
      <trkpt lat="19.035122" lon="-97.27048">
        <ele>5357.300</ele>
        <time>2020-11-08T07:37:38Z</time>
      </trkpt>
      <trkpt lat="19.035166" lon="-97.27049">
        <ele>5355.620</ele>
        <time>2020-11-08T07:37:48Z</time>
      </trkpt>
      <trkpt lat="19.03521" lon="-97.270501">
        <ele>5353.008</ele>
        <time>2020-11-08T07:38:21Z</time>
      </trkpt>
      <trkpt lat="19.03526" lon="-97.27051">
        <ele>5349.848</ele>
        <time>2020-11-08T07:38:29Z</time>
      </trkpt>
      <trkpt lat="19.035308" lon="-97.27051">
        <ele>5348.332</ele>
        <time>2020-11-08T07:38:34Z</time>
      </trkpt>
      <trkpt lat="19.03535" lon="-97.27053">
        <ele>5344.653</ele>
        <time>2020-11-08T07:39:04Z</time>
      </trkpt>
      <trkpt lat="19.035395" lon="-97.270538">
        <ele>5340.635</ele>
        <time>2020-11-08T07:39:17Z</time>
      </trkpt>
      <trkpt lat="19.035448" lon="-97.27054">
        <ele>5337.658</ele>
        <time>2020-11-08T07:39:31Z</time>
      </trkpt>
      <trkpt lat="19.035494" lon="-97.270551">
        <ele>5335.887</ele>
        <time>2020-11-08T07:40:53Z</time>
      </trkpt>
      <trkpt lat="19.03554" lon="-97.270555">
        <ele>5331.861</ele>
        <time>2020-11-08T07:41:09Z</time>
      </trkpt>
      <trkpt lat="19.035587" lon="-97.270542">
        <ele>5327.877</ele>
        <time>2020-11-08T07:41:54Z</time>
      </trkpt>
      <trkpt lat="19.035629" lon="-97.270562">
        <ele>5323.871</ele>
        <time>2020-11-08T07:42:00Z</time>
      </trkpt>
      <trkpt lat="19.035672" lon="-97.270548">
        <ele>5320.741</ele>
        <time>2020-11-08T07:42:13Z</time>
      </trkpt>
      <trkpt lat="19.03571" lon="-97.270581">
        <ele>5317.615</ele>
        <time>2020-11-08T07:42:25Z</time>
      </trkpt>
      <trkpt lat="19.035756" lon="-97.270565">
        <ele>5315.008</ele>
        <time>2020-11-08T07:42:42Z</time>
      </trkpt>
      <trkpt lat="19.035764" lon="-97.270614">
        <ele>5311.033</ele>
        <time>2020-11-08T07:42:55Z</time>
      </trkpt>
      <trkpt lat="19.035806" lon="-97.270639">
        <ele>5308.627</ele>
        <time>2020-11-08T07:44:12Z</time>
      </trkpt>
      <trkpt lat="19.035826" lon="-97.270686">
        <ele>5307.288</ele>
        <time>2020-11-08T07:44:22Z</time>
      </trkpt>
      <trkpt lat="19.035848" lon="-97.270735">
        <ele>5305.510</ele>
        <time>2020-11-08T07:44:31Z</time>
      </trkpt>
      <trkpt lat="19.035869" lon="-97.27078">
        <ele>5302.943</ele>
        <time>2020-11-08T07:44:42Z</time>
      </trkpt>
      <trkpt lat="19.035896" lon="-97.27082">
        <ele>5301.312</ele>
        <time>2020-11-08T07:44:54Z</time>
      </trkpt>
      <trkpt lat="19.035922" lon="-97.270861">
        <ele>5299.636</ele>
        <time>2020-11-08T07:45:07Z</time>
      </trkpt>
      <trkpt lat="19.035941" lon="-97.270907">
        <ele>5296.672</ele>
        <time>2020-11-08T07:45:30Z</time>
      </trkpt>
      <trkpt lat="19.035975" lon="-97.270942">
        <ele>5294.039</ele>
        <time>2020-11-08T07:45:41Z</time>
      </trkpt>
      <trkpt lat="19.036012" lon="-97.270978">
        <ele>5291.201</ele>
        <time>2020-11-08T07:45:55Z</time>
      </trkpt>
      <trkpt lat="19.036032" lon="-97.271022">
        <ele>5289.121</ele>
        <time>2020-11-08T07:46:02Z</time>
      </trkpt>
      <trkpt lat="19.036084" lon="-97.271028">
        <ele>5285.508</ele>
        <time>2020-11-08T07:48:03Z</time>
      </trkpt>
      <trkpt lat="19.036108" lon="-97.271069">
        <ele>5282.579</ele>
        <time>2020-11-08T07:48:10Z</time>
      </trkpt>
      <trkpt lat="19.036129" lon="-97.271116">
        <ele>5279.593</ele>
        <time>2020-11-08T07:48:18Z</time>
      </trkpt>
      <trkpt lat="19.036153" lon="-97.271157">
        <ele>5276.554</ele>
        <time>2020-11-08T07:48:29Z</time>
      </trkpt>
      <trkpt lat="19.036198" lon="-97.271153">
        <ele>5273.536</ele>
        <time>2020-11-08T07:48:39Z</time>
      </trkpt>
      <trkpt lat="19.036244" lon="-97.271161">
        <ele>5270.989</ele>
        <time>2020-11-08T07:48:47Z</time>
      </trkpt>
      <trkpt lat="19.036275" lon="-97.271202">
        <ele>5269.368</ele>
        <time>2020-11-08T07:48:55Z</time>
      </trkpt>
      <trkpt lat="19.036323" lon="-97.271185">
        <ele>5268.012</ele>
        <time>2020-11-08T07:49:02Z</time>
      </trkpt>
      <trkpt lat="19.03636" lon="-97.271152">
        <ele>5266.898</ele>
        <time>2020-11-08T07:49:07Z</time>
      </trkpt>
      <trkpt lat="19.036672" lon="-97.271358">
        <ele>5271.576</ele>
        <time>2020-11-08T08:09:48Z</time>
      </trkpt>
      <trkpt lat="19.036717" lon="-97.271349">
        <ele>5269.590</ele>
        <time>2020-11-08T08:11:22Z</time>
      </trkpt>
      <trkpt lat="19.036761" lon="-97.271322">
        <ele>5269.519</ele>
        <time>2020-11-08T08:11:28Z</time>
      </trkpt>
      <trkpt lat="19.036812" lon="-97.271316">
        <ele>5270.308</ele>
        <time>2020-11-08T08:11:34Z</time>
      </trkpt>
      <trkpt lat="19.036859" lon="-97.271316">
        <ele>5273.273</ele>
        <time>2020-11-08T08:11:41Z</time>
      </trkpt>
      <trkpt lat="19.036909" lon="-97.271293">
        <ele>5274.987</ele>
        <time>2020-11-08T08:11:51Z</time>
      </trkpt>
      <trkpt lat="19.036946" lon="-97.271265">
        <ele>5270.998</ele>
        <time>2020-11-08T08:11:56Z</time>
      </trkpt>
      <trkpt lat="19.036969" lon="-97.271216">
        <ele>5268.360</ele>
        <time>2020-11-08T08:12:00Z</time>
      </trkpt>
      <trkpt lat="19.037014" lon="-97.271221">
        <ele>5266.843</ele>
        <time>2020-11-08T08:13:24Z</time>
      </trkpt>
      <trkpt lat="19.037044" lon="-97.271258">
        <ele>5265.592</ele>
        <time>2020-11-08T08:13:35Z</time>
      </trkpt>
      <trkpt lat="19.037079" lon="-97.271294">
        <ele>5264.346</ele>
        <time>2020-11-08T08:13:42Z</time>
      </trkpt>
      <trkpt lat="19.037109" lon="-97.271253">
        <ele>5263.682</ele>
        <time>2020-11-08T08:13:54Z</time>
      </trkpt>
      <trkpt lat="19.037142" lon="-97.271217">
        <ele>5263.227</ele>
        <time>2020-11-08T08:14:04Z</time>
      </trkpt>
      <trkpt lat="19.037188" lon="-97.271214">
        <ele>5262.968</ele>
        <time>2020-11-08T08:14:26Z</time>
      </trkpt>
      <trkpt lat="19.037221" lon="-97.27118">
        <ele>5262.714</ele>
        <time>2020-11-08T08:14:33Z</time>
      </trkpt>
      <trkpt lat="19.037249" lon="-97.27114">
        <ele>5262.608</ele>
        <time>2020-11-08T08:15:20Z</time>
      </trkpt>
      <trkpt lat="19.037297" lon="-97.271133">
        <ele>5258.628</ele>
        <time>2020-11-08T08:16:42Z</time>
      </trkpt>
      <trkpt lat="19.037332" lon="-97.271163">
        <ele>5254.612</ele>
        <time>2020-11-08T08:16:51Z</time>
      </trkpt>
      <trkpt lat="19.037368" lon="-97.271193">
        <ele>5250.633</ele>
        <time>2020-11-08T08:16:58Z</time>
      </trkpt>
      <trkpt lat="19.037411" lon="-97.271172">
        <ele>5246.645</ele>
        <time>2020-11-08T08:17:08Z</time>
      </trkpt>
      <trkpt lat="19.037458" lon="-97.271177">
        <ele>5242.668</ele>
        <time>2020-11-08T08:17:19Z</time>
      </trkpt>
      <trkpt lat="19.037504" lon="-97.271178">
        <ele>5238.687</ele>
        <time>2020-11-08T08:17:29Z</time>
      </trkpt>
      <trkpt lat="19.037545" lon="-97.271198">
        <ele>5234.641</ele>
        <time>2020-11-08T08:17:35Z</time>
      </trkpt>
      <trkpt lat="19.037574" lon="-97.271155">
        <ele>5231.347</ele>
        <time>2020-11-08T08:17:44Z</time>
      </trkpt>
      <trkpt lat="19.037591" lon="-97.271107">
        <ele>5228.197</ele>
        <time>2020-11-08T08:17:57Z</time>
      </trkpt>
      <trkpt lat="19.037623" lon="-97.271073">
        <ele>5224.623</ele>
        <time>2020-11-08T08:19:29Z</time>
      </trkpt>
      <trkpt lat="19.037666" lon="-97.27109">
        <ele>5221.325</ele>
        <time>2020-11-08T08:19:38Z</time>
      </trkpt>
      <trkpt lat="19.037711" lon="-97.271097">
        <ele>5220.108</ele>
        <time>2020-11-08T08:19:47Z</time>
      </trkpt>
      <trkpt lat="19.037741" lon="-97.271058">
        <ele>5218.675</ele>
        <time>2020-11-08T08:20:15Z</time>
      </trkpt>
      <trkpt lat="19.037775" lon="-97.271017">
        <ele>5216.999</ele>
        <time>2020-11-08T08:20:24Z</time>
      </trkpt>
      <trkpt lat="19.037802" lon="-97.270979">
        <ele>5214.710</ele>
        <time>2020-11-08T08:20:32Z</time>
      </trkpt>
      <trkpt lat="19.037848" lon="-97.270991">
        <ele>5211.832</ele>
        <time>2020-11-08T08:20:44Z</time>
      </trkpt>
      <trkpt lat="19.037874" lon="-97.270951">
        <ele>5209.255</ele>
        <time>2020-11-08T08:20:53Z</time>
      </trkpt>
      <trkpt lat="19.037902" lon="-97.27091">
        <ele>5207.734</ele>
        <time>2020-11-08T08:20:59Z</time>
      </trkpt>
      <trkpt lat="19.037952" lon="-97.270921">
        <ele>5204.858</ele>
        <time>2020-11-08T08:21:07Z</time>
      </trkpt>
      <trkpt lat="19.037995" lon="-97.270908">
        <ele>5203.034</ele>
        <time>2020-11-08T08:21:21Z</time>
      </trkpt>
      <trkpt lat="19.038043" lon="-97.270915">
        <ele>5201.151</ele>
        <time>2020-11-08T08:21:30Z</time>
      </trkpt>
      <trkpt lat="19.038081" lon="-97.270888">
        <ele>5199.601</ele>
        <time>2020-11-08T08:21:37Z</time>
      </trkpt>
      <trkpt lat="19.03813" lon="-97.270882">
        <ele>5197.911</ele>
        <time>2020-11-08T08:21:50Z</time>
      </trkpt>
      <trkpt lat="19.038177" lon="-97.27089">
        <ele>5195.708</ele>
        <time>2020-11-08T08:22:03Z</time>
      </trkpt>
      <trkpt lat="19.03822" lon="-97.270904">
        <ele>5196.871</ele>
        <time>2020-11-08T08:23:10Z</time>
      </trkpt>
      <trkpt lat="19.038266" lon="-97.27091">
        <ele>5197.045</ele>
        <time>2020-11-08T08:23:46Z</time>
      </trkpt>
      <trkpt lat="19.03831" lon="-97.270919">
        <ele>5197.196</ele>
        <time>2020-11-08T08:23:55Z</time>
      </trkpt>
      <trkpt lat="19.038351" lon="-97.270896">
        <ele>5193.148</ele>
        <time>2020-11-08T08:24:07Z</time>
      </trkpt>
      <trkpt lat="19.038363" lon="-97.270847">
        <ele>5189.141</ele>
        <time>2020-11-08T08:24:26Z</time>
      </trkpt>
      <trkpt lat="19.038378" lon="-97.270801">
        <ele>5185.270</ele>
        <time>2020-11-08T08:24:31Z</time>
      </trkpt>
      <trkpt lat="19.038424" lon="-97.270798">
        <ele>5182.174</ele>
        <time>2020-11-08T08:24:41Z</time>
      </trkpt>
      <trkpt lat="19.03847" lon="-97.270798">
        <ele>5179.820</ele>
        <time>2020-11-08T08:24:54Z</time>
      </trkpt>
      <trkpt lat="19.038519" lon="-97.270785">
        <ele>5177.242</ele>
        <time>2020-11-08T08:25:02Z</time>
      </trkpt>
      <trkpt lat="19.038566" lon="-97.270777">
        <ele>5174.522</ele>
        <time>2020-11-08T08:25:13Z</time>
      </trkpt>
      <trkpt lat="19.038591" lon="-97.270736">
        <ele>5172.914</ele>
        <time>2020-11-08T08:25:29Z</time>
      </trkpt>
      <trkpt lat="19.038616" lon="-97.270693">
        <ele>5171.508</ele>
        <time>2020-11-08T08:25:40Z</time>
      </trkpt>
      <trkpt lat="19.038652" lon="-97.270722">
        <ele>5169.960</ele>
        <time>2020-11-08T08:25:55Z</time>
      </trkpt>
      <trkpt lat="19.038701" lon="-97.270728">
        <ele>5167.324</ele>
        <time>2020-11-08T08:26:07Z</time>
      </trkpt>
      <trkpt lat="19.038731" lon="-97.270768">
        <ele>5164.625</ele>
        <time>2020-11-08T08:26:18Z</time>
      </trkpt>
      <trkpt lat="19.038774" lon="-97.270796">
        <ele>5162.267</ele>
        <time>2020-11-08T08:26:27Z</time>
      </trkpt>
      <trkpt lat="19.038817" lon="-97.270817">
        <ele>5160.350</ele>
        <time>2020-11-08T08:26:36Z</time>
      </trkpt>
      <trkpt lat="19.038842" lon="-97.270777">
        <ele>5157.689</ele>
        <time>2020-11-08T08:28:00Z</time>
      </trkpt>
      <trkpt lat="19.03889" lon="-97.270772">
        <ele>5154.883</ele>
        <time>2020-11-08T08:28:08Z</time>
      </trkpt>
      <trkpt lat="19.038935" lon="-97.270782">
        <ele>5152.769</ele>
        <time>2020-11-08T08:28:15Z</time>
      </trkpt>
      <trkpt lat="19.03898" lon="-97.270806">
        <ele>5150.633</ele>
        <time>2020-11-08T08:28:21Z</time>
      </trkpt>
      <trkpt lat="19.039028" lon="-97.270812">
        <ele>5147.823</ele>
        <time>2020-11-08T08:28:30Z</time>
      </trkpt>
      <trkpt lat="19.039068" lon="-97.270785">
        <ele>5145.715</ele>
        <time>2020-11-08T08:28:41Z</time>
      </trkpt>
      <trkpt lat="19.039102" lon="-97.270753">
        <ele>5143.608</ele>
        <time>2020-11-08T08:28:53Z</time>
      </trkpt>
      <trkpt lat="19.039148" lon="-97.270732">
        <ele>5142.079</ele>
        <time>2020-11-08T08:30:21Z</time>
      </trkpt>
      <trkpt lat="19.039192" lon="-97.270745">
        <ele>5141.093</ele>
        <time>2020-11-08T08:30:27Z</time>
      </trkpt>
      <trkpt lat="19.039237" lon="-97.270749">
        <ele>5140.064</ele>
        <time>2020-11-08T08:30:35Z</time>
      </trkpt>
      <trkpt lat="19.039285" lon="-97.270723">
        <ele>5137.876</ele>
        <time>2020-11-08T08:31:19Z</time>
      </trkpt>
      <trkpt lat="19.039335" lon="-97.270701">
        <ele>5136.179</ele>
        <time>2020-11-08T08:31:25Z</time>
      </trkpt>
      <trkpt lat="19.039372" lon="-97.270672">
        <ele>5132.718</ele>
        <time>2020-11-08T08:31:32Z</time>
      </trkpt>
      <trkpt lat="19.03939" lon="-97.270623">
        <ele>5130.652</ele>
        <time>2020-11-08T08:31:48Z</time>
      </trkpt>
      <trkpt lat="19.03941" lon="-97.270566">
        <ele>5129.438</ele>
        <time>2020-11-08T08:31:56Z</time>
      </trkpt>
      <trkpt lat="19.039449" lon="-97.270538">
        <ele>5128.726</ele>
        <time>2020-11-08T08:32:02Z</time>
      </trkpt>
      <trkpt lat="19.039486" lon="-97.270501">
        <ele>5125.147</ele>
        <time>2020-11-08T08:32:07Z</time>
      </trkpt>
      <trkpt lat="19.039518" lon="-97.270468">
        <ele>5122.111</ele>
        <time>2020-11-08T08:32:13Z</time>
      </trkpt>
      <trkpt lat="19.039568" lon="-97.270449">
        <ele>5118.708</ele>
        <time>2020-11-08T08:32:21Z</time>
      </trkpt>
      <trkpt lat="19.039613" lon="-97.270442">
        <ele>5115.578</ele>
        <time>2020-11-08T08:32:28Z</time>
      </trkpt>
      <trkpt lat="19.039651" lon="-97.27041">
        <ele>5112.862</ele>
        <time>2020-11-08T08:32:36Z</time>
      </trkpt>
      <trkpt lat="19.039695" lon="-97.270395">
        <ele>5110.013</ele>
        <time>2020-11-08T08:32:44Z</time>
      </trkpt>
      <trkpt lat="19.03973" lon="-97.270363">
        <ele>5108.335</ele>
        <time>2020-11-08T08:32:50Z</time>
      </trkpt>
      <trkpt lat="19.039774" lon="-97.270346">
        <ele>5106.148</ele>
        <time>2020-11-08T08:32:56Z</time>
      </trkpt>
      <trkpt lat="19.03982" lon="-97.270333">
        <ele>5104.427</ele>
        <time>2020-11-08T08:33:02Z</time>
      </trkpt>
      <trkpt lat="19.039865" lon="-97.270298">
        <ele>5102.691</ele>
        <time>2020-11-08T08:33:10Z</time>
      </trkpt>
      <trkpt lat="19.039899" lon="-97.270267">
        <ele>5101.177</ele>
        <time>2020-11-08T08:33:18Z</time>
      </trkpt>
      <trkpt lat="19.039952" lon="-97.270254">
        <ele>5100.271</ele>
        <time>2020-11-08T08:33:27Z</time>
      </trkpt>
      <trkpt lat="19.03998" lon="-97.270216">
        <ele>5099.741</ele>
        <time>2020-11-08T08:33:31Z</time>
      </trkpt>
      <trkpt lat="19.039978" lon="-97.270167">
        <ele>5099.415</ele>
        <time>2020-11-08T08:33:37Z</time>
      </trkpt>
      <trkpt lat="19.039968" lon="-97.270111">
        <ele>5098.808</ele>
        <time>2020-11-08T08:33:41Z</time>
      </trkpt>
      <trkpt lat="19.039975" lon="-97.270061">
        <ele>5097.693</ele>
        <time>2020-11-08T08:33:47Z</time>
      </trkpt>
      <trkpt lat="19.039982" lon="-97.270005">
        <ele>5096.957</ele>
        <time>2020-11-08T08:33:51Z</time>
      </trkpt>
      <trkpt lat="19.039992" lon="-97.269959">
        <ele>5096.928</ele>
        <time>2020-11-08T08:33:55Z</time>
      </trkpt>
      <trkpt lat="19.040011" lon="-97.269906">
        <ele>5096.990</ele>
        <time>2020-11-08T08:34:00Z</time>
      </trkpt>
      <trkpt lat="19.04002" lon="-97.269858">
        <ele>5097.363</ele>
        <time>2020-11-08T08:34:04Z</time>
      </trkpt>
      <trkpt lat="19.040044" lon="-97.269818">
        <ele>5097.512</ele>
        <time>2020-11-08T08:35:02Z</time>
      </trkpt>
      <trkpt lat="19.040058" lon="-97.269772">
        <ele>5097.646</ele>
        <time>2020-11-08T08:35:11Z</time>
      </trkpt>
      <trkpt lat="19.040047" lon="-97.269724">
        <ele>5097.372</ele>
        <time>2020-11-08T08:35:16Z</time>
      </trkpt>
      <trkpt lat="19.040078" lon="-97.269687">
        <ele>5096.331</ele>
        <time>2020-11-08T08:35:22Z</time>
      </trkpt>
      <trkpt lat="19.040118" lon="-97.269651">
        <ele>5095.761</ele>
        <time>2020-11-08T08:35:30Z</time>
      </trkpt>
      <trkpt lat="19.040147" lon="-97.269614">
        <ele>5095.307</ele>
        <time>2020-11-08T08:35:42Z</time>
      </trkpt>
      <trkpt lat="19.040522" lon="-97.269215">
        <ele>5111.808</ele>
        <time>2020-11-08T08:39:35Z</time>
      </trkpt>
      <trkpt lat="19.040532" lon="-97.269168">
        <ele>5087.819</ele>
        <time>2020-11-08T08:40:10Z</time>
      </trkpt>
      <trkpt lat="19.040556" lon="-97.269123">
        <ele>5087.843</ele>
        <time>2020-11-08T08:54:49Z</time>
      </trkpt>
      <trkpt lat="19.040599" lon="-97.269105">
        <ele>5087.844</ele>
        <time>2020-11-08T08:55:00Z</time>
      </trkpt>
      <trkpt lat="19.040642" lon="-97.269135">
        <ele>5087.856</ele>
        <time>2020-11-08T08:55:13Z</time>
      </trkpt>
      <trkpt lat="19.040685" lon="-97.269121">
        <ele>5091.819</ele>
        <time>2020-11-08T08:55:18Z</time>
      </trkpt>
      <trkpt lat="19.04073" lon="-97.269098">
        <ele>5095.848</ele>
        <time>2020-11-08T08:55:29Z</time>
      </trkpt>
      <trkpt lat="19.040751" lon="-97.269054">
        <ele>5099.452</ele>
        <time>2020-11-08T08:55:36Z</time>
      </trkpt>
      <trkpt lat="19.040789" lon="-97.269028">
        <ele>5100.028</ele>
        <time>2020-11-08T08:55:43Z</time>
      </trkpt>
      <trkpt lat="19.040815" lon="-97.26907">
        <ele>5100.318</ele>
        <time>2020-11-08T08:55:58Z</time>
      </trkpt>
      <trkpt lat="19.040864" lon="-97.269094">
        <ele>5101.398</ele>
        <time>2020-11-08T08:56:05Z</time>
      </trkpt>
      <trkpt lat="19.040907" lon="-97.269074">
        <ele>5099.917</ele>
        <time>2020-11-08T08:56:15Z</time>
      </trkpt>
      <trkpt lat="19.040949" lon="-97.269044">
        <ele>5098.308</ele>
        <time>2020-11-08T08:56:21Z</time>
      </trkpt>
      <trkpt lat="19.040991" lon="-97.269022">
        <ele>5095.357</ele>
        <time>2020-11-08T08:56:29Z</time>
      </trkpt>
      <trkpt lat="19.041038" lon="-97.269023">
        <ele>5093.121</ele>
        <time>2020-11-08T08:56:37Z</time>
      </trkpt>
      <trkpt lat="19.041079" lon="-97.269">
        <ele>5092.222</ele>
        <time>2020-11-08T08:56:49Z</time>
      </trkpt>
      <trkpt lat="19.041117" lon="-97.268969">
        <ele>5088.914</ele>
        <time>2020-11-08T08:57:04Z</time>
      </trkpt>
      <trkpt lat="19.041148" lon="-97.268925">
        <ele>5086.947</ele>
        <time>2020-11-08T08:57:11Z</time>
      </trkpt>
      <trkpt lat="19.041193" lon="-97.268893">
        <ele>5084.916</ele>
        <time>2020-11-08T08:57:16Z</time>
      </trkpt>
      <trkpt lat="19.04123" lon="-97.268864">
        <ele>5083.350</ele>
        <time>2020-11-08T08:57:25Z</time>
      </trkpt>
      <trkpt lat="19.041278" lon="-97.268877">
        <ele>5080.326</ele>
        <time>2020-11-08T08:57:36Z</time>
      </trkpt>
      <trkpt lat="19.041325" lon="-97.268865">
        <ele>5077.326</ele>
        <time>2020-11-08T08:57:50Z</time>
      </trkpt>
      <trkpt lat="19.04137" lon="-97.268858">
        <ele>5075.947</ele>
        <time>2020-11-08T08:57:55Z</time>
      </trkpt>
      <trkpt lat="19.041417" lon="-97.268853">
        <ele>5073.511</ele>
        <time>2020-11-08T08:58:11Z</time>
      </trkpt>
      <trkpt lat="19.04145" lon="-97.268888">
        <ele>5072.008</ele>
        <time>2020-11-08T08:58:26Z</time>
      </trkpt>
      <trkpt lat="19.041495" lon="-97.268898">
        <ele>5071.188</ele>
        <time>2020-11-08T08:58:35Z</time>
      </trkpt>
      <trkpt lat="19.041542" lon="-97.268899">
        <ele>5070.662</ele>
        <time>2020-11-08T08:58:50Z</time>
      </trkpt>
      <trkpt lat="19.041587" lon="-97.268874">
        <ele>5066.633</ele>
        <time>2020-11-08T08:59:51Z</time>
      </trkpt>
      <trkpt lat="19.041632" lon="-97.268877">
        <ele>5062.655</ele>
        <time>2020-11-08T08:59:59Z</time>
      </trkpt>
      <trkpt lat="19.041663" lon="-97.268921">
        <ele>5058.648</ele>
        <time>2020-11-08T09:00:05Z</time>
      </trkpt>
      <trkpt lat="19.041699" lon="-97.268952">
        <ele>5054.637</ele>
        <time>2020-11-08T09:00:09Z</time>
      </trkpt>
      <trkpt lat="19.041736" lon="-97.268989">
        <ele>5055.591</ele>
        <time>2020-11-08T09:00:21Z</time>
      </trkpt>
      <trkpt lat="19.041772" lon="-97.269027">
        <ele>5057.247</ele>
        <time>2020-11-08T09:00:26Z</time>
      </trkpt>
      <trkpt lat="19.041807" lon="-97.269063">
        <ele>5058.621</ele>
        <time>2020-11-08T09:00:31Z</time>
      </trkpt>
      <trkpt lat="19.041837" lon="-97.269103">
        <ele>5059.541</ele>
        <time>2020-11-08T09:00:48Z</time>
      </trkpt>
      <trkpt lat="19.041871" lon="-97.269138">
        <ele>5060.405</ele>
        <time>2020-11-08T09:01:39Z</time>
      </trkpt>
      <trkpt lat="19.041894" lon="-97.269182">
        <ele>5060.208</ele>
        <time>2020-11-08T09:01:43Z</time>
      </trkpt>
      <trkpt lat="19.041932" lon="-97.26921">
        <ele>5060.538</ele>
        <time>2020-11-08T09:01:53Z</time>
      </trkpt>
      <trkpt lat="19.041928" lon="-97.26916">
        <ele>5060.712</ele>
        <time>2020-11-08T09:02:55Z</time>
      </trkpt>
      <trkpt lat="19.041969" lon="-97.269122">
        <ele>5057.693</ele>
        <time>2020-11-08T09:03:02Z</time>
      </trkpt>
      <trkpt lat="19.042006" lon="-97.269084">
        <ele>5055.795</ele>
        <time>2020-11-08T09:03:06Z</time>
      </trkpt>
      <trkpt lat="19.042028" lon="-97.269042">
        <ele>5054.668</ele>
        <time>2020-11-08T09:03:23Z</time>
      </trkpt>
      <trkpt lat="19.042065" lon="-97.269014">
        <ele>5052.377</ele>
        <time>2020-11-08T09:03:30Z</time>
      </trkpt>
      <trkpt lat="19.042113" lon="-97.268997">
        <ele>5050.541</ele>
        <time>2020-11-08T09:03:38Z</time>
      </trkpt>
      <trkpt lat="19.042159" lon="-97.268996">
        <ele>5048.287</ele>
        <time>2020-11-08T09:03:44Z</time>
      </trkpt>
      <trkpt lat="19.042204" lon="-97.268997">
        <ele>5046.042</ele>
        <time>2020-11-08T09:03:55Z</time>
      </trkpt>
      <trkpt lat="19.042252" lon="-97.268979">
        <ele>5043.522</ele>
        <time>2020-11-08T09:04:00Z</time>
      </trkpt>
      <trkpt lat="19.042244" lon="-97.268932">
        <ele>5042.014</ele>
        <time>2020-11-08T09:05:28Z</time>
      </trkpt>
      <trkpt lat="19.042273" lon="-97.26889">
        <ele>5038.008</ele>
        <time>2020-11-08T09:05:47Z</time>
      </trkpt>
      <trkpt lat="19.042319" lon="-97.26886">
        <ele>5034.040</ele>
        <time>2020-11-08T09:05:51Z</time>
      </trkpt>
      <trkpt lat="19.042374" lon="-97.268846">
        <ele>5031.124</ele>
        <time>2020-11-08T09:05:55Z</time>
      </trkpt>
      <trkpt lat="19.042426" lon="-97.268845">
        <ele>5029.415</ele>
        <time>2020-11-08T09:06:00Z</time>
      </trkpt>
      <trkpt lat="19.042486" lon="-97.268831">
        <ele>5028.027</ele>
        <time>2020-11-08T09:06:28Z</time>
      </trkpt>
      <trkpt lat="19.042541" lon="-97.268809">
        <ele>5027.170</ele>
        <time>2020-11-08T09:06:31Z</time>
      </trkpt>
      <trkpt lat="19.042574" lon="-97.268766">
        <ele>5025.859</ele>
        <time>2020-11-08T09:06:35Z</time>
      </trkpt>
      <trkpt lat="19.042613" lon="-97.268734">
        <ele>5025.053</ele>
        <time>2020-11-08T09:06:49Z</time>
      </trkpt>
      <trkpt lat="19.042651" lon="-97.26877">
        <ele>5021.029</ele>
        <time>2020-11-08T09:07:31Z</time>
      </trkpt>
      <trkpt lat="19.0427" lon="-97.268761">
        <ele>5017.719</ele>
        <time>2020-11-08T09:07:41Z</time>
      </trkpt>
      <trkpt lat="19.042746" lon="-97.268764">
        <ele>5015.709</ele>
        <time>2020-11-08T09:08:02Z</time>
      </trkpt>
      <trkpt lat="19.042791" lon="-97.268778">
        <ele>5012.919</ele>
        <time>2020-11-08T09:08:13Z</time>
      </trkpt>
      <trkpt lat="19.042841" lon="-97.268771">
        <ele>5011.208</ele>
        <time>2020-11-08T09:08:28Z</time>
      </trkpt>
      <trkpt lat="19.042892" lon="-97.268769">
        <ele>5010.217</ele>
        <time>2020-11-08T09:08:52Z</time>
      </trkpt>
      <trkpt lat="19.04294" lon="-97.268793">
        <ele>5006.261</ele>
        <time>2020-11-08T09:09:03Z</time>
      </trkpt>
      <trkpt lat="19.042988" lon="-97.268801">
        <ele>5002.822</ele>
        <time>2020-11-08T09:09:16Z</time>
      </trkpt>
      <trkpt lat="19.043029" lon="-97.268837">
        <ele>4998.854</ele>
        <time>2020-11-08T09:09:29Z</time>
      </trkpt>
      <trkpt lat="19.043074" lon="-97.268846">
        <ele>4996.017</ele>
        <time>2020-11-08T09:09:33Z</time>
      </trkpt>
      <trkpt lat="19.043056" lon="-97.2688">
        <ele>4994.376</ele>
        <time>2020-11-08T09:09:50Z</time>
      </trkpt>
      <trkpt lat="19.043108" lon="-97.26879">
        <ele>4993.350</ele>
        <time>2020-11-08T09:09:56Z</time>
      </trkpt>
      <trkpt lat="19.043154" lon="-97.2688">
        <ele>4991.966</ele>
        <time>2020-11-08T09:10:01Z</time>
      </trkpt>
      <trkpt lat="19.043206" lon="-97.268804">
        <ele>4990.781</ele>
        <time>2020-11-08T09:10:12Z</time>
      </trkpt>
      <trkpt lat="19.043257" lon="-97.268812">
        <ele>4990.061</ele>
        <time>2020-11-08T09:10:17Z</time>
      </trkpt>
      <trkpt lat="19.043291" lon="-97.268771">
        <ele>4989.617</ele>
        <time>2020-11-08T09:10:42Z</time>
      </trkpt>
      <trkpt lat="19.043342" lon="-97.268751">
        <ele>4985.708</ele>
        <time>2020-11-08T09:10:46Z</time>
      </trkpt>
      <trkpt lat="19.043394" lon="-97.268739">
        <ele>4981.814</ele>
        <time>2020-11-08T09:10:58Z</time>
      </trkpt>
      <trkpt lat="19.043443" lon="-97.268724">
        <ele>4978.298</ele>
        <time>2020-11-08T09:11:02Z</time>
      </trkpt>
      <trkpt lat="19.04349" lon="-97.268706">
        <ele>4974.529</ele>
        <time>2020-11-08T09:11:08Z</time>
      </trkpt>
      <trkpt lat="19.043523" lon="-97.268738">
        <ele>4972.351</ele>
        <time>2020-11-08T09:11:38Z</time>
      </trkpt>
      <trkpt lat="19.043566" lon="-97.268721">
        <ele>4971.084</ele>
        <time>2020-11-08T09:12:33Z</time>
      </trkpt>
      <trkpt lat="19.043595" lon="-97.268761">
        <ele>4970.233</ele>
        <time>2020-11-08T09:13:36Z</time>
      </trkpt>
      <trkpt lat="19.043628" lon="-97.268722">
        <ele>4969.737</ele>
        <time>2020-11-08T09:13:46Z</time>
      </trkpt>
      <trkpt lat="19.04359" lon="-97.268751">
        <ele>4969.483</ele>
        <time>2020-11-08T09:14:02Z</time>
      </trkpt>
      <trkpt lat="19.043559" lon="-97.268788">
        <ele>4969.284</ele>
        <time>2020-11-08T09:14:05Z</time>
      </trkpt>
      <trkpt lat="19.043567" lon="-97.268836">
        <ele>4969.107</ele>
        <time>2020-11-08T09:14:13Z</time>
      </trkpt>
      <trkpt lat="19.043612" lon="-97.268842">
        <ele>4969.017</ele>
        <time>2020-11-08T09:14:21Z</time>
      </trkpt>
      <trkpt lat="19.043661" lon="-97.268848">
        <ele>4969.008</ele>
        <time>2020-11-08T09:14:48Z</time>
      </trkpt>
      <trkpt lat="19.043705" lon="-97.268861">
        <ele>4969.034</ele>
        <time>2020-11-08T09:15:11Z</time>
      </trkpt>
      <trkpt lat="19.043747" lon="-97.268832">
        <ele>4969.088</ele>
        <time>2020-11-08T09:15:20Z</time>
      </trkpt>
      <trkpt lat="19.043779" lon="-97.268873">
        <ele>4969.019</ele>
        <time>2020-11-08T09:16:07Z</time>
      </trkpt>
      <trkpt lat="19.043832" lon="-97.26891">
        <ele>4965.061</ele>
        <time>2020-11-08T09:16:13Z</time>
      </trkpt>
      <trkpt lat="19.043875" lon="-97.268928">
        <ele>4961.064</ele>
        <time>2020-11-08T09:16:18Z</time>
      </trkpt>
      <trkpt lat="19.043907" lon="-97.268895">
        <ele>4957.013</ele>
        <time>2020-11-08T09:17:07Z</time>
      </trkpt>
      <trkpt lat="19.043949" lon="-97.268913">
        <ele>4953.017</ele>
        <time>2020-11-08T09:17:13Z</time>
      </trkpt>
      <trkpt lat="19.043993" lon="-97.268893">
        <ele>4949.033</ele>
        <time>2020-11-08T09:17:17Z</time>
      </trkpt>
      <trkpt lat="19.044019" lon="-97.268848">
        <ele>4945.049</ele>
        <time>2020-11-08T09:17:23Z</time>
      </trkpt>
      <trkpt lat="19.044059" lon="-97.268824">
        <ele>4941.002</ele>
        <time>2020-11-08T09:17:32Z</time>
      </trkpt>
      <trkpt lat="19.044021" lon="-97.268795">
        <ele>4937.022</ele>
        <time>2020-11-08T09:17:42Z</time>
      </trkpt>
      <trkpt lat="19.043996" lon="-97.268834">
        <ele>4933.408</ele>
        <time>2020-11-08T09:17:59Z</time>
      </trkpt>
      <trkpt lat="19.044033" lon="-97.268864">
        <ele>4932.090</ele>
        <time>2020-11-08T09:18:12Z</time>
      </trkpt>
      <trkpt lat="19.044035" lon="-97.268807">
        <ele>4931.244</ele>
        <time>2020-11-08T09:18:36Z</time>
      </trkpt>
      <trkpt lat="19.043998" lon="-97.268777">
        <ele>4930.315</ele>
        <time>2020-11-08T09:18:46Z</time>
      </trkpt>
      <trkpt lat="19.044036" lon="-97.26875">
        <ele>4928.627</ele>
        <time>2020-11-08T09:19:08Z</time>
      </trkpt>
      <trkpt lat="19.044081" lon="-97.268759">
        <ele>4927.620</ele>
        <time>2020-11-08T09:19:27Z</time>
      </trkpt>
      <trkpt lat="19.044119" lon="-97.268789">
        <ele>4927.049</ele>
        <time>2020-11-08T09:19:39Z</time>
      </trkpt>
      <trkpt lat="19.04409" lon="-97.268741">
        <ele>4926.293</ele>
        <time>2020-11-08T09:19:46Z</time>
      </trkpt>
      <trkpt lat="19.044046" lon="-97.268761">
        <ele>4924.189</ele>
        <time>2020-11-08T09:20:00Z</time>
      </trkpt>
      <trkpt lat="19.04402" lon="-97.2688">
        <ele>4923.355</ele>
        <time>2020-11-08T09:20:05Z</time>
      </trkpt>
      <trkpt lat="19.044066" lon="-97.268805">
        <ele>4922.807</ele>
        <time>2020-11-08T09:20:21Z</time>
      </trkpt>
      <trkpt lat="19.044114" lon="-97.268819">
        <ele>4922.517</ele>
        <time>2020-11-08T09:20:29Z</time>
      </trkpt>
      <trkpt lat="19.044135" lon="-97.268777">
        <ele>4921.108</ele>
        <time>2020-11-08T09:20:37Z</time>
      </trkpt>
      <trkpt lat="19.044172" lon="-97.26874">
        <ele>4919.971</ele>
        <time>2020-11-08T09:20:51Z</time>
      </trkpt>
      <trkpt lat="19.044221" lon="-97.268751">
        <ele>4918.425</ele>
        <time>2020-11-08T09:21:16Z</time>
      </trkpt>
      <trkpt lat="19.04422" lon="-97.268805">
        <ele>4917.966</ele>
        <time>2020-11-08T09:21:28Z</time>
      </trkpt>
      <trkpt lat="19.044208" lon="-97.268857">
        <ele>4916.068</ele>
        <time>2020-11-08T09:21:38Z</time>
      </trkpt>
      <trkpt lat="19.044213" lon="-97.268906">
        <ele>4912.971</ele>
        <time>2020-11-08T09:21:48Z</time>
      </trkpt>
      <trkpt lat="19.044199" lon="-97.268954">
        <ele>4911.480</ele>
        <time>2020-11-08T09:22:05Z</time>
      </trkpt>
      <trkpt lat="19.044217" lon="-97.269005">
        <ele>4910.154</ele>
        <time>2020-11-08T09:22:11Z</time>
      </trkpt>
      <trkpt lat="19.044242" lon="-97.269051">
        <ele>4908.990</ele>
        <time>2020-11-08T09:22:16Z</time>
      </trkpt>
      <trkpt lat="19.044247" lon="-97.269105">
        <ele>4907.053</ele>
        <time>2020-11-08T09:22:22Z</time>
      </trkpt>
      <trkpt lat="19.044231" lon="-97.269152">
        <ele>4907.904</ele>
        <time>2020-11-08T09:22:28Z</time>
      </trkpt>
      <trkpt lat="19.044201" lon="-97.269193">
        <ele>4906.014</ele>
        <time>2020-11-08T09:22:39Z</time>
      </trkpt>
      <trkpt lat="19.044194" lon="-97.269242">
        <ele>4904.108</ele>
        <time>2020-11-08T09:22:56Z</time>
      </trkpt>
      <trkpt lat="19.044232" lon="-97.269274">
        <ele>4902.911</ele>
        <time>2020-11-08T09:23:03Z</time>
      </trkpt>
      <trkpt lat="19.044263" lon="-97.269319">
        <ele>4900.615</ele>
        <time>2020-11-08T09:23:23Z</time>
      </trkpt>
      <trkpt lat="19.044283" lon="-97.269363">
        <ele>4900.856</ele>
        <time>2020-11-08T09:23:34Z</time>
      </trkpt>
      <trkpt lat="19.044256" lon="-97.269402">
        <ele>4900.948</ele>
        <time>2020-11-08T09:23:43Z</time>
      </trkpt>
      <trkpt lat="19.044238" lon="-97.269453">
        <ele>4899.811</ele>
        <time>2020-11-08T09:23:54Z</time>
      </trkpt>
      <trkpt lat="19.044239" lon="-97.269505">
        <ele>4898.740</ele>
        <time>2020-11-08T09:24:02Z</time>
      </trkpt>
      <trkpt lat="19.044287" lon="-97.269518">
        <ele>4897.364</ele>
        <time>2020-11-08T09:24:22Z</time>
      </trkpt>
      <trkpt lat="19.044331" lon="-97.269529">
        <ele>4896.810</ele>
        <time>2020-11-08T09:24:37Z</time>
      </trkpt>
      <trkpt lat="19.044379" lon="-97.269515">
        <ele>4895.348</ele>
        <time>2020-11-08T09:24:46Z</time>
      </trkpt>
      <trkpt lat="19.044411" lon="-97.26948">
        <ele>4894.461</ele>
        <time>2020-11-08T09:25:07Z</time>
      </trkpt>
      <trkpt lat="19.044456" lon="-97.269473">
        <ele>4894.317</ele>
        <time>2020-11-08T09:25:22Z</time>
      </trkpt>
      <trkpt lat="19.044499" lon="-97.269453">
        <ele>4893.408</ele>
        <time>2020-11-08T09:26:16Z</time>
      </trkpt>
      <trkpt lat="19.044544" lon="-97.26946">
        <ele>4892.560</ele>
        <time>2020-11-08T09:26:22Z</time>
      </trkpt>
      <trkpt lat="19.04519" lon="-97.269826">
        <ele>4908.124</ele>
        <time>2020-11-08T09:28:23Z</time>
      </trkpt>
      <trkpt lat="19.045273" lon="-97.269766">
        <ele>4904.185</ele>
        <time>2020-11-08T09:28:25Z</time>
      </trkpt>
      <trkpt lat="19.04526" lon="-97.269702">
        <ele>4900.557</ele>
        <time>2020-11-08T09:28:28Z</time>
      </trkpt>
      <trkpt lat="19.045209" lon="-97.269674">
        <ele>4896.510</ele>
        <time>2020-11-08T09:28:31Z</time>
      </trkpt>
      <trkpt lat="19.045153" lon="-97.269686">
        <ele>4892.519</ele>
        <time>2020-11-08T09:28:34Z</time>
      </trkpt>
      <trkpt lat="19.045103" lon="-97.269685">
        <ele>4889.183</ele>
        <time>2020-11-08T09:28:39Z</time>
      </trkpt>
      <trkpt lat="19.045055" lon="-97.269663">
        <ele>4890.749</ele>
        <time>2020-11-08T09:28:42Z</time>
      </trkpt>
      <trkpt lat="19.045092" lon="-97.269633">
        <ele>4891.711</ele>
        <time>2020-11-08T09:29:13Z</time>
      </trkpt>
      <trkpt lat="19.045139" lon="-97.269639">
        <ele>4893.121</ele>
        <time>2020-11-08T09:29:22Z</time>
      </trkpt>
      <trkpt lat="19.045185" lon="-97.269626">
        <ele>4893.103</ele>
        <time>2020-11-08T09:29:32Z</time>
      </trkpt>
      <trkpt lat="19.045225" lon="-97.269664">
        <ele>4893.108</ele>
        <time>2020-11-08T09:29:40Z</time>
      </trkpt>
      <trkpt lat="19.045272" lon="-97.269646">
        <ele>4891.567</ele>
        <time>2020-11-08T09:29:54Z</time>
      </trkpt>
      <trkpt lat="19.045317" lon="-97.269642">
        <ele>4890.181</ele>
        <time>2020-11-08T09:29:59Z</time>
      </trkpt>
      <trkpt lat="19.045361" lon="-97.269619">
        <ele>4889.722</ele>
        <time>2020-11-08T09:30:08Z</time>
      </trkpt>
      <trkpt lat="19.045405" lon="-97.269632">
        <ele>4889.594</ele>
        <time>2020-11-08T09:30:40Z</time>
      </trkpt>
      <trkpt lat="19.045453" lon="-97.269639">
        <ele>4885.887</ele>
        <time>2020-11-08T09:30:49Z</time>
      </trkpt>
      <trkpt lat="19.045508" lon="-97.269634">
        <ele>4883.676</ele>
        <time>2020-11-08T09:30:53Z</time>
      </trkpt>
      <trkpt lat="19.045555" lon="-97.269648">
        <ele>4881.140</ele>
        <time>2020-11-08T09:30:58Z</time>
      </trkpt>
      <trkpt lat="19.045582" lon="-97.269692">
        <ele>4877.696</ele>
        <time>2020-11-08T09:31:13Z</time>
      </trkpt>
      <trkpt lat="19.045631" lon="-97.269685">
        <ele>4875.982</ele>
        <time>2020-11-08T09:31:39Z</time>
      </trkpt>
      <trkpt lat="19.045648" lon="-97.269733">
        <ele>4872.943</ele>
        <time>2020-11-08T09:31:54Z</time>
      </trkpt>
      <trkpt lat="19.045679" lon="-97.269768">
        <ele>4870.317</ele>
        <time>2020-11-08T09:32:05Z</time>
      </trkpt>
      <trkpt lat="19.04571" lon="-97.269804">
        <ele>4866.708</ele>
        <time>2020-11-08T09:32:09Z</time>
      </trkpt>
      <trkpt lat="19.04574" lon="-97.269842">
        <ele>4864.674</ele>
        <time>2020-11-08T09:32:21Z</time>
      </trkpt>
      <trkpt lat="19.045773" lon="-97.269892">
        <ele>4864.588</ele>
        <time>2020-11-08T09:32:27Z</time>
      </trkpt>
      <trkpt lat="19.045816" lon="-97.269928">
        <ele>4863.629</ele>
        <time>2020-11-08T09:32:31Z</time>
      </trkpt>
      <trkpt lat="19.045829" lon="-97.269979">
        <ele>4862.321</ele>
        <time>2020-11-08T09:32:39Z</time>
      </trkpt>
      <trkpt lat="19.045856" lon="-97.270026">
        <ele>4861.114</ele>
        <time>2020-11-08T09:32:46Z</time>
      </trkpt>
      <trkpt lat="19.045893" lon="-97.270065">
        <ele>4859.213</ele>
        <time>2020-11-08T09:32:55Z</time>
      </trkpt>
      <trkpt lat="19.045885" lon="-97.270114">
        <ele>4857.337</ele>
        <time>2020-11-08T09:33:04Z</time>
      </trkpt>
      <trkpt lat="19.045916" lon="-97.270158">
        <ele>4857.313</ele>
        <time>2020-11-08T09:33:14Z</time>
      </trkpt>
      <trkpt lat="19.045957" lon="-97.270188">
        <ele>4856.527</ele>
        <time>2020-11-08T09:33:24Z</time>
      </trkpt>
      <trkpt lat="19.045982" lon="-97.270227">
        <ele>4854.868</ele>
        <time>2020-11-08T09:33:39Z</time>
      </trkpt>
      <trkpt lat="19.046028" lon="-97.270232">
        <ele>4851.814</ele>
        <time>2020-11-08T09:33:51Z</time>
      </trkpt>
      <trkpt lat="19.046084" lon="-97.270231">
        <ele>4849.608</ele>
        <time>2020-11-08T09:33:56Z</time>
      </trkpt>
      <trkpt lat="19.046131" lon="-97.270216">
        <ele>4848.738</ele>
        <time>2020-11-08T09:34:35Z</time>
      </trkpt>
      <trkpt lat="19.046186" lon="-97.270215">
        <ele>4846.142</ele>
        <time>2020-11-08T09:34:41Z</time>
      </trkpt>
      <trkpt lat="19.046242" lon="-97.27022">
        <ele>4843.053</ele>
        <time>2020-11-08T09:34:46Z</time>
      </trkpt>
      <trkpt lat="19.046294" lon="-97.270224">
        <ele>4839.145</ele>
        <time>2020-11-08T09:34:51Z</time>
      </trkpt>
      <trkpt lat="19.046349" lon="-97.270227">
        <ele>4836.498</ele>
        <time>2020-11-08T09:34:57Z</time>
      </trkpt>
      <trkpt lat="19.046388" lon="-97.270251">
        <ele>4836.087</ele>
        <time>2020-11-08T09:35:02Z</time>
      </trkpt>
      <trkpt lat="19.046375" lon="-97.270302">
        <ele>4835.721</ele>
        <time>2020-11-08T09:35:15Z</time>
      </trkpt>
      <trkpt lat="19.046426" lon="-97.27031">
        <ele>4833.177</ele>
        <time>2020-11-08T09:35:21Z</time>
      </trkpt>
      <trkpt lat="19.046485" lon="-97.270316">
        <ele>4831.222</ele>
        <time>2020-11-08T09:35:25Z</time>
      </trkpt>
      <trkpt lat="19.04654" lon="-97.27031">
        <ele>4828.062</ele>
        <time>2020-11-08T09:35:30Z</time>
      </trkpt>
      <trkpt lat="19.046583" lon="-97.270327">
        <ele>4826.508</ele>
        <time>2020-11-08T09:35:39Z</time>
      </trkpt>
      <trkpt lat="19.046617" lon="-97.270362">
        <ele>4826.408</ele>
        <time>2020-11-08T09:36:22Z</time>
      </trkpt>
      <trkpt lat="19.046659" lon="-97.270388">
        <ele>4824.328</ele>
        <time>2020-11-08T09:36:30Z</time>
      </trkpt>
      <trkpt lat="19.046708" lon="-97.270394">
        <ele>4822.772</ele>
        <time>2020-11-08T09:36:35Z</time>
      </trkpt>
      <trkpt lat="19.046754" lon="-97.270393">
        <ele>4822.573</ele>
        <time>2020-11-08T09:36:43Z</time>
      </trkpt>
      <trkpt lat="19.046799" lon="-97.270392">
        <ele>4822.055</ele>
        <time>2020-11-08T09:36:56Z</time>
      </trkpt>
      <trkpt lat="19.046844" lon="-97.270381">
        <ele>4820.138</ele>
        <time>2020-11-08T09:37:04Z</time>
      </trkpt>
      <trkpt lat="19.046898" lon="-97.270377">
        <ele>4819.867</ele>
        <time>2020-11-08T09:37:12Z</time>
      </trkpt>
      <trkpt lat="19.046946" lon="-97.270389">
        <ele>4817.271</ele>
        <time>2020-11-08T09:37:18Z</time>
      </trkpt>
      <trkpt lat="19.046995" lon="-97.2704">
        <ele>4816.467</ele>
        <time>2020-11-08T09:37:23Z</time>
      </trkpt>
      <trkpt lat="19.047045" lon="-97.270414">
        <ele>4816.725</ele>
        <time>2020-11-08T09:37:27Z</time>
      </trkpt>
      <trkpt lat="19.0471" lon="-97.270428">
        <ele>4815.726</ele>
        <time>2020-11-08T09:37:30Z</time>
      </trkpt>
      <trkpt lat="19.047149" lon="-97.270435">
        <ele>4813.508</ele>
        <time>2020-11-08T09:37:34Z</time>
      </trkpt>
      <trkpt lat="19.04718" lon="-97.270479">
        <ele>4810.608</ele>
        <time>2020-11-08T09:37:39Z</time>
      </trkpt>
      <trkpt lat="19.047205" lon="-97.270523">
        <ele>4807.278</ele>
        <time>2020-11-08T09:37:43Z</time>
      </trkpt>
      <trkpt lat="19.047232" lon="-97.270562">
        <ele>4805.612</ele>
        <time>2020-11-08T09:37:50Z</time>
      </trkpt>
      <trkpt lat="19.047271" lon="-97.270602">
        <ele>4803.883</ele>
        <time>2020-11-08T09:38:19Z</time>
      </trkpt>
      <trkpt lat="19.04732" lon="-97.270602">
        <ele>4802.385</ele>
        <time>2020-11-08T09:38:23Z</time>
      </trkpt>
      <trkpt lat="19.047374" lon="-97.270583">
        <ele>4801.848</ele>
        <time>2020-11-08T09:38:28Z</time>
      </trkpt>
      <trkpt lat="19.047415" lon="-97.270562">
        <ele>4801.557</ele>
        <time>2020-11-08T09:38:32Z</time>
      </trkpt>
      <trkpt lat="19.047468" lon="-97.270566">
        <ele>4800.541</ele>
        <time>2020-11-08T09:38:37Z</time>
      </trkpt>
      <trkpt lat="19.047513" lon="-97.270583">
        <ele>4797.597</ele>
        <time>2020-11-08T09:38:48Z</time>
      </trkpt>
      <trkpt lat="19.04755" lon="-97.270619">
        <ele>4793.573</ele>
        <time>2020-11-08T09:39:03Z</time>
      </trkpt>
      <trkpt lat="19.047599" lon="-97.270609">
        <ele>4789.585</ele>
        <time>2020-11-08T09:39:11Z</time>
      </trkpt>
      <trkpt lat="19.047658" lon="-97.270598">
        <ele>4786.913</ele>
        <time>2020-11-08T09:39:15Z</time>
      </trkpt>
      <trkpt lat="19.047707" lon="-97.270608">
        <ele>4783.308</ele>
        <time>2020-11-08T09:39:21Z</time>
      </trkpt>
      <trkpt lat="19.047749" lon="-97.27063">
        <ele>4780.023</ele>
        <time>2020-11-08T09:39:27Z</time>
      </trkpt>
      <trkpt lat="19.047805" lon="-97.27064">
        <ele>4778.427</ele>
        <time>2020-11-08T09:39:30Z</time>
      </trkpt>
      <trkpt lat="19.047857" lon="-97.270649">
        <ele>4777.878</ele>
        <time>2020-11-08T09:39:32Z</time>
      </trkpt>
      <trkpt lat="19.047901" lon="-97.27066">
        <ele>4775.970</ele>
        <time>2020-11-08T09:39:37Z</time>
      </trkpt>
      <trkpt lat="19.047954" lon="-97.270674">
        <ele>4776.373</ele>
        <time>2020-11-08T09:39:48Z</time>
      </trkpt>
      <trkpt lat="19.048009" lon="-97.270684">
        <ele>4777.412</ele>
        <time>2020-11-08T09:39:53Z</time>
      </trkpt>
      <trkpt lat="19.048039" lon="-97.270643">
        <ele>4775.656</ele>
        <time>2020-11-08T09:40:02Z</time>
      </trkpt>
      <trkpt lat="19.048082" lon="-97.270664">
        <ele>4774.152</ele>
        <time>2020-11-08T09:40:20Z</time>
      </trkpt>
      <trkpt lat="19.048123" lon="-97.270684">
        <ele>4774.086</ele>
        <time>2020-11-08T09:40:22Z</time>
      </trkpt>
      <trkpt lat="19.048172" lon="-97.27069">
        <ele>4773.260</ele>
        <time>2020-11-08T09:40:25Z</time>
      </trkpt>
      <trkpt lat="19.048222" lon="-97.270695">
        <ele>4770.326</ele>
        <time>2020-11-08T09:40:29Z</time>
      </trkpt>
      <trkpt lat="19.048273" lon="-97.270716">
        <ele>4767.808</ele>
        <time>2020-11-08T09:40:33Z</time>
      </trkpt>
      <trkpt lat="19.048297" lon="-97.270769">
        <ele>4766.354</ele>
        <time>2020-11-08T09:40:38Z</time>
      </trkpt>
      <trkpt lat="19.048341" lon="-97.270788">
        <ele>4767.878</ele>
        <time>2020-11-08T09:40:45Z</time>
      </trkpt>
      <trkpt lat="19.048376" lon="-97.270822">
        <ele>4767.979</ele>
        <time>2020-11-08T09:40:53Z</time>
      </trkpt>
      <trkpt lat="19.048457" lon="-97.270851">
        <ele>4782.471</ele>
        <time>2020-11-08T09:41:09Z</time>
      </trkpt>
      <trkpt lat="19.0485" lon="-97.270802">
        <ele>4782.454</ele>
        <time>2020-11-08T09:41:11Z</time>
      </trkpt>
      <trkpt lat="19.048544" lon="-97.270776">
        <ele>4781.663</ele>
        <time>2020-11-08T09:41:15Z</time>
      </trkpt>
      <trkpt lat="19.048557" lon="-97.270828">
        <ele>4780.347</ele>
        <time>2020-11-08T09:41:19Z</time>
      </trkpt>
      <trkpt lat="19.048604" lon="-97.270832">
        <ele>4777.563</ele>
        <time>2020-11-08T09:41:30Z</time>
      </trkpt>
      <trkpt lat="19.048625" lon="-97.27088">
        <ele>4774.631</ele>
        <time>2020-11-08T09:41:39Z</time>
      </trkpt>
      <trkpt lat="19.04867" lon="-97.270857">
        <ele>4770.961</ele>
        <time>2020-11-08T09:41:49Z</time>
      </trkpt>
      <trkpt lat="19.048711" lon="-97.270879">
        <ele>4767.907</ele>
        <time>2020-11-08T09:41:58Z</time>
      </trkpt>
      <trkpt lat="19.048753" lon="-97.270843">
        <ele>4766.108</ele>
        <time>2020-11-08T09:42:04Z</time>
      </trkpt>
      <trkpt lat="19.048798" lon="-97.270857">
        <ele>4764.239</ele>
        <time>2020-11-08T09:42:06Z</time>
      </trkpt>
      <trkpt lat="19.048843" lon="-97.270862">
        <ele>4762.763</ele>
        <time>2020-11-08T09:42:14Z</time>
      </trkpt>
      <trkpt lat="19.048864" lon="-97.270908">
        <ele>4761.094</ele>
        <time>2020-11-08T09:42:20Z</time>
      </trkpt>
      <trkpt lat="19.048903" lon="-97.27094">
        <ele>4759.236</ele>
        <time>2020-11-08T09:42:24Z</time>
      </trkpt>
      <trkpt lat="19.048955" lon="-97.270949">
        <ele>4758.129</ele>
        <time>2020-11-08T09:42:30Z</time>
      </trkpt>
      <trkpt lat="19.049007" lon="-97.270938">
        <ele>4757.098</ele>
        <time>2020-11-08T09:42:36Z</time>
      </trkpt>
      <trkpt lat="19.049047" lon="-97.270906">
        <ele>4755.652</ele>
        <time>2020-11-08T09:42:39Z</time>
      </trkpt>
      <trkpt lat="19.049092" lon="-97.270882">
        <ele>4754.768</ele>
        <time>2020-11-08T09:42:44Z</time>
      </trkpt>
      <trkpt lat="19.049144" lon="-97.270874">
        <ele>4752.695</ele>
        <time>2020-11-08T09:42:48Z</time>
      </trkpt>
      <trkpt lat="19.049195" lon="-97.270869">
        <ele>4750.149</ele>
        <time>2020-11-08T09:42:51Z</time>
      </trkpt>
      <trkpt lat="19.04925" lon="-97.270851">
        <ele>4748.623</ele>
        <time>2020-11-08T09:42:54Z</time>
      </trkpt>
      <trkpt lat="19.04929" lon="-97.270829">
        <ele>4747.308</ele>
        <time>2020-11-08T09:42:57Z</time>
      </trkpt>
      <trkpt lat="19.049334" lon="-97.270799">
        <ele>4747.325</ele>
        <time>2020-11-08T09:43:01Z</time>
      </trkpt>
      <trkpt lat="19.049381" lon="-97.270814">
        <ele>4746.919</ele>
        <time>2020-11-08T09:43:06Z</time>
      </trkpt>
      <trkpt lat="19.049429" lon="-97.270799">
        <ele>4746.340</ele>
        <time>2020-11-08T09:43:11Z</time>
      </trkpt>
      <trkpt lat="19.049475" lon="-97.270809">
        <ele>4744.332</ele>
        <time>2020-11-08T09:43:14Z</time>
      </trkpt>
      <trkpt lat="19.049516" lon="-97.270841">
        <ele>4743.515</ele>
        <time>2020-11-08T09:43:21Z</time>
      </trkpt>
      <trkpt lat="19.049568" lon="-97.270859">
        <ele>4743.884</ele>
        <time>2020-11-08T09:43:27Z</time>
      </trkpt>
      <trkpt lat="19.049604" lon="-97.270893">
        <ele>4743.248</ele>
        <time>2020-11-08T09:43:32Z</time>
      </trkpt>
      <trkpt lat="19.049648" lon="-97.270905">
        <ele>4742.054</ele>
        <time>2020-11-08T09:43:35Z</time>
      </trkpt>
      <trkpt lat="19.049697" lon="-97.270898">
        <ele>4740.559</ele>
        <time>2020-11-08T09:43:38Z</time>
      </trkpt>
      <trkpt lat="19.049745" lon="-97.270901">
        <ele>4738.403</ele>
        <time>2020-11-08T09:43:42Z</time>
      </trkpt>
      <trkpt lat="19.049797" lon="-97.270886">
        <ele>4736.323</ele>
        <time>2020-11-08T09:43:46Z</time>
      </trkpt>
      <trkpt lat="19.049846" lon="-97.270902">
        <ele>4733.108</ele>
        <time>2020-11-08T09:43:52Z</time>
      </trkpt>
      <trkpt lat="19.049898" lon="-97.27089">
        <ele>4730.481</ele>
        <time>2020-11-08T09:43:58Z</time>
      </trkpt>
      <trkpt lat="19.049943" lon="-97.270882">
        <ele>4727.625</ele>
        <time>2020-11-08T09:44:03Z</time>
      </trkpt>
      <trkpt lat="19.049988" lon="-97.270889">
        <ele>4725.186</ele>
        <time>2020-11-08T09:44:07Z</time>
      </trkpt>
      <trkpt lat="19.050036" lon="-97.270899">
        <ele>4724.078</ele>
        <time>2020-11-08T09:44:12Z</time>
      </trkpt>
      <trkpt lat="19.050085" lon="-97.270901">
        <ele>4723.731</ele>
        <time>2020-11-08T09:44:16Z</time>
      </trkpt>
      <trkpt lat="19.05013" lon="-97.270885">
        <ele>4722.790</ele>
        <time>2020-11-08T09:44:20Z</time>
      </trkpt>
      <trkpt lat="19.050182" lon="-97.270881">
        <ele>4721.734</ele>
        <time>2020-11-08T09:44:26Z</time>
      </trkpt>
      <trkpt lat="19.050228" lon="-97.270896">
        <ele>4720.370</ele>
        <time>2020-11-08T09:44:29Z</time>
      </trkpt>
      <trkpt lat="19.050274" lon="-97.270893">
        <ele>4717.939</ele>
        <time>2020-11-08T09:45:04Z</time>
      </trkpt>
      <trkpt lat="19.050323" lon="-97.270887">
        <ele>4716.001</ele>
        <time>2020-11-08T09:45:09Z</time>
      </trkpt>
      <trkpt lat="19.050371" lon="-97.270905">
        <ele>4714.921</ele>
        <time>2020-11-08T09:45:30Z</time>
      </trkpt>
      <trkpt lat="19.05042" lon="-97.270902">
        <ele>4713.808</ele>
        <time>2020-11-08T09:45:37Z</time>
      </trkpt>
      <trkpt lat="19.050478" lon="-97.270889">
        <ele>4712.099</ele>
        <time>2020-11-08T09:45:50Z</time>
      </trkpt>
      <trkpt lat="19.050523" lon="-97.270899">
        <ele>4710.523</ele>
        <time>2020-11-08T09:45:54Z</time>
      </trkpt>
      <trkpt lat="19.050567" lon="-97.270923">
        <ele>4708.044</ele>
        <time>2020-11-08T09:45:59Z</time>
      </trkpt>
      <trkpt lat="19.050559" lon="-97.270977">
        <ele>4704.926</ele>
        <time>2020-11-08T09:46:07Z</time>
      </trkpt>
      <trkpt lat="19.050604" lon="-97.270995">
        <ele>4701.869</ele>
        <time>2020-11-08T09:46:19Z</time>
      </trkpt>
      <trkpt lat="19.050649" lon="-97.271022">
        <ele>4702.018</ele>
        <time>2020-11-08T09:46:43Z</time>
      </trkpt>
      <trkpt lat="19.050645" lon="-97.271076">
        <ele>4702.972</ele>
        <time>2020-11-08T09:46:49Z</time>
      </trkpt>
      <trkpt lat="19.050659" lon="-97.271125">
        <ele>4703.028</ele>
        <time>2020-11-08T09:46:56Z</time>
      </trkpt>
      <trkpt lat="19.050706" lon="-97.271134">
        <ele>4701.162</ele>
        <time>2020-11-08T09:47:05Z</time>
      </trkpt>
      <trkpt lat="19.050744" lon="-97.271165">
        <ele>4698.783</ele>
        <time>2020-11-08T09:47:17Z</time>
      </trkpt>
      <trkpt lat="19.050786" lon="-97.271182">
        <ele>4697.711</ele>
        <time>2020-11-08T09:47:36Z</time>
      </trkpt>
      <trkpt lat="19.05082" lon="-97.271217">
        <ele>4694.308</ele>
        <time>2020-11-08T09:47:52Z</time>
      </trkpt>
      <trkpt lat="19.050865" lon="-97.271235">
        <ele>4691.932</ele>
        <time>2020-11-08T09:48:03Z</time>
      </trkpt>
      <trkpt lat="19.050916" lon="-97.271241">
        <ele>4688.836</ele>
        <time>2020-11-08T09:48:16Z</time>
      </trkpt>
      <trkpt lat="19.050949" lon="-97.271207">
        <ele>4688.237</ele>
        <time>2020-11-08T09:48:30Z</time>
      </trkpt>
      <trkpt lat="19.051" lon="-97.271208">
        <ele>4686.259</ele>
        <time>2020-11-08T09:48:37Z</time>
      </trkpt>
      <trkpt lat="19.05105" lon="-97.271203">
        <ele>4685.052</ele>
        <time>2020-11-08T09:48:43Z</time>
      </trkpt>
      <trkpt lat="19.051098" lon="-97.271222">
        <ele>4684.361</ele>
        <time>2020-11-08T09:48:47Z</time>
      </trkpt>
      <trkpt lat="19.051149" lon="-97.271238">
        <ele>4683.115</ele>
        <time>2020-11-08T09:48:54Z</time>
      </trkpt>
      <trkpt lat="19.051183" lon="-97.271206">
        <ele>4682.451</ele>
        <time>2020-11-08T09:49:11Z</time>
      </trkpt>
      <trkpt lat="19.051219" lon="-97.271174">
        <ele>4680.855</ele>
        <time>2020-11-08T09:49:17Z</time>
      </trkpt>
      <trkpt lat="19.05125" lon="-97.271212">
        <ele>4679.407</ele>
        <time>2020-11-08T09:49:24Z</time>
      </trkpt>
      <trkpt lat="19.051293" lon="-97.271239">
        <ele>4678.217</ele>
        <time>2020-11-08T09:49:28Z</time>
      </trkpt>
      <trkpt lat="19.051341" lon="-97.271223">
        <ele>4676.708</ele>
        <time>2020-11-08T09:49:33Z</time>
      </trkpt>
      <trkpt lat="19.051371" lon="-97.271179">
        <ele>4674.631</ele>
        <time>2020-11-08T09:49:57Z</time>
      </trkpt>
      <trkpt lat="19.0514" lon="-97.271135">
        <ele>4672.945</ele>
        <time>2020-11-08T09:50:04Z</time>
      </trkpt>
      <trkpt lat="19.051447" lon="-97.271141">
        <ele>4672.756</ele>
        <time>2020-11-08T09:50:17Z</time>
      </trkpt>
      <trkpt lat="19.051499" lon="-97.271156">
        <ele>4671.898</ele>
        <time>2020-11-08T09:50:28Z</time>
      </trkpt>
      <trkpt lat="19.051532" lon="-97.271189">
        <ele>4668.421</ele>
        <time>2020-11-08T09:50:44Z</time>
      </trkpt>
      <trkpt lat="19.051577" lon="-97.271175">
        <ele>4667.650</ele>
        <time>2020-11-08T09:50:57Z</time>
      </trkpt>
      <trkpt lat="19.051623" lon="-97.271166">
        <ele>4664.794</ele>
        <time>2020-11-08T09:51:14Z</time>
      </trkpt>
      <trkpt lat="19.051674" lon="-97.271166">
        <ele>4664.690</ele>
        <time>2020-11-08T09:51:30Z</time>
      </trkpt>
      <trkpt lat="19.051723" lon="-97.271159">
        <ele>4664.522</ele>
        <time>2020-11-08T09:51:36Z</time>
      </trkpt>
      <trkpt lat="19.051776" lon="-97.271154">
        <ele>4662.962</ele>
        <time>2020-11-08T09:51:42Z</time>
      </trkpt>
      <trkpt lat="19.051821" lon="-97.271155">
        <ele>4661.108</ele>
        <time>2020-11-08T09:51:54Z</time>
      </trkpt>
      <trkpt lat="19.051866" lon="-97.271138">
        <ele>4660.408</ele>
        <time>2020-11-08T09:52:01Z</time>
      </trkpt>
      <trkpt lat="19.051912" lon="-97.271157">
        <ele>4660.028</ele>
        <time>2020-11-08T09:52:11Z</time>
      </trkpt>
      <trkpt lat="19.051957" lon="-97.271147">
        <ele>4659.842</ele>
        <time>2020-11-08T09:52:19Z</time>
      </trkpt>
      <trkpt lat="19.052006" lon="-97.271141">
        <ele>4655.893</ele>
        <time>2020-11-08T09:52:26Z</time>
      </trkpt>
      <trkpt lat="19.052033" lon="-97.271099">
        <ele>4651.815</ele>
        <time>2020-11-08T09:52:33Z</time>
      </trkpt>
      <trkpt lat="19.05206" lon="-97.271145">
        <ele>4647.858</ele>
        <time>2020-11-08T09:52:38Z</time>
      </trkpt>
      <trkpt lat="19.052105" lon="-97.271131">
        <ele>4643.817</ele>
        <time>2020-11-08T09:52:46Z</time>
      </trkpt>
      <trkpt lat="19.052154" lon="-97.271143">
        <ele>4641.381</ele>
        <time>2020-11-08T09:52:57Z</time>
      </trkpt>
      <trkpt lat="19.052161" lon="-97.271198">
        <ele>4639.017</ele>
        <time>2020-11-08T09:53:02Z</time>
      </trkpt>
      <trkpt lat="19.0522" lon="-97.271235">
        <ele>4637.241</ele>
        <time>2020-11-08T09:53:08Z</time>
      </trkpt>
      <trkpt lat="19.052244" lon="-97.271209">
        <ele>4636.981</ele>
        <time>2020-11-08T09:53:14Z</time>
      </trkpt>
      <trkpt lat="19.052287" lon="-97.271189">
        <ele>4636.709</ele>
        <time>2020-11-08T09:53:22Z</time>
      </trkpt>
      <trkpt lat="19.052337" lon="-97.271202">
        <ele>4637.408</ele>
        <time>2020-11-08T09:53:29Z</time>
      </trkpt>
      <trkpt lat="19.052382" lon="-97.271219">
        <ele>4639.440</ele>
        <time>2020-11-08T09:53:34Z</time>
      </trkpt>
      <trkpt lat="19.05243" lon="-97.271211">
        <ele>4641.034</ele>
        <time>2020-11-08T09:53:41Z</time>
      </trkpt>
      <trkpt lat="19.05247" lon="-97.271179">
        <ele>4640.825</ele>
        <time>2020-11-08T09:53:55Z</time>
      </trkpt>
      <trkpt lat="19.052518" lon="-97.27118">
        <ele>4640.767</ele>
        <time>2020-11-08T09:54:03Z</time>
      </trkpt>
      <trkpt lat="19.052545" lon="-97.27114">
        <ele>4640.220</ele>
        <time>2020-11-08T09:54:07Z</time>
      </trkpt>
      <trkpt lat="19.052573" lon="-97.271178">
        <ele>4638.739</ele>
        <time>2020-11-08T09:54:17Z</time>
      </trkpt>
      <trkpt lat="19.052625" lon="-97.271174">
        <ele>4635.893</ele>
        <time>2020-11-08T09:54:29Z</time>
      </trkpt>
      <trkpt lat="19.052661" lon="-97.271134">
        <ele>4632.969</ele>
        <time>2020-11-08T09:54:34Z</time>
      </trkpt>
      <trkpt lat="19.052713" lon="-97.271133">
        <ele>4630.729</ele>
        <time>2020-11-08T09:54:41Z</time>
      </trkpt>
      <trkpt lat="19.052746" lon="-97.271099">
        <ele>4629.000</ele>
        <time>2020-11-08T09:54:53Z</time>
      </trkpt>
      <trkpt lat="19.05279" lon="-97.271084">
        <ele>4625.620</ele>
        <time>2020-11-08T09:55:04Z</time>
      </trkpt>
      <trkpt lat="19.052838" lon="-97.271089">
        <ele>4622.308</ele>
        <time>2020-11-08T09:55:10Z</time>
      </trkpt>
      <trkpt lat="19.052884" lon="-97.271082">
        <ele>4619.588</ele>
        <time>2020-11-08T09:55:27Z</time>
      </trkpt>
      <trkpt lat="19.052928" lon="-97.271055">
        <ele>4617.092</ele>
        <time>2020-11-08T09:55:40Z</time>
      </trkpt>
      <trkpt lat="19.052977" lon="-97.271042">
        <ele>4613.063</ele>
        <time>2020-11-08T09:55:47Z</time>
      </trkpt>
      <trkpt lat="19.053021" lon="-97.27103">
        <ele>4609.035</ele>
        <time>2020-11-08T09:57:30Z</time>
      </trkpt>
      <trkpt lat="19.053069" lon="-97.271013">
        <ele>4605.998</ele>
        <time>2020-11-08T09:57:36Z</time>
      </trkpt>
      <trkpt lat="19.053109" lon="-97.270987">
        <ele>4604.157</ele>
        <time>2020-11-08T09:57:44Z</time>
      </trkpt>
      <trkpt lat="19.053153" lon="-97.270974">
        <ele>4603.451</ele>
        <time>2020-11-08T09:57:51Z</time>
      </trkpt>
      <trkpt lat="19.053199" lon="-97.27097">
        <ele>4601.447</ele>
        <time>2020-11-08T09:58:02Z</time>
      </trkpt>
      <trkpt lat="19.053231" lon="-97.270934">
        <ele>4599.473</ele>
        <time>2020-11-08T09:58:11Z</time>
      </trkpt>
      <trkpt lat="19.053254" lon="-97.270891">
        <ele>4598.685</ele>
        <time>2020-11-08T09:58:22Z</time>
      </trkpt>
      <trkpt lat="19.053297" lon="-97.270871">
        <ele>4597.313</ele>
        <time>2020-11-08T09:58:40Z</time>
      </trkpt>
      <trkpt lat="19.05334" lon="-97.27085">
        <ele>4593.708</ele>
        <time>2020-11-08T09:58:57Z</time>
      </trkpt>
      <trkpt lat="19.053365" lon="-97.270805">
        <ele>4589.753</ele>
        <time>2020-11-08T09:59:24Z</time>
      </trkpt>
      <trkpt lat="19.053399" lon="-97.270768">
        <ele>4585.757</ele>
        <time>2020-11-08T09:59:32Z</time>
      </trkpt>
      <trkpt lat="19.053434" lon="-97.270729">
        <ele>4581.728</ele>
        <time>2020-11-08T09:59:41Z</time>
      </trkpt>
      <trkpt lat="19.053475" lon="-97.270708">
        <ele>4578.850</ele>
        <time>2020-11-08T09:59:50Z</time>
      </trkpt>
      <trkpt lat="19.053513" lon="-97.270679">
        <ele>4577.883</ele>
        <time>2020-11-08T10:00:01Z</time>
      </trkpt>
      <trkpt lat="19.053538" lon="-97.270637">
        <ele>4576.892</ele>
        <time>2020-11-08T10:00:11Z</time>
      </trkpt>
      <trkpt lat="19.053561" lon="-97.270589">
        <ele>4573.066</ele>
        <time>2020-11-08T10:00:20Z</time>
      </trkpt>
      <trkpt lat="19.053587" lon="-97.27055">
        <ele>4569.092</ele>
        <time>2020-11-08T10:00:28Z</time>
      </trkpt>
      <trkpt lat="19.053626" lon="-97.270524">
        <ele>4565.971</ele>
        <time>2020-11-08T10:01:22Z</time>
      </trkpt>
      <trkpt lat="19.053634" lon="-97.270473">
        <ele>4563.741</ele>
        <time>2020-11-08T10:01:32Z</time>
      </trkpt>
      <trkpt lat="19.053654" lon="-97.27043">
        <ele>4562.415</ele>
        <time>2020-11-08T10:02:00Z</time>
      </trkpt>
      <trkpt lat="19.053698" lon="-97.270406">
        <ele>4558.408</ele>
        <time>2020-11-08T10:02:10Z</time>
      </trkpt>
      <trkpt lat="19.053743" lon="-97.270383">
        <ele>4555.233</ele>
        <time>2020-11-08T10:02:19Z</time>
      </trkpt>
      <trkpt lat="19.053729" lon="-97.270331">
        <ele>4552.917</ele>
        <time>2020-11-08T10:02:27Z</time>
      </trkpt>
      <trkpt lat="19.053757" lon="-97.270288">
        <ele>4551.958</ele>
        <time>2020-11-08T10:02:33Z</time>
      </trkpt>
      <trkpt lat="19.053799" lon="-97.270266">
        <ele>4550.140</ele>
        <time>2020-11-08T10:02:38Z</time>
      </trkpt>
      <trkpt lat="19.053835" lon="-97.270231">
        <ele>4547.093</ele>
        <time>2020-11-08T10:02:47Z</time>
      </trkpt>
      <trkpt lat="19.053871" lon="-97.270194">
        <ele>4545.222</ele>
        <time>2020-11-08T10:02:56Z</time>
      </trkpt>
      <trkpt lat="19.053916" lon="-97.270214">
        <ele>4541.226</ele>
        <time>2020-11-08T10:03:12Z</time>
      </trkpt>
      <trkpt lat="19.053943" lon="-97.270259">
        <ele>4538.152</ele>
        <time>2020-11-08T10:03:17Z</time>
      </trkpt>
      <trkpt lat="19.053995" lon="-97.270252">
        <ele>4534.635</ele>
        <time>2020-11-08T10:03:24Z</time>
      </trkpt>
      <trkpt lat="19.054043" lon="-97.270248">
        <ele>4532.586</ele>
        <time>2020-11-08T10:03:29Z</time>
      </trkpt>
      <trkpt lat="19.05409" lon="-97.270231">
        <ele>4529.714</ele>
        <time>2020-11-08T10:03:47Z</time>
      </trkpt>
      <trkpt lat="19.05414" lon="-97.270252">
        <ele>4527.208</ele>
        <time>2020-11-08T10:03:54Z</time>
      </trkpt>
      <trkpt lat="19.054182" lon="-97.270274">
        <ele>4524.939</ele>
        <time>2020-11-08T10:04:00Z</time>
      </trkpt>
      <trkpt lat="19.054225" lon="-97.270296">
        <ele>4523.543</ele>
        <time>2020-11-08T10:04:12Z</time>
      </trkpt>
      <trkpt lat="19.054273" lon="-97.270297">
        <ele>4521.544</ele>
        <time>2020-11-08T10:04:27Z</time>
      </trkpt>
      <trkpt lat="19.054313" lon="-97.270321">
        <ele>4519.976</ele>
        <time>2020-11-08T10:04:42Z</time>
      </trkpt>
      <trkpt lat="19.054344" lon="-97.270282">
        <ele>4516.939</ele>
        <time>2020-11-08T10:04:50Z</time>
      </trkpt>
      <trkpt lat="19.054379" lon="-97.270248">
        <ele>4513.168</ele>
        <time>2020-11-08T10:05:04Z</time>
      </trkpt>
      <trkpt lat="19.05441" lon="-97.27021">
        <ele>4509.182</ele>
        <time>2020-11-08T10:05:11Z</time>
      </trkpt>
      <trkpt lat="19.05445" lon="-97.270182">
        <ele>4505.118</ele>
        <time>2020-11-08T10:05:26Z</time>
      </trkpt>
      <trkpt lat="19.054471" lon="-97.27014">
        <ele>4501.631</ele>
        <time>2020-11-08T10:05:43Z</time>
      </trkpt>
      <trkpt lat="19.054497" lon="-97.270092">
        <ele>4499.161</ele>
        <time>2020-11-08T10:05:48Z</time>
      </trkpt>
      <trkpt lat="19.054541" lon="-97.27008">
        <ele>4496.807</ele>
        <time>2020-11-08T10:06:01Z</time>
      </trkpt>
      <trkpt lat="19.054592" lon="-97.270087">
        <ele>4494.208</ele>
        <time>2020-11-08T10:06:12Z</time>
      </trkpt>
      <trkpt lat="19.054641" lon="-97.270086">
        <ele>4492.389</ele>
        <time>2020-11-08T10:06:27Z</time>
      </trkpt>
      <trkpt lat="19.054691" lon="-97.270092">
        <ele>4490.783</ele>
        <time>2020-11-08T10:06:36Z</time>
      </trkpt>
      <trkpt lat="19.054742" lon="-97.270104">
        <ele>4489.434</ele>
        <time>2020-11-08T10:06:58Z</time>
      </trkpt>
      <trkpt lat="19.054782" lon="-97.270132">
        <ele>4487.496</ele>
        <time>2020-11-08T10:07:09Z</time>
      </trkpt>
      <trkpt lat="19.054832" lon="-97.270141">
        <ele>4486.639</ele>
        <time>2020-11-08T10:07:19Z</time>
      </trkpt>
      <trkpt lat="19.05488" lon="-97.270154">
        <ele>4486.958</ele>
        <time>2020-11-08T10:07:25Z</time>
      </trkpt>
      <trkpt lat="19.055514" lon="-97.270149">
        <ele>4509.922</ele>
        <time>2020-11-08T10:09:55Z</time>
      </trkpt>
      <trkpt lat="19.055497" lon="-97.270089">
        <ele>4499.958</ele>
        <time>2020-11-08T10:09:59Z</time>
      </trkpt>
      <trkpt lat="19.055412" lon="-97.270017">
        <ele>4499.987</ele>
        <time>2020-11-08T10:10:01Z</time>
      </trkpt>
      <trkpt lat="19.055362" lon="-97.269982">
        <ele>4499.942</ele>
        <time>2020-11-08T10:10:02Z</time>
      </trkpt>
      <trkpt lat="19.055231" lon="-97.26989">
        <ele>4495.926</ele>
        <time>2020-11-08T10:10:04Z</time>
      </trkpt>
      <trkpt lat="19.055179" lon="-97.269853">
        <ele>4491.908</ele>
        <time>2020-11-08T10:10:05Z</time>
      </trkpt>
      <trkpt lat="19.055193" lon="-97.269903">
        <ele>4487.964</ele>
        <time>2020-11-08T10:10:10Z</time>
      </trkpt>
      <trkpt lat="19.055228" lon="-97.269939">
        <ele>4483.938</ele>
        <time>2020-11-08T10:10:13Z</time>
      </trkpt>
      <trkpt lat="19.055271" lon="-97.269955">
        <ele>4479.939</ele>
        <time>2020-11-08T10:10:17Z</time>
      </trkpt>
      <trkpt lat="19.055319" lon="-97.269965">
        <ele>4475.951</ele>
        <time>2020-11-08T10:10:21Z</time>
      </trkpt>
      <trkpt lat="19.055361" lon="-97.269989">
        <ele>4479.944</ele>
        <time>2020-11-08T10:10:51Z</time>
      </trkpt>
      <trkpt lat="19.055387" lon="-97.270029">
        <ele>4483.923</ele>
        <time>2020-11-08T10:11:00Z</time>
      </trkpt>
      <trkpt lat="19.055441" lon="-97.270021">
        <ele>4486.377</ele>
        <time>2020-11-08T10:11:06Z</time>
      </trkpt>
      <trkpt lat="19.055475" lon="-97.269986">
        <ele>4486.993</ele>
        <time>2020-11-08T10:11:12Z</time>
      </trkpt>
      <trkpt lat="19.055523" lon="-97.269988">
        <ele>4488.172</ele>
        <time>2020-11-08T10:11:19Z</time>
      </trkpt>
      <trkpt lat="19.055567" lon="-97.270006">
        <ele>4488.013</ele>
        <time>2020-11-08T10:11:23Z</time>
      </trkpt>
      <trkpt lat="19.055612" lon="-97.269975">
        <ele>4489.114</ele>
        <time>2020-11-08T10:11:31Z</time>
      </trkpt>
      <trkpt lat="19.055658" lon="-97.269948">
        <ele>4489.408</ele>
        <time>2020-11-08T10:11:33Z</time>
      </trkpt>
      <trkpt lat="19.055702" lon="-97.269983">
        <ele>4489.253</ele>
        <time>2020-11-08T10:11:37Z</time>
      </trkpt>
      <trkpt lat="19.055748" lon="-97.27">
        <ele>4487.567</ele>
        <time>2020-11-08T10:11:46Z</time>
      </trkpt>
      <trkpt lat="19.055799" lon="-97.270007">
        <ele>4484.998</ele>
        <time>2020-11-08T10:11:48Z</time>
      </trkpt>
      <trkpt lat="19.055831" lon="-97.270043">
        <ele>4481.760</ele>
        <time>2020-11-08T10:12:05Z</time>
      </trkpt>
      <trkpt lat="19.05588" lon="-97.270043">
        <ele>4478.683</ele>
        <time>2020-11-08T10:12:10Z</time>
      </trkpt>
      <trkpt lat="19.05593" lon="-97.270049">
        <ele>4475.132</ele>
        <time>2020-11-08T10:12:14Z</time>
      </trkpt>
      <trkpt lat="19.055978" lon="-97.270068">
        <ele>4472.276</ele>
        <time>2020-11-08T10:12:18Z</time>
      </trkpt>
      <trkpt lat="19.056019" lon="-97.27009">
        <ele>4470.572</ele>
        <time>2020-11-08T10:12:22Z</time>
      </trkpt>
      <trkpt lat="19.056067" lon="-97.270081">
        <ele>4469.977</ele>
        <time>2020-11-08T10:12:26Z</time>
      </trkpt>
      <trkpt lat="19.056124" lon="-97.270078">
        <ele>4469.961</ele>
        <time>2020-11-08T10:12:44Z</time>
      </trkpt>
      <trkpt lat="19.056171" lon="-97.270078">
        <ele>4471.127</ele>
        <time>2020-11-08T10:12:46Z</time>
      </trkpt>
      <trkpt lat="19.056217" lon="-97.270072">
        <ele>4471.008</ele>
        <time>2020-11-08T10:12:48Z</time>
      </trkpt>
      <trkpt lat="19.056264" lon="-97.270068">
        <ele>4469.443</ele>
        <time>2020-11-08T10:12:52Z</time>
      </trkpt>
      <trkpt lat="19.056314" lon="-97.270078">
        <ele>4468.447</ele>
        <time>2020-11-08T10:13:00Z</time>
      </trkpt>
      <trkpt lat="19.056366" lon="-97.270068">
        <ele>4467.428</ele>
        <time>2020-11-08T10:13:04Z</time>
      </trkpt>
      <trkpt lat="19.056417" lon="-97.270064">
        <ele>4466.460</ele>
        <time>2020-11-08T10:13:07Z</time>
      </trkpt>
      <trkpt lat="19.056463" lon="-97.270066">
        <ele>4465.823</ele>
        <time>2020-11-08T10:13:10Z</time>
      </trkpt>
      <trkpt lat="19.056519" lon="-97.27008">
        <ele>4465.812</ele>
        <time>2020-11-08T10:13:14Z</time>
      </trkpt>
      <trkpt lat="19.056574" lon="-97.270092">
        <ele>4466.686</ele>
        <time>2020-11-08T10:13:18Z</time>
      </trkpt>
      <trkpt lat="19.056628" lon="-97.270097">
        <ele>4466.362</ele>
        <time>2020-11-08T10:13:23Z</time>
      </trkpt>
      <trkpt lat="19.056682" lon="-97.270099">
        <ele>4463.716</ele>
        <time>2020-11-08T10:13:28Z</time>
      </trkpt>
      <trkpt lat="19.05673" lon="-97.270104">
        <ele>4460.276</ele>
        <time>2020-11-08T10:13:37Z</time>
      </trkpt>
      <trkpt lat="19.056782" lon="-97.270089">
        <ele>4456.513</ele>
        <time>2020-11-08T10:13:42Z</time>
      </trkpt>
      <trkpt lat="19.056826" lon="-97.270077">
        <ele>4452.508</ele>
        <time>2020-11-08T10:13:45Z</time>
      </trkpt>
      <trkpt lat="19.056872" lon="-97.270064">
        <ele>4449.187</ele>
        <time>2020-11-08T10:13:48Z</time>
      </trkpt>
      <trkpt lat="19.056912" lon="-97.270031">
        <ele>4446.651</ele>
        <time>2020-11-08T10:13:53Z</time>
      </trkpt>
      <trkpt lat="19.056956" lon="-97.269994">
        <ele>4444.712</ele>
        <time>2020-11-08T10:13:59Z</time>
      </trkpt>
      <trkpt lat="19.057008" lon="-97.269975">
        <ele>4443.634</ele>
        <time>2020-11-08T10:14:03Z</time>
      </trkpt>
      <trkpt lat="19.057059" lon="-97.269972">
        <ele>4442.547</ele>
        <time>2020-11-08T10:14:07Z</time>
      </trkpt>
      <trkpt lat="19.057105" lon="-97.26999">
        <ele>4441.996</ele>
        <time>2020-11-08T10:14:11Z</time>
      </trkpt>
      <trkpt lat="19.057155" lon="-97.270006">
        <ele>4441.110</ele>
        <time>2020-11-08T10:14:15Z</time>
      </trkpt>
      <trkpt lat="19.057202" lon="-97.270023">
        <ele>4439.096</ele>
        <time>2020-11-08T10:14:22Z</time>
      </trkpt>
      <trkpt lat="19.057253" lon="-97.270022">
        <ele>4436.229</ele>
        <time>2020-11-08T10:14:30Z</time>
      </trkpt>
      <trkpt lat="19.057288" lon="-97.26999">
        <ele>4433.700</ele>
        <time>2020-11-08T10:14:35Z</time>
      </trkpt>
      <trkpt lat="19.057331" lon="-97.269961">
        <ele>4431.420</ele>
        <time>2020-11-08T10:14:40Z</time>
      </trkpt>
      <trkpt lat="19.057381" lon="-97.269946">
        <ele>4430.808</ele>
        <time>2020-11-08T10:14:45Z</time>
      </trkpt>
      <trkpt lat="19.057427" lon="-97.269927">
        <ele>4430.568</ele>
        <time>2020-11-08T10:14:49Z</time>
      </trkpt>
      <trkpt lat="19.057475" lon="-97.269904">
        <ele>4428.372</ele>
        <time>2020-11-08T10:14:54Z</time>
      </trkpt>
      <trkpt lat="19.057527" lon="-97.269889">
        <ele>4427.023</ele>
        <time>2020-11-08T10:14:59Z</time>
      </trkpt>
      <trkpt lat="19.057581" lon="-97.269883">
        <ele>4425.085</ele>
        <time>2020-11-08T10:15:03Z</time>
      </trkpt>
      <trkpt lat="19.057625" lon="-97.269869">
        <ele>4423.478</ele>
        <time>2020-11-08T10:15:08Z</time>
      </trkpt>
      <trkpt lat="19.057651" lon="-97.269829">
        <ele>4422.027</ele>
        <time>2020-11-08T10:15:19Z</time>
      </trkpt>
      <trkpt lat="19.057703" lon="-97.269833">
        <ele>4420.421</ele>
        <time>2020-11-08T10:15:34Z</time>
      </trkpt>
      <trkpt lat="19.057744" lon="-97.269859">
        <ele>4419.877</ele>
        <time>2020-11-08T10:15:38Z</time>
      </trkpt>
      <trkpt lat="19.057785" lon="-97.269887">
        <ele>4418.723</ele>
        <time>2020-11-08T10:15:43Z</time>
      </trkpt>
      <trkpt lat="19.057829" lon="-97.269926">
        <ele>4418.483</ele>
        <time>2020-11-08T10:15:48Z</time>
      </trkpt>
      <trkpt lat="19.057874" lon="-97.269949">
        <ele>4417.811</ele>
        <time>2020-11-08T10:15:52Z</time>
      </trkpt>
      <trkpt lat="19.057923" lon="-97.269958">
        <ele>4417.108</ele>
        <time>2020-11-08T10:15:57Z</time>
      </trkpt>
      <trkpt lat="19.057934" lon="-97.269945">
        <ele>4193.872</ele>
        <time>2020-11-08T11:01:22Z</time>
      </trkpt>
      <trkpt lat="19.058026" lon="-97.269915">
        <ele>4222.813</ele>
        <time>2020-11-08T11:01:30Z</time>
      </trkpt>
      <trkpt lat="19.057978" lon="-97.269884">
        <ele>4222.814</ele>
        <time>2020-11-08T11:01:33Z</time>
      </trkpt>
      <trkpt lat="19.057898" lon="-97.26982">
        <ele>4222.808</ele>
        <time>2020-11-08T11:01:35Z</time>
      </trkpt>
      <trkpt lat="19.057937" lon="-97.269858">
        <ele>4222.833</ele>
        <time>2020-11-08T11:02:03Z</time>
      </trkpt>
      <trkpt lat="19.057982" lon="-97.26987">
        <ele>4222.877</ele>
        <time>2020-11-08T11:02:21Z</time>
      </trkpt>
      <trkpt lat="19.058027" lon="-97.26987">
        <ele>4222.858</ele>
        <time>2020-11-08T11:02:28Z</time>
      </trkpt>
      <trkpt lat="19.058065" lon="-97.269909">
        <ele>4222.890</ele>
        <time>2020-11-08T11:02:51Z</time>
      </trkpt>
      <trkpt lat="19.058118" lon="-97.269912">
        <ele>4222.853</ele>
        <time>2020-11-08T11:02:57Z</time>
      </trkpt>
      <trkpt lat="19.058171" lon="-97.269913">
        <ele>4222.862</ele>
        <time>2020-11-08T11:03:04Z</time>
      </trkpt>
      <trkpt lat="19.058218" lon="-97.269919">
        <ele>4218.846</ele>
        <time>2020-11-08T11:03:10Z</time>
      </trkpt>
      <trkpt lat="19.058263" lon="-97.269902">
        <ele>4214.843</ele>
        <time>2020-11-08T11:03:18Z</time>
      </trkpt>
      <trkpt lat="19.058304" lon="-97.26988">
        <ele>4210.813</ele>
        <time>2020-11-08T11:03:24Z</time>
      </trkpt>
      <trkpt lat="19.058336" lon="-97.269842">
        <ele>4206.843</ele>
        <time>2020-11-08T11:03:28Z</time>
      </trkpt>
      <trkpt lat="19.058358" lon="-97.2698">
        <ele>4202.807</ele>
        <time>2020-11-08T11:03:32Z</time>
      </trkpt>
      <trkpt lat="19.058394" lon="-97.269765">
        <ele>4198.808</ele>
        <time>2020-11-08T11:03:36Z</time>
      </trkpt>
      <trkpt lat="19.05844" lon="-97.269757">
        <ele>4195.677</ele>
        <time>2020-11-08T11:03:40Z</time>
      </trkpt>
      <trkpt lat="19.058489" lon="-97.269757">
        <ele>4192.581</ele>
        <time>2020-11-08T11:03:47Z</time>
      </trkpt>
      <trkpt lat="19.05854" lon="-97.269754">
        <ele>4189.842</ele>
        <time>2020-11-08T11:03:51Z</time>
      </trkpt>
      <trkpt lat="19.058593" lon="-97.269753">
        <ele>4187.834</ele>
        <time>2020-11-08T11:03:56Z</time>
      </trkpt>
      <trkpt lat="19.058649" lon="-97.26975">
        <ele>4186.687</ele>
        <time>2020-11-08T11:04:00Z</time>
      </trkpt>
      <trkpt lat="19.058694" lon="-97.269748">
        <ele>4185.996</ele>
        <time>2020-11-08T11:04:04Z</time>
      </trkpt>
      <trkpt lat="19.05874" lon="-97.269731">
        <ele>4184.770</ele>
        <time>2020-11-08T11:04:09Z</time>
      </trkpt>
      <trkpt lat="19.058795" lon="-97.269717">
        <ele>4183.677</ele>
        <time>2020-11-08T11:04:15Z</time>
      </trkpt>
      <trkpt lat="19.058851" lon="-97.269695">
        <ele>4182.972</ele>
        <time>2020-11-08T11:04:20Z</time>
      </trkpt>
      <trkpt lat="19.058905" lon="-97.26969">
        <ele>4182.113</ele>
        <time>2020-11-08T11:04:25Z</time>
      </trkpt>
      <trkpt lat="19.058948" lon="-97.269709">
        <ele>4180.814</ele>
        <time>2020-11-08T11:04:58Z</time>
      </trkpt>
      <trkpt lat="19.058997" lon="-97.269693">
        <ele>4179.208</ele>
        <time>2020-11-08T11:05:02Z</time>
      </trkpt>
      <trkpt lat="19.059039" lon="-97.269659">
        <ele>4177.583</ele>
        <time>2020-11-08T11:05:06Z</time>
      </trkpt>
      <trkpt lat="19.059073" lon="-97.269627">
        <ele>4177.347</ele>
        <time>2020-11-08T11:05:10Z</time>
      </trkpt>
      <trkpt lat="19.059123" lon="-97.269595">
        <ele>4178.058</ele>
        <time>2020-11-08T11:05:14Z</time>
      </trkpt>
      <trkpt lat="19.059172" lon="-97.269587">
        <ele>4178.430</ele>
        <time>2020-11-08T11:05:17Z</time>
      </trkpt>
      <trkpt lat="19.059218" lon="-97.269576">
        <ele>4179.463</ele>
        <time>2020-11-08T11:05:20Z</time>
      </trkpt>
      <trkpt lat="19.059272" lon="-97.26956">
        <ele>4180.022</ele>
        <time>2020-11-08T11:05:24Z</time>
      </trkpt>
      <trkpt lat="19.059323" lon="-97.269551">
        <ele>4180.416</ele>
        <time>2020-11-08T11:05:28Z</time>
      </trkpt>
      <trkpt lat="19.059372" lon="-97.269559">
        <ele>4179.413</ele>
        <time>2020-11-08T11:05:33Z</time>
      </trkpt>
      <trkpt lat="19.059413" lon="-97.269585">
        <ele>4176.012</ele>
        <time>2020-11-08T11:05:48Z</time>
      </trkpt>
      <trkpt lat="19.059457" lon="-97.269608">
        <ele>4174.432</ele>
        <time>2020-11-08T11:05:53Z</time>
      </trkpt>
      <trkpt lat="19.059507" lon="-97.269615">
        <ele>4172.205</ele>
        <time>2020-11-08T11:05:59Z</time>
      </trkpt>
      <trkpt lat="19.059559" lon="-97.269636">
        <ele>4170.508</ele>
        <time>2020-11-08T11:06:03Z</time>
      </trkpt>
      <trkpt lat="19.059607" lon="-97.269658">
        <ele>4169.517</ele>
        <time>2020-11-08T11:06:07Z</time>
      </trkpt>
      <trkpt lat="19.059658" lon="-97.269667">
        <ele>4168.981</ele>
        <time>2020-11-08T11:06:13Z</time>
      </trkpt>
      <trkpt lat="19.059706" lon="-97.269681">
        <ele>4168.182</ele>
        <time>2020-11-08T11:06:18Z</time>
      </trkpt>
      <trkpt lat="19.059752" lon="-97.269707">
        <ele>4166.824</ele>
        <time>2020-11-08T11:06:24Z</time>
      </trkpt>
      <trkpt lat="19.0598" lon="-97.269735">
        <ele>4166.097</ele>
        <time>2020-11-08T11:06:28Z</time>
      </trkpt>
      <trkpt lat="19.059845" lon="-97.269757">
        <ele>4165.976</ele>
        <time>2020-11-08T11:06:31Z</time>
      </trkpt>
      <trkpt lat="19.059903" lon="-97.269784">
        <ele>4165.540</ele>
        <time>2020-11-08T11:06:35Z</time>
      </trkpt>
      <trkpt lat="19.059953" lon="-97.269822">
        <ele>4164.867</ele>
        <time>2020-11-08T11:06:38Z</time>
      </trkpt>
      <trkpt lat="19.059987" lon="-97.269859">
        <ele>4163.671</ele>
        <time>2020-11-08T11:06:41Z</time>
      </trkpt>
      <trkpt lat="19.060007" lon="-97.269903">
        <ele>4161.741</ele>
        <time>2020-11-08T11:06:54Z</time>
      </trkpt>
      <trkpt lat="19.060063" lon="-97.269925">
        <ele>4159.315</ele>
        <time>2020-11-08T11:06:58Z</time>
      </trkpt>
      <trkpt lat="19.060118" lon="-97.269942">
        <ele>4158.708</ele>
        <time>2020-11-08T11:07:01Z</time>
      </trkpt>
      <trkpt lat="19.060164" lon="-97.269959">
        <ele>4157.193</ele>
        <time>2020-11-08T11:07:05Z</time>
      </trkpt>
      <trkpt lat="19.060213" lon="-97.269975">
        <ele>4155.017</ele>
        <time>2020-11-08T11:07:11Z</time>
      </trkpt>
      <trkpt lat="19.060255" lon="-97.270008">
        <ele>4153.758</ele>
        <time>2020-11-08T11:09:18Z</time>
      </trkpt>
      <trkpt lat="19.06029" lon="-97.270042">
        <ele>4152.160</ele>
        <time>2020-11-08T11:09:24Z</time>
      </trkpt>
      <trkpt lat="19.060334" lon="-97.27007">
        <ele>4149.633</ele>
        <time>2020-11-08T11:09:34Z</time>
      </trkpt>
      <trkpt lat="19.060377" lon="-97.270091">
        <ele>4147.722</ele>
        <time>2020-11-08T11:09:40Z</time>
      </trkpt>
      <trkpt lat="19.060423" lon="-97.270108">
        <ele>4144.116</ele>
        <time>2020-11-08T11:09:45Z</time>
      </trkpt>
      <trkpt lat="19.060466" lon="-97.270129">
        <ele>4142.063</ele>
        <time>2020-11-08T11:09:51Z</time>
      </trkpt>
      <trkpt lat="19.060515" lon="-97.270154">
        <ele>4140.771</ele>
        <time>2020-11-08T11:09:55Z</time>
      </trkpt>
      <trkpt lat="19.060558" lon="-97.270184">
        <ele>4140.741</ele>
        <time>2020-11-08T11:09:58Z</time>
      </trkpt>
      <trkpt lat="19.060595" lon="-97.270218">
        <ele>4140.715</ele>
        <time>2020-11-08T11:10:02Z</time>
      </trkpt>
      <trkpt lat="19.060634" lon="-97.270246">
        <ele>4141.508</ele>
        <time>2020-11-08T11:10:05Z</time>
      </trkpt>
      <trkpt lat="19.060682" lon="-97.270271">
        <ele>4141.643</ele>
        <time>2020-11-08T11:10:09Z</time>
      </trkpt>
      <trkpt lat="19.060733" lon="-97.2703">
        <ele>4142.197</ele>
        <time>2020-11-08T11:10:21Z</time>
      </trkpt>
      <trkpt lat="19.060772" lon="-97.270336">
        <ele>4142.878</ele>
        <time>2020-11-08T11:10:24Z</time>
      </trkpt>
      <trkpt lat="19.060811" lon="-97.270372">
        <ele>4143.240</ele>
        <time>2020-11-08T11:10:27Z</time>
      </trkpt>
      <trkpt lat="19.060849" lon="-97.270403">
        <ele>4142.253</ele>
        <time>2020-11-08T11:10:30Z</time>
      </trkpt>
      <trkpt lat="19.060886" lon="-97.270437">
        <ele>4140.422</ele>
        <time>2020-11-08T11:10:35Z</time>
      </trkpt>
      <trkpt lat="19.060931" lon="-97.270462">
        <ele>4139.786</ele>
        <time>2020-11-08T11:10:41Z</time>
      </trkpt>
      <trkpt lat="19.060972" lon="-97.270485">
        <ele>4140.583</ele>
        <time>2020-11-08T11:10:44Z</time>
      </trkpt>
      <trkpt lat="19.061016" lon="-97.270503">
        <ele>4139.862</ele>
        <time>2020-11-08T11:10:47Z</time>
      </trkpt>
      <trkpt lat="19.061068" lon="-97.270527">
        <ele>4139.483</ele>
        <time>2020-11-08T11:10:51Z</time>
      </trkpt>
      <trkpt lat="19.061113" lon="-97.27056">
        <ele>4138.711</ele>
        <time>2020-11-08T11:10:56Z</time>
      </trkpt>
      <trkpt lat="19.061163" lon="-97.270589">
        <ele>4138.308</ele>
        <time>2020-11-08T11:11:01Z</time>
      </trkpt>
      <trkpt lat="19.061204" lon="-97.270611">
        <ele>4137.392</ele>
        <time>2020-11-08T11:11:05Z</time>
      </trkpt>
      <trkpt lat="19.061244" lon="-97.270637">
        <ele>4135.566</ele>
        <time>2020-11-08T11:11:09Z</time>
      </trkpt>
      <trkpt lat="19.061287" lon="-97.270654">
        <ele>4134.817</ele>
        <time>2020-11-08T11:11:16Z</time>
      </trkpt>
      <trkpt lat="19.061329" lon="-97.270679">
        <ele>4134.029</ele>
        <time>2020-11-08T11:11:20Z</time>
      </trkpt>
      <trkpt lat="19.061383" lon="-97.2707">
        <ele>4133.912</ele>
        <time>2020-11-08T11:11:24Z</time>
      </trkpt>
      <trkpt lat="19.061425" lon="-97.27072">
        <ele>4134.261</ele>
        <time>2020-11-08T11:11:28Z</time>
      </trkpt>
      <trkpt lat="19.061465" lon="-97.270749">
        <ele>4134.445</ele>
        <time>2020-11-08T11:11:32Z</time>
      </trkpt>
      <trkpt lat="19.061507" lon="-97.270777">
        <ele>4134.922</ele>
        <time>2020-11-08T11:11:36Z</time>
      </trkpt>
      <trkpt lat="19.06155" lon="-97.270808">
        <ele>4136.438</ele>
        <time>2020-11-08T11:11:40Z</time>
      </trkpt>
      <trkpt lat="19.061605" lon="-97.270831">
        <ele>4137.370</ele>
        <time>2020-11-08T11:11:44Z</time>
      </trkpt>
      <trkpt lat="19.06165" lon="-97.270863">
        <ele>4136.617</ele>
        <time>2020-11-08T11:11:48Z</time>
      </trkpt>
      <trkpt lat="19.061698" lon="-97.270898">
        <ele>4136.608</ele>
        <time>2020-11-08T11:11:52Z</time>
      </trkpt>
      <trkpt lat="19.061741" lon="-97.270921">
        <ele>4135.899</ele>
        <time>2020-11-08T11:11:59Z</time>
      </trkpt>
      <trkpt lat="19.061787" lon="-97.270951">
        <ele>4133.383</ele>
        <time>2020-11-08T11:12:05Z</time>
      </trkpt>
      <trkpt lat="19.061827" lon="-97.270982">
        <ele>4132.294</ele>
        <time>2020-11-08T11:12:09Z</time>
      </trkpt>
      <trkpt lat="19.061865" lon="-97.271016">
        <ele>4131.536</ele>
        <time>2020-11-08T11:12:13Z</time>
      </trkpt>
      <trkpt lat="19.061912" lon="-97.271034">
        <ele>4130.769</ele>
        <time>2020-11-08T11:12:17Z</time>
      </trkpt>
      <trkpt lat="19.06195" lon="-97.27106">
        <ele>4129.898</ele>
        <time>2020-11-08T11:12:22Z</time>
      </trkpt>
      <trkpt lat="19.061979" lon="-97.271101">
        <ele>4127.762</ele>
        <time>2020-11-08T11:12:28Z</time>
      </trkpt>
      <trkpt lat="19.062019" lon="-97.27114">
        <ele>4126.069</ele>
        <time>2020-11-08T11:12:32Z</time>
      </trkpt>
      <trkpt lat="19.062058" lon="-97.27117">
        <ele>4125.491</ele>
        <time>2020-11-08T11:12:37Z</time>
      </trkpt>
      <trkpt lat="19.062096" lon="-97.271204">
        <ele>4123.881</ele>
        <time>2020-11-08T11:12:41Z</time>
      </trkpt>
      <trkpt lat="19.06213" lon="-97.271245">
        <ele>4122.119</ele>
        <time>2020-11-08T11:12:48Z</time>
      </trkpt>
      <trkpt lat="19.062165" lon="-97.271275">
        <ele>4121.508</ele>
        <time>2020-11-08T11:12:51Z</time>
      </trkpt>
      <trkpt lat="19.062205" lon="-97.2713">
        <ele>4120.735</ele>
        <time>2020-11-08T11:12:55Z</time>
      </trkpt>
      <trkpt lat="19.062241" lon="-97.27133">
        <ele>4122.239</ele>
        <time>2020-11-08T11:12:58Z</time>
      </trkpt>
      <trkpt lat="19.062274" lon="-97.271363">
        <ele>4123.150</ele>
        <time>2020-11-08T11:13:02Z</time>
      </trkpt>
      <trkpt lat="19.062318" lon="-97.271396">
        <ele>4122.992</ele>
        <time>2020-11-08T11:13:07Z</time>
      </trkpt>
      <trkpt lat="19.062352" lon="-97.271429">
        <ele>4122.455</ele>
        <time>2020-11-08T11:13:12Z</time>
      </trkpt>
      <trkpt lat="19.062394" lon="-97.271446">
        <ele>4120.924</ele>
        <time>2020-11-08T11:13:16Z</time>
      </trkpt>
      <trkpt lat="19.062441" lon="-97.271467">
        <ele>4120.488</ele>
        <time>2020-11-08T11:13:20Z</time>
      </trkpt>
      <trkpt lat="19.06247" lon="-97.271505">
        <ele>4118.985</ele>
        <time>2020-11-08T11:13:24Z</time>
      </trkpt>
      <trkpt lat="19.062491" lon="-97.271554">
        <ele>4117.682</ele>
        <time>2020-11-08T11:13:30Z</time>
      </trkpt>
      <trkpt lat="19.062539" lon="-97.271586">
        <ele>4115.643</ele>
        <time>2020-11-08T11:13:35Z</time>
      </trkpt>
      <trkpt lat="19.062585" lon="-97.271603">
        <ele>4114.817</ele>
        <time>2020-11-08T11:13:38Z</time>
      </trkpt>
      <trkpt lat="19.062634" lon="-97.271618">
        <ele>4113.908</ele>
        <time>2020-11-08T11:13:42Z</time>
      </trkpt>
      <trkpt lat="19.062678" lon="-97.271631">
        <ele>4113.024</ele>
        <time>2020-11-08T11:13:46Z</time>
      </trkpt>
      <trkpt lat="19.062722" lon="-97.271655">
        <ele>4112.848</ele>
        <time>2020-11-08T11:13:50Z</time>
      </trkpt>
      <trkpt lat="19.062761" lon="-97.271681">
        <ele>4111.589</ele>
        <time>2020-11-08T11:13:54Z</time>
      </trkpt>
      <trkpt lat="19.062806" lon="-97.271701">
        <ele>4109.941</ele>
        <time>2020-11-08T11:14:01Z</time>
      </trkpt>
      <trkpt lat="19.062848" lon="-97.271721">
        <ele>4109.414</ele>
        <time>2020-11-08T11:14:06Z</time>
      </trkpt>
      <trkpt lat="19.062888" lon="-97.271744">
        <ele>4108.383</ele>
        <time>2020-11-08T11:14:11Z</time>
      </trkpt>
      <trkpt lat="19.06293" lon="-97.271762">
        <ele>4107.677</ele>
        <time>2020-11-08T11:14:14Z</time>
      </trkpt>
      <trkpt lat="19.06297" lon="-97.271802">
        <ele>4108.034</ele>
        <time>2020-11-08T11:14:22Z</time>
      </trkpt>
      <trkpt lat="19.063019" lon="-97.271818">
        <ele>4106.613</ele>
        <time>2020-11-08T11:14:26Z</time>
      </trkpt>
      <trkpt lat="19.063065" lon="-97.27182">
        <ele>4106.243</ele>
        <time>2020-11-08T11:14:30Z</time>
      </trkpt>
      <trkpt lat="19.063115" lon="-97.271829">
        <ele>4105.507</ele>
        <time>2020-11-08T11:14:34Z</time>
      </trkpt>
      <trkpt lat="19.063164" lon="-97.271832">
        <ele>4105.108</ele>
        <time>2020-11-08T11:14:39Z</time>
      </trkpt>
      <trkpt lat="19.063215" lon="-97.271841">
        <ele>4105.777</ele>
        <time>2020-11-08T11:14:46Z</time>
      </trkpt>
      <trkpt lat="19.06327" lon="-97.271843">
        <ele>4105.651</ele>
        <time>2020-11-08T11:14:51Z</time>
      </trkpt>
      <trkpt lat="19.06332" lon="-97.271844">
        <ele>4105.612</ele>
        <time>2020-11-08T11:14:55Z</time>
      </trkpt>
      <trkpt lat="19.063369" lon="-97.271842">
        <ele>4104.854</ele>
        <time>2020-11-08T11:15:02Z</time>
      </trkpt>
      <trkpt lat="19.063425" lon="-97.271834">
        <ele>4103.187</ele>
        <time>2020-11-08T11:15:07Z</time>
      </trkpt>
      <trkpt lat="19.063473" lon="-97.27183">
        <ele>4100.936</ele>
        <time>2020-11-08T11:15:10Z</time>
      </trkpt>
      <trkpt lat="19.063521" lon="-97.271832">
        <ele>4099.280</ele>
        <time>2020-11-08T11:15:15Z</time>
      </trkpt>
      <trkpt lat="19.063567" lon="-97.271838">
        <ele>4097.857</ele>
        <time>2020-11-08T11:15:19Z</time>
      </trkpt>
      <trkpt lat="19.063605" lon="-97.271867">
        <ele>4096.536</ele>
        <time>2020-11-08T11:15:26Z</time>
      </trkpt>
      <trkpt lat="19.063649" lon="-97.271894">
        <ele>4095.717</ele>
        <time>2020-11-08T11:15:32Z</time>
      </trkpt>
      <trkpt lat="19.063698" lon="-97.271905">
        <ele>4096.018</ele>
        <time>2020-11-08T11:15:38Z</time>
      </trkpt>
      <trkpt lat="19.063746" lon="-97.271921">
        <ele>4093.808</ele>
        <time>2020-11-08T11:15:45Z</time>
      </trkpt>
      <trkpt lat="19.063794" lon="-97.271923">
        <ele>4092.149</ele>
        <time>2020-11-08T11:15:53Z</time>
      </trkpt>
      <trkpt lat="19.063844" lon="-97.271931">
        <ele>4091.913</ele>
        <time>2020-11-08T11:16:08Z</time>
      </trkpt>
      <trkpt lat="19.063893" lon="-97.271936">
        <ele>4090.644</ele>
        <time>2020-11-08T11:16:14Z</time>
      </trkpt>
      <trkpt lat="19.063938" lon="-97.271941">
        <ele>4089.486</ele>
        <time>2020-11-08T11:16:20Z</time>
      </trkpt>
      <trkpt lat="19.063983" lon="-97.271967">
        <ele>4088.399</ele>
        <time>2020-11-08T11:16:27Z</time>
      </trkpt>
      <trkpt lat="19.064031" lon="-97.271953">
        <ele>4087.658</ele>
        <time>2020-11-08T11:16:34Z</time>
      </trkpt>
      <trkpt lat="19.064076" lon="-97.27196">
        <ele>4087.232</ele>
        <time>2020-11-08T11:16:43Z</time>
      </trkpt>
      <trkpt lat="19.064123" lon="-97.271974">
        <ele>4085.439</ele>
        <time>2020-11-08T11:16:48Z</time>
      </trkpt>
      <trkpt lat="19.064175" lon="-97.271984">
        <ele>4084.394</ele>
        <time>2020-11-08T11:16:53Z</time>
      </trkpt>
      <trkpt lat="19.064224" lon="-97.271998">
        <ele>4083.257</ele>
        <time>2020-11-08T11:16:58Z</time>
      </trkpt>
      <trkpt lat="19.064276" lon="-97.27201">
        <ele>4081.422</ele>
        <time>2020-11-08T11:17:02Z</time>
      </trkpt>
      <trkpt lat="19.064327" lon="-97.272027">
        <ele>4080.708</ele>
        <time>2020-11-08T11:17:06Z</time>
      </trkpt>
      <trkpt lat="19.064371" lon="-97.27204">
        <ele>4080.745</ele>
        <time>2020-11-08T11:17:12Z</time>
      </trkpt>
      <trkpt lat="19.064419" lon="-97.272058">
        <ele>4080.759</ele>
        <time>2020-11-08T11:17:18Z</time>
      </trkpt>
      <trkpt lat="19.064463" lon="-97.272044">
        <ele>4078.750</ele>
        <time>2020-11-08T11:17:23Z</time>
      </trkpt>
      <trkpt lat="19.06451" lon="-97.272047">
        <ele>4077.532</ele>
        <time>2020-11-08T11:17:32Z</time>
      </trkpt>
      <trkpt lat="19.064558" lon="-97.272028">
        <ele>4077.615</ele>
        <time>2020-11-08T11:17:38Z</time>
      </trkpt>
      <trkpt lat="19.06461" lon="-97.272042">
        <ele>4077.214</ele>
        <time>2020-11-08T11:17:42Z</time>
      </trkpt>
      <trkpt lat="19.06465" lon="-97.272073">
        <ele>4076.298</ele>
        <time>2020-11-08T11:17:47Z</time>
      </trkpt>
      <trkpt lat="19.064698" lon="-97.272095">
        <ele>4076.415</ele>
        <time>2020-11-08T11:17:52Z</time>
      </trkpt>
      <trkpt lat="19.064742" lon="-97.272114">
        <ele>4076.562</ele>
        <time>2020-11-08T11:17:56Z</time>
      </trkpt>
      <trkpt lat="19.064797" lon="-97.272128">
        <ele>4076.683</ele>
        <time>2020-11-08T11:18:00Z</time>
      </trkpt>
      <trkpt lat="19.064845" lon="-97.272138">
        <ele>4075.811</ele>
        <time>2020-11-08T11:18:04Z</time>
      </trkpt>
      <trkpt lat="19.064895" lon="-97.272154">
        <ele>4074.908</ele>
        <time>2020-11-08T11:18:08Z</time>
      </trkpt>
      <trkpt lat="19.064946" lon="-97.272143">
        <ele>4073.672</ele>
        <time>2020-11-08T11:18:14Z</time>
      </trkpt>
      <trkpt lat="19.064993" lon="-97.272146">
        <ele>4072.856</ele>
        <time>2020-11-08T11:18:19Z</time>
      </trkpt>
      <trkpt lat="19.065053" lon="-97.272164">
        <ele>4071.167</ele>
        <time>2020-11-08T11:18:23Z</time>
      </trkpt>
      <trkpt lat="19.065105" lon="-97.272179">
        <ele>4069.719</ele>
        <time>2020-11-08T11:18:26Z</time>
      </trkpt>
      <trkpt lat="19.065144" lon="-97.272203">
        <ele>4068.992</ele>
        <time>2020-11-08T11:18:29Z</time>
      </trkpt>
      <trkpt lat="19.065186" lon="-97.272235">
        <ele>4068.071</ele>
        <time>2020-11-08T11:18:34Z</time>
      </trkpt>
      <trkpt lat="19.065229" lon="-97.272257">
        <ele>4067.165</ele>
        <time>2020-11-08T11:18:38Z</time>
      </trkpt>
      <trkpt lat="19.065276" lon="-97.272278">
        <ele>4066.572</ele>
        <time>2020-11-08T11:18:42Z</time>
      </trkpt>
      <trkpt lat="19.065319" lon="-97.272302">
        <ele>4067.424</ele>
        <time>2020-11-08T11:18:48Z</time>
      </trkpt>
      <trkpt lat="19.065369" lon="-97.272332">
        <ele>4066.704</ele>
        <time>2020-11-08T11:18:52Z</time>
      </trkpt>
      <trkpt lat="19.065415" lon="-97.272347">
        <ele>4065.914</ele>
        <time>2020-11-08T11:18:58Z</time>
      </trkpt>
      <trkpt lat="19.065462" lon="-97.272365">
        <ele>4065.408</ele>
        <time>2020-11-08T11:19:01Z</time>
      </trkpt>
      <trkpt lat="19.065501" lon="-97.272391">
        <ele>4063.548</ele>
        <time>2020-11-08T11:19:04Z</time>
      </trkpt>
      <trkpt lat="19.06554" lon="-97.272415">
        <ele>4061.262</ele>
        <time>2020-11-08T11:19:09Z</time>
      </trkpt>
      <trkpt lat="19.065593" lon="-97.27243">
        <ele>4059.483</ele>
        <time>2020-11-08T11:19:13Z</time>
      </trkpt>
      <trkpt lat="19.065644" lon="-97.272435">
        <ele>4059.145</ele>
        <time>2020-11-08T11:19:17Z</time>
      </trkpt>
      <trkpt lat="19.065692" lon="-97.272455">
        <ele>4058.578</ele>
        <time>2020-11-08T11:19:22Z</time>
      </trkpt>
      <trkpt lat="19.065741" lon="-97.272453">
        <ele>4059.847</ele>
        <time>2020-11-08T11:21:58Z</time>
      </trkpt>
      <trkpt lat="19.06579" lon="-97.272469">
        <ele>4059.811</ele>
        <time>2020-11-08T11:22:03Z</time>
      </trkpt>
      <trkpt lat="19.065841" lon="-97.272486">
        <ele>4058.668</ele>
        <time>2020-11-08T11:22:07Z</time>
      </trkpt>
      <trkpt lat="19.065895" lon="-97.272501">
        <ele>4058.379</ele>
        <time>2020-11-08T11:22:12Z</time>
      </trkpt>
      <trkpt lat="19.065936" lon="-97.272525">
        <ele>4058.905</ele>
        <time>2020-11-08T11:22:16Z</time>
      </trkpt>
      <trkpt lat="19.065982" lon="-97.272534">
        <ele>4060.125</ele>
        <time>2020-11-08T11:22:20Z</time>
      </trkpt>
      <trkpt lat="19.066027" lon="-97.272542">
        <ele>4061.208</ele>
        <time>2020-11-08T11:22:23Z</time>
      </trkpt>
      <trkpt lat="19.066081" lon="-97.272548">
        <ele>4062.363</ele>
        <time>2020-11-08T11:22:27Z</time>
      </trkpt>
      <trkpt lat="19.066124" lon="-97.272516">
        <ele>4062.997</ele>
        <time>2020-11-08T11:22:31Z</time>
      </trkpt>
      <trkpt lat="19.066177" lon="-97.272493">
        <ele>4062.938</ele>
        <time>2020-11-08T11:22:35Z</time>
      </trkpt>
      <trkpt lat="19.066219" lon="-97.272474">
        <ele>4062.160</ele>
        <time>2020-11-08T11:22:40Z</time>
      </trkpt>
      <trkpt lat="19.066276" lon="-97.272466">
        <ele>4060.813</ele>
        <time>2020-11-08T11:22:44Z</time>
      </trkpt>
      <trkpt lat="19.066321" lon="-97.272454">
        <ele>4059.222</ele>
        <time>2020-11-08T11:22:48Z</time>
      </trkpt>
      <trkpt lat="19.066372" lon="-97.27246">
        <ele>4058.766</ele>
        <time>2020-11-08T11:22:52Z</time>
      </trkpt>
      <trkpt lat="19.066417" lon="-97.272478">
        <ele>4057.683</ele>
        <time>2020-11-08T11:23:01Z</time>
      </trkpt>
      <trkpt lat="19.066461" lon="-97.272495">
        <ele>4056.921</ele>
        <time>2020-11-08T11:23:07Z</time>
      </trkpt>
      <trkpt lat="19.066509" lon="-97.272492">
        <ele>4056.141</ele>
        <time>2020-11-08T11:23:12Z</time>
      </trkpt>
      <trkpt lat="19.06655" lon="-97.272469">
        <ele>4055.605</ele>
        <time>2020-11-08T11:23:20Z</time>
      </trkpt>
      <trkpt lat="19.066596" lon="-97.272451">
        <ele>4051.608</ele>
        <time>2020-11-08T11:23:28Z</time>
      </trkpt>
      <trkpt lat="19.066638" lon="-97.272422">
        <ele>4047.688</ele>
        <time>2020-11-08T11:23:35Z</time>
      </trkpt>
      <trkpt lat="19.066689" lon="-97.272442">
        <ele>4044.122</ele>
        <time>2020-11-08T11:23:38Z</time>
      </trkpt>
      <trkpt lat="19.066734" lon="-97.272462">
        <ele>4041.683</ele>
        <time>2020-11-08T11:23:41Z</time>
      </trkpt>
      <trkpt lat="19.066776" lon="-97.27248">
        <ele>4039.375</ele>
        <time>2020-11-08T11:23:44Z</time>
      </trkpt>
      <trkpt lat="19.066827" lon="-97.272495">
        <ele>4037.118</ele>
        <time>2020-11-08T11:23:47Z</time>
      </trkpt>
      <trkpt lat="19.066871" lon="-97.272516">
        <ele>4035.047</ele>
        <time>2020-11-08T11:23:54Z</time>
      </trkpt>
      <trkpt lat="19.066907" lon="-97.272553">
        <ele>4034.961</ele>
        <time>2020-11-08T11:24:01Z</time>
      </trkpt>
      <trkpt lat="19.066956" lon="-97.272566">
        <ele>4034.558</ele>
        <time>2020-11-08T11:24:05Z</time>
      </trkpt>
      <trkpt lat="19.067004" lon="-97.272569">
        <ele>4033.869</ele>
        <time>2020-11-08T11:24:09Z</time>
      </trkpt>
      <trkpt lat="19.067056" lon="-97.272603">
        <ele>4033.404</ele>
        <time>2020-11-08T11:24:13Z</time>
      </trkpt>
      <trkpt lat="19.067099" lon="-97.272623">
        <ele>4033.624</ele>
        <time>2020-11-08T11:24:15Z</time>
      </trkpt>
      <trkpt lat="19.06715" lon="-97.272639">
        <ele>4032.908</ele>
        <time>2020-11-08T11:24:18Z</time>
      </trkpt>
      <trkpt lat="19.0672" lon="-97.272652">
        <ele>4032.592</ele>
        <time>2020-11-08T11:24:24Z</time>
      </trkpt>
      <trkpt lat="19.067227" lon="-97.272694">
        <ele>4032.226</ele>
        <time>2020-11-08T11:24:31Z</time>
      </trkpt>
      <trkpt lat="19.067236" lon="-97.272746">
        <ele>4032.427</ele>
        <time>2020-11-08T11:24:39Z</time>
      </trkpt>
      <trkpt lat="19.067247" lon="-97.272794">
        <ele>4033.759</ele>
        <time>2020-11-08T11:24:45Z</time>
      </trkpt>
      <trkpt lat="19.067265" lon="-97.27284">
        <ele>4035.742</ele>
        <time>2020-11-08T11:24:49Z</time>
      </trkpt>
      <trkpt lat="19.067305" lon="-97.272888">
        <ele>4036.991</ele>
        <time>2020-11-08T11:24:53Z</time>
      </trkpt>
      <trkpt lat="19.067339" lon="-97.27292">
        <ele>4038.075</ele>
        <time>2020-11-08T11:24:56Z</time>
      </trkpt>
      <trkpt lat="19.067382" lon="-97.27296">
        <ele>4036.762</ele>
        <time>2020-11-08T11:25:01Z</time>
      </trkpt>
      <trkpt lat="19.067435" lon="-97.272972">
        <ele>4035.945</ele>
        <time>2020-11-08T11:25:05Z</time>
      </trkpt>
      <trkpt lat="19.067403" lon="-97.272937">
        <ele>4035.447</ele>
        <time>2020-11-08T11:25:11Z</time>
      </trkpt>
      <trkpt lat="19.067457" lon="-97.27295">
        <ele>4034.711</ele>
        <time>2020-11-08T11:25:19Z</time>
      </trkpt>
      <trkpt lat="19.067504" lon="-97.272974">
        <ele>4034.708</ele>
        <time>2020-11-08T11:25:23Z</time>
      </trkpt>
      <trkpt lat="19.06754" lon="-97.273008">
        <ele>4033.570</ele>
        <time>2020-11-08T11:25:28Z</time>
      </trkpt>
      <trkpt lat="19.067591" lon="-97.273033">
        <ele>4033.244</ele>
        <time>2020-11-08T11:25:33Z</time>
      </trkpt>
      <trkpt lat="19.06763" lon="-97.273065">
        <ele>4031.075</ele>
        <time>2020-11-08T11:25:38Z</time>
      </trkpt>
      <trkpt lat="19.067676" lon="-97.27309">
        <ele>4029.327</ele>
        <time>2020-11-08T11:25:43Z</time>
      </trkpt>
      <trkpt lat="19.067715" lon="-97.273116">
        <ele>4028.360</ele>
        <time>2020-11-08T11:25:50Z</time>
      </trkpt>
      <trkpt lat="19.067761" lon="-97.273151">
        <ele>4028.169</ele>
        <time>2020-11-08T11:25:54Z</time>
      </trkpt>
      <trkpt lat="19.067817" lon="-97.273174">
        <ele>4028.413</ele>
        <time>2020-11-08T11:25:58Z</time>
      </trkpt>
      <trkpt lat="19.067862" lon="-97.273181">
        <ele>4028.690</ele>
        <time>2020-11-08T11:26:01Z</time>
      </trkpt>
      <trkpt lat="19.067919" lon="-97.273187">
        <ele>4029.124</ele>
        <time>2020-11-08T11:26:04Z</time>
      </trkpt>
      <trkpt lat="19.067973" lon="-97.27319">
        <ele>4029.004</ele>
        <time>2020-11-08T11:26:08Z</time>
      </trkpt>
      <trkpt lat="19.068008" lon="-97.273222">
        <ele>4028.914</ele>
        <time>2020-11-08T11:26:13Z</time>
      </trkpt>
      <trkpt lat="19.068046" lon="-97.27325">
        <ele>4028.908</ele>
        <time>2020-11-08T11:26:21Z</time>
      </trkpt>
      <trkpt lat="19.068098" lon="-97.273269">
        <ele>4029.398</ele>
        <time>2020-11-08T11:26:28Z</time>
      </trkpt>
      <trkpt lat="19.068139" lon="-97.273308">
        <ele>4029.132</ele>
        <time>2020-11-08T11:26:33Z</time>
      </trkpt>
      <trkpt lat="19.068182" lon="-97.27333">
        <ele>4029.443</ele>
        <time>2020-11-08T11:26:38Z</time>
      </trkpt>
      <trkpt lat="19.068229" lon="-97.273327">
        <ele>4029.685</ele>
        <time>2020-11-08T11:26:42Z</time>
      </trkpt>
      <trkpt lat="19.068274" lon="-97.273328">
        <ele>4029.398</ele>
        <time>2020-11-08T11:26:47Z</time>
      </trkpt>
      <trkpt lat="19.068316" lon="-97.27335">
        <ele>4027.577</ele>
        <time>2020-11-08T11:26:53Z</time>
      </trkpt>
      <trkpt lat="19.068364" lon="-97.273353">
        <ele>4025.241</ele>
        <time>2020-11-08T11:26:58Z</time>
      </trkpt>
      <trkpt lat="19.068411" lon="-97.273349">
        <ele>4023.818</ele>
        <time>2020-11-08T11:27:04Z</time>
      </trkpt>
      <trkpt lat="19.068453" lon="-97.273372">
        <ele>4022.656</ele>
        <time>2020-11-08T11:27:09Z</time>
      </trkpt>
      <trkpt lat="19.068495" lon="-97.273397">
        <ele>4020.759</ele>
        <time>2020-11-08T11:27:14Z</time>
      </trkpt>
      <trkpt lat="19.068543" lon="-97.273384">
        <ele>4019.114</ele>
        <time>2020-11-08T11:27:19Z</time>
      </trkpt>
      <trkpt lat="19.06859" lon="-97.27338">
        <ele>4019.008</ele>
        <time>2020-11-08T11:27:23Z</time>
      </trkpt>
      <trkpt lat="19.068634" lon="-97.27339">
        <ele>4018.561</ele>
        <time>2020-11-08T11:27:27Z</time>
      </trkpt>
      <trkpt lat="19.068684" lon="-97.27342">
        <ele>4018.645</ele>
        <time>2020-11-08T11:27:32Z</time>
      </trkpt>
      <trkpt lat="19.068735" lon="-97.273434">
        <ele>4019.546</ele>
        <time>2020-11-08T11:27:37Z</time>
      </trkpt>
      <trkpt lat="19.068786" lon="-97.273447">
        <ele>4019.618</ele>
        <time>2020-11-08T11:27:43Z</time>
      </trkpt>
      <trkpt lat="19.068834" lon="-97.27345">
        <ele>4020.941</ele>
        <time>2020-11-08T11:27:49Z</time>
      </trkpt>
      <trkpt lat="19.06888" lon="-97.273464">
        <ele>4021.720</ele>
        <time>2020-11-08T11:27:55Z</time>
      </trkpt>
      <trkpt lat="19.068928" lon="-97.273452">
        <ele>4022.624</ele>
        <time>2020-11-08T11:28:00Z</time>
      </trkpt>
      <trkpt lat="19.068972" lon="-97.273475">
        <ele>4022.771</ele>
        <time>2020-11-08T11:28:06Z</time>
      </trkpt>
      <trkpt lat="19.069014" lon="-97.273495">
        <ele>4022.473</ele>
        <time>2020-11-08T11:28:09Z</time>
      </trkpt>
      <trkpt lat="19.069067" lon="-97.273511">
        <ele>4021.885</ele>
        <time>2020-11-08T11:28:14Z</time>
      </trkpt>
      <trkpt lat="19.069107" lon="-97.27355">
        <ele>4022.213</ele>
        <time>2020-11-08T11:28:18Z</time>
      </trkpt>
      <trkpt lat="19.069157" lon="-97.273554">
        <ele>4021.308</ele>
        <time>2020-11-08T11:28:26Z</time>
      </trkpt>
      <trkpt lat="19.069207" lon="-97.273545">
        <ele>4019.513</ele>
        <time>2020-11-08T11:28:30Z</time>
      </trkpt>
      <trkpt lat="19.069262" lon="-97.273539">
        <ele>4017.627</ele>
        <time>2020-11-08T11:28:35Z</time>
      </trkpt>
      <trkpt lat="19.069305" lon="-97.273558">
        <ele>4016.948</ele>
        <time>2020-11-08T11:28:39Z</time>
      </trkpt>
      <trkpt lat="19.06935" lon="-97.273588">
        <ele>4016.990</ele>
        <time>2020-11-08T11:28:48Z</time>
      </trkpt>
      <trkpt lat="19.069391" lon="-97.273621">
        <ele>4015.743</ele>
        <time>2020-11-08T11:28:53Z</time>
      </trkpt>
      <trkpt lat="19.069422" lon="-97.273661">
        <ele>4013.842</ele>
        <time>2020-11-08T11:28:58Z</time>
      </trkpt>
      <trkpt lat="19.069458" lon="-97.273705">
        <ele>4012.226</ele>
        <time>2020-11-08T11:29:04Z</time>
      </trkpt>
      <trkpt lat="19.069501" lon="-97.273734">
        <ele>4012.163</ele>
        <time>2020-11-08T11:29:08Z</time>
      </trkpt>
      <trkpt lat="19.069549" lon="-97.273766">
        <ele>4010.878</ele>
        <time>2020-11-08T11:29:12Z</time>
      </trkpt>
      <trkpt lat="19.069591" lon="-97.2738">
        <ele>4010.433</ele>
        <time>2020-11-08T11:29:17Z</time>
      </trkpt>
      <trkpt lat="19.069635" lon="-97.273827">
        <ele>4008.626</ele>
        <time>2020-11-08T11:29:21Z</time>
      </trkpt>
      <trkpt lat="19.06968" lon="-97.273858">
        <ele>4007.908</ele>
        <time>2020-11-08T11:29:25Z</time>
      </trkpt>
      <trkpt lat="19.069726" lon="-97.273889">
        <ele>4006.323</ele>
        <time>2020-11-08T11:29:29Z</time>
      </trkpt>
      <trkpt lat="19.069766" lon="-97.273915">
        <ele>4005.347</ele>
        <time>2020-11-08T11:29:33Z</time>
      </trkpt>
      <trkpt lat="19.069816" lon="-97.273933">
        <ele>4005.158</ele>
        <time>2020-11-08T11:29:36Z</time>
      </trkpt>
      <trkpt lat="19.069858" lon="-97.273958">
        <ele>4004.210</ele>
        <time>2020-11-08T11:29:40Z</time>
      </trkpt>
      <trkpt lat="19.069902" lon="-97.273995">
        <ele>4003.733</ele>
        <time>2020-11-08T11:29:46Z</time>
      </trkpt>
      <trkpt lat="19.069946" lon="-97.274032">
        <ele>4003.062</ele>
        <time>2020-11-08T11:29:50Z</time>
      </trkpt>
      <trkpt lat="19.069988" lon="-97.274055">
        <ele>4002.676</ele>
        <time>2020-11-08T11:29:53Z</time>
      </trkpt>
      <trkpt lat="19.070033" lon="-97.274077">
        <ele>4001.983</ele>
        <time>2020-11-08T11:29:56Z</time>
      </trkpt>
      <trkpt lat="19.070079" lon="-97.274096">
        <ele>4002.334</ele>
        <time>2020-11-08T11:30:00Z</time>
      </trkpt>
      <trkpt lat="19.070131" lon="-97.274113">
        <ele>4002.955</ele>
        <time>2020-11-08T11:30:04Z</time>
      </trkpt>
      <trkpt lat="19.070186" lon="-97.274133">
        <ele>4002.110</ele>
        <time>2020-11-08T11:30:08Z</time>
      </trkpt>
      <trkpt lat="19.070232" lon="-97.274148">
        <ele>4001.608</ele>
        <time>2020-11-08T11:30:11Z</time>
      </trkpt>
      <trkpt lat="19.07028" lon="-97.274156">
        <ele>4000.939</ele>
        <time>2020-11-08T11:30:15Z</time>
      </trkpt>
      <trkpt lat="19.070327" lon="-97.274159">
        <ele>4000.993</ele>
        <time>2020-11-08T11:30:18Z</time>
      </trkpt>
      <trkpt lat="19.070371" lon="-97.274169">
        <ele>4000.974</ele>
        <time>2020-11-08T11:30:22Z</time>
      </trkpt>
      <trkpt lat="19.070428" lon="-97.274181">
        <ele>4000.986</ele>
        <time>2020-11-08T11:30:27Z</time>
      </trkpt>
      <trkpt lat="19.07049" lon="-97.27419">
        <ele>4001.379</ele>
        <time>2020-11-08T11:30:31Z</time>
      </trkpt>
      <trkpt lat="19.070534" lon="-97.274205">
        <ele>4001.598</ele>
        <time>2020-11-08T11:30:35Z</time>
      </trkpt>
      <trkpt lat="19.070588" lon="-97.274207">
        <ele>4000.822</ele>
        <time>2020-11-08T11:30:40Z</time>
      </trkpt>
      <trkpt lat="19.07064" lon="-97.274213">
        <ele>4000.829</ele>
        <time>2020-11-08T11:30:45Z</time>
      </trkpt>
      <trkpt lat="19.070683" lon="-97.274193">
        <ele>4001.243</ele>
        <time>2020-11-08T11:30:50Z</time>
      </trkpt>
      <trkpt lat="19.070731" lon="-97.274186">
        <ele>4001.464</ele>
        <time>2020-11-08T11:30:56Z</time>
      </trkpt>
      <trkpt lat="19.070783" lon="-97.274185">
        <ele>3999.910</ele>
        <time>2020-11-08T11:31:00Z</time>
      </trkpt>
      <trkpt lat="19.070828" lon="-97.274177">
        <ele>3997.408</ele>
        <time>2020-11-08T11:31:05Z</time>
      </trkpt>
      <trkpt lat="19.07088" lon="-97.274178">
        <ele>3994.720</ele>
        <time>2020-11-08T11:31:09Z</time>
      </trkpt>
      <trkpt lat="19.070939" lon="-97.274186">
        <ele>3993.124</ele>
        <time>2020-11-08T11:31:13Z</time>
      </trkpt>
      <trkpt lat="19.070991" lon="-97.274188">
        <ele>3991.355</ele>
        <time>2020-11-08T11:31:17Z</time>
      </trkpt>
      <trkpt lat="19.071036" lon="-97.2742">
        <ele>3989.837</ele>
        <time>2020-11-08T11:31:22Z</time>
      </trkpt>
      <trkpt lat="19.071077" lon="-97.274222">
        <ele>3990.170</ele>
        <time>2020-11-08T11:31:28Z</time>
      </trkpt>
      <trkpt lat="19.071118" lon="-97.274242">
        <ele>3989.929</ele>
        <time>2020-11-08T11:31:32Z</time>
      </trkpt>
      <trkpt lat="19.071167" lon="-97.274269">
        <ele>3990.233</ele>
        <time>2020-11-08T11:31:36Z</time>
      </trkpt>
      <trkpt lat="19.071217" lon="-97.274295">
        <ele>3990.090</ele>
        <time>2020-11-08T11:31:40Z</time>
      </trkpt>
      <trkpt lat="19.071271" lon="-97.274321">
        <ele>3989.957</ele>
        <time>2020-11-08T11:31:44Z</time>
      </trkpt>
      <trkpt lat="19.071319" lon="-97.274334">
        <ele>3990.200</ele>
        <time>2020-11-08T11:31:48Z</time>
      </trkpt>
      <trkpt lat="19.071364" lon="-97.274346">
        <ele>3989.220</ele>
        <time>2020-11-08T11:31:53Z</time>
      </trkpt>
      <trkpt lat="19.07141" lon="-97.274362">
        <ele>3988.608</ele>
        <time>2020-11-08T11:31:59Z</time>
      </trkpt>
      <trkpt lat="19.07147" lon="-97.274363">
        <ele>3987.881</ele>
        <time>2020-11-08T11:32:04Z</time>
      </trkpt>
      <trkpt lat="19.071517" lon="-97.274373">
        <ele>3986.545</ele>
        <time>2020-11-08T11:32:09Z</time>
      </trkpt>
      <trkpt lat="19.071569" lon="-97.274386">
        <ele>3986.156</ele>
        <time>2020-11-08T11:32:14Z</time>
      </trkpt>
      <trkpt lat="19.071611" lon="-97.274405">
        <ele>3986.358</ele>
        <time>2020-11-08T11:32:18Z</time>
      </trkpt>
      <trkpt lat="19.071654" lon="-97.274421">
        <ele>3987.661</ele>
        <time>2020-11-08T11:32:22Z</time>
      </trkpt>
      <trkpt lat="19.071698" lon="-97.274431">
        <ele>3987.690</ele>
        <time>2020-11-08T11:32:26Z</time>
      </trkpt>
      <trkpt lat="19.071739" lon="-97.274452">
        <ele>3988.074</ele>
        <time>2020-11-08T11:32:31Z</time>
      </trkpt>
      <trkpt lat="19.071788" lon="-97.274476">
        <ele>3988.671</ele>
        <time>2020-11-08T11:32:35Z</time>
      </trkpt>
      <trkpt lat="19.071828" lon="-97.274502">
        <ele>3987.839</ele>
        <time>2020-11-08T11:32:39Z</time>
      </trkpt>
      <trkpt lat="19.071867" lon="-97.274534">
        <ele>3987.701</ele>
        <time>2020-11-08T11:32:44Z</time>
      </trkpt>
      <trkpt lat="19.071903" lon="-97.274568">
        <ele>3989.221</ele>
        <time>2020-11-08T11:32:50Z</time>
      </trkpt>
      <trkpt lat="19.071948" lon="-97.274592">
        <ele>3990.508</ele>
        <time>2020-11-08T11:32:57Z</time>
      </trkpt>
      <trkpt lat="19.071992" lon="-97.274604">
        <ele>3990.999</ele>
        <time>2020-11-08T11:33:03Z</time>
      </trkpt>
      <trkpt lat="19.07204" lon="-97.274622">
        <ele>3990.733</ele>
        <time>2020-11-08T11:33:11Z</time>
      </trkpt>
      <trkpt lat="19.072075" lon="-97.274658">
        <ele>3990.694</ele>
        <time>2020-11-08T11:33:20Z</time>
      </trkpt>
      <trkpt lat="19.072114" lon="-97.274686">
        <ele>3990.946</ele>
        <time>2020-11-08T11:33:32Z</time>
      </trkpt>
      <trkpt lat="19.072104" lon="-97.274736">
        <ele>3993.179</ele>
        <time>2020-11-08T11:34:19Z</time>
      </trkpt>
      <trkpt lat="19.072069" lon="-97.274781">
        <ele>3995.238</ele>
        <time>2020-11-08T11:34:23Z</time>
      </trkpt>
      <trkpt lat="19.072027" lon="-97.274798">
        <ele>3996.542</ele>
        <time>2020-11-08T11:34:56Z</time>
      </trkpt>
      <trkpt lat="19.072042" lon="-97.274849">
        <ele>3996.959</ele>
        <time>2020-11-08T11:37:00Z</time>
      </trkpt>
      <trkpt lat="19.072072" lon="-97.274896">
        <ele>3998.386</ele>
        <time>2020-11-08T11:37:04Z</time>
      </trkpt>
      <trkpt lat="19.072084" lon="-97.274959">
        <ele>3999.260</ele>
        <time>2020-11-08T11:37:09Z</time>
      </trkpt>
      <trkpt lat="19.072084" lon="-97.27501">
        <ele>3998.926</ele>
        <time>2020-11-08T11:37:13Z</time>
      </trkpt>
      <trkpt lat="19.072086" lon="-97.275061">
        <ele>3998.708</ele>
        <time>2020-11-08T11:37:17Z</time>
      </trkpt>
      <trkpt lat="19.07209" lon="-97.275116">
        <ele>3998.254</ele>
        <time>2020-11-08T11:37:22Z</time>
      </trkpt>
      <trkpt lat="19.072084" lon="-97.275171">
        <ele>3999.178</ele>
        <time>2020-11-08T11:37:27Z</time>
      </trkpt>
      <trkpt lat="19.07208" lon="-97.275229">
        <ele>4000.089</ele>
        <time>2020-11-08T11:37:32Z</time>
      </trkpt>
      <trkpt lat="19.072076" lon="-97.275282">
        <ele>4000.281</ele>
        <time>2020-11-08T11:37:35Z</time>
      </trkpt>
      <trkpt lat="19.072081" lon="-97.275341">
        <ele>3999.144</ele>
        <time>2020-11-08T11:37:41Z</time>
      </trkpt>
      <trkpt lat="19.07208" lon="-97.275394">
        <ele>3997.223</ele>
        <time>2020-11-08T11:37:45Z</time>
      </trkpt>
      <trkpt lat="19.072076" lon="-97.275446">
        <ele>3996.187</ele>
        <time>2020-11-08T11:37:52Z</time>
      </trkpt>
      <trkpt lat="19.072071" lon="-97.275503">
        <ele>3995.474</ele>
        <time>2020-11-08T11:37:56Z</time>
      </trkpt>
      <trkpt lat="19.072072" lon="-97.275555">
        <ele>3994.614</ele>
        <time>2020-11-08T11:38:00Z</time>
      </trkpt>
      <trkpt lat="19.072067" lon="-97.275609">
        <ele>3994.954</ele>
        <time>2020-11-08T11:38:04Z</time>
      </trkpt>
      <trkpt lat="19.072073" lon="-97.275665">
        <ele>3995.109</ele>
        <time>2020-11-08T11:38:09Z</time>
      </trkpt>
      <trkpt lat="19.072055" lon="-97.275718">
        <ele>3995.208</ele>
        <time>2020-11-08T11:38:13Z</time>
      </trkpt>
      <trkpt lat="19.07202" lon="-97.275762">
        <ele>3994.167</ele>
        <time>2020-11-08T11:38:18Z</time>
      </trkpt>
      <trkpt lat="19.071975" lon="-97.27578">
        <ele>3993.011</ele>
        <time>2020-11-08T11:38:22Z</time>
      </trkpt>
      <trkpt lat="19.071929" lon="-97.275804">
        <ele>3991.692</ele>
        <time>2020-11-08T11:38:26Z</time>
      </trkpt>
      <trkpt lat="19.071894" lon="-97.275835">
        <ele>3990.364</ele>
        <time>2020-11-08T11:38:30Z</time>
      </trkpt>
      <trkpt lat="19.071851" lon="-97.275854">
        <ele>3989.547</ele>
        <time>2020-11-08T11:38:34Z</time>
      </trkpt>
      <trkpt lat="19.071802" lon="-97.275876">
        <ele>3989.086</ele>
        <time>2020-11-08T11:38:40Z</time>
      </trkpt>
      <trkpt lat="19.071773" lon="-97.275919">
        <ele>3987.130</ele>
        <time>2020-11-08T11:38:45Z</time>
      </trkpt>
      <trkpt lat="19.071737" lon="-97.275956">
        <ele>3985.267</ele>
        <time>2020-11-08T11:38:51Z</time>
      </trkpt>
      <trkpt lat="19.071695" lon="-97.275995">
        <ele>3984.899</ele>
        <time>2020-11-08T11:38:56Z</time>
      </trkpt>
      <trkpt lat="19.071652" lon="-97.276033">
        <ele>3983.407</ele>
        <time>2020-11-08T11:39:01Z</time>
      </trkpt>
      <trkpt lat="19.071608" lon="-97.276057">
        <ele>3982.227</ele>
        <time>2020-11-08T11:39:05Z</time>
      </trkpt>
      <trkpt lat="19.071568" lon="-97.27609">
        <ele>3981.108</ele>
        <time>2020-11-08T11:39:09Z</time>
      </trkpt>
      <trkpt lat="19.071532" lon="-97.276119">
        <ele>3980.045</ele>
        <time>2020-11-08T11:39:13Z</time>
      </trkpt>
      <trkpt lat="19.07149" lon="-97.276145">
        <ele>3979.719</ele>
        <time>2020-11-08T11:39:17Z</time>
      </trkpt>
      <trkpt lat="19.071439" lon="-97.276167">
        <ele>3979.570</ele>
        <time>2020-11-08T11:39:21Z</time>
      </trkpt>
      <trkpt lat="19.071389" lon="-97.276198">
        <ele>3979.412</ele>
        <time>2020-11-08T11:39:26Z</time>
      </trkpt>
      <trkpt lat="19.071353" lon="-97.27624">
        <ele>3979.765</ele>
        <time>2020-11-08T11:39:30Z</time>
      </trkpt>
      <trkpt lat="19.071324" lon="-97.276295">
        <ele>3979.944</ele>
        <time>2020-11-08T11:39:35Z</time>
      </trkpt>
      <trkpt lat="19.071293" lon="-97.276335">
        <ele>3980.048</ele>
        <time>2020-11-08T11:39:39Z</time>
      </trkpt>
      <trkpt lat="19.071264" lon="-97.276372">
        <ele>3980.125</ele>
        <time>2020-11-08T11:39:43Z</time>
      </trkpt>
      <trkpt lat="19.071235" lon="-97.276413">
        <ele>3980.199</ele>
        <time>2020-11-08T11:39:47Z</time>
      </trkpt>
      <trkpt lat="19.071194" lon="-97.27645">
        <ele>3980.107</ele>
        <time>2020-11-08T11:39:51Z</time>
      </trkpt>
      <trkpt lat="19.071153" lon="-97.276473">
        <ele>3980.127</ele>
        <time>2020-11-08T11:39:54Z</time>
      </trkpt>
      <trkpt lat="19.071117" lon="-97.276517">
        <ele>3979.308</ele>
        <time>2020-11-08T11:39:58Z</time>
      </trkpt>
      <trkpt lat="19.07109" lon="-97.276563">
        <ele>3978.825</ele>
        <time>2020-11-08T11:40:02Z</time>
      </trkpt>
      <trkpt lat="19.071075" lon="-97.276612">
        <ele>3979.729</ele>
        <time>2020-11-08T11:40:06Z</time>
      </trkpt>
      <trkpt lat="19.071062" lon="-97.276658">
        <ele>3980.260</ele>
        <time>2020-11-08T11:40:10Z</time>
      </trkpt>
      <trkpt lat="19.071051" lon="-97.276714">
        <ele>3981.352</ele>
        <time>2020-11-08T11:40:14Z</time>
      </trkpt>
      <trkpt lat="19.071049" lon="-97.276774">
        <ele>3982.875</ele>
        <time>2020-11-08T11:40:19Z</time>
      </trkpt>
      <trkpt lat="19.071052" lon="-97.276829">
        <ele>3983.754</ele>
        <time>2020-11-08T11:40:24Z</time>
      </trkpt>
      <trkpt lat="19.071063" lon="-97.276877">
        <ele>3984.678</ele>
        <time>2020-11-08T11:40:30Z</time>
      </trkpt>
      <trkpt lat="19.071076" lon="-97.27693">
        <ele>3985.665</ele>
        <time>2020-11-08T11:40:36Z</time>
      </trkpt>
      <trkpt lat="19.071071" lon="-97.27698">
        <ele>3986.617</ele>
        <time>2020-11-08T11:40:43Z</time>
      </trkpt>
      <trkpt lat="19.071053" lon="-97.277025">
        <ele>3985.687</ele>
        <time>2020-11-08T11:40:48Z</time>
      </trkpt>
      <trkpt lat="19.071045" lon="-97.277076">
        <ele>3984.615</ele>
        <time>2020-11-08T11:40:53Z</time>
      </trkpt>
      <trkpt lat="19.071056" lon="-97.277124">
        <ele>3985.208</ele>
        <time>2020-11-08T11:40:57Z</time>
      </trkpt>
      <trkpt lat="19.071089" lon="-97.277173">
        <ele>3986.827</ele>
        <time>2020-11-08T11:41:01Z</time>
      </trkpt>
      <trkpt lat="19.071132" lon="-97.27721">
        <ele>3988.951</ele>
        <time>2020-11-08T11:41:05Z</time>
      </trkpt>
      <trkpt lat="19.071171" lon="-97.277246">
        <ele>3990.272</ele>
        <time>2020-11-08T11:41:09Z</time>
      </trkpt>
      <trkpt lat="19.071189" lon="-97.277303">
        <ele>3989.464</ele>
        <time>2020-11-08T11:41:13Z</time>
      </trkpt>
      <trkpt lat="19.071171" lon="-97.27735">
        <ele>3988.537</ele>
        <time>2020-11-08T11:41:23Z</time>
      </trkpt>
      <trkpt lat="19.071151" lon="-97.277394">
        <ele>3988.866</ele>
        <time>2020-11-08T11:41:30Z</time>
      </trkpt>
      <trkpt lat="19.071133" lon="-97.277444">
        <ele>3989.430</ele>
        <time>2020-11-08T11:41:39Z</time>
      </trkpt>
      <trkpt lat="19.071144" lon="-97.277491">
        <ele>3989.347</ele>
        <time>2020-11-08T11:41:44Z</time>
      </trkpt>
      <trkpt lat="19.071148" lon="-97.277541">
        <ele>3988.535</ele>
        <time>2020-11-08T11:41:46Z</time>
      </trkpt>
      <trkpt lat="19.071122" lon="-97.277586">
        <ele>3988.486</ele>
        <time>2020-11-08T11:41:50Z</time>
      </trkpt>
      <trkpt lat="19.071099" lon="-97.277641">
        <ele>3990.314</ele>
        <time>2020-11-08T11:41:56Z</time>
      </trkpt>
      <trkpt lat="19.071082" lon="-97.277687">
        <ele>3990.708</ele>
        <time>2020-11-08T11:42:04Z</time>
      </trkpt>
      <trkpt lat="19.0711" lon="-97.277732">
        <ele>3990.929</ele>
        <time>2020-11-08T11:42:12Z</time>
      </trkpt>
      <trkpt lat="19.071096" lon="-97.277788">
        <ele>3991.833</ele>
        <time>2020-11-08T11:42:19Z</time>
      </trkpt>
      <trkpt lat="19.071093" lon="-97.277838">
        <ele>3992.414</ele>
        <time>2020-11-08T11:42:23Z</time>
      </trkpt>
      <trkpt lat="19.071084" lon="-97.277896">
        <ele>3993.186</ele>
        <time>2020-11-08T11:42:28Z</time>
      </trkpt>
      <trkpt lat="19.071075" lon="-97.277949">
        <ele>3993.599</ele>
        <time>2020-11-08T11:42:33Z</time>
      </trkpt>
      <trkpt lat="19.071064" lon="-97.277997">
        <ele>3993.898</ele>
        <time>2020-11-08T11:42:37Z</time>
      </trkpt>
      <trkpt lat="19.071058" lon="-97.278045">
        <ele>3993.672</ele>
        <time>2020-11-08T11:42:41Z</time>
      </trkpt>
      <trkpt lat="19.071067" lon="-97.278098">
        <ele>3993.539</ele>
        <time>2020-11-08T11:42:46Z</time>
      </trkpt>
      <trkpt lat="19.071086" lon="-97.278142">
        <ele>3993.064</ele>
        <time>2020-11-08T11:42:50Z</time>
      </trkpt>
      <trkpt lat="19.071094" lon="-97.278198">
        <ele>3992.306</ele>
        <time>2020-11-08T11:42:55Z</time>
      </trkpt>
      <trkpt lat="19.071071" lon="-97.278242">
        <ele>3992.716</ele>
        <time>2020-11-08T11:43:00Z</time>
      </trkpt>
      <trkpt lat="19.071067" lon="-97.278295">
        <ele>3992.108</ele>
        <time>2020-11-08T11:43:22Z</time>
      </trkpt>
      <trkpt lat="19.071067" lon="-97.27835">
        <ele>3991.412</ele>
        <time>2020-11-08T11:43:38Z</time>
      </trkpt>
      <trkpt lat="19.071066" lon="-97.278405">
        <ele>3992.296</ele>
        <time>2020-11-08T11:43:42Z</time>
      </trkpt>
      <trkpt lat="19.071074" lon="-97.278457">
        <ele>3992.797</ele>
        <time>2020-11-08T11:43:46Z</time>
      </trkpt>
      <trkpt lat="19.071092" lon="-97.278508">
        <ele>3992.219</ele>
        <time>2020-11-08T11:43:51Z</time>
      </trkpt>
      <trkpt lat="19.071104" lon="-97.278556">
        <ele>3991.912</ele>
        <time>2020-11-08T11:43:55Z</time>
      </trkpt>
      <trkpt lat="19.071121" lon="-97.278606">
        <ele>3990.991</ele>
        <time>2020-11-08T11:44:00Z</time>
      </trkpt>
      <trkpt lat="19.07113" lon="-97.278666">
        <ele>3990.385</ele>
        <time>2020-11-08T11:44:04Z</time>
      </trkpt>
      <trkpt lat="19.071136" lon="-97.278714">
        <ele>3989.992</ele>
        <time>2020-11-08T11:44:08Z</time>
      </trkpt>
      <trkpt lat="19.071135" lon="-97.278765">
        <ele>3989.385</ele>
        <time>2020-11-08T11:44:13Z</time>
      </trkpt>
      <trkpt lat="19.071142" lon="-97.278816">
        <ele>3988.589</ele>
        <time>2020-11-08T11:44:19Z</time>
      </trkpt>
      <trkpt lat="19.071132" lon="-97.278868">
        <ele>3987.617</ele>
        <time>2020-11-08T11:44:23Z</time>
      </trkpt>
      <trkpt lat="19.071121" lon="-97.278921">
        <ele>3985.908</ele>
        <time>2020-11-08T11:44:28Z</time>
      </trkpt>
      <trkpt lat="19.071116" lon="-97.278973">
        <ele>3984.954</ele>
        <time>2020-11-08T11:44:33Z</time>
      </trkpt>
      <trkpt lat="19.07111" lon="-97.279021">
        <ele>3984.788</ele>
        <time>2020-11-08T11:44:37Z</time>
      </trkpt>
      <trkpt lat="19.071115" lon="-97.279077">
        <ele>3985.049</ele>
        <time>2020-11-08T11:44:43Z</time>
      </trkpt>
      <trkpt lat="19.071116" lon="-97.279126">
        <ele>3984.441</ele>
        <time>2020-11-08T11:44:47Z</time>
      </trkpt>
      <trkpt lat="19.071115" lon="-97.279178">
        <ele>3984.424</ele>
        <time>2020-11-08T11:44:51Z</time>
      </trkpt>
      <trkpt lat="19.071107" lon="-97.279234">
        <ele>3984.023</ele>
        <time>2020-11-08T11:44:55Z</time>
      </trkpt>
      <trkpt lat="19.071108" lon="-97.279295">
        <ele>3985.087</ele>
        <time>2020-11-08T11:44:59Z</time>
      </trkpt>
      <trkpt lat="19.071118" lon="-97.279345">
        <ele>3985.284</ele>
        <time>2020-11-08T11:45:03Z</time>
      </trkpt>
      <trkpt lat="19.071132" lon="-97.279402">
        <ele>3985.781</ele>
        <time>2020-11-08T11:45:07Z</time>
      </trkpt>
      <trkpt lat="19.071153" lon="-97.279455">
        <ele>3985.261</ele>
        <time>2020-11-08T11:45:11Z</time>
      </trkpt>
      <trkpt lat="19.071206" lon="-97.27948">
        <ele>3982.917</ele>
        <time>2020-11-08T11:45:15Z</time>
      </trkpt>
      <trkpt lat="19.071253" lon="-97.27951">
        <ele>3981.508</ele>
        <time>2020-11-08T11:45:19Z</time>
      </trkpt>
      <trkpt lat="19.071295" lon="-97.279537">
        <ele>3979.994</ele>
        <time>2020-11-08T11:45:23Z</time>
      </trkpt>
      <trkpt lat="19.071342" lon="-97.279546">
        <ele>3978.948</ele>
        <time>2020-11-08T11:45:27Z</time>
      </trkpt>
      <trkpt lat="19.071395" lon="-97.279549">
        <ele>3976.729</ele>
        <time>2020-11-08T11:45:32Z</time>
      </trkpt>
      <trkpt lat="19.071447" lon="-97.279542">
        <ele>3973.831</ele>
        <time>2020-11-08T11:45:37Z</time>
      </trkpt>
      <trkpt lat="19.071497" lon="-97.279548">
        <ele>3972.924</ele>
        <time>2020-11-08T11:45:43Z</time>
      </trkpt>
      <trkpt lat="19.071544" lon="-97.279574">
        <ele>3971.983</ele>
        <time>2020-11-08T11:45:48Z</time>
      </trkpt>
      <trkpt lat="19.071592" lon="-97.279614">
        <ele>3971.797</ele>
        <time>2020-11-08T11:45:52Z</time>
      </trkpt>
      <trkpt lat="19.071618" lon="-97.279662">
        <ele>3971.294</ele>
        <time>2020-11-08T11:45:57Z</time>
      </trkpt>
      <trkpt lat="19.071627" lon="-97.279723">
        <ele>3970.518</ele>
        <time>2020-11-08T11:46:01Z</time>
      </trkpt>
      <trkpt lat="19.071632" lon="-97.279777">
        <ele>3969.798</ele>
        <time>2020-11-08T11:46:05Z</time>
      </trkpt>
      <trkpt lat="19.071632" lon="-97.279832">
        <ele>3969.617</ele>
        <time>2020-11-08T11:46:10Z</time>
      </trkpt>
      <trkpt lat="19.071632" lon="-97.279888">
        <ele>3968.708</ele>
        <time>2020-11-08T11:46:16Z</time>
      </trkpt>
      <trkpt lat="19.071638" lon="-97.279936">
        <ele>3967.467</ele>
        <time>2020-11-08T11:46:20Z</time>
      </trkpt>
      <trkpt lat="19.071647" lon="-97.279986">
        <ele>3966.681</ele>
        <time>2020-11-08T11:46:25Z</time>
      </trkpt>
      <trkpt lat="19.071665" lon="-97.280042">
        <ele>3965.782</ele>
        <time>2020-11-08T11:46:30Z</time>
      </trkpt>
      <trkpt lat="19.071687" lon="-97.280096">
        <ele>3964.014</ele>
        <time>2020-11-08T11:46:35Z</time>
      </trkpt>
      <trkpt lat="19.071717" lon="-97.280149">
        <ele>3963.097</ele>
        <time>2020-11-08T11:46:39Z</time>
      </trkpt>
      <trkpt lat="19.071748" lon="-97.280187">
        <ele>3962.426</ele>
        <time>2020-11-08T11:46:43Z</time>
      </trkpt>
      <trkpt lat="19.071788" lon="-97.280215">
        <ele>3962.880</ele>
        <time>2020-11-08T11:46:47Z</time>
      </trkpt>
      <trkpt lat="19.071829" lon="-97.280235">
        <ele>3963.577</ele>
        <time>2020-11-08T11:46:51Z</time>
      </trkpt>
      <trkpt lat="19.071875" lon="-97.28024">
        <ele>3963.594</ele>
        <time>2020-11-08T11:46:57Z</time>
      </trkpt>
      <trkpt lat="19.071913" lon="-97.280204">
        <ele>3962.757</ele>
        <time>2020-11-08T11:48:06Z</time>
      </trkpt>
      <trkpt lat="19.071954" lon="-97.280161">
        <ele>3962.622</ele>
        <time>2020-11-08T11:48:11Z</time>
      </trkpt>
      <trkpt lat="19.071992" lon="-97.280125">
        <ele>3962.208</ele>
        <time>2020-11-08T11:48:15Z</time>
      </trkpt>
      <trkpt lat="19.072036" lon="-97.280096">
        <ele>3961.565</ele>
        <time>2020-11-08T11:48:19Z</time>
      </trkpt>
      <trkpt lat="19.072085" lon="-97.280069">
        <ele>3960.779</ele>
        <time>2020-11-08T11:48:24Z</time>
      </trkpt>
      <trkpt lat="19.072126" lon="-97.280043">
        <ele>3959.410</ele>
        <time>2020-11-08T11:48:28Z</time>
      </trkpt>
      <trkpt lat="19.072169" lon="-97.280008">
        <ele>3958.272</ele>
        <time>2020-11-08T11:48:32Z</time>
      </trkpt>
      <trkpt lat="19.072217" lon="-97.279979">
        <ele>3957.515</ele>
        <time>2020-11-08T11:48:37Z</time>
      </trkpt>
      <trkpt lat="19.072258" lon="-97.279956">
        <ele>3956.324</ele>
        <time>2020-11-08T11:48:40Z</time>
      </trkpt>
      <trkpt lat="19.072306" lon="-97.279925">
        <ele>3955.278</ele>
        <time>2020-11-08T11:48:45Z</time>
      </trkpt>
      <trkpt lat="19.072346" lon="-97.279895">
        <ele>3953.745</ele>
        <time>2020-11-08T11:48:49Z</time>
      </trkpt>
      <trkpt lat="19.072399" lon="-97.279875">
        <ele>3952.855</ele>
        <time>2020-11-08T11:48:54Z</time>
      </trkpt>
      <trkpt lat="19.072448" lon="-97.279852">
        <ele>3952.307</ele>
        <time>2020-11-08T11:48:58Z</time>
      </trkpt>
      <trkpt lat="19.072495" lon="-97.279824">
        <ele>3952.017</ele>
        <time>2020-11-08T11:49:03Z</time>
      </trkpt>
      <trkpt lat="19.07254" lon="-97.279805">
        <ele>3951.808</ele>
        <time>2020-11-08T11:49:08Z</time>
      </trkpt>
      <trkpt lat="19.072592" lon="-97.279778">
        <ele>3950.931</ele>
        <time>2020-11-08T11:49:12Z</time>
      </trkpt>
      <trkpt lat="19.072636" lon="-97.279751">
        <ele>3950.445</ele>
        <time>2020-11-08T11:49:16Z</time>
      </trkpt>
      <trkpt lat="19.072681" lon="-97.279731">
        <ele>3950.196</ele>
        <time>2020-11-08T11:49:20Z</time>
      </trkpt>
      <trkpt lat="19.072726" lon="-97.27972">
        <ele>3948.738</ele>
        <time>2020-11-08T11:49:24Z</time>
      </trkpt>
      <trkpt lat="19.072767" lon="-97.279691">
        <ele>3947.931</ele>
        <time>2020-11-08T11:49:29Z</time>
      </trkpt>
      <trkpt lat="19.072802" lon="-97.279653">
        <ele>3946.680</ele>
        <time>2020-11-08T11:49:35Z</time>
      </trkpt>
      <trkpt lat="19.072807" lon="-97.279594">
        <ele>3944.624</ele>
        <time>2020-11-08T11:49:39Z</time>
      </trkpt>
      <trkpt lat="19.072832" lon="-97.279541">
        <ele>3943.011</ele>
        <time>2020-11-08T11:49:43Z</time>
      </trkpt>
      <trkpt lat="19.072863" lon="-97.279493">
        <ele>3941.294</ele>
        <time>2020-11-08T11:49:47Z</time>
      </trkpt>
      <trkpt lat="19.072908" lon="-97.279466">
        <ele>3939.357</ele>
        <time>2020-11-08T11:49:51Z</time>
      </trkpt>
      <trkpt lat="19.07296" lon="-97.279474">
        <ele>3938.222</ele>
        <time>2020-11-08T11:49:55Z</time>
      </trkpt>
      <trkpt lat="19.073006" lon="-97.279508">
        <ele>3937.108</ele>
        <time>2020-11-08T11:49:59Z</time>
      </trkpt>
      <trkpt lat="19.07304" lon="-97.279543">
        <ele>3936.985</ele>
        <time>2020-11-08T11:50:03Z</time>
      </trkpt>
      <trkpt lat="19.07307" lon="-97.279579">
        <ele>3937.259</ele>
        <time>2020-11-08T11:50:07Z</time>
      </trkpt>
      <trkpt lat="19.073081" lon="-97.27963">
        <ele>3937.850</ele>
        <time>2020-11-08T11:50:11Z</time>
      </trkpt>
      <trkpt lat="19.073094" lon="-97.279689">
        <ele>3938.542</ele>
        <time>2020-11-08T11:50:15Z</time>
      </trkpt>
      <trkpt lat="19.073109" lon="-97.27974">
        <ele>3938.935</ele>
        <time>2020-11-08T11:50:18Z</time>
      </trkpt>
      <trkpt lat="19.073143" lon="-97.279777">
        <ele>3938.024</ele>
        <time>2020-11-08T11:50:23Z</time>
      </trkpt>
      <trkpt lat="19.073185" lon="-97.279806">
        <ele>3937.088</ele>
        <time>2020-11-08T11:50:28Z</time>
      </trkpt>
      <trkpt lat="19.073229" lon="-97.279839">
        <ele>3937.635</ele>
        <time>2020-11-08T11:50:32Z</time>
      </trkpt>
      <trkpt lat="19.073258" lon="-97.27988">
        <ele>3937.648</ele>
        <time>2020-11-08T11:50:36Z</time>
      </trkpt>
      <trkpt lat="19.073278" lon="-97.279926">
        <ele>3937.261</ele>
        <time>2020-11-08T11:50:39Z</time>
      </trkpt>
      <trkpt lat="19.073294" lon="-97.279978">
        <ele>3936.617</ele>
        <time>2020-11-08T11:50:43Z</time>
      </trkpt>
      <trkpt lat="19.073318" lon="-97.280022">
        <ele>3935.808</ele>
        <time>2020-11-08T11:50:47Z</time>
      </trkpt>
      <trkpt lat="19.073348" lon="-97.280064">
        <ele>3934.170</ele>
        <time>2020-11-08T11:50:53Z</time>
      </trkpt>
      <trkpt lat="19.073396" lon="-97.280092">
        <ele>3932.394</ele>
        <time>2020-11-08T11:50:59Z</time>
      </trkpt>
      <trkpt lat="19.073442" lon="-97.280123">
        <ele>3930.835</ele>
        <time>2020-11-08T11:51:02Z</time>
      </trkpt>
      <trkpt lat="19.073477" lon="-97.280155">
        <ele>3931.547</ele>
        <time>2020-11-08T11:51:05Z</time>
      </trkpt>
      <trkpt lat="19.073501" lon="-97.280197">
        <ele>3931.590</ele>
        <time>2020-11-08T11:51:08Z</time>
      </trkpt>
      <trkpt lat="19.073522" lon="-97.280247">
        <ele>3931.959</ele>
        <time>2020-11-08T11:51:11Z</time>
      </trkpt>
      <trkpt lat="19.073531" lon="-97.280306">
        <ele>3932.143</ele>
        <time>2020-11-08T11:51:14Z</time>
      </trkpt>
      <trkpt lat="19.073527" lon="-97.280365">
        <ele>3932.240</ele>
        <time>2020-11-08T11:51:18Z</time>
      </trkpt>
      <trkpt lat="19.073534" lon="-97.28043">
        <ele>3931.588</ele>
        <time>2020-11-08T11:51:22Z</time>
      </trkpt>
      <trkpt lat="19.073534" lon="-97.28048">
        <ele>3930.724</ele>
        <time>2020-11-08T11:51:27Z</time>
      </trkpt>
      <trkpt lat="19.073541" lon="-97.280528">
        <ele>3929.026</ele>
        <time>2020-11-08T11:51:34Z</time>
      </trkpt>
      <trkpt lat="19.07356" lon="-97.280574">
        <ele>3928.408</ele>
        <time>2020-11-08T11:51:42Z</time>
      </trkpt>
      <trkpt lat="19.073593" lon="-97.280613">
        <ele>3926.494</ele>
        <time>2020-11-08T11:51:47Z</time>
      </trkpt>
      <trkpt lat="19.073641" lon="-97.280651">
        <ele>3924.058</ele>
        <time>2020-11-08T11:51:52Z</time>
      </trkpt>
      <trkpt lat="19.073671" lon="-97.280712">
        <ele>3923.079</ele>
        <time>2020-11-08T11:51:55Z</time>
      </trkpt>
      <trkpt lat="19.073687" lon="-97.280773">
        <ele>3922.051</ele>
        <time>2020-11-08T11:51:57Z</time>
      </trkpt>
      <trkpt lat="19.073693" lon="-97.280834">
        <ele>3922.234</ele>
        <time>2020-11-08T11:51:59Z</time>
      </trkpt>
      <trkpt lat="19.073693" lon="-97.280895">
        <ele>3921.513</ele>
        <time>2020-11-08T11:52:01Z</time>
      </trkpt>
      <trkpt lat="19.073692" lon="-97.280949">
        <ele>3920.757</ele>
        <time>2020-11-08T11:52:03Z</time>
      </trkpt>
      <trkpt lat="19.073713" lon="-97.281004">
        <ele>3919.454</ele>
        <time>2020-11-08T11:52:08Z</time>
      </trkpt>
      <trkpt lat="19.073727" lon="-97.281052">
        <ele>3919.092</ele>
        <time>2020-11-08T11:52:14Z</time>
      </trkpt>
      <trkpt lat="19.073746" lon="-97.281105">
        <ele>3919.673</ele>
        <time>2020-11-08T11:52:19Z</time>
      </trkpt>
      <trkpt lat="19.073751" lon="-97.281165">
        <ele>3918.720</ele>
        <time>2020-11-08T11:52:23Z</time>
      </trkpt>
      <trkpt lat="19.073768" lon="-97.281217">
        <ele>3917.808</ele>
        <time>2020-11-08T11:52:26Z</time>
      </trkpt>
      <trkpt lat="19.073786" lon="-97.281264">
        <ele>3916.915</ele>
        <time>2020-11-08T11:52:30Z</time>
      </trkpt>
      <trkpt lat="19.073796" lon="-97.281315">
        <ele>3915.559</ele>
        <time>2020-11-08T11:52:35Z</time>
      </trkpt>
      <trkpt lat="19.073783" lon="-97.28137">
        <ele>3914.310</ele>
        <time>2020-11-08T11:52:40Z</time>
      </trkpt>
      <trkpt lat="19.073751" lon="-97.281425">
        <ele>3913.682</ele>
        <time>2020-11-08T11:52:43Z</time>
      </trkpt>
      <trkpt lat="19.073726" lon="-97.281488">
        <ele>3913.615</ele>
        <time>2020-11-08T11:52:45Z</time>
      </trkpt>
      <trkpt lat="19.073719" lon="-97.281537">
        <ele>3912.094</ele>
        <time>2020-11-08T11:52:51Z</time>
      </trkpt>
      <trkpt lat="19.073713" lon="-97.28159">
        <ele>3909.818</ele>
        <time>2020-11-08T11:53:04Z</time>
      </trkpt>
      <trkpt lat="19.073673" lon="-97.281628">
        <ele>3910.155</ele>
        <time>2020-11-08T11:53:09Z</time>
      </trkpt>
      <trkpt lat="19.073646" lon="-97.281669">
        <ele>3909.957</ele>
        <time>2020-11-08T11:53:12Z</time>
      </trkpt>
      <trkpt lat="19.073654" lon="-97.281722">
        <ele>3910.200</ele>
        <time>2020-11-08T11:53:18Z</time>
      </trkpt>
      <trkpt lat="19.073642" lon="-97.281779">
        <ele>3910.820</ele>
        <time>2020-11-08T11:53:21Z</time>
      </trkpt>
      <trkpt lat="19.073624" lon="-97.281834">
        <ele>3911.508</ele>
        <time>2020-11-08T11:53:25Z</time>
      </trkpt>
      <trkpt lat="19.073625" lon="-97.281893">
        <ele>3911.551</ele>
        <time>2020-11-08T11:53:29Z</time>
      </trkpt>
      <trkpt lat="19.073633" lon="-97.281941">
        <ele>3910.375</ele>
        <time>2020-11-08T11:53:32Z</time>
      </trkpt>
      <trkpt lat="19.073649" lon="-97.281992">
        <ele>3910.056</ele>
        <time>2020-11-08T11:53:35Z</time>
      </trkpt>
      <trkpt lat="19.073671" lon="-97.282036">
        <ele>3910.628</ele>
        <time>2020-11-08T11:53:38Z</time>
      </trkpt>
      <trkpt lat="19.073699" lon="-97.28208">
        <ele>3910.651</ele>
        <time>2020-11-08T11:53:43Z</time>
      </trkpt>
      <trkpt lat="19.073726" lon="-97.28212">
        <ele>3909.830</ele>
        <time>2020-11-08T11:53:47Z</time>
      </trkpt>
      <trkpt lat="19.07375" lon="-97.282164">
        <ele>3908.184</ele>
        <time>2020-11-08T11:53:52Z</time>
      </trkpt>
      <trkpt lat="19.073775" lon="-97.282213">
        <ele>3906.781</ele>
        <time>2020-11-08T11:53:55Z</time>
      </trkpt>
      <trkpt lat="19.0738" lon="-97.282267">
        <ele>3906.755</ele>
        <time>2020-11-08T11:53:59Z</time>
      </trkpt>
      <trkpt lat="19.073795" lon="-97.282323">
        <ele>3905.107</ele>
        <time>2020-11-08T11:54:05Z</time>
      </trkpt>
      <trkpt lat="19.073775" lon="-97.282371">
        <ele>3902.917</ele>
        <time>2020-11-08T11:54:09Z</time>
      </trkpt>
      <trkpt lat="19.073755" lon="-97.28243">
        <ele>3901.208</ele>
        <time>2020-11-08T11:54:13Z</time>
      </trkpt>
      <trkpt lat="19.073757" lon="-97.282481">
        <ele>3899.821</ele>
        <time>2020-11-08T11:54:16Z</time>
      </trkpt>
      <trkpt lat="19.073761" lon="-97.282534">
        <ele>3899.345</ele>
        <time>2020-11-08T11:54:18Z</time>
      </trkpt>
      <trkpt lat="19.073786" lon="-97.282589">
        <ele>3899.026</ele>
        <time>2020-11-08T11:54:21Z</time>
      </trkpt>
      <trkpt lat="19.073814" lon="-97.282633">
        <ele>3898.488</ele>
        <time>2020-11-08T11:54:23Z</time>
      </trkpt>
      <trkpt lat="19.073831" lon="-97.282685">
        <ele>3896.121</ele>
        <time>2020-11-08T11:54:27Z</time>
      </trkpt>
      <trkpt lat="19.073848" lon="-97.282731">
        <ele>3895.590</ele>
        <time>2020-11-08T11:54:36Z</time>
      </trkpt>
      <trkpt lat="19.073844" lon="-97.282779">
        <ele>3896.334</ele>
        <time>2020-11-08T11:54:42Z</time>
      </trkpt>
      <trkpt lat="19.073857" lon="-97.282834">
        <ele>3897.671</ele>
        <time>2020-11-08T11:54:47Z</time>
      </trkpt>
      <trkpt lat="19.073877" lon="-97.28289">
        <ele>3898.461</ele>
        <time>2020-11-08T11:54:51Z</time>
      </trkpt>
      <trkpt lat="19.073902" lon="-97.282933">
        <ele>3899.321</ele>
        <time>2020-11-08T11:54:55Z</time>
      </trkpt>
      <trkpt lat="19.073932" lon="-97.282981">
        <ele>3901.413</ele>
        <time>2020-11-08T11:54:59Z</time>
      </trkpt>
      <trkpt lat="19.073949" lon="-97.283037">
        <ele>3902.708</ele>
        <time>2020-11-08T11:55:03Z</time>
      </trkpt>
      <trkpt lat="19.073986" lon="-97.283074">
        <ele>3901.552</ele>
        <time>2020-11-08T11:55:09Z</time>
      </trkpt>
      <trkpt lat="19.07401" lon="-97.283122">
        <ele>3900.466</ele>
        <time>2020-11-08T11:55:14Z</time>
      </trkpt>
      <trkpt lat="19.073999" lon="-97.283174">
        <ele>3899.767</ele>
        <time>2020-11-08T11:55:17Z</time>
      </trkpt>
      <trkpt lat="19.073987" lon="-97.283233">
        <ele>3898.969</ele>
        <time>2020-11-08T11:55:23Z</time>
      </trkpt>
      <trkpt lat="19.073982" lon="-97.283285">
        <ele>3897.612</ele>
        <time>2020-11-08T11:55:26Z</time>
      </trkpt>
      <trkpt lat="19.073982" lon="-97.283338">
        <ele>3897.231</ele>
        <time>2020-11-08T11:55:30Z</time>
      </trkpt>
      <trkpt lat="19.073993" lon="-97.283386">
        <ele>3897.465</ele>
        <time>2020-11-08T11:55:34Z</time>
      </trkpt>
      <trkpt lat="19.073983" lon="-97.283438">
        <ele>3894.752</ele>
        <time>2020-11-08T11:55:40Z</time>
      </trkpt>
      <trkpt lat="19.073971" lon="-97.28349">
        <ele>3892.389</ele>
        <time>2020-11-08T11:55:45Z</time>
      </trkpt>
      <trkpt lat="19.07397" lon="-97.283542">
        <ele>3890.506</ele>
        <time>2020-11-08T11:55:52Z</time>
      </trkpt>
      <trkpt lat="19.07397" lon="-97.283595">
        <ele>3887.826</ele>
        <time>2020-11-08T11:56:00Z</time>
      </trkpt>
      <trkpt lat="19.073989" lon="-97.283651">
        <ele>3886.608</ele>
        <time>2020-11-08T11:56:06Z</time>
      </trkpt>
      <trkpt lat="19.074001" lon="-97.283703">
        <ele>3886.734</ele>
        <time>2020-11-08T11:56:09Z</time>
      </trkpt>
      <trkpt lat="19.073992" lon="-97.28375">
        <ele>3886.358</ele>
        <time>2020-11-08T11:56:11Z</time>
      </trkpt>
      <trkpt lat="19.073986" lon="-97.283811">
        <ele>3886.569</ele>
        <time>2020-11-08T11:56:15Z</time>
      </trkpt>
      <trkpt lat="19.073986" lon="-97.283867">
        <ele>3885.861</ele>
        <time>2020-11-08T11:56:19Z</time>
      </trkpt>
      <trkpt lat="19.073978" lon="-97.283919">
        <ele>3886.644</ele>
        <time>2020-11-08T11:56:23Z</time>
      </trkpt>
      <trkpt lat="19.073981" lon="-97.283975">
        <ele>3887.153</ele>
        <time>2020-11-08T11:56:27Z</time>
      </trkpt>
      <trkpt lat="19.073989" lon="-97.284034">
        <ele>3888.277</ele>
        <time>2020-11-08T11:56:30Z</time>
      </trkpt>
      <trkpt lat="19.074007" lon="-97.284079">
        <ele>3888.454</ele>
        <time>2020-11-08T11:56:34Z</time>
      </trkpt>
      <trkpt lat="19.074037" lon="-97.284121">
        <ele>3888.922</ele>
        <time>2020-11-08T11:56:40Z</time>
      </trkpt>
      <trkpt lat="19.074062" lon="-97.284161">
        <ele>3889.262</ele>
        <time>2020-11-08T11:56:46Z</time>
      </trkpt>
      <trkpt lat="19.074092" lon="-97.284205">
        <ele>3889.808</ele>
        <time>2020-11-08T11:56:50Z</time>
      </trkpt>
      <trkpt lat="19.074113" lon="-97.284258">
        <ele>3889.008</ele>
        <time>2020-11-08T11:56:54Z</time>
      </trkpt>
      <trkpt lat="19.074127" lon="-97.284308">
        <ele>3888.558</ele>
        <time>2020-11-08T11:56:57Z</time>
      </trkpt>
      <trkpt lat="19.074135" lon="-97.284368">
        <ele>3889.082</ele>
        <time>2020-11-08T11:57:01Z</time>
      </trkpt>
      <trkpt lat="19.074137" lon="-97.284419">
        <ele>3889.383</ele>
        <time>2020-11-08T11:57:05Z</time>
      </trkpt>
      <trkpt lat="19.074125" lon="-97.284474">
        <ele>3889.175</ele>
        <time>2020-11-08T11:57:08Z</time>
      </trkpt>
      <trkpt lat="19.074109" lon="-97.284529">
        <ele>3889.448</ele>
        <time>2020-11-08T11:57:11Z</time>
      </trkpt>
      <trkpt lat="19.074105" lon="-97.284588">
        <ele>3889.687</ele>
        <time>2020-11-08T11:57:14Z</time>
      </trkpt>
      <trkpt lat="19.074103" lon="-97.284642">
        <ele>3889.791</ele>
        <time>2020-11-08T11:57:17Z</time>
      </trkpt>
      <trkpt lat="19.074116" lon="-97.284693">
        <ele>3888.688</ele>
        <time>2020-11-08T11:57:24Z</time>
      </trkpt>
      <trkpt lat="19.074111" lon="-97.284744">
        <ele>3890.384</ele>
        <time>2020-11-08T11:57:28Z</time>
      </trkpt>
      <trkpt lat="19.074111" lon="-97.284806">
        <ele>3892.507</ele>
        <time>2020-11-08T11:57:32Z</time>
      </trkpt>
      <trkpt lat="19.074107" lon="-97.284857">
        <ele>3893.017</ele>
        <time>2020-11-08T11:57:37Z</time>
      </trkpt>
      <trkpt lat="19.074124" lon="-97.284905">
        <ele>3895.308</ele>
        <time>2020-11-08T11:57:44Z</time>
      </trkpt>
      <trkpt lat="19.074155" lon="-97.28494">
        <ele>3894.734</ele>
        <time>2020-11-08T11:57:48Z</time>
      </trkpt>
      <trkpt lat="19.074164" lon="-97.284989">
        <ele>3894.728</ele>
        <time>2020-11-08T11:57:55Z</time>
      </trkpt>
      <trkpt lat="19.074135" lon="-97.285028">
        <ele>3894.399</ele>
        <time>2020-11-08T11:58:14Z</time>
      </trkpt>
      <trkpt lat="19.07414" lon="-97.285078">
        <ele>3891.771</ele>
        <time>2020-11-08T11:58:16Z</time>
      </trkpt>
      <trkpt lat="19.074146" lon="-97.285136">
        <ele>3890.934</ele>
        <time>2020-11-08T11:58:18Z</time>
      </trkpt>
      <trkpt lat="19.074151" lon="-97.285186">
        <ele>3890.033</ele>
        <time>2020-11-08T11:58:20Z</time>
      </trkpt>
      <trkpt lat="19.074164" lon="-97.285234">
        <ele>3888.727</ele>
        <time>2020-11-08T11:58:23Z</time>
      </trkpt>
      <trkpt lat="19.074181" lon="-97.28529">
        <ele>3888.714</ele>
        <time>2020-11-08T11:58:27Z</time>
      </trkpt>
      <trkpt lat="19.07418" lon="-97.285348">
        <ele>3889.159</ele>
        <time>2020-11-08T11:58:30Z</time>
      </trkpt>
      <trkpt lat="19.074167" lon="-97.2854">
        <ele>3888.903</ele>
        <time>2020-11-08T11:58:32Z</time>
      </trkpt>
      <trkpt lat="19.074152" lon="-97.285452">
        <ele>3888.823</ele>
        <time>2020-11-08T11:58:34Z</time>
      </trkpt>
      <trkpt lat="19.074144" lon="-97.285499">
        <ele>3888.308</ele>
        <time>2020-11-08T11:58:36Z</time>
      </trkpt>
      <trkpt lat="19.074155" lon="-97.285552">
        <ele>3887.211</ele>
        <time>2020-11-08T11:58:39Z</time>
      </trkpt>
      <trkpt lat="19.074171" lon="-97.285597">
        <ele>3886.695</ele>
        <time>2020-11-08T11:58:44Z</time>
      </trkpt>
      <trkpt lat="19.074185" lon="-97.285662">
        <ele>3886.696</ele>
        <time>2020-11-08T11:58:48Z</time>
      </trkpt>
      <trkpt lat="19.074188" lon="-97.285724">
        <ele>3888.278</ele>
        <time>2020-11-08T11:58:51Z</time>
      </trkpt>
      <trkpt lat="19.074176" lon="-97.285777">
        <ele>3890.091</ele>
        <time>2020-11-08T11:58:54Z</time>
      </trkpt>
      <trkpt lat="19.074173" lon="-97.28584">
        <ele>3891.580</ele>
        <time>2020-11-08T11:58:57Z</time>
      </trkpt>
      <trkpt lat="19.074167" lon="-97.285892">
        <ele>3892.444</ele>
        <time>2020-11-08T11:59:00Z</time>
      </trkpt>
      <trkpt lat="19.074143" lon="-97.285945">
        <ele>3892.521</ele>
        <time>2020-11-08T11:59:03Z</time>
      </trkpt>
      <trkpt lat="19.074117" lon="-97.286005">
        <ele>3892.262</ele>
        <time>2020-11-08T11:59:05Z</time>
      </trkpt>
      <trkpt lat="19.074102" lon="-97.286074">
        <ele>3892.083</ele>
        <time>2020-11-08T11:59:07Z</time>
      </trkpt>
      <trkpt lat="19.074096" lon="-97.286147">
        <ele>3892.711</ele>
        <time>2020-11-08T11:59:09Z</time>
      </trkpt>
      <trkpt lat="19.074104" lon="-97.286212">
        <ele>3893.108</ele>
        <time>2020-11-08T11:59:11Z</time>
      </trkpt>
      <trkpt lat="19.074123" lon="-97.286281">
        <ele>3893.752</ele>
        <time>2020-11-08T11:59:13Z</time>
      </trkpt>
      <trkpt lat="19.07413" lon="-97.286343">
        <ele>3893.386</ele>
        <time>2020-11-08T11:59:15Z</time>
      </trkpt>
      <trkpt lat="19.074133" lon="-97.286398">
        <ele>3893.587</ele>
        <time>2020-11-08T11:59:17Z</time>
      </trkpt>
      <trkpt lat="19.07413" lon="-97.286453">
        <ele>3893.269</ele>
        <time>2020-11-08T11:59:19Z</time>
      </trkpt>
      <trkpt lat="19.074116" lon="-97.286498">
        <ele>3892.672</ele>
        <time>2020-11-08T11:59:21Z</time>
      </trkpt>
      <trkpt lat="19.074083" lon="-97.286559">
        <ele>3892.641</ele>
        <time>2020-11-08T11:59:24Z</time>
      </trkpt>
      <trkpt lat="19.074045" lon="-97.28661">
        <ele>3892.275</ele>
        <time>2020-11-08T11:59:26Z</time>
      </trkpt>
      <trkpt lat="19.074017" lon="-97.286653">
        <ele>3891.272</ele>
        <time>2020-11-08T11:59:28Z</time>
      </trkpt>
      <trkpt lat="19.07404" lon="-97.286699">
        <ele>3889.458</ele>
        <time>2020-11-08T11:59:35Z</time>
      </trkpt>
      <trkpt lat="19.074053" lon="-97.286747">
        <ele>3888.352</ele>
        <time>2020-11-08T11:59:39Z</time>
      </trkpt>
      <trkpt lat="19.074064" lon="-97.286798">
        <ele>3887.217</ele>
        <time>2020-11-08T11:59:43Z</time>
      </trkpt>
      <trkpt lat="19.074048" lon="-97.28685">
        <ele>3885.808</ele>
        <time>2020-11-08T11:59:48Z</time>
      </trkpt>
      <trkpt lat="19.074006" lon="-97.286874">
        <ele>3884.911</ele>
        <time>2020-11-08T11:59:51Z</time>
      </trkpt>
      <trkpt lat="19.073957" lon="-97.28691">
        <ele>3883.695</ele>
        <time>2020-11-08T11:59:55Z</time>
      </trkpt>
      <trkpt lat="19.073912" lon="-97.286928">
        <ele>3882.826</ele>
        <time>2020-11-08T11:59:58Z</time>
      </trkpt>
      <trkpt lat="19.073862" lon="-97.286924">
        <ele>3881.988</ele>
        <time>2020-11-08T12:00:02Z</time>
      </trkpt>
      <trkpt lat="19.073812" lon="-97.286918">
        <ele>3880.231</ele>
        <time>2020-11-08T12:00:06Z</time>
      </trkpt>
      <trkpt lat="19.073769" lon="-97.286937">
        <ele>3879.270</ele>
        <time>2020-11-08T12:00:09Z</time>
      </trkpt>
      <trkpt lat="19.073724" lon="-97.286982">
        <ele>3879.834</ele>
        <time>2020-11-08T12:00:13Z</time>
      </trkpt>
      <trkpt lat="19.073681" lon="-97.28701">
        <ele>3879.741</ele>
        <time>2020-11-08T12:00:15Z</time>
      </trkpt>
      <trkpt lat="19.073693" lon="-97.287057">
        <ele>3877.786</ele>
        <time>2020-11-08T12:00:20Z</time>
      </trkpt>
      <trkpt lat="19.073696" lon="-97.287112">
        <ele>3876.160</ele>
        <time>2020-11-08T12:00:27Z</time>
      </trkpt>
      <trkpt lat="19.073726" lon="-97.287168">
        <ele>3875.126</ele>
        <time>2020-11-08T12:00:31Z</time>
      </trkpt>
      <trkpt lat="19.073739" lon="-97.287214">
        <ele>3874.108</ele>
        <time>2020-11-08T12:00:33Z</time>
      </trkpt>
      <trkpt lat="19.073754" lon="-97.287264">
        <ele>3873.524</ele>
        <time>2020-11-08T12:00:35Z</time>
      </trkpt>
      <trkpt lat="19.073774" lon="-97.287316">
        <ele>3873.128</ele>
        <time>2020-11-08T12:00:37Z</time>
      </trkpt>
      <trkpt lat="19.073786" lon="-97.28737">
        <ele>3872.599</ele>
        <time>2020-11-08T12:00:39Z</time>
      </trkpt>
      <trkpt lat="19.073793" lon="-97.287423">
        <ele>3871.731</ele>
        <time>2020-11-08T12:00:41Z</time>
      </trkpt>
      <trkpt lat="19.073796" lon="-97.287473">
        <ele>3869.684</ele>
        <time>2020-11-08T12:00:44Z</time>
      </trkpt>
      <trkpt lat="19.073824" lon="-97.287516">
        <ele>3868.043</ele>
        <time>2020-11-08T12:00:48Z</time>
      </trkpt>
      <trkpt lat="19.07387" lon="-97.28755">
        <ele>3867.437</ele>
        <time>2020-11-08T12:00:52Z</time>
      </trkpt>
      <trkpt lat="19.073912" lon="-97.287587">
        <ele>3866.764</ele>
        <time>2020-11-08T12:00:56Z</time>
      </trkpt>
      <trkpt lat="19.073961" lon="-97.287622">
        <ele>3866.762</ele>
        <time>2020-11-08T12:00:59Z</time>
      </trkpt>
      <trkpt lat="19.074004" lon="-97.287661">
        <ele>3868.383</ele>
        <time>2020-11-08T12:01:02Z</time>
      </trkpt>
      <trkpt lat="19.074047" lon="-97.287708">
        <ele>3869.611</ele>
        <time>2020-11-08T12:01:05Z</time>
      </trkpt>
      <trkpt lat="19.074115" lon="-97.287741">
        <ele>3870.008</ele>
        <time>2020-11-08T12:01:07Z</time>
      </trkpt>
      <trkpt lat="19.074174" lon="-97.287773">
        <ele>3869.832</ele>
        <time>2020-11-08T12:01:09Z</time>
      </trkpt>
      <trkpt lat="19.074217" lon="-97.287808">
        <ele>3869.736</ele>
        <time>2020-11-08T12:01:11Z</time>
      </trkpt>
      <trkpt lat="19.074262" lon="-97.287857">
        <ele>3870.097</ele>
        <time>2020-11-08T12:01:13Z</time>
      </trkpt>
      <trkpt lat="19.07431" lon="-97.287917">
        <ele>3870.219</ele>
        <time>2020-11-08T12:01:15Z</time>
      </trkpt>
      <trkpt lat="19.07436" lon="-97.287986">
        <ele>3869.942</ele>
        <time>2020-11-08T12:01:17Z</time>
      </trkpt>
      <trkpt lat="19.074408" lon="-97.288057">
        <ele>3868.911</ele>
        <time>2020-11-08T12:01:19Z</time>
      </trkpt>
      <trkpt lat="19.074448" lon="-97.288118">
        <ele>3868.715</ele>
        <time>2020-11-08T12:01:21Z</time>
      </trkpt>
      <trkpt lat="19.074481" lon="-97.288169">
        <ele>3867.882</ele>
        <time>2020-11-08T12:01:23Z</time>
      </trkpt>
      <trkpt lat="19.074514" lon="-97.28822">
        <ele>3866.997</ele>
        <time>2020-11-08T12:01:25Z</time>
      </trkpt>
      <trkpt lat="19.07454" lon="-97.288268">
        <ele>3867.123</ele>
        <time>2020-11-08T12:01:27Z</time>
      </trkpt>
      <trkpt lat="19.074561" lon="-97.288324">
        <ele>3868.025</ele>
        <time>2020-11-08T12:01:29Z</time>
      </trkpt>
      <trkpt lat="19.074582" lon="-97.288369">
        <ele>3869.008</ele>
        <time>2020-11-08T12:01:31Z</time>
      </trkpt>
      <trkpt lat="19.074625" lon="-97.288425">
        <ele>3869.285</ele>
        <time>2020-11-08T12:01:34Z</time>
      </trkpt>
      <trkpt lat="19.074656" lon="-97.288477">
        <ele>3869.399</ele>
        <time>2020-11-08T12:01:37Z</time>
      </trkpt>
      <trkpt lat="19.074686" lon="-97.288516">
        <ele>3869.840</ele>
        <time>2020-11-08T12:01:39Z</time>
      </trkpt>
      <trkpt lat="19.074727" lon="-97.288549">
        <ele>3869.352</ele>
        <time>2020-11-08T12:01:41Z</time>
      </trkpt>
      <trkpt lat="19.07476" lon="-97.288584">
        <ele>3869.865</ele>
        <time>2020-11-08T12:01:43Z</time>
      </trkpt>
      <trkpt lat="19.074768" lon="-97.28864">
        <ele>3870.134</ele>
        <time>2020-11-08T12:01:45Z</time>
      </trkpt>
      <trkpt lat="19.074767" lon="-97.288697">
        <ele>3870.758</ele>
        <time>2020-11-08T12:01:47Z</time>
      </trkpt>
      <trkpt lat="19.074792" lon="-97.28875">
        <ele>3870.255</ele>
        <time>2020-11-08T12:01:50Z</time>
      </trkpt>
      <trkpt lat="19.074824" lon="-97.288785">
        <ele>3871.173</ele>
        <time>2020-11-08T12:01:53Z</time>
      </trkpt>
      <trkpt lat="19.07485" lon="-97.288833">
        <ele>3872.185</ele>
        <time>2020-11-08T12:01:56Z</time>
      </trkpt>
      <trkpt lat="19.074873" lon="-97.288895">
        <ele>3872.713</ele>
        <time>2020-11-08T12:01:59Z</time>
      </trkpt>
      <trkpt lat="19.07489" lon="-97.288944">
        <ele>3872.208</ele>
        <time>2020-11-08T12:02:01Z</time>
      </trkpt>
      <trkpt lat="19.074908" lon="-97.288992">
        <ele>3871.943</ele>
        <time>2020-11-08T12:02:03Z</time>
      </trkpt>
      <trkpt lat="19.074906" lon="-97.289069">
        <ele>3872.197</ele>
        <time>2020-11-08T12:02:06Z</time>
      </trkpt>
      <trkpt lat="19.074894" lon="-97.289123">
        <ele>3872.688</ele>
        <time>2020-11-08T12:02:08Z</time>
      </trkpt>
      <trkpt lat="19.07487" lon="-97.289175">
        <ele>3872.190</ele>
        <time>2020-11-08T12:02:11Z</time>
      </trkpt>
      <trkpt lat="19.074854" lon="-97.289223">
        <ele>3872.663</ele>
        <time>2020-11-08T12:02:14Z</time>
      </trkpt>
      <trkpt lat="19.074848" lon="-97.289298">
        <ele>3874.142</ele>
        <time>2020-11-08T12:02:17Z</time>
      </trkpt>
      <trkpt lat="19.074847" lon="-97.289357">
        <ele>3875.086</ele>
        <time>2020-11-08T12:02:19Z</time>
      </trkpt>
      <trkpt lat="19.074846" lon="-97.289419">
        <ele>3875.533</ele>
        <time>2020-11-08T12:02:21Z</time>
      </trkpt>
      <trkpt lat="19.074844" lon="-97.289468">
        <ele>3876.265</ele>
        <time>2020-11-08T12:02:23Z</time>
      </trkpt>
      <trkpt lat="19.074843" lon="-97.289519">
        <ele>3877.068</ele>
        <time>2020-11-08T12:02:26Z</time>
      </trkpt>
      <trkpt lat="19.074843" lon="-97.289581">
        <ele>3878.714</ele>
        <time>2020-11-08T12:02:31Z</time>
      </trkpt>
      <trkpt lat="19.07484" lon="-97.28964">
        <ele>3879.708</ele>
        <time>2020-11-08T12:02:34Z</time>
      </trkpt>
      <trkpt lat="19.074844" lon="-97.289709">
        <ele>3880.792</ele>
        <time>2020-11-08T12:02:37Z</time>
      </trkpt>
      <trkpt lat="19.074853" lon="-97.289763">
        <ele>3881.796</ele>
        <time>2020-11-08T12:02:39Z</time>
      </trkpt>
      <trkpt lat="19.074872" lon="-97.28982">
        <ele>3881.537</ele>
        <time>2020-11-08T12:02:42Z</time>
      </trkpt>
      <trkpt lat="19.074883" lon="-97.289869">
        <ele>3879.819</ele>
        <time>2020-11-08T12:02:47Z</time>
      </trkpt>
      <trkpt lat="19.074907" lon="-97.289918">
        <ele>3879.652</ele>
        <time>2020-11-08T12:02:51Z</time>
      </trkpt>
      <trkpt lat="19.074932" lon="-97.289977">
        <ele>3879.561</ele>
        <time>2020-11-08T12:02:54Z</time>
      </trkpt>
      <trkpt lat="19.07495" lon="-97.290028">
        <ele>3879.485</ele>
        <time>2020-11-08T12:02:58Z</time>
      </trkpt>
      <trkpt lat="19.074981" lon="-97.290068">
        <ele>3879.472</ele>
        <time>2020-11-08T12:03:02Z</time>
      </trkpt>
      <trkpt lat="19.075006" lon="-97.290125">
        <ele>3880.643</ele>
        <time>2020-11-08T12:03:05Z</time>
      </trkpt>
      <trkpt lat="19.075023" lon="-97.290192">
        <ele>3881.764</ele>
        <time>2020-11-08T12:03:08Z</time>
      </trkpt>
      <trkpt lat="19.075045" lon="-97.290256">
        <ele>3881.610</ele>
        <time>2020-11-08T12:03:11Z</time>
      </trkpt>
      <trkpt lat="19.075066" lon="-97.290307">
        <ele>3881.508</ele>
        <time>2020-11-08T12:03:14Z</time>
      </trkpt>
      <trkpt lat="19.075091" lon="-97.290352">
        <ele>3882.740</ele>
        <time>2020-11-08T12:03:17Z</time>
      </trkpt>
      <trkpt lat="19.075121" lon="-97.290399">
        <ele>3885.054</ele>
        <time>2020-11-08T12:03:20Z</time>
      </trkpt>
      <trkpt lat="19.075141" lon="-97.290448">
        <ele>3886.885</ele>
        <time>2020-11-08T12:03:23Z</time>
      </trkpt>
      <trkpt lat="19.075152" lon="-97.290502">
        <ele>3886.327</ele>
        <time>2020-11-08T12:03:26Z</time>
      </trkpt>
      <trkpt lat="19.075141" lon="-97.290567">
        <ele>3886.450</ele>
        <time>2020-11-08T12:03:29Z</time>
      </trkpt>
      <trkpt lat="19.075119" lon="-97.29063">
        <ele>3886.849</ele>
        <time>2020-11-08T12:03:32Z</time>
      </trkpt>
      <trkpt lat="19.075099" lon="-97.290673">
        <ele>3887.993</ele>
        <time>2020-11-08T12:03:34Z</time>
      </trkpt>
      <trkpt lat="19.075081" lon="-97.290734">
        <ele>3888.190</ele>
        <time>2020-11-08T12:03:36Z</time>
      </trkpt>
      <trkpt lat="19.075077" lon="-97.290784">
        <ele>3887.839</ele>
        <time>2020-11-08T12:03:37Z</time>
      </trkpt>
      <trkpt lat="19.075094" lon="-97.29094">
        <ele>3888.001</ele>
        <time>2020-11-08T12:03:39Z</time>
      </trkpt>
      <trkpt lat="19.075126" lon="-97.291103">
        <ele>3888.921</ele>
        <time>2020-11-08T12:03:41Z</time>
      </trkpt>
      <trkpt lat="19.075164" lon="-97.291231">
        <ele>3889.508</ele>
        <time>2020-11-08T12:03:43Z</time>
      </trkpt>
      <trkpt lat="19.075204" lon="-97.291297">
        <ele>3889.059</ele>
        <time>2020-11-08T12:03:45Z</time>
      </trkpt>
      <trkpt lat="19.075237" lon="-97.291349">
        <ele>3888.373</ele>
        <time>2020-11-08T12:03:47Z</time>
      </trkpt>
      <trkpt lat="19.075273" lon="-97.291408">
        <ele>3887.954</ele>
        <time>2020-11-08T12:03:50Z</time>
      </trkpt>
      <trkpt lat="19.075298" lon="-97.291451">
        <ele>3887.356</ele>
        <time>2020-11-08T12:03:52Z</time>
      </trkpt>
      <trkpt lat="19.075336" lon="-97.291489">
        <ele>3887.359</ele>
        <time>2020-11-08T12:03:54Z</time>
      </trkpt>
      <trkpt lat="19.075383" lon="-97.291535">
        <ele>3887.798</ele>
        <time>2020-11-08T12:03:57Z</time>
      </trkpt>
      <trkpt lat="19.075421" lon="-97.291567">
        <ele>3889.122</ele>
        <time>2020-11-08T12:04:00Z</time>
      </trkpt>
      <trkpt lat="19.075458" lon="-97.291601">
        <ele>3889.659</ele>
        <time>2020-11-08T12:04:02Z</time>
      </trkpt>
      <trkpt lat="19.075504" lon="-97.291654">
        <ele>3889.512</ele>
        <time>2020-11-08T12:04:04Z</time>
      </trkpt>
      <trkpt lat="19.075542" lon="-97.291691">
        <ele>3889.832</ele>
        <time>2020-11-08T12:04:06Z</time>
      </trkpt>
      <trkpt lat="19.075583" lon="-97.291722">
        <ele>3890.005</ele>
        <time>2020-11-08T12:04:10Z</time>
      </trkpt>
      <trkpt lat="19.075628" lon="-97.291755">
        <ele>3889.708</ele>
        <time>2020-11-08T12:04:14Z</time>
      </trkpt>
      <trkpt lat="19.07567" lon="-97.291774">
        <ele>3889.957</ele>
        <time>2020-11-08T12:04:18Z</time>
      </trkpt>
      <trkpt lat="19.075707" lon="-97.291814">
        <ele>3888.451</ele>
        <time>2020-11-08T12:04:24Z</time>
      </trkpt>
      <trkpt lat="19.075735" lon="-97.291863">
        <ele>3887.532</ele>
        <time>2020-11-08T12:04:28Z</time>
      </trkpt>
      <trkpt lat="19.075768" lon="-97.291901">
        <ele>3887.454</ele>
        <time>2020-11-08T12:04:32Z</time>
      </trkpt>
      <trkpt lat="19.075814" lon="-97.291928">
        <ele>3885.377</ele>
        <time>2020-11-08T12:04:38Z</time>
      </trkpt>
      <trkpt lat="19.075855" lon="-97.291951">
        <ele>3883.336</ele>
        <time>2020-11-08T12:04:41Z</time>
      </trkpt>
      <trkpt lat="19.07587" lon="-97.291999">
        <ele>3882.590</ele>
        <time>2020-11-08T12:04:45Z</time>
      </trkpt>
      <trkpt lat="19.075903" lon="-97.292039">
        <ele>3882.887</ele>
        <time>2020-11-08T12:04:49Z</time>
      </trkpt>
      <trkpt lat="19.075918" lon="-97.292088">
        <ele>3884.258</ele>
        <time>2020-11-08T12:04:59Z</time>
      </trkpt>
      <trkpt lat="19.07594" lon="-97.292133">
        <ele>3884.252</ele>
        <time>2020-11-08T12:05:04Z</time>
      </trkpt>
      <trkpt lat="19.075968" lon="-97.29218">
        <ele>3884.217</ele>
        <time>2020-11-08T12:05:07Z</time>
      </trkpt>
      <trkpt lat="19.075997" lon="-97.292226">
        <ele>3883.808</ele>
        <time>2020-11-08T12:05:10Z</time>
      </trkpt>
      <trkpt lat="19.076001" lon="-97.292277">
        <ele>3882.481</ele>
        <time>2020-11-08T12:05:12Z</time>
      </trkpt>
      <trkpt lat="19.076022" lon="-97.292342">
        <ele>3881.535</ele>
        <time>2020-11-08T12:05:15Z</time>
      </trkpt>
      <trkpt lat="19.076055" lon="-97.29238">
        <ele>3880.246</ele>
        <time>2020-11-08T12:05:17Z</time>
      </trkpt>
      <trkpt lat="19.076113" lon="-97.292415">
        <ele>3880.268</ele>
        <time>2020-11-08T12:05:20Z</time>
      </trkpt>
      <trkpt lat="19.076166" lon="-97.292427">
        <ele>3880.241</ele>
        <time>2020-11-08T12:05:23Z</time>
      </trkpt>
      <trkpt lat="19.076221" lon="-97.292447">
        <ele>3879.480</ele>
        <time>2020-11-08T12:05:26Z</time>
      </trkpt>
      <trkpt lat="19.076253" lon="-97.292482">
        <ele>3880.114</ele>
        <time>2020-11-08T12:05:29Z</time>
      </trkpt>
      <trkpt lat="19.076253" lon="-97.292531">
        <ele>3880.941</ele>
        <time>2020-11-08T12:05:32Z</time>
      </trkpt>
      <trkpt lat="19.076244" lon="-97.292586">
        <ele>3879.899</ele>
        <time>2020-11-08T12:05:37Z</time>
      </trkpt>
      <trkpt lat="19.076257" lon="-97.292635">
        <ele>3879.107</ele>
        <time>2020-11-08T12:05:40Z</time>
      </trkpt>
      <trkpt lat="19.076298" lon="-97.29267">
        <ele>3878.727</ele>
        <time>2020-11-08T12:05:43Z</time>
      </trkpt>
      <trkpt lat="19.076343" lon="-97.292708">
        <ele>3876.908</ele>
        <time>2020-11-08T12:05:46Z</time>
      </trkpt>
      <trkpt lat="19.076389" lon="-97.292755">
        <ele>3875.815</ele>
        <time>2020-11-08T12:05:49Z</time>
      </trkpt>
      <trkpt lat="19.076404" lon="-97.292807">
        <ele>3874.779</ele>
        <time>2020-11-08T12:05:52Z</time>
      </trkpt>
      <trkpt lat="19.076398" lon="-97.292866">
        <ele>3873.730</ele>
        <time>2020-11-08T12:05:56Z</time>
      </trkpt>
      <trkpt lat="19.076414" lon="-97.292924">
        <ele>3873.192</ele>
        <time>2020-11-08T12:05:59Z</time>
      </trkpt>
      <trkpt lat="19.07643" lon="-97.292972">
        <ele>3873.185</ele>
        <time>2020-11-08T12:06:01Z</time>
      </trkpt>
      <trkpt lat="19.076455" lon="-97.293017">
        <ele>3872.354</ele>
        <time>2020-11-08T12:06:05Z</time>
      </trkpt>
      <trkpt lat="19.076502" lon="-97.293075">
        <ele>3871.898</ele>
        <time>2020-11-08T12:06:08Z</time>
      </trkpt>
      <trkpt lat="19.076523" lon="-97.293119">
        <ele>3871.165</ele>
        <time>2020-11-08T12:06:10Z</time>
      </trkpt>
      <trkpt lat="19.07655" lon="-97.293179">
        <ele>3871.555</ele>
        <time>2020-11-08T12:06:13Z</time>
      </trkpt>
      <trkpt lat="19.076571" lon="-97.293237">
        <ele>3872.507</ele>
        <time>2020-11-08T12:06:16Z</time>
      </trkpt>
      <trkpt lat="19.076593" lon="-97.293291">
        <ele>3872.317</ele>
        <time>2020-11-08T12:06:19Z</time>
      </trkpt>
      <trkpt lat="19.076626" lon="-97.293336">
        <ele>3871.408</ele>
        <time>2020-11-08T12:06:22Z</time>
      </trkpt>
      <trkpt lat="19.076645" lon="-97.29338">
        <ele>3869.761</ele>
        <time>2020-11-08T12:06:25Z</time>
      </trkpt>
      <trkpt lat="19.07666" lon="-97.293434">
        <ele>3868.745</ele>
        <time>2020-11-08T12:06:27Z</time>
      </trkpt>
      <trkpt lat="19.076665" lon="-97.293484">
        <ele>3868.956</ele>
        <time>2020-11-08T12:06:29Z</time>
      </trkpt>
      <trkpt lat="19.076667" lon="-97.293534">
        <ele>3868.668</ele>
        <time>2020-11-08T12:06:31Z</time>
      </trkpt>
      <trkpt lat="19.076669" lon="-97.293588">
        <ele>3868.491</ele>
        <time>2020-11-08T12:06:35Z</time>
      </trkpt>
      <trkpt lat="19.076672" lon="-97.293645">
        <ele>3868.390</ele>
        <time>2020-11-08T12:06:42Z</time>
      </trkpt>
      <trkpt lat="19.076692" lon="-97.29369">
        <ele>3867.894</ele>
        <time>2020-11-08T12:06:45Z</time>
      </trkpt>
      <trkpt lat="19.076704" lon="-97.293737">
        <ele>3867.121</ele>
        <time>2020-11-08T12:06:47Z</time>
      </trkpt>
      <trkpt lat="19.076717" lon="-97.293789">
        <ele>3866.361</ele>
        <time>2020-11-08T12:06:49Z</time>
      </trkpt>
      <trkpt lat="19.076732" lon="-97.293851">
        <ele>3865.821</ele>
        <time>2020-11-08T12:06:51Z</time>
      </trkpt>
      <trkpt lat="19.076747" lon="-97.293903">
        <ele>3865.513</ele>
        <time>2020-11-08T12:06:53Z</time>
      </trkpt>
      <trkpt lat="19.07677" lon="-97.29395">
        <ele>3865.308</ele>
        <time>2020-11-08T12:06:55Z</time>
      </trkpt>
      <trkpt lat="19.076789" lon="-97.293999">
        <ele>3864.882</ele>
        <time>2020-11-08T12:06:57Z</time>
      </trkpt>
      <trkpt lat="19.0768" lon="-97.294066">
        <ele>3864.536</ele>
        <time>2020-11-08T12:07:00Z</time>
      </trkpt>
      <trkpt lat="19.07682" lon="-97.294122">
        <ele>3863.967</ele>
        <time>2020-11-08T12:07:04Z</time>
      </trkpt>
      <trkpt lat="19.076852" lon="-97.294164">
        <ele>3864.079</ele>
        <time>2020-11-08T12:07:07Z</time>
      </trkpt>
      <trkpt lat="19.076882" lon="-97.294203">
        <ele>3862.462</ele>
        <time>2020-11-08T12:07:11Z</time>
      </trkpt>
      <trkpt lat="19.0769" lon="-97.294248">
        <ele>3861.991</ele>
        <time>2020-11-08T12:07:14Z</time>
      </trkpt>
      <trkpt lat="19.076915" lon="-97.294295">
        <ele>3861.225</ele>
        <time>2020-11-08T12:07:18Z</time>
      </trkpt>
      <trkpt lat="19.076865" lon="-97.294355">
        <ele>3860.422</ele>
        <time>2020-11-08T12:07:21Z</time>
      </trkpt>
      <trkpt lat="19.076837" lon="-97.294404">
        <ele>3859.964</ele>
        <time>2020-11-08T12:07:23Z</time>
      </trkpt>
      <trkpt lat="19.076811" lon="-97.294455">
        <ele>3859.206</ele>
        <time>2020-11-08T12:07:25Z</time>
      </trkpt>
      <trkpt lat="19.076799" lon="-97.294509">
        <ele>3858.816</ele>
        <time>2020-11-08T12:07:28Z</time>
      </trkpt>
      <trkpt lat="19.076807" lon="-97.294571">
        <ele>3858.908</ele>
        <time>2020-11-08T12:07:33Z</time>
      </trkpt>
      <trkpt lat="19.076833" lon="-97.294628">
        <ele>3859.072</ele>
        <time>2020-11-08T12:07:36Z</time>
      </trkpt>
      <trkpt lat="19.07686" lon="-97.294684">
        <ele>3860.396</ele>
        <time>2020-11-08T12:07:39Z</time>
      </trkpt>
      <trkpt lat="19.076876" lon="-97.294729">
        <ele>3860.747</ele>
        <time>2020-11-08T12:07:42Z</time>
      </trkpt>
      <trkpt lat="19.076896" lon="-97.294782">
        <ele>3861.749</ele>
        <time>2020-11-08T12:07:45Z</time>
      </trkpt>
      <trkpt lat="19.076917" lon="-97.294825">
        <ele>3861.542</ele>
        <time>2020-11-08T12:07:47Z</time>
      </trkpt>
      <trkpt lat="19.076959" lon="-97.294879">
        <ele>3863.081</ele>
        <time>2020-11-08T12:07:50Z</time>
      </trkpt>
      <trkpt lat="19.077007" lon="-97.294925">
        <ele>3862.395</ele>
        <time>2020-11-08T12:07:53Z</time>
      </trkpt>
      <trkpt lat="19.077042" lon="-97.294967">
        <ele>3862.722</ele>
        <time>2020-11-08T12:07:55Z</time>
      </trkpt>
      <trkpt lat="19.077078" lon="-97.295012">
        <ele>3861.336</ele>
        <time>2020-11-08T12:07:57Z</time>
      </trkpt>
      <trkpt lat="19.077109" lon="-97.295051">
        <ele>3860.117</ele>
        <time>2020-11-08T12:07:59Z</time>
      </trkpt>
      <trkpt lat="19.077153" lon="-97.295099">
        <ele>3859.818</ele>
        <time>2020-11-08T12:08:02Z</time>
      </trkpt>
      <trkpt lat="19.077208" lon="-97.295135">
        <ele>3860.408</ele>
        <time>2020-11-08T12:08:05Z</time>
      </trkpt>
      <trkpt lat="19.077262" lon="-97.295158">
        <ele>3859.259</ele>
        <time>2020-11-08T12:08:08Z</time>
      </trkpt>
      <trkpt lat="19.077319" lon="-97.295185">
        <ele>3858.963</ele>
        <time>2020-11-08T12:08:11Z</time>
      </trkpt>
      <trkpt lat="19.07735" lon="-97.295228">
        <ele>3857.964</ele>
        <time>2020-11-08T12:08:13Z</time>
      </trkpt>
      <trkpt lat="19.077367" lon="-97.295282">
        <ele>3856.136</ele>
        <time>2020-11-08T12:08:15Z</time>
      </trkpt>
      <trkpt lat="19.077381" lon="-97.295336">
        <ele>3855.419</ele>
        <time>2020-11-08T12:08:17Z</time>
      </trkpt>
      <trkpt lat="19.077401" lon="-97.29539">
        <ele>3855.448</ele>
        <time>2020-11-08T12:08:19Z</time>
      </trkpt>
      <trkpt lat="19.077428" lon="-97.295438">
        <ele>3854.662</ele>
        <time>2020-11-08T12:08:21Z</time>
      </trkpt>
      <trkpt lat="19.077461" lon="-97.295487">
        <ele>3854.539</ele>
        <time>2020-11-08T12:08:24Z</time>
      </trkpt>
      <trkpt lat="19.077482" lon="-97.295532">
        <ele>3852.872</ele>
        <time>2020-11-08T12:08:28Z</time>
      </trkpt>
      <trkpt lat="19.077494" lon="-97.295586">
        <ele>3851.013</ele>
        <time>2020-11-08T12:08:35Z</time>
      </trkpt>
      <trkpt lat="19.077489" lon="-97.29565">
        <ele>3849.114</ele>
        <time>2020-11-08T12:08:39Z</time>
      </trkpt>
      <trkpt lat="19.077485" lon="-97.295699">
        <ele>3847.608</ele>
        <time>2020-11-08T12:08:43Z</time>
      </trkpt>
      <trkpt lat="19.077497" lon="-97.295746">
        <ele>3846.783</ele>
        <time>2020-11-08T12:08:49Z</time>
      </trkpt>
      <trkpt lat="19.077527" lon="-97.295792">
        <ele>3847.417</ele>
        <time>2020-11-08T12:09:56Z</time>
      </trkpt>
      <trkpt lat="19.077575" lon="-97.295809">
        <ele>3847.018</ele>
        <time>2020-11-08T12:10:02Z</time>
      </trkpt>
      <trkpt lat="19.07762" lon="-97.295824">
        <ele>3846.420</ele>
        <time>2020-11-08T12:10:07Z</time>
      </trkpt>
      <trkpt lat="19.077661" lon="-97.29585">
        <ele>3846.053</ele>
        <time>2020-11-08T12:10:12Z</time>
      </trkpt>
      <trkpt lat="19.077689" lon="-97.295905">
        <ele>3846.242</ele>
        <time>2020-11-08T12:10:14Z</time>
      </trkpt>
      <trkpt lat="19.077711" lon="-97.295956">
        <ele>3846.356</ele>
        <time>2020-11-08T12:10:16Z</time>
      </trkpt>
      <trkpt lat="19.077735" lon="-97.296004">
        <ele>3846.093</ele>
        <time>2020-11-08T12:10:19Z</time>
      </trkpt>
      <trkpt lat="19.077781" lon="-97.296053">
        <ele>3846.212</ele>
        <time>2020-11-08T12:10:23Z</time>
      </trkpt>
      <trkpt lat="19.077816" lon="-97.296092">
        <ele>3847.132</ele>
        <time>2020-11-08T12:10:26Z</time>
      </trkpt>
      <trkpt lat="19.077876" lon="-97.296079">
        <ele>3846.505</ele>
        <time>2020-11-08T12:10:32Z</time>
      </trkpt>
      <trkpt lat="19.077925" lon="-97.296062">
        <ele>3846.508</ele>
        <time>2020-11-08T12:10:34Z</time>
      </trkpt>
      <trkpt lat="19.077974" lon="-97.296053">
        <ele>3847.337</ele>
        <time>2020-11-08T12:10:36Z</time>
      </trkpt>
      <trkpt lat="19.078021" lon="-97.296065">
        <ele>3847.811</ele>
        <time>2020-11-08T12:10:45Z</time>
      </trkpt>
      <trkpt lat="19.078081" lon="-97.29606">
        <ele>3843.832</ele>
        <time>2020-11-08T12:10:49Z</time>
      </trkpt>
      <trkpt lat="19.078133" lon="-97.296067">
        <ele>3839.824</ele>
        <time>2020-11-08T12:10:52Z</time>
      </trkpt>
      <trkpt lat="19.078186" lon="-97.296052">
        <ele>3835.837</ele>
        <time>2020-11-08T12:10:55Z</time>
      </trkpt>
      <trkpt lat="19.078233" lon="-97.296034">
        <ele>3832.936</ele>
        <time>2020-11-08T12:10:59Z</time>
      </trkpt>
      <trkpt lat="19.07829" lon="-97.296036">
        <ele>3830.880</ele>
        <time>2020-11-08T12:11:05Z</time>
      </trkpt>
      <trkpt lat="19.078339" lon="-97.296035">
        <ele>3829.597</ele>
        <time>2020-11-08T12:11:09Z</time>
      </trkpt>
      <trkpt lat="19.078385" lon="-97.29603">
        <ele>3827.974</ele>
        <time>2020-11-08T12:11:12Z</time>
      </trkpt>
      <trkpt lat="19.078437" lon="-97.296019">
        <ele>3827.456</ele>
        <time>2020-11-08T12:11:15Z</time>
      </trkpt>
      <trkpt lat="19.078488" lon="-97.296005">
        <ele>3824.721</ele>
        <time>2020-11-08T12:11:18Z</time>
      </trkpt>
      <trkpt lat="19.078548" lon="-97.295998">
        <ele>3823.508</ele>
        <time>2020-11-08T12:11:21Z</time>
      </trkpt>
      <trkpt lat="19.078589" lon="-97.295976">
        <ele>3822.013</ele>
        <time>2020-11-08T12:11:23Z</time>
      </trkpt>
      <trkpt lat="19.078627" lon="-97.295941">
        <ele>3821.967</ele>
        <time>2020-11-08T12:11:25Z</time>
      </trkpt>
      <trkpt lat="19.078661" lon="-97.295908">
        <ele>3822.688</ele>
        <time>2020-11-08T12:11:27Z</time>
      </trkpt>
      <trkpt lat="19.078705" lon="-97.295863">
        <ele>3823.420</ele>
        <time>2020-11-08T12:11:30Z</time>
      </trkpt>
      <trkpt lat="19.078701" lon="-97.295811">
        <ele>3824.323</ele>
        <time>2020-11-08T12:11:36Z</time>
      </trkpt>
      <trkpt lat="19.078731" lon="-97.295759">
        <ele>3824.042</ele>
        <time>2020-11-08T12:11:40Z</time>
      </trkpt>
      <trkpt lat="19.078776" lon="-97.29572">
        <ele>3825.856</ele>
        <time>2020-11-08T12:11:43Z</time>
      </trkpt>
      <trkpt lat="19.078825" lon="-97.295696">
        <ele>3826.153</ele>
        <time>2020-11-08T12:11:46Z</time>
      </trkpt>
      <trkpt lat="19.078869" lon="-97.295671">
        <ele>3826.374</ele>
        <time>2020-11-08T12:11:50Z</time>
      </trkpt>
      <trkpt lat="19.078893" lon="-97.295628">
        <ele>3826.856</ele>
        <time>2020-11-08T12:11:54Z</time>
      </trkpt>
      <trkpt lat="19.078931" lon="-97.295601">
        <ele>3826.721</ele>
        <time>2020-11-08T12:11:58Z</time>
      </trkpt>
      <trkpt lat="19.078967" lon="-97.29557">
        <ele>3827.408</ele>
        <time>2020-11-08T12:12:02Z</time>
      </trkpt>
      <trkpt lat="19.078985" lon="-97.295517">
        <ele>3829.063</ele>
        <time>2020-11-08T12:12:05Z</time>
      </trkpt>
      <trkpt lat="19.078996" lon="-97.295463">
        <ele>3830.897</ele>
        <time>2020-11-08T12:12:08Z</time>
      </trkpt>
      <trkpt lat="19.079008" lon="-97.295417">
        <ele>3831.188</ele>
        <time>2020-11-08T12:12:11Z</time>
      </trkpt>
      <trkpt lat="19.079033" lon="-97.295361">
        <ele>3830.990</ele>
        <time>2020-11-08T12:12:15Z</time>
      </trkpt>
      <trkpt lat="19.079054" lon="-97.295299">
        <ele>3830.893</ele>
        <time>2020-11-08T12:12:19Z</time>
      </trkpt>
      <trkpt lat="19.079067" lon="-97.295253">
        <ele>3829.512</ele>
        <time>2020-11-08T12:12:22Z</time>
      </trkpt>
      <trkpt lat="19.079084" lon="-97.295203">
        <ele>3827.146</ele>
        <time>2020-11-08T12:12:27Z</time>
      </trkpt>
      <trkpt lat="19.079118" lon="-97.29515">
        <ele>3823.753</ele>
        <time>2020-11-08T12:12:32Z</time>
      </trkpt>
      <trkpt lat="19.079151" lon="-97.295104">
        <ele>3822.075</ele>
        <time>2020-11-08T12:12:36Z</time>
      </trkpt>
      <trkpt lat="19.079181" lon="-97.295057">
        <ele>3820.628</ele>
        <time>2020-11-08T12:12:39Z</time>
      </trkpt>
      <trkpt lat="19.079236" lon="-97.295027">
        <ele>3817.420</ele>
        <time>2020-11-08T12:12:43Z</time>
      </trkpt>
      <trkpt lat="19.079294" lon="-97.294997">
        <ele>3815.908</ele>
        <time>2020-11-08T12:12:46Z</time>
      </trkpt>
      <trkpt lat="19.079349" lon="-97.294961">
        <ele>3814.683</ele>
        <time>2020-11-08T12:12:49Z</time>
      </trkpt>
      <trkpt lat="19.079386" lon="-97.294929">
        <ele>3814.667</ele>
        <time>2020-11-08T12:12:53Z</time>
      </trkpt>
      <trkpt lat="19.079408" lon="-97.294885">
        <ele>3812.618</ele>
        <time>2020-11-08T12:12:58Z</time>
      </trkpt>
      <trkpt lat="19.079426" lon="-97.294841">
        <ele>3810.660</ele>
        <time>2020-11-08T12:13:03Z</time>
      </trkpt>
      <trkpt lat="19.079462" lon="-97.294808">
        <ele>3809.843</ele>
        <time>2020-11-08T12:13:09Z</time>
      </trkpt>
      <trkpt lat="19.079504" lon="-97.294789">
        <ele>3808.592</ele>
        <time>2020-11-08T12:13:12Z</time>
      </trkpt>
      <trkpt lat="19.079548" lon="-97.294778">
        <ele>3807.756</ele>
        <time>2020-11-08T12:13:15Z</time>
      </trkpt>
      <trkpt lat="19.079604" lon="-97.294768">
        <ele>3808.423</ele>
        <time>2020-11-08T12:13:19Z</time>
      </trkpt>
      <trkpt lat="19.079656" lon="-97.294763">
        <ele>3807.645</ele>
        <time>2020-11-08T12:13:25Z</time>
      </trkpt>
      <trkpt lat="19.079702" lon="-97.294757">
        <ele>3807.547</ele>
        <time>2020-11-08T12:13:30Z</time>
      </trkpt>
      <trkpt lat="19.079748" lon="-97.294765">
        <ele>3807.511</ele>
        <time>2020-11-08T12:13:35Z</time>
      </trkpt>
      <trkpt lat="19.079797" lon="-97.294763">
        <ele>3807.108</ele>
        <time>2020-11-08T12:13:39Z</time>
      </trkpt>
      <trkpt lat="19.079843" lon="-97.294746">
        <ele>3806.020</ele>
        <time>2020-11-08T12:13:43Z</time>
      </trkpt>
      <trkpt lat="19.079886" lon="-97.294731">
        <ele>3805.854</ele>
        <time>2020-11-08T12:13:47Z</time>
      </trkpt>
      <trkpt lat="19.079932" lon="-97.294724">
        <ele>3804.175</ele>
        <time>2020-11-08T12:13:52Z</time>
      </trkpt>
      <trkpt lat="19.079978" lon="-97.294731">
        <ele>3803.537</ele>
        <time>2020-11-08T12:13:58Z</time>
      </trkpt>
      <trkpt lat="19.080025" lon="-97.294724">
        <ele>3803.910</ele>
        <time>2020-11-08T12:14:03Z</time>
      </trkpt>
      <trkpt lat="19.080071" lon="-97.294712">
        <ele>3803.769</ele>
        <time>2020-11-08T12:14:07Z</time>
      </trkpt>
      <trkpt lat="19.080121" lon="-97.294719">
        <ele>3802.033</ele>
        <time>2020-11-08T12:14:11Z</time>
      </trkpt>
      <trkpt lat="19.080166" lon="-97.294737">
        <ele>3800.690</ele>
        <time>2020-11-08T12:14:15Z</time>
      </trkpt>
      <trkpt lat="19.080215" lon="-97.29476">
        <ele>3799.883</ele>
        <time>2020-11-08T12:14:19Z</time>
      </trkpt>
      <trkpt lat="19.080257" lon="-97.294793">
        <ele>3798.125</ele>
        <time>2020-11-08T12:14:23Z</time>
      </trkpt>
      <trkpt lat="19.080294" lon="-97.294823">
        <ele>3797.117</ele>
        <time>2020-11-08T12:14:27Z</time>
      </trkpt>
      <trkpt lat="19.080333" lon="-97.294858">
        <ele>3796.908</ele>
        <time>2020-11-08T12:14:32Z</time>
      </trkpt>
      <trkpt lat="19.080372" lon="-97.294884">
        <ele>3796.454</ele>
        <time>2020-11-08T12:14:36Z</time>
      </trkpt>
      <trkpt lat="19.080416" lon="-97.294921">
        <ele>3795.328</ele>
        <time>2020-11-08T12:14:40Z</time>
      </trkpt>
      <trkpt lat="19.080454" lon="-97.294949">
        <ele>3795.049</ele>
        <time>2020-11-08T12:14:43Z</time>
      </trkpt>
      <trkpt lat="19.080502" lon="-97.294971">
        <ele>3794.081</ele>
        <time>2020-11-08T12:14:47Z</time>
      </trkpt>
      <trkpt lat="19.080549" lon="-97.294993">
        <ele>3792.674</ele>
        <time>2020-11-08T12:14:51Z</time>
      </trkpt>
      <trkpt lat="19.080602" lon="-97.295021">
        <ele>3791.453</ele>
        <time>2020-11-08T12:14:55Z</time>
      </trkpt>
      <trkpt lat="19.080636" lon="-97.295053">
        <ele>3789.917</ele>
        <time>2020-11-08T12:14:59Z</time>
      </trkpt>
      <trkpt lat="19.080676" lon="-97.29508">
        <ele>3789.064</ele>
        <time>2020-11-08T12:15:03Z</time>
      </trkpt>
      <trkpt lat="19.080725" lon="-97.295083">
        <ele>3787.223</ele>
        <time>2020-11-08T12:15:09Z</time>
      </trkpt>
      <trkpt lat="19.08077" lon="-97.295112">
        <ele>3786.983</ele>
        <time>2020-11-08T12:15:13Z</time>
      </trkpt>
      <trkpt lat="19.080803" lon="-97.295147">
        <ele>3785.511</ele>
        <time>2020-11-08T12:15:17Z</time>
      </trkpt>
      <trkpt lat="19.080844" lon="-97.29519">
        <ele>3784.708</ele>
        <time>2020-11-08T12:15:21Z</time>
      </trkpt>
      <trkpt lat="19.080888" lon="-97.295222">
        <ele>3784.288</ele>
        <time>2020-11-08T12:15:24Z</time>
      </trkpt>
      <trkpt lat="19.080916" lon="-97.29526">
        <ele>3784.772</ele>
        <time>2020-11-08T12:15:27Z</time>
      </trkpt>
      <trkpt lat="19.080952" lon="-97.29529">
        <ele>3784.273</ele>
        <time>2020-11-08T12:15:31Z</time>
      </trkpt>
      <trkpt lat="19.080977" lon="-97.295345">
        <ele>3781.915</ele>
        <time>2020-11-08T12:15:36Z</time>
      </trkpt>
      <trkpt lat="19.080991" lon="-97.295391">
        <ele>3779.768</ele>
        <time>2020-11-08T12:15:40Z</time>
      </trkpt>
      <trkpt lat="19.081022" lon="-97.295432">
        <ele>3779.237</ele>
        <time>2020-11-08T12:15:44Z</time>
      </trkpt>
      <trkpt lat="19.081066" lon="-97.295454">
        <ele>3778.961</ele>
        <time>2020-11-08T12:15:47Z</time>
      </trkpt>
      <trkpt lat="19.081118" lon="-97.295478">
        <ele>3777.958</ele>
        <time>2020-11-08T12:15:51Z</time>
      </trkpt>
      <trkpt lat="19.081158" lon="-97.295504">
        <ele>3776.983</ele>
        <time>2020-11-08T12:15:56Z</time>
      </trkpt>
      <trkpt lat="19.081218" lon="-97.295522">
        <ele>3775.925</ele>
        <time>2020-11-08T12:16:00Z</time>
      </trkpt>
      <trkpt lat="19.081282" lon="-97.295551">
        <ele>3774.517</ele>
        <time>2020-11-08T12:16:03Z</time>
      </trkpt>
      <trkpt lat="19.081316" lon="-97.295585">
        <ele>3772.908</ele>
        <time>2020-11-08T12:16:05Z</time>
      </trkpt>
      <trkpt lat="19.081325" lon="-97.295636">
        <ele>3771.944</ele>
        <time>2020-11-08T12:16:08Z</time>
      </trkpt>
      <trkpt lat="19.081315" lon="-97.295699">
        <ele>3770.198</ele>
        <time>2020-11-08T12:16:12Z</time>
      </trkpt>
      <trkpt lat="19.08132" lon="-97.295755">
        <ele>3769.469</ele>
        <time>2020-11-08T12:16:15Z</time>
      </trkpt>
      <trkpt lat="19.081337" lon="-97.29581">
        <ele>3768.211</ele>
        <time>2020-11-08T12:16:18Z</time>
      </trkpt>
      <trkpt lat="19.08137" lon="-97.295858">
        <ele>3765.534</ele>
        <time>2020-11-08T12:16:22Z</time>
      </trkpt>
      <trkpt lat="19.08141" lon="-97.295909">
        <ele>3763.943</ele>
        <time>2020-11-08T12:16:26Z</time>
      </trkpt>
      <trkpt lat="19.081445" lon="-97.295956">
        <ele>3762.517</ele>
        <time>2020-11-08T12:16:29Z</time>
      </trkpt>
      <trkpt lat="19.081477" lon="-97.295997">
        <ele>3761.744</ele>
        <time>2020-11-08T12:16:32Z</time>
      </trkpt>
      <trkpt lat="19.081507" lon="-97.296044">
        <ele>3761.241</ele>
        <time>2020-11-08T12:16:35Z</time>
      </trkpt>
      <trkpt lat="19.081522" lon="-97.296092">
        <ele>3760.981</ele>
        <time>2020-11-08T12:16:38Z</time>
      </trkpt>
      <trkpt lat="19.081526" lon="-97.296162">
        <ele>3760.709</ele>
        <time>2020-11-08T12:16:41Z</time>
      </trkpt>
      <trkpt lat="19.081523" lon="-97.29621">
        <ele>3760.608</ele>
        <time>2020-11-08T12:16:43Z</time>
      </trkpt>
      <trkpt lat="19.081517" lon="-97.296259">
        <ele>3760.580</ele>
        <time>2020-11-08T12:16:45Z</time>
      </trkpt>
      <trkpt lat="19.081517" lon="-97.296325">
        <ele>3760.144</ele>
        <time>2020-11-08T12:16:48Z</time>
      </trkpt>
      <trkpt lat="19.081523" lon="-97.296394">
        <ele>3759.825</ele>
        <time>2020-11-08T12:16:51Z</time>
      </trkpt>
      <trkpt lat="19.081527" lon="-97.296443">
        <ele>3759.217</ele>
        <time>2020-11-08T12:16:53Z</time>
      </trkpt>
      <trkpt lat="19.081533" lon="-97.296511">
        <ele>3758.940</ele>
        <time>2020-11-08T12:16:56Z</time>
      </trkpt>
      <trkpt lat="19.081543" lon="-97.296561">
        <ele>3758.789</ele>
        <time>2020-11-08T12:16:58Z</time>
      </trkpt>
      <trkpt lat="19.081555" lon="-97.296609">
        <ele>3758.213</ele>
        <time>2020-11-08T12:17:00Z</time>
      </trkpt>
      <trkpt lat="19.081566" lon="-97.296669">
        <ele>3757.520</ele>
        <time>2020-11-08T12:17:03Z</time>
      </trkpt>
      <trkpt lat="19.081569" lon="-97.296726">
        <ele>3757.158</ele>
        <time>2020-11-08T12:17:06Z</time>
      </trkpt>
      <trkpt lat="19.081571" lon="-97.296775">
        <ele>3756.852</ele>
        <time>2020-11-08T12:17:09Z</time>
      </trkpt>
      <trkpt lat="19.081584" lon="-97.296832">
        <ele>3755.817</ele>
        <time>2020-11-08T12:17:12Z</time>
      </trkpt>
      <trkpt lat="19.081599" lon="-97.296898">
        <ele>3755.208</ele>
        <time>2020-11-08T12:17:15Z</time>
      </trkpt>
      <trkpt lat="19.081606" lon="-97.296947">
        <ele>3754.151</ele>
        <time>2020-11-08T12:17:17Z</time>
      </trkpt>
      <trkpt lat="19.081622" lon="-97.297015">
        <ele>3753.025</ele>
        <time>2020-11-08T12:17:20Z</time>
      </trkpt>
      <trkpt lat="19.081634" lon="-97.297066">
        <ele>3752.336</ele>
        <time>2020-11-08T12:17:22Z</time>
      </trkpt>
      <trkpt lat="19.081648" lon="-97.297116">
        <ele>3751.978</ele>
        <time>2020-11-08T12:17:24Z</time>
      </trkpt>
      <trkpt lat="19.081676" lon="-97.297181">
        <ele>3750.581</ele>
        <time>2020-11-08T12:17:27Z</time>
      </trkpt>
      <trkpt lat="19.081695" lon="-97.297228">
        <ele>3748.070</ele>
        <time>2020-11-08T12:17:29Z</time>
      </trkpt>
      <trkpt lat="19.081712" lon="-97.297281">
        <ele>3746.564</ele>
        <time>2020-11-08T12:17:31Z</time>
      </trkpt>
      <trkpt lat="19.081722" lon="-97.297334">
        <ele>3745.291</ele>
        <time>2020-11-08T12:17:33Z</time>
      </trkpt>
      <trkpt lat="19.081728" lon="-97.297385">
        <ele>3744.862</ele>
        <time>2020-11-08T12:17:35Z</time>
      </trkpt>
      <trkpt lat="19.081738" lon="-97.297438">
        <ele>3744.283</ele>
        <time>2020-11-08T12:17:37Z</time>
      </trkpt>
      <trkpt lat="19.081751" lon="-97.297493">
        <ele>3743.811</ele>
        <time>2020-11-08T12:17:39Z</time>
      </trkpt>
      <trkpt lat="19.081765" lon="-97.297548">
        <ele>3743.608</ele>
        <time>2020-11-08T12:17:41Z</time>
      </trkpt>
      <trkpt lat="19.081776" lon="-97.2976">
        <ele>3742.792</ele>
        <time>2020-11-08T12:17:43Z</time>
      </trkpt>
      <trkpt lat="19.081793" lon="-97.297665">
        <ele>3741.376</ele>
        <time>2020-11-08T12:17:46Z</time>
      </trkpt>
      <trkpt lat="19.081809" lon="-97.297726">
        <ele>3740.947</ele>
        <time>2020-11-08T12:17:49Z</time>
      </trkpt>
      <trkpt lat="19.081819" lon="-97.297791">
        <ele>3740.759</ele>
        <time>2020-11-08T12:17:52Z</time>
      </trkpt>
      <trkpt lat="19.081823" lon="-97.297854">
        <ele>3739.812</ele>
        <time>2020-11-08T12:17:55Z</time>
      </trkpt>
      <trkpt lat="19.081832" lon="-97.297922">
        <ele>3739.681</ele>
        <time>2020-11-08T12:17:58Z</time>
      </trkpt>
      <trkpt lat="19.081844" lon="-97.297976">
        <ele>3739.535</ele>
        <time>2020-11-08T12:18:01Z</time>
      </trkpt>
      <trkpt lat="19.081854" lon="-97.29804">
        <ele>3739.452</ele>
        <time>2020-11-08T12:18:04Z</time>
      </trkpt>
      <trkpt lat="19.081867" lon="-97.298108">
        <ele>3739.897</ele>
        <time>2020-11-08T12:18:07Z</time>
      </trkpt>
      <trkpt lat="19.081884" lon="-97.298168">
        <ele>3739.623</ele>
        <time>2020-11-08T12:18:10Z</time>
      </trkpt>
      <trkpt lat="19.081904" lon="-97.298219">
        <ele>3737.925</ele>
        <time>2020-11-08T12:18:13Z</time>
      </trkpt>
      <trkpt lat="19.081925" lon="-97.29827">
        <ele>3736.508</ele>
        <time>2020-11-08T12:18:17Z</time>
      </trkpt>
      <trkpt lat="19.081943" lon="-97.298323">
        <ele>3736.485</ele>
        <time>2020-11-08T12:18:23Z</time>
      </trkpt>
      <trkpt lat="19.081957" lon="-97.298376">
        <ele>3735.679</ele>
        <time>2020-11-08T12:18:26Z</time>
      </trkpt>
      <trkpt lat="19.081973" lon="-97.298428">
        <ele>3735.170</ele>
        <time>2020-11-08T12:18:29Z</time>
      </trkpt>
      <trkpt lat="19.081989" lon="-97.298484">
        <ele>3734.052</ele>
        <time>2020-11-08T12:18:34Z</time>
      </trkpt>
      <trkpt lat="19.082005" lon="-97.298543">
        <ele>3731.375</ele>
        <time>2020-11-08T12:18:37Z</time>
      </trkpt>
      <trkpt lat="19.082016" lon="-97.298614">
        <ele>3729.714</ele>
        <time>2020-11-08T12:18:40Z</time>
      </trkpt>
      <trkpt lat="19.082021" lon="-97.298662">
        <ele>3728.338</ele>
        <time>2020-11-08T12:18:42Z</time>
      </trkpt>
      <trkpt lat="19.08203" lon="-97.298709">
        <ele>3727.985</ele>
        <time>2020-11-08T12:18:44Z</time>
      </trkpt>
      <trkpt lat="19.082032" lon="-97.298766">
        <ele>3728.556</ele>
        <time>2020-11-08T12:18:46Z</time>
      </trkpt>
      <trkpt lat="19.08203" lon="-97.298822">
        <ele>3728.459</ele>
        <time>2020-11-08T12:18:48Z</time>
      </trkpt>
      <trkpt lat="19.082028" lon="-97.29887">
        <ele>3729.214</ele>
        <time>2020-11-08T12:18:50Z</time>
      </trkpt>
      <trkpt lat="19.082026" lon="-97.298923">
        <ele>3729.308</ele>
        <time>2020-11-08T12:18:52Z</time>
      </trkpt>
      <trkpt lat="19.082019" lon="-97.298981">
        <ele>3732.161</ele>
        <time>2020-11-08T12:18:55Z</time>
      </trkpt>
      <trkpt lat="19.082022" lon="-97.299038">
        <ele>3733.875</ele>
        <time>2020-11-08T12:18:58Z</time>
      </trkpt>
      <trkpt lat="19.082018" lon="-97.299088">
        <ele>3733.676</ele>
        <time>2020-11-08T12:19:01Z</time>
      </trkpt>
      <trkpt lat="19.082016" lon="-97.299142">
        <ele>3733.578</ele>
        <time>2020-11-08T12:19:05Z</time>
      </trkpt>
      <trkpt lat="19.082035" lon="-97.299199">
        <ele>3731.461</ele>
        <time>2020-11-08T12:19:09Z</time>
      </trkpt>
      <trkpt lat="19.082066" lon="-97.299234">
        <ele>3729.060</ele>
        <time>2020-11-08T12:19:13Z</time>
      </trkpt>
      <trkpt lat="19.082113" lon="-97.299259">
        <ele>3727.514</ele>
        <time>2020-11-08T12:19:17Z</time>
      </trkpt>
      <trkpt lat="19.082157" lon="-97.299287">
        <ele>3727.421</ele>
        <time>2020-11-08T12:19:20Z</time>
      </trkpt>
      <trkpt lat="19.082204" lon="-97.299314">
        <ele>3728.615</ele>
        <time>2020-11-08T12:19:26Z</time>
      </trkpt>
      <trkpt lat="19.082258" lon="-97.299319">
        <ele>3729.365</ele>
        <time>2020-11-08T12:19:30Z</time>
      </trkpt>
      <trkpt lat="19.082277" lon="-97.299378">
        <ele>3728.111</ele>
        <time>2020-11-08T12:19:37Z</time>
      </trkpt>
      <trkpt lat="19.08229" lon="-97.299433">
        <ele>3727.008</ele>
        <time>2020-11-08T12:19:40Z</time>
      </trkpt>
      <trkpt lat="19.082318" lon="-97.299486">
        <ele>3726.387</ele>
        <time>2020-11-08T12:19:43Z</time>
      </trkpt>
      <trkpt lat="19.082345" lon="-97.299526">
        <ele>3725.551</ele>
        <time>2020-11-08T12:19:45Z</time>
      </trkpt>
      <trkpt lat="19.082368" lon="-97.299568">
        <ele>3725.472</ele>
        <time>2020-11-08T12:19:47Z</time>
      </trkpt>
      <trkpt lat="19.08239" lon="-97.299614">
        <ele>3725.884</ele>
        <time>2020-11-08T12:19:53Z</time>
      </trkpt>
      <trkpt lat="19.082405" lon="-97.299661">
        <ele>3726.427</ele>
        <time>2020-11-08T12:19:57Z</time>
      </trkpt>
      <trkpt lat="19.082417" lon="-97.299719">
        <ele>3727.686</ele>
        <time>2020-11-08T12:20:01Z</time>
      </trkpt>
      <trkpt lat="19.08244" lon="-97.299773">
        <ele>3727.930</ele>
        <time>2020-11-08T12:20:05Z</time>
      </trkpt>
      <trkpt lat="19.082456" lon="-97.299832">
        <ele>3727.337</ele>
        <time>2020-11-08T12:20:08Z</time>
      </trkpt>
      <trkpt lat="19.082469" lon="-97.299889">
        <ele>3726.575</ele>
        <time>2020-11-08T12:20:11Z</time>
      </trkpt>
      <trkpt lat="19.082486" lon="-97.299937">
        <ele>3725.228</ele>
        <time>2020-11-08T12:20:14Z</time>
      </trkpt>
      <trkpt lat="19.082512" lon="-97.299994">
        <ele>3723.620</ele>
        <time>2020-11-08T12:20:18Z</time>
      </trkpt>
      <trkpt lat="19.082529" lon="-97.300046">
        <ele>3722.708</ele>
        <time>2020-11-08T12:20:21Z</time>
      </trkpt>
      <trkpt lat="19.082551" lon="-97.300102">
        <ele>3722.993</ele>
        <time>2020-11-08T12:20:24Z</time>
      </trkpt>
      <trkpt lat="19.082572" lon="-97.300162">
        <ele>3723.417</ele>
        <time>2020-11-08T12:20:27Z</time>
      </trkpt>
      <trkpt lat="19.082584" lon="-97.300218">
        <ele>3723.758</ele>
        <time>2020-11-08T12:20:30Z</time>
      </trkpt>
      <trkpt lat="19.0826" lon="-97.300263">
        <ele>3723.510</ele>
        <time>2020-11-08T12:20:33Z</time>
      </trkpt>
      <trkpt lat="19.082631" lon="-97.300305">
        <ele>3723.093</ele>
        <time>2020-11-08T12:20:37Z</time>
      </trkpt>
      <trkpt lat="19.082652" lon="-97.300351">
        <ele>3722.352</ele>
        <time>2020-11-08T12:20:41Z</time>
      </trkpt>
      <trkpt lat="19.082678" lon="-97.300395">
        <ele>3721.516</ele>
        <time>2020-11-08T12:20:44Z</time>
      </trkpt>
      <trkpt lat="19.082702" lon="-97.300457">
        <ele>3720.293</ele>
        <time>2020-11-08T12:20:47Z</time>
      </trkpt>
      <trkpt lat="19.082716" lon="-97.300506">
        <ele>3718.284</ele>
        <time>2020-11-08T12:20:50Z</time>
      </trkpt>
      <trkpt lat="19.082724" lon="-97.300558">
        <ele>3717.007</ele>
        <time>2020-11-08T12:20:54Z</time>
      </trkpt>
      <trkpt lat="19.082742" lon="-97.300612">
        <ele>3715.117</ele>
        <time>2020-11-08T12:20:58Z</time>
      </trkpt>
      <trkpt lat="19.082742" lon="-97.30067">
        <ele>3713.608</ele>
        <time>2020-11-08T12:21:03Z</time>
      </trkpt>
      <trkpt lat="19.082742" lon="-97.30072">
        <ele>3712.784</ele>
        <time>2020-11-08T12:21:09Z</time>
      </trkpt>
      <trkpt lat="19.082732" lon="-97.300767">
        <ele>3712.588</ele>
        <time>2020-11-08T12:21:14Z</time>
      </trkpt>
      <trkpt lat="19.082717" lon="-97.300813">
        <ele>3712.079</ele>
        <time>2020-11-08T12:21:19Z</time>
      </trkpt>
      <trkpt lat="19.082719" lon="-97.300874">
        <ele>3711.341</ele>
        <time>2020-11-08T12:21:25Z</time>
      </trkpt>
      <trkpt lat="19.08275" lon="-97.300921">
        <ele>3710.184</ele>
        <time>2020-11-08T12:21:30Z</time>
      </trkpt>
      <trkpt lat="19.08278" lon="-97.300966">
        <ele>3709.843</ele>
        <time>2020-11-08T12:21:34Z</time>
      </trkpt>
      <trkpt lat="19.082819" lon="-97.30101">
        <ele>3709.677</ele>
        <time>2020-11-08T12:21:39Z</time>
      </trkpt>
      <trkpt lat="19.082841" lon="-97.301054">
        <ele>3709.984</ele>
        <time>2020-11-08T12:21:42Z</time>
      </trkpt>
      <trkpt lat="19.082879" lon="-97.301107">
        <ele>3708.173</ele>
        <time>2020-11-08T12:21:45Z</time>
      </trkpt>
      <trkpt lat="19.082933" lon="-97.301148">
        <ele>3707.085</ele>
        <time>2020-11-08T12:21:48Z</time>
      </trkpt>
      <trkpt lat="19.08299" lon="-97.301175">
        <ele>3705.513</ele>
        <time>2020-11-08T12:21:51Z</time>
      </trkpt>
      <trkpt lat="19.083032" lon="-97.301208">
        <ele>3705.808</ele>
        <time>2020-11-08T12:21:54Z</time>
      </trkpt>
      <trkpt lat="19.083037" lon="-97.301261">
        <ele>3706.033</ele>
        <time>2020-11-08T12:21:57Z</time>
      </trkpt>
      <trkpt lat="19.083027" lon="-97.301313">
        <ele>3706.117</ele>
        <time>2020-11-08T12:22:00Z</time>
      </trkpt>
      <trkpt lat="19.083015" lon="-97.301368">
        <ele>3705.028</ele>
        <time>2020-11-08T12:22:03Z</time>
      </trkpt>
      <trkpt lat="19.08301" lon="-97.301417">
        <ele>3703.570</ele>
        <time>2020-11-08T12:22:06Z</time>
      </trkpt>
      <trkpt lat="19.08301" lon="-97.301471">
        <ele>3701.813</ele>
        <time>2020-11-08T12:22:10Z</time>
      </trkpt>
      <trkpt lat="19.08304" lon="-97.30151">
        <ele>3700.862</ele>
        <time>2020-11-08T12:22:14Z</time>
      </trkpt>
      <trkpt lat="19.083074" lon="-97.301553">
        <ele>3699.056</ele>
        <time>2020-11-08T12:22:17Z</time>
      </trkpt>
      <trkpt lat="19.083092" lon="-97.301603">
        <ele>3696.783</ele>
        <time>2020-11-08T12:22:20Z</time>
      </trkpt>
      <trkpt lat="19.083083" lon="-97.301654">
        <ele>3695.792</ele>
        <time>2020-11-08T12:22:25Z</time>
      </trkpt>
      <trkpt lat="19.083062" lon="-97.301715">
        <ele>3695.973</ele>
        <time>2020-11-08T12:22:29Z</time>
      </trkpt>
      <trkpt lat="19.083051" lon="-97.301767">
        <ele>3697.220</ele>
        <time>2020-11-08T12:22:32Z</time>
      </trkpt>
      <trkpt lat="19.083066" lon="-97.301819">
        <ele>3698.008</ele>
        <time>2020-11-08T12:22:37Z</time>
      </trkpt>
      <trkpt lat="19.083078" lon="-97.301869">
        <ele>3698.935</ele>
        <time>2020-11-08T12:22:42Z</time>
      </trkpt>
      <trkpt lat="19.083081" lon="-97.301918">
        <ele>3699.029</ele>
        <time>2020-11-08T12:22:46Z</time>
      </trkpt>
      <trkpt lat="19.083111" lon="-97.301958">
        <ele>3699.140</ele>
        <time>2020-11-08T12:22:52Z</time>
      </trkpt>
      <trkpt lat="19.083161" lon="-97.301979">
        <ele>3699.132</ele>
        <time>2020-11-08T12:22:58Z</time>
      </trkpt>
      <trkpt lat="19.083213" lon="-97.301984">
        <ele>3698.795</ele>
        <time>2020-11-08T12:23:02Z</time>
      </trkpt>
      <trkpt lat="19.08326" lon="-97.301972">
        <ele>3698.544</ele>
        <time>2020-11-08T12:23:06Z</time>
      </trkpt>
      <trkpt lat="19.083309" lon="-97.301957">
        <ele>3697.678</ele>
        <time>2020-11-08T12:23:13Z</time>
      </trkpt>
      <trkpt lat="19.083356" lon="-97.301967">
        <ele>3697.025</ele>
        <time>2020-11-08T12:23:20Z</time>
      </trkpt>
      <trkpt lat="19.083402" lon="-97.301975">
        <ele>3695.958</ele>
        <time>2020-11-08T12:23:24Z</time>
      </trkpt>
      <trkpt lat="19.08347" lon="-97.301961">
        <ele>3694.852</ele>
        <time>2020-11-08T12:23:26Z</time>
      </trkpt>
      <trkpt lat="19.083542" lon="-97.301937">
        <ele>3695.017</ele>
        <time>2020-11-08T12:23:28Z</time>
      </trkpt>
      <trkpt lat="19.083603" lon="-97.301918">
        <ele>3693.908</ele>
        <time>2020-11-08T12:23:30Z</time>
      </trkpt>
      <trkpt lat="19.083652" lon="-97.30191">
        <ele>3694.091</ele>
        <time>2020-11-08T12:23:32Z</time>
      </trkpt>
      <trkpt lat="19.083708" lon="-97.301896">
        <ele>3693.315</ele>
        <time>2020-11-08T12:23:35Z</time>
      </trkpt>
      <trkpt lat="19.083757" lon="-97.30188">
        <ele>3692.986</ele>
        <time>2020-11-08T12:23:38Z</time>
      </trkpt>
      <trkpt lat="19.083812" lon="-97.301856">
        <ele>3692.218</ele>
        <time>2020-11-08T12:23:41Z</time>
      </trkpt>
      <trkpt lat="19.083857" lon="-97.301843">
        <ele>3691.841</ele>
        <time>2020-11-08T12:23:43Z</time>
      </trkpt>
      <trkpt lat="19.083908" lon="-97.301834">
        <ele>3692.070</ele>
        <time>2020-11-08T12:23:45Z</time>
      </trkpt>
      <trkpt lat="19.083955" lon="-97.301829">
        <ele>3691.384</ele>
        <time>2020-11-08T12:23:47Z</time>
      </trkpt>
      <trkpt lat="19.084007" lon="-97.301829">
        <ele>3690.581</ele>
        <time>2020-11-08T12:23:51Z</time>
      </trkpt>
      <trkpt lat="19.08405" lon="-97.301815">
        <ele>3690.864</ele>
        <time>2020-11-08T12:23:57Z</time>
      </trkpt>
      <trkpt lat="19.084102" lon="-97.301828">
        <ele>3691.006</ele>
        <time>2020-11-08T12:24:02Z</time>
      </trkpt>
      <trkpt lat="19.084152" lon="-97.301846">
        <ele>3687.016</ele>
        <time>2020-11-08T12:24:05Z</time>
      </trkpt>
      <trkpt lat="19.084202" lon="-97.30186">
        <ele>3684.308</ele>
        <time>2020-11-08T12:24:07Z</time>
      </trkpt>
      <trkpt lat="19.084259" lon="-97.301865">
        <ele>3682.362</ele>
        <time>2020-11-08T12:24:09Z</time>
      </trkpt>
      <trkpt lat="19.084314" lon="-97.301874">
        <ele>3680.346</ele>
        <time>2020-11-08T12:24:12Z</time>
      </trkpt>
      <trkpt lat="19.084361" lon="-97.301893">
        <ele>3679.597</ele>
        <time>2020-11-08T12:24:15Z</time>
      </trkpt>
      <trkpt lat="19.08442" lon="-97.301925">
        <ele>3677.019</ele>
        <time>2020-11-08T12:24:19Z</time>
      </trkpt>
      <trkpt lat="19.084467" lon="-97.301954">
        <ele>3674.772</ele>
        <time>2020-11-08T12:24:21Z</time>
      </trkpt>
      <trkpt lat="19.084508" lon="-97.301987">
        <ele>3673.391</ele>
        <time>2020-11-08T12:24:23Z</time>
      </trkpt>
      <trkpt lat="19.084546" lon="-97.302019">
        <ele>3671.795</ele>
        <time>2020-11-08T12:24:25Z</time>
      </trkpt>
      <trkpt lat="19.084588" lon="-97.302049">
        <ele>3669.932</ele>
        <time>2020-11-08T12:24:27Z</time>
      </trkpt>
      <trkpt lat="19.084627" lon="-97.302077">
        <ele>3668.066</ele>
        <time>2020-11-08T12:24:29Z</time>
      </trkpt>
      <trkpt lat="19.084669" lon="-97.302106">
        <ele>3667.329</ele>
        <time>2020-11-08T12:24:32Z</time>
      </trkpt>
      <trkpt lat="19.084723" lon="-97.302135">
        <ele>3667.721</ele>
        <time>2020-11-08T12:24:35Z</time>
      </trkpt>
      <trkpt lat="19.084773" lon="-97.30217">
        <ele>3668.308</ele>
        <time>2020-11-08T12:24:38Z</time>
      </trkpt>
      <trkpt lat="19.084816" lon="-97.3022">
        <ele>3668.792</ele>
        <time>2020-11-08T12:24:40Z</time>
      </trkpt>
      <trkpt lat="19.084861" lon="-97.302226">
        <ele>3669.366</ele>
        <time>2020-11-08T12:24:42Z</time>
      </trkpt>
      <trkpt lat="19.084909" lon="-97.302242">
        <ele>3669.727</ele>
        <time>2020-11-08T12:24:44Z</time>
      </trkpt>
      <trkpt lat="19.084964" lon="-97.302261">
        <ele>3669.529</ele>
        <time>2020-11-08T12:24:47Z</time>
      </trkpt>
      <trkpt lat="19.085004" lon="-97.302288">
        <ele>3668.612</ele>
        <time>2020-11-08T12:24:49Z</time>
      </trkpt>
      <trkpt lat="19.085049" lon="-97.302331">
        <ele>3668.971</ele>
        <time>2020-11-08T12:24:52Z</time>
      </trkpt>
      <trkpt lat="19.085092" lon="-97.302375">
        <ele>3669.595</ele>
        <time>2020-11-08T12:24:55Z</time>
      </trkpt>
      <trkpt lat="19.085146" lon="-97.302402">
        <ele>3669.012</ele>
        <time>2020-11-08T12:24:59Z</time>
      </trkpt>
      <trkpt lat="19.085196" lon="-97.302406">
        <ele>3668.756</ele>
        <time>2020-11-08T12:25:02Z</time>
      </trkpt>
      <trkpt lat="19.085244" lon="-97.302407">
        <ele>3668.959</ele>
        <time>2020-11-08T12:25:05Z</time>
      </trkpt>
      <trkpt lat="19.085294" lon="-97.302424">
        <ele>3669.014</ele>
        <time>2020-11-08T12:25:08Z</time>
      </trkpt>
      <trkpt lat="19.085327" lon="-97.302463">
        <ele>3666.308</ele>
        <time>2020-11-08T12:25:11Z</time>
      </trkpt>
      <trkpt lat="19.085343" lon="-97.302516">
        <ele>3665.531</ele>
        <time>2020-11-08T12:25:14Z</time>
      </trkpt>
      <trkpt lat="19.085337" lon="-97.302565">
        <ele>3664.645</ele>
        <time>2020-11-08T12:25:17Z</time>
      </trkpt>
      <trkpt lat="19.085325" lon="-97.302611">
        <ele>3662.946</ele>
        <time>2020-11-08T12:25:20Z</time>
      </trkpt>
      <trkpt lat="19.085355" lon="-97.302662">
        <ele>3662.338</ele>
        <time>2020-11-08T12:25:24Z</time>
      </trkpt>
      <trkpt lat="19.085384" lon="-97.302707">
        <ele>3660.331</ele>
        <time>2020-11-08T12:25:27Z</time>
      </trkpt>
      <trkpt lat="19.085411" lon="-97.302755">
        <ele>3658.310</ele>
        <time>2020-11-08T12:25:31Z</time>
      </trkpt>
      <trkpt lat="19.085441" lon="-97.3028">
        <ele>3657.114</ele>
        <time>2020-11-08T12:25:35Z</time>
      </trkpt>
      <trkpt lat="19.085457" lon="-97.30285">
        <ele>3656.481</ele>
        <time>2020-11-08T12:25:41Z</time>
      </trkpt>
      <trkpt lat="19.085474" lon="-97.302899">
        <ele>3656.099</ele>
        <time>2020-11-08T12:25:44Z</time>
      </trkpt>
      <trkpt lat="19.085505" lon="-97.30296">
        <ele>3655.707</ele>
        <time>2020-11-08T12:25:47Z</time>
      </trkpt>
      <trkpt lat="19.085547" lon="-97.303025">
        <ele>3653.927</ele>
        <time>2020-11-08T12:25:50Z</time>
      </trkpt>
      <trkpt lat="19.085607" lon="-97.303084">
        <ele>3652.808</ele>
        <time>2020-11-08T12:25:52Z</time>
      </trkpt>
      <trkpt lat="19.085646" lon="-97.303136">
        <ele>3653.055</ele>
        <time>2020-11-08T12:25:54Z</time>
      </trkpt>
      <trkpt lat="19.085663" lon="-97.303182">
        <ele>3650.749</ele>
        <time>2020-11-08T12:26:00Z</time>
      </trkpt>
      <trkpt lat="19.0857" lon="-97.303227">
        <ele>3648.160</ele>
        <time>2020-11-08T12:26:05Z</time>
      </trkpt>
      <trkpt lat="19.085744" lon="-97.303253">
        <ele>3645.872</ele>
        <time>2020-11-08T12:26:08Z</time>
      </trkpt>
      <trkpt lat="19.085783" lon="-97.303293">
        <ele>3644.425</ele>
        <time>2020-11-08T12:26:10Z</time>
      </trkpt>
      <trkpt lat="19.085827" lon="-97.303339">
        <ele>3644.054</ele>
        <time>2020-11-08T12:26:12Z</time>
      </trkpt>
      <trkpt lat="19.085878" lon="-97.303369">
        <ele>3644.178</ele>
        <time>2020-11-08T12:26:15Z</time>
      </trkpt>
      <trkpt lat="19.085917" lon="-97.303398">
        <ele>3642.655</ele>
        <time>2020-11-08T12:26:18Z</time>
      </trkpt>
      <trkpt lat="19.085973" lon="-97.303429">
        <ele>3640.595</ele>
        <time>2020-11-08T12:26:22Z</time>
      </trkpt>
      <trkpt lat="19.086022" lon="-97.303465">
        <ele>3640.049</ele>
        <time>2020-11-08T12:26:25Z</time>
      </trkpt>
      <trkpt lat="19.08606" lon="-97.303497">
        <ele>3639.323</ele>
        <time>2020-11-08T12:26:27Z</time>
      </trkpt>
      <trkpt lat="19.086092" lon="-97.30354">
        <ele>3638.508</ele>
        <time>2020-11-08T12:26:31Z</time>
      </trkpt>
      <trkpt lat="19.086132" lon="-97.303572">
        <ele>3636.845</ele>
        <time>2020-11-08T12:26:35Z</time>
      </trkpt>
      <trkpt lat="19.08618" lon="-97.303604">
        <ele>3635.419</ele>
        <time>2020-11-08T12:26:38Z</time>
      </trkpt>
      <trkpt lat="19.08624" lon="-97.30364">
        <ele>3635.050</ele>
        <time>2020-11-08T12:26:41Z</time>
      </trkpt>
      <trkpt lat="19.08629" lon="-97.303679">
        <ele>3635.192</ele>
        <time>2020-11-08T12:26:43Z</time>
      </trkpt>
      <trkpt lat="19.086339" lon="-97.303724">
        <ele>3635.625</ele>
        <time>2020-11-08T12:26:45Z</time>
      </trkpt>
      <trkpt lat="19.086379" lon="-97.303761">
        <ele>3635.584</ele>
        <time>2020-11-08T12:26:47Z</time>
      </trkpt>
      <trkpt lat="19.08642" lon="-97.303801">
        <ele>3635.438</ele>
        <time>2020-11-08T12:26:49Z</time>
      </trkpt>
      <trkpt lat="19.086461" lon="-97.303841">
        <ele>3634.245</ele>
        <time>2020-11-08T12:26:52Z</time>
      </trkpt>
      <trkpt lat="19.086505" lon="-97.303881">
        <ele>3633.547</ele>
        <time>2020-11-08T12:26:54Z</time>
      </trkpt>
      <trkpt lat="19.086547" lon="-97.303937">
        <ele>3633.529</ele>
        <time>2020-11-08T12:26:56Z</time>
      </trkpt>
      <trkpt lat="19.086572" lon="-97.303984">
        <ele>3633.521</ele>
        <time>2020-11-08T12:26:58Z</time>
      </trkpt>
      <trkpt lat="19.086606" lon="-97.304033">
        <ele>3633.108</ele>
        <time>2020-11-08T12:27:02Z</time>
      </trkpt>
      <trkpt lat="19.086641" lon="-97.304074">
        <ele>3633.610</ele>
        <time>2020-11-08T12:27:06Z</time>
      </trkpt>
      <trkpt lat="19.086664" lon="-97.304125">
        <ele>3633.914</ele>
        <time>2020-11-08T12:27:11Z</time>
      </trkpt>
      <trkpt lat="19.086663" lon="-97.304186">
        <ele>3633.785</ele>
        <time>2020-11-08T12:27:16Z</time>
      </trkpt>
      <trkpt lat="19.086681" lon="-97.304251">
        <ele>3633.637</ele>
        <time>2020-11-08T12:27:19Z</time>
      </trkpt>
      <trkpt lat="19.086703" lon="-97.304293">
        <ele>3633.140</ele>
        <time>2020-11-08T12:27:21Z</time>
      </trkpt>
      <trkpt lat="19.086727" lon="-97.304339">
        <ele>3632.469</ele>
        <time>2020-11-08T12:27:23Z</time>
      </trkpt>
      <trkpt lat="19.086757" lon="-97.304383">
        <ele>3632.483</ele>
        <time>2020-11-08T12:27:25Z</time>
      </trkpt>
      <trkpt lat="19.086788" lon="-97.304423">
        <ele>3632.070</ele>
        <time>2020-11-08T12:27:27Z</time>
      </trkpt>
      <trkpt lat="19.086837" lon="-97.304479">
        <ele>3630.293</ele>
        <time>2020-11-08T12:27:30Z</time>
      </trkpt>
      <trkpt lat="19.086878" lon="-97.30451">
        <ele>3628.765</ele>
        <time>2020-11-08T12:27:33Z</time>
      </trkpt>
      <trkpt lat="19.086925" lon="-97.304517">
        <ele>3626.621</ele>
        <time>2020-11-08T12:27:41Z</time>
      </trkpt>
      <trkpt lat="19.086972" lon="-97.304548">
        <ele>3624.908</ele>
        <time>2020-11-08T12:27:45Z</time>
      </trkpt>
      <trkpt lat="19.087011" lon="-97.304578">
        <ele>3623.525</ele>
        <time>2020-11-08T12:27:48Z</time>
      </trkpt>
      <trkpt lat="19.08705" lon="-97.304601">
        <ele>3621.519</ele>
        <time>2020-11-08T12:27:50Z</time>
      </trkpt>
      <trkpt lat="19.087095" lon="-97.304618">
        <ele>3618.760</ele>
        <time>2020-11-08T12:27:52Z</time>
      </trkpt>
      <trkpt lat="19.087158" lon="-97.304638">
        <ele>3618.632</ele>
        <time>2020-11-08T12:27:55Z</time>
      </trkpt>
      <trkpt lat="19.087202" lon="-97.304655">
        <ele>3618.185</ele>
        <time>2020-11-08T12:27:58Z</time>
      </trkpt>
      <trkpt lat="19.087245" lon="-97.304674">
        <ele>3617.864</ele>
        <time>2020-11-08T12:28:01Z</time>
      </trkpt>
      <trkpt lat="19.087294" lon="-97.304711">
        <ele>3616.848</ele>
        <time>2020-11-08T12:28:05Z</time>
      </trkpt>
      <trkpt lat="19.087338" lon="-97.304747">
        <ele>3616.615</ele>
        <time>2020-11-08T12:28:09Z</time>
      </trkpt>
      <trkpt lat="19.087379" lon="-97.304787">
        <ele>3616.913</ele>
        <time>2020-11-08T12:28:12Z</time>
      </trkpt>
      <trkpt lat="19.087424" lon="-97.304818">
        <ele>3617.143</ele>
        <time>2020-11-08T12:28:15Z</time>
      </trkpt>
      <trkpt lat="19.087478" lon="-97.304842">
        <ele>3617.207</ele>
        <time>2020-11-08T12:28:18Z</time>
      </trkpt>
      <trkpt lat="19.087521" lon="-97.304857">
        <ele>3617.308</ele>
        <time>2020-11-08T12:28:22Z</time>
      </trkpt>
      <trkpt lat="19.08757" lon="-97.304876">
        <ele>3616.167</ele>
        <time>2020-11-08T12:28:27Z</time>
      </trkpt>
      <trkpt lat="19.08762" lon="-97.304888">
        <ele>3615.031</ele>
        <time>2020-11-08T12:28:31Z</time>
      </trkpt>
      <trkpt lat="19.08767" lon="-97.304897">
        <ele>3613.132</ele>
        <time>2020-11-08T12:28:34Z</time>
      </trkpt>
      <trkpt lat="19.087723" lon="-97.304907">
        <ele>3611.214</ele>
        <time>2020-11-08T12:28:37Z</time>
      </trkpt>
      <trkpt lat="19.087779" lon="-97.304916">
        <ele>3608.917</ele>
        <time>2020-11-08T12:28:41Z</time>
      </trkpt>
      <trkpt lat="19.087831" lon="-97.304946">
        <ele>3607.166</ele>
        <time>2020-11-08T12:28:45Z</time>
      </trkpt>
      <trkpt lat="19.087869" lon="-97.304988">
        <ele>3606.470</ele>
        <time>2020-11-08T12:28:49Z</time>
      </trkpt>
      <trkpt lat="19.087907" lon="-97.305019">
        <ele>3605.637</ele>
        <time>2020-11-08T12:28:52Z</time>
      </trkpt>
      <trkpt lat="19.08796" lon="-97.305042">
        <ele>3605.132</ele>
        <time>2020-11-08T12:28:56Z</time>
      </trkpt>
      <trkpt lat="19.088005" lon="-97.305075">
        <ele>3604.492</ele>
        <time>2020-11-08T12:29:00Z</time>
      </trkpt>
      <trkpt lat="19.08806" lon="-97.305081">
        <ele>3603.611</ele>
        <time>2020-11-08T12:29:05Z</time>
      </trkpt>
      <trkpt lat="19.088112" lon="-97.305103">
        <ele>3603.508</ele>
        <time>2020-11-08T12:29:08Z</time>
      </trkpt>
      <trkpt lat="19.088155" lon="-97.305117">
        <ele>3603.029</ele>
        <time>2020-11-08T12:29:10Z</time>
      </trkpt>
      <trkpt lat="19.088208" lon="-97.305127">
        <ele>3602.393</ele>
        <time>2020-11-08T12:29:12Z</time>
      </trkpt>
      <trkpt lat="19.088258" lon="-97.305138">
        <ele>3602.374</ele>
        <time>2020-11-08T12:29:14Z</time>
      </trkpt>
      <trkpt lat="19.088316" lon="-97.305159">
        <ele>3602.376</ele>
        <time>2020-11-08T12:29:17Z</time>
      </trkpt>
      <trkpt lat="19.08836" lon="-97.305169">
        <ele>3601.969</ele>
        <time>2020-11-08T12:29:20Z</time>
      </trkpt>
      <trkpt lat="19.088421" lon="-97.305162">
        <ele>3601.718</ele>
        <time>2020-11-08T12:29:23Z</time>
      </trkpt>
      <trkpt lat="19.088466" lon="-97.30515">
        <ele>3597.712</ele>
        <time>2020-11-08T12:29:25Z</time>
      </trkpt>
      <trkpt lat="19.088526" lon="-97.305141">
        <ele>3594.879</ele>
        <time>2020-11-08T12:29:28Z</time>
      </trkpt>
      <trkpt lat="19.088585" lon="-97.30513">
        <ele>3593.439</ele>
        <time>2020-11-08T12:29:31Z</time>
      </trkpt>
      <trkpt lat="19.088625" lon="-97.305104">
        <ele>3592.201</ele>
        <time>2020-11-08T12:29:34Z</time>
      </trkpt>
      <trkpt lat="19.088662" lon="-97.305071">
        <ele>3591.921</ele>
        <time>2020-11-08T12:29:39Z</time>
      </trkpt>
      <trkpt lat="19.088698" lon="-97.305041">
        <ele>3592.108</ele>
        <time>2020-11-08T12:29:43Z</time>
      </trkpt>
      <trkpt lat="19.088735" lon="-97.305003">
        <ele>3592.639</ele>
        <time>2020-11-08T12:29:47Z</time>
      </trkpt>
      <trkpt lat="19.08878" lon="-97.304961">
        <ele>3591.353</ele>
        <time>2020-11-08T12:29:51Z</time>
      </trkpt>
      <trkpt lat="19.088808" lon="-97.304922">
        <ele>3590.134</ele>
        <time>2020-11-08T12:29:55Z</time>
      </trkpt>
      <trkpt lat="19.08883" lon="-97.304862">
        <ele>3589.476</ele>
        <time>2020-11-08T12:29:59Z</time>
      </trkpt>
      <trkpt lat="19.088859" lon="-97.304818">
        <ele>3588.249</ele>
        <time>2020-11-08T12:30:02Z</time>
      </trkpt>
      <trkpt lat="19.088894" lon="-97.304778">
        <ele>3588.328</ele>
        <time>2020-11-08T12:30:05Z</time>
      </trkpt>
      <trkpt lat="19.08894" lon="-97.304755">
        <ele>3586.752</ele>
        <time>2020-11-08T12:30:09Z</time>
      </trkpt>
      <trkpt lat="19.088967" lon="-97.304699">
        <ele>3585.489</ele>
        <time>2020-11-08T12:30:15Z</time>
      </trkpt>
      <trkpt lat="19.089011" lon="-97.304686">
        <ele>3582.277</ele>
        <time>2020-11-08T12:30:18Z</time>
      </trkpt>
      <trkpt lat="19.089058" lon="-97.304666">
        <ele>3580.361</ele>
        <time>2020-11-08T12:30:21Z</time>
      </trkpt>
      <trkpt lat="19.089121" lon="-97.304667">
        <ele>3579.927</ele>
        <time>2020-11-08T12:30:24Z</time>
      </trkpt>
      <trkpt lat="19.089176" lon="-97.304693">
        <ele>3578.108</ele>
        <time>2020-11-08T12:30:28Z</time>
      </trkpt>
      <trkpt lat="19.089232" lon="-97.304727">
        <ele>3577.873</ele>
        <time>2020-11-08T12:30:32Z</time>
      </trkpt>
      <trkpt lat="19.089288" lon="-97.304747">
        <ele>3577.257</ele>
        <time>2020-11-08T12:30:35Z</time>
      </trkpt>
      <trkpt lat="19.089337" lon="-97.304754">
        <ele>3577.368</ele>
        <time>2020-11-08T12:30:39Z</time>
      </trkpt>
      <trkpt lat="19.089387" lon="-97.304784">
        <ele>3576.980</ele>
        <time>2020-11-08T12:30:43Z</time>
      </trkpt>
      <trkpt lat="19.089414" lon="-97.30483">
        <ele>3577.583</ele>
        <time>2020-11-08T12:30:46Z</time>
      </trkpt>
      <trkpt lat="19.089427" lon="-97.304876">
        <ele>3577.832</ele>
        <time>2020-11-08T12:30:50Z</time>
      </trkpt>
      <trkpt lat="19.089451" lon="-97.304919">
        <ele>3578.016</ele>
        <time>2020-11-08T12:30:53Z</time>
      </trkpt>
      <trkpt lat="19.089478" lon="-97.304965">
        <ele>3576.563</ele>
        <time>2020-11-08T12:30:56Z</time>
      </trkpt>
      <trkpt lat="19.08951" lon="-97.30502">
        <ele>3575.273</ele>
        <time>2020-11-08T12:30:59Z</time>
      </trkpt>
      <trkpt lat="19.08954" lon="-97.305056">
        <ele>3574.085</ele>
        <time>2020-11-08T12:31:01Z</time>
      </trkpt>
      <trkpt lat="19.089578" lon="-97.305103">
        <ele>3572.913</ele>
        <time>2020-11-08T12:31:03Z</time>
      </trkpt>
      <trkpt lat="19.089611" lon="-97.305144">
        <ele>3572.208</ele>
        <time>2020-11-08T12:31:05Z</time>
      </trkpt>
      <trkpt lat="19.08964" lon="-97.305182">
        <ele>3571.483</ele>
        <time>2020-11-08T12:31:07Z</time>
      </trkpt>
      <trkpt lat="19.089682" lon="-97.305218">
        <ele>3570.517</ele>
        <time>2020-11-08T12:31:10Z</time>
      </trkpt>
      <trkpt lat="19.089725" lon="-97.305246">
        <ele>3569.298</ele>
        <time>2020-11-08T12:31:13Z</time>
      </trkpt>
      <trkpt lat="19.08978" lon="-97.30527">
        <ele>3568.870</ele>
        <time>2020-11-08T12:31:16Z</time>
      </trkpt>
      <trkpt lat="19.089823" lon="-97.305289">
        <ele>3568.273</ele>
        <time>2020-11-08T12:31:18Z</time>
      </trkpt>
      <trkpt lat="19.089878" lon="-97.305328">
        <ele>3568.232</ele>
        <time>2020-11-08T12:31:21Z</time>
      </trkpt>
      <trkpt lat="19.089917" lon="-97.305359">
        <ele>3568.666</ele>
        <time>2020-11-08T12:31:23Z</time>
      </trkpt>
      <trkpt lat="19.089951" lon="-97.305414">
        <ele>3568.853</ele>
        <time>2020-11-08T12:31:26Z</time>
      </trkpt>
      <trkpt lat="19.089982" lon="-97.305454">
        <ele>3568.557</ele>
        <time>2020-11-08T12:31:29Z</time>
      </trkpt>
      <trkpt lat="19.090021" lon="-97.305478">
        <ele>3567.500</ele>
        <time>2020-11-08T12:31:33Z</time>
      </trkpt>
      <trkpt lat="19.090059" lon="-97.305515">
        <ele>3565.720</ele>
        <time>2020-11-08T12:31:53Z</time>
      </trkpt>
      <trkpt lat="19.090131" lon="-97.305516">
        <ele>3565.408</ele>
        <time>2020-11-08T12:31:57Z</time>
      </trkpt>
      <trkpt lat="19.090191" lon="-97.305518">
        <ele>3564.891</ele>
        <time>2020-11-08T12:31:59Z</time>
      </trkpt>
      <trkpt lat="19.090198" lon="-97.305571">
        <ele>3562.545</ele>
        <time>2020-11-08T12:32:32Z</time>
      </trkpt>
      <trkpt lat="19.090232" lon="-97.305603">
        <ele>3559.126</ele>
        <time>2020-11-08T12:32:43Z</time>
      </trkpt>
      <trkpt lat="19.090278" lon="-97.305633">
        <ele>3556.718</ele>
        <time>2020-11-08T12:32:49Z</time>
      </trkpt>
      <trkpt lat="19.090317" lon="-97.305663">
        <ele>3556.061</ele>
        <time>2020-11-08T12:32:52Z</time>
      </trkpt>
      <trkpt lat="19.090359" lon="-97.305696">
        <ele>3556.080</ele>
        <time>2020-11-08T12:32:55Z</time>
      </trkpt>
      <trkpt lat="19.090409" lon="-97.305717">
        <ele>3556.444</ele>
        <time>2020-11-08T12:32:59Z</time>
      </trkpt>
      <trkpt lat="19.090452" lon="-97.305737">
        <ele>3556.291</ele>
        <time>2020-11-08T12:33:02Z</time>
      </trkpt>
      <trkpt lat="19.090469" lon="-97.305789">
        <ele>3555.796</ele>
        <time>2020-11-08T12:33:07Z</time>
      </trkpt>
      <trkpt lat="19.090484" lon="-97.305836">
        <ele>3553.431</ele>
        <time>2020-11-08T12:33:13Z</time>
      </trkpt>
      <trkpt lat="19.090517" lon="-97.305882">
        <ele>3554.024</ele>
        <time>2020-11-08T12:33:17Z</time>
      </trkpt>
      <trkpt lat="19.090558" lon="-97.305929">
        <ele>3554.008</ele>
        <time>2020-11-08T12:33:20Z</time>
      </trkpt>
      <trkpt lat="19.090593" lon="-97.305963">
        <ele>3554.845</ele>
        <time>2020-11-08T12:33:23Z</time>
      </trkpt>
      <trkpt lat="19.090612" lon="-97.306016">
        <ele>3555.339</ele>
        <time>2020-11-08T12:33:27Z</time>
      </trkpt>
      <trkpt lat="19.090623" lon="-97.306065">
        <ele>3554.030</ele>
        <time>2020-11-08T12:33:31Z</time>
      </trkpt>
      <trkpt lat="19.090653" lon="-97.306113">
        <ele>3552.892</ele>
        <time>2020-11-08T12:33:34Z</time>
      </trkpt>
      <trkpt lat="19.0907" lon="-97.30616">
        <ele>3551.395</ele>
        <time>2020-11-08T12:33:37Z</time>
      </trkpt>
      <trkpt lat="19.090733" lon="-97.306211">
        <ele>3548.884</ele>
        <time>2020-11-08T12:33:41Z</time>
      </trkpt>
      <trkpt lat="19.090761" lon="-97.306266">
        <ele>3548.198</ele>
        <time>2020-11-08T12:33:44Z</time>
      </trkpt>
      <trkpt lat="19.090788" lon="-97.306321">
        <ele>3548.525</ele>
        <time>2020-11-08T12:33:47Z</time>
      </trkpt>
      <trkpt lat="19.090807" lon="-97.306372">
        <ele>3548.754</ele>
        <time>2020-11-08T12:33:50Z</time>
      </trkpt>
      <trkpt lat="19.090822" lon="-97.306419">
        <ele>3548.856</ele>
        <time>2020-11-08T12:33:55Z</time>
      </trkpt>
      <trkpt lat="19.090855" lon="-97.306463">
        <ele>3546.511</ele>
        <time>2020-11-08T12:33:58Z</time>
      </trkpt>
      <trkpt lat="19.090905" lon="-97.306511">
        <ele>3544.708</ele>
        <time>2020-11-08T12:34:01Z</time>
      </trkpt>
      <trkpt lat="19.090951" lon="-97.306559">
        <ele>3543.281</ele>
        <time>2020-11-08T12:34:04Z</time>
      </trkpt>
      <trkpt lat="19.090995" lon="-97.306614">
        <ele>3542.385</ele>
        <time>2020-11-08T12:34:07Z</time>
      </trkpt>
      <trkpt lat="19.091037" lon="-97.306663">
        <ele>3540.616</ele>
        <time>2020-11-08T12:34:10Z</time>
      </trkpt>
      <trkpt lat="19.091063" lon="-97.306702">
        <ele>3540.048</ele>
        <time>2020-11-08T12:34:13Z</time>
      </trkpt>
      <trkpt lat="19.091095" lon="-97.306741">
        <ele>3538.831</ele>
        <time>2020-11-08T12:34:18Z</time>
      </trkpt>
      <trkpt lat="19.091123" lon="-97.306798">
        <ele>3536.590</ele>
        <time>2020-11-08T12:34:21Z</time>
      </trkpt>
      <trkpt lat="19.091141" lon="-97.306844">
        <ele>3534.754</ele>
        <time>2020-11-08T12:34:23Z</time>
      </trkpt>
      <trkpt lat="19.091151" lon="-97.306902">
        <ele>3534.041</ele>
        <time>2020-11-08T12:34:27Z</time>
      </trkpt>
      <trkpt lat="19.091179" lon="-97.306952">
        <ele>3534.412</ele>
        <time>2020-11-08T12:34:29Z</time>
      </trkpt>
      <trkpt lat="19.091215" lon="-97.307008">
        <ele>3534.232</ele>
        <time>2020-11-08T12:34:31Z</time>
      </trkpt>
      <trkpt lat="19.091258" lon="-97.307055">
        <ele>3533.305</ele>
        <time>2020-11-08T12:34:33Z</time>
      </trkpt>
      <trkpt lat="19.0913" lon="-97.307105">
        <ele>3532.808</ele>
        <time>2020-11-08T12:34:35Z</time>
      </trkpt>
      <trkpt lat="19.091341" lon="-97.307165">
        <ele>3532.167</ele>
        <time>2020-11-08T12:34:37Z</time>
      </trkpt>
      <trkpt lat="19.091381" lon="-97.30722">
        <ele>3531.781</ele>
        <time>2020-11-08T12:34:39Z</time>
      </trkpt>
      <trkpt lat="19.091423" lon="-97.307277">
        <ele>3531.452</ele>
        <time>2020-11-08T12:34:41Z</time>
      </trkpt>
      <trkpt lat="19.091455" lon="-97.30732">
        <ele>3531.264</ele>
        <time>2020-11-08T12:34:43Z</time>
      </trkpt>
      <trkpt lat="19.091494" lon="-97.30738">
        <ele>3531.527</ele>
        <time>2020-11-08T12:34:45Z</time>
      </trkpt>
      <trkpt lat="19.091529" lon="-97.307439">
        <ele>3530.166</ele>
        <time>2020-11-08T12:34:47Z</time>
      </trkpt>
      <trkpt lat="19.091569" lon="-97.307496">
        <ele>3530.530</ele>
        <time>2020-11-08T12:34:49Z</time>
      </trkpt>
      <trkpt lat="19.091606" lon="-97.307536">
        <ele>3531.527</ele>
        <time>2020-11-08T12:34:51Z</time>
      </trkpt>
      <trkpt lat="19.091641" lon="-97.30758">
        <ele>3532.569</ele>
        <time>2020-11-08T12:34:53Z</time>
      </trkpt>
      <trkpt lat="19.091675" lon="-97.307652">
        <ele>3533.104</ele>
        <time>2020-11-08T12:34:55Z</time>
      </trkpt>
      <trkpt lat="19.091705" lon="-97.307724">
        <ele>3532.324</ele>
        <time>2020-11-08T12:34:57Z</time>
      </trkpt>
      <trkpt lat="19.091732" lon="-97.3078">
        <ele>3531.008</ele>
        <time>2020-11-08T12:34:59Z</time>
      </trkpt>
      <trkpt lat="19.091763" lon="-97.307856">
        <ele>3531.012</ele>
        <time>2020-11-08T12:35:01Z</time>
      </trkpt>
      <trkpt lat="19.091788" lon="-97.3079">
        <ele>3531.456</ele>
        <time>2020-11-08T12:35:03Z</time>
      </trkpt>
      <trkpt lat="19.091797" lon="-97.30796">
        <ele>3532.027</ele>
        <time>2020-11-08T12:35:06Z</time>
      </trkpt>
      <trkpt lat="19.091805" lon="-97.308035">
        <ele>3532.839</ele>
        <time>2020-11-08T12:35:09Z</time>
      </trkpt>
      <trkpt lat="19.091826" lon="-97.308106">
        <ele>3532.152</ele>
        <time>2020-11-08T12:35:11Z</time>
      </trkpt>
      <trkpt lat="19.091868" lon="-97.30817">
        <ele>3530.961</ele>
        <time>2020-11-08T12:35:13Z</time>
      </trkpt>
      <trkpt lat="19.091914" lon="-97.308236">
        <ele>3530.645</ele>
        <time>2020-11-08T12:35:15Z</time>
      </trkpt>
      <trkpt lat="19.091933" lon="-97.308287">
        <ele>3531.612</ele>
        <time>2020-11-08T12:35:17Z</time>
      </trkpt>
      <trkpt lat="19.091949" lon="-97.308357">
        <ele>3532.623</ele>
        <time>2020-11-08T12:35:19Z</time>
      </trkpt>
      <trkpt lat="19.091978" lon="-97.308415">
        <ele>3532.483</ele>
        <time>2020-11-08T12:35:21Z</time>
      </trkpt>
      <trkpt lat="19.092013" lon="-97.308462">
        <ele>3531.911</ele>
        <time>2020-11-08T12:35:23Z</time>
      </trkpt>
      <trkpt lat="19.092028" lon="-97.308514">
        <ele>3531.208</ele>
        <time>2020-11-08T12:35:25Z</time>
      </trkpt>
      <trkpt lat="19.092038" lon="-97.308572">
        <ele>3530.478</ele>
        <time>2020-11-08T12:35:27Z</time>
      </trkpt>
      <trkpt lat="19.092053" lon="-97.308628">
        <ele>3529.152</ele>
        <time>2020-11-08T12:35:29Z</time>
      </trkpt>
      <trkpt lat="19.092073" lon="-97.308683">
        <ele>3525.943</ele>
        <time>2020-11-08T12:35:31Z</time>
      </trkpt>
      <trkpt lat="19.092094" lon="-97.308745">
        <ele>3524.085</ele>
        <time>2020-11-08T12:35:33Z</time>
      </trkpt>
      <trkpt lat="19.092119" lon="-97.308814">
        <ele>3522.598</ele>
        <time>2020-11-08T12:35:35Z</time>
      </trkpt>
      <trkpt lat="19.092142" lon="-97.308887">
        <ele>3521.217</ele>
        <time>2020-11-08T12:35:37Z</time>
      </trkpt>
      <trkpt lat="19.092158" lon="-97.308956">
        <ele>3520.451</ele>
        <time>2020-11-08T12:35:39Z</time>
      </trkpt>
      <trkpt lat="19.092168" lon="-97.309024">
        <ele>3519.958</ele>
        <time>2020-11-08T12:35:41Z</time>
      </trkpt>
      <trkpt lat="19.092164" lon="-97.309084">
        <ele>3520.059</ele>
        <time>2020-11-08T12:35:44Z</time>
      </trkpt>
      <trkpt lat="19.092161" lon="-97.309144">
        <ele>3520.503</ele>
        <time>2020-11-08T12:35:46Z</time>
      </trkpt>
      <trkpt lat="19.09216" lon="-97.309216">
        <ele>3519.223</ele>
        <time>2020-11-08T12:35:48Z</time>
      </trkpt>
      <trkpt lat="19.092157" lon="-97.309307">
        <ele>3519.608</ele>
        <time>2020-11-08T12:35:50Z</time>
      </trkpt>
      <trkpt lat="19.092156" lon="-97.309356">
        <ele>3519.841</ele>
        <time>2020-11-08T12:35:51Z</time>
      </trkpt>
      <trkpt lat="19.09215" lon="-97.309458">
        <ele>3519.925</ele>
        <time>2020-11-08T12:35:53Z</time>
      </trkpt>
      <trkpt lat="19.092146" lon="-97.309509">
        <ele>3519.696</ele>
        <time>2020-11-08T12:35:54Z</time>
      </trkpt>
      <trkpt lat="19.092139" lon="-97.309578">
        <ele>3519.868</ele>
        <time>2020-11-08T12:35:56Z</time>
      </trkpt>
      <trkpt lat="19.092133" lon="-97.309629">
        <ele>3520.391</ele>
        <time>2020-11-08T12:35:58Z</time>
      </trkpt>
      <trkpt lat="19.092127" lon="-97.309692">
        <ele>3520.270</ele>
        <time>2020-11-08T12:36:00Z</time>
      </trkpt>
      <trkpt lat="19.09212" lon="-97.309783">
        <ele>3520.134</ele>
        <time>2020-11-08T12:36:02Z</time>
      </trkpt>
      <trkpt lat="19.092116" lon="-97.309833">
        <ele>3519.371</ele>
        <time>2020-11-08T12:36:03Z</time>
      </trkpt>
      <trkpt lat="19.092105" lon="-97.30993">
        <ele>3518.863</ele>
        <time>2020-11-08T12:36:05Z</time>
      </trkpt>
      <trkpt lat="19.092092" lon="-97.310027">
        <ele>3518.544</ele>
        <time>2020-11-08T12:36:07Z</time>
      </trkpt>
      <trkpt lat="19.092086" lon="-97.310074">
        <ele>3517.918</ele>
        <time>2020-11-08T12:36:08Z</time>
      </trkpt>
      <trkpt lat="19.092075" lon="-97.310166">
        <ele>3517.608</ele>
        <time>2020-11-08T12:36:10Z</time>
      </trkpt>
      <trkpt lat="19.092062" lon="-97.310255">
        <ele>3517.062</ele>
        <time>2020-11-08T12:36:12Z</time>
      </trkpt>
      <trkpt lat="19.092045" lon="-97.310341">
        <ele>3517.466</ele>
        <time>2020-11-08T12:36:14Z</time>
      </trkpt>
      <trkpt lat="19.092024" lon="-97.310427">
        <ele>3516.187</ele>
        <time>2020-11-08T12:36:16Z</time>
      </trkpt>
      <trkpt lat="19.092001" lon="-97.310506">
        <ele>3515.739</ele>
        <time>2020-11-08T12:36:18Z</time>
      </trkpt>
      <trkpt lat="19.091973" lon="-97.310582">
        <ele>3514.712</ele>
        <time>2020-11-08T12:36:20Z</time>
      </trkpt>
      <trkpt lat="19.091941" lon="-97.310653">
        <ele>3513.371</ele>
        <time>2020-11-08T12:36:22Z</time>
      </trkpt>
      <trkpt lat="19.091901" lon="-97.310724">
        <ele>3511.695</ele>
        <time>2020-11-08T12:36:24Z</time>
      </trkpt>
      <trkpt lat="19.091855" lon="-97.310787">
        <ele>3511.472</ele>
        <time>2020-11-08T12:36:26Z</time>
      </trkpt>
      <trkpt lat="19.091807" lon="-97.310846">
        <ele>3510.961</ele>
        <time>2020-11-08T12:36:28Z</time>
      </trkpt>
      <trkpt lat="19.091754" lon="-97.310897">
        <ele>3510.621</ele>
        <time>2020-11-08T12:36:30Z</time>
      </trkpt>
      <trkpt lat="19.0917" lon="-97.310957">
        <ele>3510.013</ele>
        <time>2020-11-08T12:36:32Z</time>
      </trkpt>
      <trkpt lat="19.091655" lon="-97.311024">
        <ele>3510.008</ele>
        <time>2020-11-08T12:36:34Z</time>
      </trkpt>
      <trkpt lat="19.091611" lon="-97.311091">
        <ele>3510.052</ele>
        <time>2020-11-08T12:36:36Z</time>
      </trkpt>
      <trkpt lat="19.091565" lon="-97.311153">
        <ele>3509.656</ele>
        <time>2020-11-08T12:36:38Z</time>
      </trkpt>
      <trkpt lat="19.091515" lon="-97.311213">
        <ele>3509.437</ele>
        <time>2020-11-08T12:36:40Z</time>
      </trkpt>
      <trkpt lat="19.091461" lon="-97.311272">
        <ele>3509.729</ele>
        <time>2020-11-08T12:36:42Z</time>
      </trkpt>
      <trkpt lat="19.091404" lon="-97.31133">
        <ele>3509.582</ele>
        <time>2020-11-08T12:36:44Z</time>
      </trkpt>
      <trkpt lat="19.091343" lon="-97.311384">
        <ele>3509.461</ele>
        <time>2020-11-08T12:36:46Z</time>
      </trkpt>
      <trkpt lat="19.09128" lon="-97.311428">
        <ele>3509.355</ele>
        <time>2020-11-08T12:36:48Z</time>
      </trkpt>
      <trkpt lat="19.091229" lon="-97.311455">
        <ele>3509.212</ele>
        <time>2020-11-08T12:36:50Z</time>
      </trkpt>
      <trkpt lat="19.091173" lon="-97.311491">
        <ele>3509.231</ele>
        <time>2020-11-08T12:36:53Z</time>
      </trkpt>
      <trkpt lat="19.091139" lon="-97.311528">
        <ele>3508.461</ele>
        <time>2020-11-08T12:36:57Z</time>
      </trkpt>
      <trkpt lat="19.091095" lon="-97.311545">
        <ele>3508.307</ele>
        <time>2020-11-08T12:37:00Z</time>
      </trkpt>
      <trkpt lat="19.09105" lon="-97.311549">
        <ele>3507.808</ele>
        <time>2020-11-08T12:37:02Z</time>
      </trkpt>
      <trkpt lat="19.090996" lon="-97.311549">
        <ele>3506.319</ele>
        <time>2020-11-08T12:37:04Z</time>
      </trkpt>
      <trkpt lat="19.09094" lon="-97.311548">
        <ele>3505.053</ele>
        <time>2020-11-08T12:37:06Z</time>
      </trkpt>
      <trkpt lat="19.090877" lon="-97.311544">
        <ele>3504.644</ele>
        <time>2020-11-08T12:37:08Z</time>
      </trkpt>
      <trkpt lat="19.09081" lon="-97.311537">
        <ele>3504.876</ele>
        <time>2020-11-08T12:37:10Z</time>
      </trkpt>
      <trkpt lat="19.090741" lon="-97.311528">
        <ele>3504.949</ele>
        <time>2020-11-08T12:37:12Z</time>
      </trkpt>
      <trkpt lat="19.09067" lon="-97.311518">
        <ele>3505.428</ele>
        <time>2020-11-08T12:37:14Z</time>
      </trkpt>
      <trkpt lat="19.090604" lon="-97.311507">
        <ele>3506.152</ele>
        <time>2020-11-08T12:37:16Z</time>
      </trkpt>
      <trkpt lat="19.090548" lon="-97.311493">
        <ele>3506.159</ele>
        <time>2020-11-08T12:37:19Z</time>
      </trkpt>
      <trkpt lat="19.090496" lon="-97.3115">
        <ele>3506.554</ele>
        <time>2020-11-08T12:37:24Z</time>
      </trkpt>
      <trkpt lat="19.090441" lon="-97.311513">
        <ele>3505.556</ele>
        <time>2020-11-08T12:37:28Z</time>
      </trkpt>
      <trkpt lat="19.090386" lon="-97.311537">
        <ele>3504.911</ele>
        <time>2020-11-08T12:37:32Z</time>
      </trkpt>
      <trkpt lat="19.090332" lon="-97.311566">
        <ele>3504.608</ele>
        <time>2020-11-08T12:37:35Z</time>
      </trkpt>
      <trkpt lat="19.090281" lon="-97.311583">
        <ele>3504.481</ele>
        <time>2020-11-08T12:37:38Z</time>
      </trkpt>
      <trkpt lat="19.090232" lon="-97.311589">
        <ele>3504.715</ele>
        <time>2020-11-08T12:37:41Z</time>
      </trkpt>
      <trkpt lat="19.090174" lon="-97.311588">
        <ele>3505.356</ele>
        <time>2020-11-08T12:37:45Z</time>
      </trkpt>
      <trkpt lat="19.090128" lon="-97.311587">
        <ele>3505.628</ele>
        <time>2020-11-08T12:37:50Z</time>
      </trkpt>
      <trkpt lat="19.09008" lon="-97.3116">
        <ele>3504.251</ele>
        <time>2020-11-08T12:37:56Z</time>
      </trkpt>
      <trkpt lat="19.090028" lon="-97.311618">
        <ele>3504.240</ele>
        <time>2020-11-08T12:38:00Z</time>
      </trkpt>
      <trkpt lat="19.089967" lon="-97.311635">
        <ele>3504.664</ele>
        <time>2020-11-08T12:38:03Z</time>
      </trkpt>
      <trkpt lat="19.089904" lon="-97.311651">
        <ele>3504.841</ele>
        <time>2020-11-08T12:38:06Z</time>
      </trkpt>
      <trkpt lat="19.089858" lon="-97.311677">
        <ele>3504.157</ele>
        <time>2020-11-08T12:38:08Z</time>
      </trkpt>
      <trkpt lat="19.089813" lon="-97.311704">
        <ele>3503.700</ele>
        <time>2020-11-08T12:38:10Z</time>
      </trkpt>
      <trkpt lat="19.089772" lon="-97.311728">
        <ele>3503.520</ele>
        <time>2020-11-08T12:38:12Z</time>
      </trkpt>
      <trkpt lat="19.089721" lon="-97.311749">
        <ele>3502.608</ele>
        <time>2020-11-08T12:38:15Z</time>
      </trkpt>
      <trkpt lat="19.089669" lon="-97.311769">
        <ele>3502.011</ele>
        <time>2020-11-08T12:38:18Z</time>
      </trkpt>
      <trkpt lat="19.089613" lon="-97.311785">
        <ele>3502.985</ele>
        <time>2020-11-08T12:38:21Z</time>
      </trkpt>
      <trkpt lat="19.089565" lon="-97.311805">
        <ele>3502.646</ele>
        <time>2020-11-08T12:38:24Z</time>
      </trkpt>
      <trkpt lat="19.089519" lon="-97.311818">
        <ele>3502.028</ele>
        <time>2020-11-08T12:38:27Z</time>
      </trkpt>
      <trkpt lat="19.089462" lon="-97.31183">
        <ele>3501.311</ele>
        <time>2020-11-08T12:38:31Z</time>
      </trkpt>
      <trkpt lat="19.0894" lon="-97.311849">
        <ele>3501.380</ele>
        <time>2020-11-08T12:38:34Z</time>
      </trkpt>
      <trkpt lat="19.089351" lon="-97.311863">
        <ele>3500.564</ele>
        <time>2020-11-08T12:38:36Z</time>
      </trkpt>
      <trkpt lat="19.089299" lon="-97.311874">
        <ele>3500.061</ele>
        <time>2020-11-08T12:38:38Z</time>
      </trkpt>
      <trkpt lat="19.089243" lon="-97.311875">
        <ele>3498.924</ele>
        <time>2020-11-08T12:38:40Z</time>
      </trkpt>
      <trkpt lat="19.089187" lon="-97.311867">
        <ele>3497.804</ele>
        <time>2020-11-08T12:38:42Z</time>
      </trkpt>
      <trkpt lat="19.089142" lon="-97.311859">
        <ele>3496.814</ele>
        <time>2020-11-08T12:38:44Z</time>
      </trkpt>
      <trkpt lat="19.089084" lon="-97.311842">
        <ele>3495.808</ele>
        <time>2020-11-08T12:38:47Z</time>
      </trkpt>
      <trkpt lat="19.089019" lon="-97.311833">
        <ele>3494.468</ele>
        <time>2020-11-08T12:38:50Z</time>
      </trkpt>
      <trkpt lat="19.088973" lon="-97.311825">
        <ele>3493.662</ele>
        <time>2020-11-08T12:38:52Z</time>
      </trkpt>
      <trkpt lat="19.088924" lon="-97.311797">
        <ele>3493.193</ele>
        <time>2020-11-08T12:38:54Z</time>
      </trkpt>
      <trkpt lat="19.088875" lon="-97.311773">
        <ele>3492.835</ele>
        <time>2020-11-08T12:38:56Z</time>
      </trkpt>
      <trkpt lat="19.088829" lon="-97.311756">
        <ele>3492.298</ele>
        <time>2020-11-08T12:38:58Z</time>
      </trkpt>
      <trkpt lat="19.088785" lon="-97.311733">
        <ele>3491.947</ele>
        <time>2020-11-08T12:39:00Z</time>
      </trkpt>
      <trkpt lat="19.088734" lon="-97.311689">
        <ele>3491.771</ele>
        <time>2020-11-08T12:39:03Z</time>
      </trkpt>
      <trkpt lat="19.088676" lon="-97.311652">
        <ele>3491.648</ele>
        <time>2020-11-08T12:39:06Z</time>
      </trkpt>
      <trkpt lat="19.088637" lon="-97.311616">
        <ele>3491.145</ele>
        <time>2020-11-08T12:39:08Z</time>
      </trkpt>
      <trkpt lat="19.088579" lon="-97.311575">
        <ele>3492.447</ele>
        <time>2020-11-08T12:39:11Z</time>
      </trkpt>
      <trkpt lat="19.088527" lon="-97.311538">
        <ele>3493.211</ele>
        <time>2020-11-08T12:39:13Z</time>
      </trkpt>
      <trkpt lat="19.08847" lon="-97.3115">
        <ele>3493.308</ele>
        <time>2020-11-08T12:39:15Z</time>
      </trkpt>
      <trkpt lat="19.088402" lon="-97.311466">
        <ele>3492.130</ele>
        <time>2020-11-08T12:39:17Z</time>
      </trkpt>
      <trkpt lat="19.088326" lon="-97.311438">
        <ele>3491.034</ele>
        <time>2020-11-08T12:39:19Z</time>
      </trkpt>
      <trkpt lat="19.08826" lon="-97.3114">
        <ele>3488.725</ele>
        <time>2020-11-08T12:39:21Z</time>
      </trkpt>
      <trkpt lat="19.088212" lon="-97.311363">
        <ele>3487.397</ele>
        <time>2020-11-08T12:39:23Z</time>
      </trkpt>
      <trkpt lat="19.088171" lon="-97.311331">
        <ele>3486.990</ele>
        <time>2020-11-08T12:39:25Z</time>
      </trkpt>
      <trkpt lat="19.088126" lon="-97.311304">
        <ele>3487.199</ele>
        <time>2020-11-08T12:39:27Z</time>
      </trkpt>
      <trkpt lat="19.088077" lon="-97.311284">
        <ele>3486.863</ele>
        <time>2020-11-08T12:39:29Z</time>
      </trkpt>
      <trkpt lat="19.088024" lon="-97.311272">
        <ele>3486.610</ele>
        <time>2020-11-08T12:39:31Z</time>
      </trkpt>
      <trkpt lat="19.087976" lon="-97.311271">
        <ele>3486.537</ele>
        <time>2020-11-08T12:39:33Z</time>
      </trkpt>
      <trkpt lat="19.08793" lon="-97.311279">
        <ele>3485.649</ele>
        <time>2020-11-08T12:39:39Z</time>
      </trkpt>
      <trkpt lat="19.08788" lon="-97.311287">
        <ele>3485.113</ele>
        <time>2020-11-08T12:39:48Z</time>
      </trkpt>
      <trkpt lat="19.087825" lon="-97.311276">
        <ele>3485.208</ele>
        <time>2020-11-08T12:39:53Z</time>
      </trkpt>
      <trkpt lat="19.087767" lon="-97.311258">
        <ele>3484.989</ele>
        <time>2020-11-08T12:39:56Z</time>
      </trkpt>
      <trkpt lat="19.087717" lon="-97.311236">
        <ele>3484.323</ele>
        <time>2020-11-08T12:39:59Z</time>
      </trkpt>
      <trkpt lat="19.08767" lon="-97.311227">
        <ele>3484.354</ele>
        <time>2020-11-08T12:40:03Z</time>
      </trkpt>
      <trkpt lat="19.087618" lon="-97.31121">
        <ele>3482.376</ele>
        <time>2020-11-08T12:40:11Z</time>
      </trkpt>
      <trkpt lat="19.087567" lon="-97.311208">
        <ele>3481.939</ele>
        <time>2020-11-08T12:40:14Z</time>
      </trkpt>
      <trkpt lat="19.087497" lon="-97.311205">
        <ele>3480.968</ele>
        <time>2020-11-08T12:40:17Z</time>
      </trkpt>
      <trkpt lat="19.087445" lon="-97.311202">
        <ele>3480.392</ele>
        <time>2020-11-08T12:40:19Z</time>
      </trkpt>
      <trkpt lat="19.08738" lon="-97.311203">
        <ele>3480.759</ele>
        <time>2020-11-08T12:40:22Z</time>
      </trkpt>
      <trkpt lat="19.087329" lon="-97.311204">
        <ele>3480.215</ele>
        <time>2020-11-08T12:40:24Z</time>
      </trkpt>
      <trkpt lat="19.087281" lon="-97.311206">
        <ele>3479.965</ele>
        <time>2020-11-08T12:40:26Z</time>
      </trkpt>
      <trkpt lat="19.087234" lon="-97.311211">
        <ele>3479.311</ele>
        <time>2020-11-08T12:40:28Z</time>
      </trkpt>
      <trkpt lat="19.087169" lon="-97.311227">
        <ele>3478.908</ele>
        <time>2020-11-08T12:40:31Z</time>
      </trkpt>
      <trkpt lat="19.087119" lon="-97.311242">
        <ele>3479.577</ele>
        <time>2020-11-08T12:40:33Z</time>
      </trkpt>
      <trkpt lat="19.087071" lon="-97.311259">
        <ele>3479.971</ele>
        <time>2020-11-08T12:40:35Z</time>
      </trkpt>
      <trkpt lat="19.087009" lon="-97.311292">
        <ele>3480.112</ele>
        <time>2020-11-08T12:40:38Z</time>
      </trkpt>
      <trkpt lat="19.086947" lon="-97.311331">
        <ele>3480.664</ele>
        <time>2020-11-08T12:40:40Z</time>
      </trkpt>
      <trkpt lat="19.086895" lon="-97.311365">
        <ele>3480.557</ele>
        <time>2020-11-08T12:40:42Z</time>
      </trkpt>
      <trkpt lat="19.086838" lon="-97.311404">
        <ele>3480.846</ele>
        <time>2020-11-08T12:40:44Z</time>
      </trkpt>
      <trkpt lat="19.086803" lon="-97.311442">
        <ele>3480.630</ele>
        <time>2020-11-08T12:40:46Z</time>
      </trkpt>
      <trkpt lat="19.086772" lon="-97.311501">
        <ele>3480.137</ele>
        <time>2020-11-08T12:40:49Z</time>
      </trkpt>
      <trkpt lat="19.086745" lon="-97.311555">
        <ele>3480.675</ele>
        <time>2020-11-08T12:40:52Z</time>
      </trkpt>
      <trkpt lat="19.086717" lon="-97.311614">
        <ele>3481.328</ele>
        <time>2020-11-08T12:40:55Z</time>
      </trkpt>
      <trkpt lat="19.086693" lon="-97.311668">
        <ele>3482.520</ele>
        <time>2020-11-08T12:40:58Z</time>
      </trkpt>
      <trkpt lat="19.086665" lon="-97.311727">
        <ele>3482.408</ele>
        <time>2020-11-08T12:41:01Z</time>
      </trkpt>
      <trkpt lat="19.086631" lon="-97.31178">
        <ele>3482.043</ele>
        <time>2020-11-08T12:41:04Z</time>
      </trkpt>
      <trkpt lat="19.086587" lon="-97.311822">
        <ele>3480.917</ele>
        <time>2020-11-08T12:41:07Z</time>
      </trkpt>
      <trkpt lat="19.086553" lon="-97.311853">
        <ele>3479.988</ele>
        <time>2020-11-08T12:41:09Z</time>
      </trkpt>
      <trkpt lat="19.086492" lon="-97.31189">
        <ele>3478.520</ele>
        <time>2020-11-08T12:41:12Z</time>
      </trkpt>
      <trkpt lat="19.08645" lon="-97.311915">
        <ele>3477.293</ele>
        <time>2020-11-08T12:41:14Z</time>
      </trkpt>
      <trkpt lat="19.086406" lon="-97.31193">
        <ele>3476.012</ele>
        <time>2020-11-08T12:41:16Z</time>
      </trkpt>
      <trkpt lat="19.086345" lon="-97.311939">
        <ele>3476.166</ele>
        <time>2020-11-08T12:41:19Z</time>
      </trkpt>
      <trkpt lat="19.08628" lon="-97.311944">
        <ele>3476.673</ele>
        <time>2020-11-08T12:41:21Z</time>
      </trkpt>
      <trkpt lat="19.086206" lon="-97.311941">
        <ele>3477.345</ele>
        <time>2020-11-08T12:41:23Z</time>
      </trkpt>
      <trkpt lat="19.086134" lon="-97.311928">
        <ele>3477.347</ele>
        <time>2020-11-08T12:41:25Z</time>
      </trkpt>
      <trkpt lat="19.086064" lon="-97.311907">
        <ele>3476.911</ele>
        <time>2020-11-08T12:41:27Z</time>
      </trkpt>
      <trkpt lat="19.085992" lon="-97.311882">
        <ele>3477.508</ele>
        <time>2020-11-08T12:41:29Z</time>
      </trkpt>
      <trkpt lat="19.085945" lon="-97.311859">
        <ele>3478.280</ele>
        <time>2020-11-08T12:41:31Z</time>
      </trkpt>
      <trkpt lat="19.085905" lon="-97.311837">
        <ele>3478.674</ele>
        <time>2020-11-08T12:41:33Z</time>
      </trkpt>
      <trkpt lat="19.085861" lon="-97.311814">
        <ele>3477.745</ele>
        <time>2020-11-08T12:41:35Z</time>
      </trkpt>
      <trkpt lat="19.085814" lon="-97.311792">
        <ele>3476.777</ele>
        <time>2020-11-08T12:41:37Z</time>
      </trkpt>
      <trkpt lat="19.085767" lon="-97.311779">
        <ele>3476.520</ele>
        <time>2020-11-08T12:41:39Z</time>
      </trkpt>
      <trkpt lat="19.085704" lon="-97.311791">
        <ele>3475.639</ele>
        <time>2020-11-08T12:41:42Z</time>
      </trkpt>
      <trkpt lat="19.085655" lon="-97.311813">
        <ele>3475.583</ele>
        <time>2020-11-08T12:41:44Z</time>
      </trkpt>
      <trkpt lat="19.085601" lon="-97.311828">
        <ele>3475.060</ele>
        <time>2020-11-08T12:41:46Z</time>
      </trkpt>
      <trkpt lat="19.085535" lon="-97.311828">
        <ele>3474.717</ele>
        <time>2020-11-08T12:41:48Z</time>
      </trkpt>
      <trkpt lat="19.085467" lon="-97.311822">
        <ele>3474.187</ele>
        <time>2020-11-08T12:41:50Z</time>
      </trkpt>
      <trkpt lat="19.085397" lon="-97.311816">
        <ele>3473.815</ele>
        <time>2020-11-08T12:41:52Z</time>
      </trkpt>
      <trkpt lat="19.085325" lon="-97.31181">
        <ele>3473.608</ele>
        <time>2020-11-08T12:41:54Z</time>
      </trkpt>
      <trkpt lat="19.085254" lon="-97.311803">
        <ele>3473.117</ele>
        <time>2020-11-08T12:41:56Z</time>
      </trkpt>
      <trkpt lat="19.085181" lon="-97.311794">
        <ele>3473.251</ele>
        <time>2020-11-08T12:41:58Z</time>
      </trkpt>
      <trkpt lat="19.08511" lon="-97.311784">
        <ele>3472.982</ele>
        <time>2020-11-08T12:42:00Z</time>
      </trkpt>
      <trkpt lat="19.085053" lon="-97.311773">
        <ele>3471.934</ele>
        <time>2020-11-08T12:42:02Z</time>
      </trkpt>
      <trkpt lat="19.084994" lon="-97.311752">
        <ele>3470.947</ele>
        <time>2020-11-08T12:42:04Z</time>
      </trkpt>
      <trkpt lat="19.08494" lon="-97.311725">
        <ele>3471.116</ele>
        <time>2020-11-08T12:42:06Z</time>
      </trkpt>
      <trkpt lat="19.084897" lon="-97.311695">
        <ele>3472.070</ele>
        <time>2020-11-08T12:42:08Z</time>
      </trkpt>
      <trkpt lat="19.084856" lon="-97.311657">
        <ele>3472.647</ele>
        <time>2020-11-08T12:42:10Z</time>
      </trkpt>
      <trkpt lat="19.084812" lon="-97.311614">
        <ele>3473.339</ele>
        <time>2020-11-08T12:42:12Z</time>
      </trkpt>
      <trkpt lat="19.084778" lon="-97.311573">
        <ele>3473.701</ele>
        <time>2020-11-08T12:42:14Z</time>
      </trkpt>
      <trkpt lat="19.084737" lon="-97.311535">
        <ele>3474.021</ele>
        <time>2020-11-08T12:42:18Z</time>
      </trkpt>
      <trkpt lat="19.08468" lon="-97.311522">
        <ele>3474.608</ele>
        <time>2020-11-08T12:42:22Z</time>
      </trkpt>
      <trkpt lat="19.084628" lon="-97.31154">
        <ele>3474.929</ele>
        <time>2020-11-08T12:42:25Z</time>
      </trkpt>
      <trkpt lat="19.084572" lon="-97.311561">
        <ele>3475.513</ele>
        <time>2020-11-08T12:42:28Z</time>
      </trkpt>
      <trkpt lat="19.084512" lon="-97.311582">
        <ele>3475.994</ele>
        <time>2020-11-08T12:42:31Z</time>
      </trkpt>
      <trkpt lat="19.084462" lon="-97.311596">
        <ele>3476.166</ele>
        <time>2020-11-08T12:42:33Z</time>
      </trkpt>
      <trkpt lat="19.08441" lon="-97.311604">
        <ele>3476.629</ele>
        <time>2020-11-08T12:42:35Z</time>
      </trkpt>
      <trkpt lat="19.084353" lon="-97.311611">
        <ele>3474.988</ele>
        <time>2020-11-08T12:42:38Z</time>
      </trkpt>
      <trkpt lat="19.084305" lon="-97.311616">
        <ele>3473.522</ele>
        <time>2020-11-08T12:42:40Z</time>
      </trkpt>
      <trkpt lat="19.084253" lon="-97.311621">
        <ele>3472.759</ele>
        <time>2020-11-08T12:42:42Z</time>
      </trkpt>
      <trkpt lat="19.084206" lon="-97.311623">
        <ele>3471.866</ele>
        <time>2020-11-08T12:42:44Z</time>
      </trkpt>
      <trkpt lat="19.084155" lon="-97.311624">
        <ele>3471.729</ele>
        <time>2020-11-08T12:42:47Z</time>
      </trkpt>
      <trkpt lat="19.084105" lon="-97.311629">
        <ele>3470.821</ele>
        <time>2020-11-08T12:42:50Z</time>
      </trkpt>
      <trkpt lat="19.084035" lon="-97.311644">
        <ele>3469.908</ele>
        <time>2020-11-08T12:42:53Z</time>
      </trkpt>
      <trkpt lat="19.083984" lon="-97.311647">
        <ele>3468.922</ele>
        <time>2020-11-08T12:42:55Z</time>
      </trkpt>
      <trkpt lat="19.083925" lon="-97.311646">
        <ele>3469.576</ele>
        <time>2020-11-08T12:42:57Z</time>
      </trkpt>
      <trkpt lat="19.083857" lon="-97.311638">
        <ele>3470.787</ele>
        <time>2020-11-08T12:42:59Z</time>
      </trkpt>
      <trkpt lat="19.083795" lon="-97.311636">
        <ele>3471.829</ele>
        <time>2020-11-08T12:43:01Z</time>
      </trkpt>
      <trkpt lat="19.083747" lon="-97.311643">
        <ele>3472.932</ele>
        <time>2020-11-08T12:43:03Z</time>
      </trkpt>
      <trkpt lat="19.083699" lon="-97.311637">
        <ele>3473.141</ele>
        <time>2020-11-08T12:43:05Z</time>
      </trkpt>
      <trkpt lat="19.083638" lon="-97.311623">
        <ele>3472.875</ele>
        <time>2020-11-08T12:43:07Z</time>
      </trkpt>
      <trkpt lat="19.083564" lon="-97.311618">
        <ele>3471.852</ele>
        <time>2020-11-08T12:43:09Z</time>
      </trkpt>
      <trkpt lat="19.083493" lon="-97.31162">
        <ele>3471.253</ele>
        <time>2020-11-08T12:43:11Z</time>
      </trkpt>
      <trkpt lat="19.083416" lon="-97.311624">
        <ele>3470.904</ele>
        <time>2020-11-08T12:43:13Z</time>
      </trkpt>
      <trkpt lat="19.083328" lon="-97.311636">
        <ele>3471.114</ele>
        <time>2020-11-08T12:43:15Z</time>
      </trkpt>
      <trkpt lat="19.083249" lon="-97.311652">
        <ele>3471.608</ele>
        <time>2020-11-08T12:43:17Z</time>
      </trkpt>
      <trkpt lat="19.083174" lon="-97.311658">
        <ele>3471.531</ele>
        <time>2020-11-08T12:43:19Z</time>
      </trkpt>
      <trkpt lat="19.083092" lon="-97.311657">
        <ele>3471.425</ele>
        <time>2020-11-08T12:43:21Z</time>
      </trkpt>
      <trkpt lat="19.083014" lon="-97.311657">
        <ele>3471.456</ele>
        <time>2020-11-08T12:43:23Z</time>
      </trkpt>
      <trkpt lat="19.082918" lon="-97.311664">
        <ele>3471.488</ele>
        <time>2020-11-08T12:43:25Z</time>
      </trkpt>
      <trkpt lat="19.082826" lon="-97.311673">
        <ele>3471.861</ele>
        <time>2020-11-08T12:43:27Z</time>
      </trkpt>
      <trkpt lat="19.082742" lon="-97.311682">
        <ele>3471.630</ele>
        <time>2020-11-08T12:43:29Z</time>
      </trkpt>
      <trkpt lat="19.08266" lon="-97.311685">
        <ele>3471.544</ele>
        <time>2020-11-08T12:43:31Z</time>
      </trkpt>
      <trkpt lat="19.082588" lon="-97.311679">
        <ele>3471.421</ele>
        <time>2020-11-08T12:43:33Z</time>
      </trkpt>
      <trkpt lat="19.082537" lon="-97.31166">
        <ele>3472.268</ele>
        <time>2020-11-08T12:43:37Z</time>
      </trkpt>
      <trkpt lat="19.082492" lon="-97.311634">
        <ele>3472.742</ele>
        <time>2020-11-08T12:43:40Z</time>
      </trkpt>
      <trkpt lat="19.08245" lon="-97.311615">
        <ele>3472.226</ele>
        <time>2020-11-08T12:43:42Z</time>
      </trkpt>
      <trkpt lat="19.082405" lon="-97.311594">
        <ele>3471.508</ele>
        <time>2020-11-08T12:43:44Z</time>
      </trkpt>
      <trkpt lat="19.082363" lon="-97.311572">
        <ele>3470.792</ele>
        <time>2020-11-08T12:43:46Z</time>
      </trkpt>
      <trkpt lat="19.082321" lon="-97.311551">
        <ele>3471.026</ele>
        <time>2020-11-08T12:43:48Z</time>
      </trkpt>
      <trkpt lat="19.08228" lon="-97.311528">
        <ele>3470.497</ele>
        <time>2020-11-08T12:43:50Z</time>
      </trkpt>
      <trkpt lat="19.082236" lon="-97.311511">
        <ele>3470.429</ele>
        <time>2020-11-08T12:43:52Z</time>
      </trkpt>
      <trkpt lat="19.082172" lon="-97.311492">
        <ele>3470.032</ele>
        <time>2020-11-08T12:43:55Z</time>
      </trkpt>
      <trkpt lat="19.082114" lon="-97.31147">
        <ele>3469.881</ele>
        <time>2020-11-08T12:43:58Z</time>
      </trkpt>
      <trkpt lat="19.082057" lon="-97.311447">
        <ele>3469.755</ele>
        <time>2020-11-08T12:44:01Z</time>
      </trkpt>
      <trkpt lat="19.081991" lon="-97.311422">
        <ele>3470.012</ele>
        <time>2020-11-08T12:44:04Z</time>
      </trkpt>
      <trkpt lat="19.08194" lon="-97.311396">
        <ele>3470.246</ele>
        <time>2020-11-08T12:44:06Z</time>
      </trkpt>
      <trkpt lat="19.081893" lon="-97.311374">
        <ele>3469.988</ele>
        <time>2020-11-08T12:44:08Z</time>
      </trkpt>
      <trkpt lat="19.081846" lon="-97.311356">
        <ele>3469.716</ele>
        <time>2020-11-08T12:44:10Z</time>
      </trkpt>
      <trkpt lat="19.081801" lon="-97.31134">
        <ele>3469.208</ele>
        <time>2020-11-08T12:44:12Z</time>
      </trkpt>
      <trkpt lat="19.081756" lon="-97.311318">
        <ele>3468.970</ele>
        <time>2020-11-08T12:44:14Z</time>
      </trkpt>
      <trkpt lat="19.081715" lon="-97.311296">
        <ele>3468.744</ele>
        <time>2020-11-08T12:44:16Z</time>
      </trkpt>
      <trkpt lat="19.081664" lon="-97.311271">
        <ele>3468.685</ele>
        <time>2020-11-08T12:44:19Z</time>
      </trkpt>
      <trkpt lat="19.081613" lon="-97.311245">
        <ele>3468.557</ele>
        <time>2020-11-08T12:44:22Z</time>
      </trkpt>
      <trkpt lat="19.081571" lon="-97.311225">
        <ele>3468.160</ele>
        <time>2020-11-08T12:44:24Z</time>
      </trkpt>
      <trkpt lat="19.081527" lon="-97.311209">
        <ele>3467.419</ele>
        <time>2020-11-08T12:44:27Z</time>
      </trkpt>
      <trkpt lat="19.081483" lon="-97.311198">
        <ele>3467.443</ele>
        <time>2020-11-08T12:44:30Z</time>
      </trkpt>
      <trkpt lat="19.081433" lon="-97.311187">
        <ele>3467.410</ele>
        <time>2020-11-08T12:44:33Z</time>
      </trkpt>
      <trkpt lat="19.081377" lon="-97.311169">
        <ele>3467.458</ele>
        <time>2020-11-08T12:44:36Z</time>
      </trkpt>
      <trkpt lat="19.081327" lon="-97.311151">
        <ele>3467.052</ele>
        <time>2020-11-08T12:44:39Z</time>
      </trkpt>
      <trkpt lat="19.081275" lon="-97.311127">
        <ele>3466.017</ele>
        <time>2020-11-08T12:44:42Z</time>
      </trkpt>
      <trkpt lat="19.081216" lon="-97.311106">
        <ele>3466.208</ele>
        <time>2020-11-08T12:44:45Z</time>
      </trkpt>
      <trkpt lat="19.081168" lon="-97.311089">
        <ele>3466.711</ele>
        <time>2020-11-08T12:44:47Z</time>
      </trkpt>
      <trkpt lat="19.081118" lon="-97.311072">
        <ele>3467.075</ele>
        <time>2020-11-08T12:44:49Z</time>
      </trkpt>
      <trkpt lat="19.081056" lon="-97.311053">
        <ele>3467.296</ele>
        <time>2020-11-08T12:44:52Z</time>
      </trkpt>
      <trkpt lat="19.081001" lon="-97.311033">
        <ele>3466.968</ele>
        <time>2020-11-08T12:44:55Z</time>
      </trkpt>
      <trkpt lat="19.080938" lon="-97.311009">
        <ele>3466.321</ele>
        <time>2020-11-08T12:44:58Z</time>
      </trkpt>
      <trkpt lat="19.080876" lon="-97.310989">
        <ele>3466.480</ele>
        <time>2020-11-08T12:45:01Z</time>
      </trkpt>
      <trkpt lat="19.080814" lon="-97.310968">
        <ele>3466.484</ele>
        <time>2020-11-08T12:45:04Z</time>
      </trkpt>
      <trkpt lat="19.080749" lon="-97.310956">
        <ele>3465.611</ele>
        <time>2020-11-08T12:45:07Z</time>
      </trkpt>
      <trkpt lat="19.0807" lon="-97.310957">
        <ele>3464.771</ele>
        <time>2020-11-08T12:45:09Z</time>
      </trkpt>
      <trkpt lat="19.080649" lon="-97.310964">
        <ele>3464.241</ele>
        <time>2020-11-08T12:45:11Z</time>
      </trkpt>
      <trkpt lat="19.080603" lon="-97.31097">
        <ele>3463.915</ele>
        <time>2020-11-08T12:45:13Z</time>
      </trkpt>
      <trkpt lat="19.080556" lon="-97.310982">
        <ele>3463.308</ele>
        <time>2020-11-08T12:45:16Z</time>
      </trkpt>
      <trkpt lat="19.080507" lon="-97.310994">
        <ele>3463.373</ele>
        <time>2020-11-08T12:45:19Z</time>
      </trkpt>
      <trkpt lat="19.080455" lon="-97.310998">
        <ele>3462.967</ele>
        <time>2020-11-08T12:45:22Z</time>
      </trkpt>
      <trkpt lat="19.080403" lon="-97.310996">
        <ele>3461.948</ele>
        <time>2020-11-08T12:45:27Z</time>
      </trkpt>
      <trkpt lat="19.080358" lon="-97.310991">
        <ele>3461.390</ele>
        <time>2020-11-08T12:45:30Z</time>
      </trkpt>
      <trkpt lat="19.080312" lon="-97.310992">
        <ele>3460.973</ele>
        <time>2020-11-08T12:45:32Z</time>
      </trkpt>
      <trkpt lat="19.080265" lon="-97.310985">
        <ele>3460.372</ele>
        <time>2020-11-08T12:45:34Z</time>
      </trkpt>
      <trkpt lat="19.08021" lon="-97.310975">
        <ele>3459.516</ele>
        <time>2020-11-08T12:45:37Z</time>
      </trkpt>
      <trkpt lat="19.080163" lon="-97.310975">
        <ele>3458.673</ele>
        <time>2020-11-08T12:45:42Z</time>
      </trkpt>
      <trkpt lat="19.08011" lon="-97.310987">
        <ele>3457.798</ele>
        <time>2020-11-08T12:45:46Z</time>
      </trkpt>
      <trkpt lat="19.080065" lon="-97.311005">
        <ele>3456.315</ele>
        <time>2020-11-08T12:45:50Z</time>
      </trkpt>
      <trkpt lat="19.080022" lon="-97.311033">
        <ele>3453.126</ele>
        <time>2020-11-08T12:45:54Z</time>
      </trkpt>
      <trkpt lat="19.079975" lon="-97.311056">
        <ele>3451.208</ele>
        <time>2020-11-08T12:45:57Z</time>
      </trkpt>
      <trkpt lat="19.079932" lon="-97.311073">
        <ele>3449.235</ele>
        <time>2020-11-08T12:46:00Z</time>
      </trkpt>
      <trkpt lat="19.079889" lon="-97.311086">
        <ele>3447.229</ele>
        <time>2020-11-08T12:46:03Z</time>
      </trkpt>
      <trkpt lat="19.079847" lon="-97.311115">
        <ele>3446.470</ele>
        <time>2020-11-08T12:46:06Z</time>
      </trkpt>
      <trkpt lat="19.07981" lon="-97.311172">
        <ele>3445.512</ele>
        <time>2020-11-08T12:46:09Z</time>
      </trkpt>
      <trkpt lat="19.079792" lon="-97.311222">
        <ele>3445.825</ele>
        <time>2020-11-08T12:46:11Z</time>
      </trkpt>
      <trkpt lat="19.079777" lon="-97.311275">
        <ele>3446.044</ele>
        <time>2020-11-08T12:46:13Z</time>
      </trkpt>
      <trkpt lat="19.079778" lon="-97.311334">
        <ele>3445.788</ele>
        <time>2020-11-08T12:46:17Z</time>
      </trkpt>
      <trkpt lat="19.079792" lon="-97.311386">
        <ele>3445.595</ele>
        <time>2020-11-08T12:46:21Z</time>
      </trkpt>
      <trkpt lat="19.079785" lon="-97.311434">
        <ele>3445.019</ele>
        <time>2020-11-08T12:46:24Z</time>
      </trkpt>
      <trkpt lat="19.079756" lon="-97.311482">
        <ele>3444.709</ele>
        <time>2020-11-08T12:46:27Z</time>
      </trkpt>
      <trkpt lat="19.079737" lon="-97.311531">
        <ele>3444.919</ele>
        <time>2020-11-08T12:46:30Z</time>
      </trkpt>
      <trkpt lat="19.079731" lon="-97.311597">
        <ele>3445.008</ele>
        <time>2020-11-08T12:46:33Z</time>
      </trkpt>
      <trkpt lat="19.079729" lon="-97.311669">
        <ele>3444.757</ele>
        <time>2020-11-08T12:46:36Z</time>
      </trkpt>
      <trkpt lat="19.079737" lon="-97.31173">
        <ele>3444.191</ele>
        <time>2020-11-08T12:46:38Z</time>
      </trkpt>
      <trkpt lat="19.079737" lon="-97.311779">
        <ele>3443.712</ele>
        <time>2020-11-08T12:46:40Z</time>
      </trkpt>
      <trkpt lat="19.079725" lon="-97.311844">
        <ele>3442.354</ele>
        <time>2020-11-08T12:46:43Z</time>
      </trkpt>
      <trkpt lat="19.079715" lon="-97.311894">
        <ele>3441.947</ele>
        <time>2020-11-08T12:46:46Z</time>
      </trkpt>
      <trkpt lat="19.07973" lon="-97.311953">
        <ele>3442.086</ele>
        <time>2020-11-08T12:46:51Z</time>
      </trkpt>
      <trkpt lat="19.079746" lon="-97.312014">
        <ele>3440.920</ele>
        <time>2020-11-08T12:46:54Z</time>
      </trkpt>
      <trkpt lat="19.079743" lon="-97.312086">
        <ele>3439.857</ele>
        <time>2020-11-08T12:46:57Z</time>
      </trkpt>
      <trkpt lat="19.079733" lon="-97.312138">
        <ele>3438.829</ele>
        <time>2020-11-08T12:46:59Z</time>
      </trkpt>
      <trkpt lat="19.079722" lon="-97.312195">
        <ele>3437.400</ele>
        <time>2020-11-08T12:47:02Z</time>
      </trkpt>
      <trkpt lat="19.079713" lon="-97.312252">
        <ele>3436.520</ele>
        <time>2020-11-08T12:47:05Z</time>
      </trkpt>
      <trkpt lat="19.079696" lon="-97.312308">
        <ele>3436.008</ele>
        <time>2020-11-08T12:47:07Z</time>
      </trkpt>
      <trkpt lat="19.079683" lon="-97.312359">
        <ele>3435.728</ele>
        <time>2020-11-08T12:47:09Z</time>
      </trkpt>
      <trkpt lat="19.079688" lon="-97.312425">
        <ele>3434.762</ele>
        <time>2020-11-08T12:47:12Z</time>
      </trkpt>
      <trkpt lat="19.079697" lon="-97.312473">
        <ele>3433.333</ele>
        <time>2020-11-08T12:47:15Z</time>
      </trkpt>
      <trkpt lat="19.079706" lon="-97.31252">
        <ele>3432.145</ele>
        <time>2020-11-08T12:47:18Z</time>
      </trkpt>
      <trkpt lat="19.07972" lon="-97.312569">
        <ele>3431.498</ele>
        <time>2020-11-08T12:47:21Z</time>
      </trkpt>
      <trkpt lat="19.079739" lon="-97.312621">
        <ele>3431.027</ele>
        <time>2020-11-08T12:47:24Z</time>
      </trkpt>
      <trkpt lat="19.079766" lon="-97.312672">
        <ele>3430.341</ele>
        <time>2020-11-08T12:47:28Z</time>
      </trkpt>
      <trkpt lat="19.079769" lon="-97.31273">
        <ele>3429.998</ele>
        <time>2020-11-08T12:47:32Z</time>
      </trkpt>
      <trkpt lat="19.079768" lon="-97.312798">
        <ele>3428.946</ele>
        <time>2020-11-08T12:47:35Z</time>
      </trkpt>
      <trkpt lat="19.079767" lon="-97.312854">
        <ele>3428.788</ele>
        <time>2020-11-08T12:47:37Z</time>
      </trkpt>
      <trkpt lat="19.079767" lon="-97.312915">
        <ele>3428.616</ele>
        <time>2020-11-08T12:47:40Z</time>
      </trkpt>
      <trkpt lat="19.079766" lon="-97.312975">
        <ele>3427.708</ele>
        <time>2020-11-08T12:47:43Z</time>
      </trkpt>
      <trkpt lat="19.079763" lon="-97.31304">
        <ele>3427.280</ele>
        <time>2020-11-08T12:47:46Z</time>
      </trkpt>
      <trkpt lat="19.079755" lon="-97.313098">
        <ele>3426.574</ele>
        <time>2020-11-08T12:47:48Z</time>
      </trkpt>
      <trkpt lat="19.079756" lon="-97.313147">
        <ele>3425.365</ele>
        <time>2020-11-08T12:47:50Z</time>
      </trkpt>
      <trkpt lat="19.079762" lon="-97.313195">
        <ele>3424.667</ele>
        <time>2020-11-08T12:47:52Z</time>
      </trkpt>
      <trkpt lat="19.079759" lon="-97.313245">
        <ele>3423.830</ele>
        <time>2020-11-08T12:47:56Z</time>
      </trkpt>
      <trkpt lat="19.079754" lon="-97.313292">
        <ele>3422.579</ele>
        <time>2020-11-08T12:47:59Z</time>
      </trkpt>
      <trkpt lat="19.079758" lon="-97.31334">
        <ele>3421.373</ele>
        <time>2020-11-08T12:48:01Z</time>
      </trkpt>
      <trkpt lat="19.079766" lon="-97.313388">
        <ele>3420.640</ele>
        <time>2020-11-08T12:48:03Z</time>
      </trkpt>
      <trkpt lat="19.079781" lon="-97.313448">
        <ele>3419.818</ele>
        <time>2020-11-08T12:48:06Z</time>
      </trkpt>
      <trkpt lat="19.079793" lon="-97.31351">
        <ele>3419.398</ele>
        <time>2020-11-08T12:48:09Z</time>
      </trkpt>
      <trkpt lat="19.079798" lon="-97.313568">
        <ele>3419.417</ele>
        <time>2020-11-08T12:48:11Z</time>
      </trkpt>
      <trkpt lat="19.079804" lon="-97.313625">
        <ele>3419.108</ele>
        <time>2020-11-08T12:48:13Z</time>
      </trkpt>
      <trkpt lat="19.079807" lon="-97.313676">
        <ele>3418.577</ele>
        <time>2020-11-08T12:48:15Z</time>
      </trkpt>
      <trkpt lat="19.079804" lon="-97.313739">
        <ele>3417.311</ele>
        <time>2020-11-08T12:48:18Z</time>
      </trkpt>
      <trkpt lat="19.079798" lon="-97.313808">
        <ele>3415.452</ele>
        <time>2020-11-08T12:48:21Z</time>
      </trkpt>
      <trkpt lat="19.079798" lon="-97.313858">
        <ele>3413.964</ele>
        <time>2020-11-08T12:48:23Z</time>
      </trkpt>
      <trkpt lat="19.079802" lon="-97.31391">
        <ele>3412.647</ele>
        <time>2020-11-08T12:48:25Z</time>
      </trkpt>
      <trkpt lat="19.079807" lon="-97.31396">
        <ele>3411.026</ele>
        <time>2020-11-08T12:48:27Z</time>
      </trkpt>
      <trkpt lat="19.079815" lon="-97.314008">
        <ele>3410.080</ele>
        <time>2020-11-08T12:48:29Z</time>
      </trkpt>
      <trkpt lat="19.079829" lon="-97.314072">
        <ele>3409.047</ele>
        <time>2020-11-08T12:48:32Z</time>
      </trkpt>
      <trkpt lat="19.079819" lon="-97.314129">
        <ele>3408.091</ele>
        <time>2020-11-08T12:48:35Z</time>
      </trkpt>
      <trkpt lat="19.079812" lon="-97.314184">
        <ele>3407.081</ele>
        <time>2020-11-08T12:48:38Z</time>
      </trkpt>
      <trkpt lat="19.079809" lon="-97.314238">
        <ele>3405.619</ele>
        <time>2020-11-08T12:48:41Z</time>
      </trkpt>
      <trkpt lat="19.079795" lon="-97.314289">
        <ele>3403.608</ele>
        <time>2020-11-08T12:48:43Z</time>
      </trkpt>
      <trkpt lat="19.079784" lon="-97.31434">
        <ele>3402.465</ele>
        <time>2020-11-08T12:48:45Z</time>
      </trkpt>
      <trkpt lat="19.079776" lon="-97.314388">
        <ele>3401.769</ele>
        <time>2020-11-08T12:48:47Z</time>
      </trkpt>
      <trkpt lat="19.079762" lon="-97.314439">
        <ele>3401.340</ele>
        <time>2020-11-08T12:48:50Z</time>
      </trkpt>
      <trkpt lat="19.079754" lon="-97.314488">
        <ele>3400.632</ele>
        <time>2020-11-08T12:48:54Z</time>
      </trkpt>
      <trkpt lat="19.079755" lon="-97.314539">
        <ele>3399.495</ele>
        <time>2020-11-08T12:48:57Z</time>
      </trkpt>
      <trkpt lat="19.079754" lon="-97.314594">
        <ele>3397.924</ele>
        <time>2020-11-08T12:49:00Z</time>
      </trkpt>
      <trkpt lat="19.079748" lon="-97.314652">
        <ele>3396.628</ele>
        <time>2020-11-08T12:49:03Z</time>
      </trkpt>
      <trkpt lat="19.079737" lon="-97.314714">
        <ele>3395.865</ele>
        <time>2020-11-08T12:49:06Z</time>
      </trkpt>
      <trkpt lat="19.07973" lon="-97.314785">
        <ele>3394.977</ele>
        <time>2020-11-08T12:49:09Z</time>
      </trkpt>
      <trkpt lat="19.07973" lon="-97.314833">
        <ele>3393.261</ele>
        <time>2020-11-08T12:49:11Z</time>
      </trkpt>
      <trkpt lat="19.07973" lon="-97.314886">
        <ele>3391.827</ele>
        <time>2020-11-08T12:49:13Z</time>
      </trkpt>
      <trkpt lat="19.079732" lon="-97.314944">
        <ele>3390.508</ele>
        <time>2020-11-08T12:49:15Z</time>
      </trkpt>
      <trkpt lat="19.079736" lon="-97.315004">
        <ele>3389.783</ele>
        <time>2020-11-08T12:49:17Z</time>
      </trkpt>
      <trkpt lat="19.07974" lon="-97.31506">
        <ele>3388.877</ele>
        <time>2020-11-08T12:49:19Z</time>
      </trkpt>
      <trkpt lat="19.079737" lon="-97.31511">
        <ele>3387.918</ele>
        <time>2020-11-08T12:49:21Z</time>
      </trkpt>
      <trkpt lat="19.079727" lon="-97.315171">
        <ele>3387.460</ele>
        <time>2020-11-08T12:49:24Z</time>
      </trkpt>
      <trkpt lat="19.079744" lon="-97.315219">
        <ele>3387.983</ele>
        <time>2020-11-08T12:49:27Z</time>
      </trkpt>
      <trkpt lat="19.079775" lon="-97.315255">
        <ele>3387.842</ele>
        <time>2020-11-08T12:49:31Z</time>
      </trkpt>
      <trkpt lat="19.079821" lon="-97.315286">
        <ele>3386.936</ele>
        <time>2020-11-08T12:49:35Z</time>
      </trkpt>
      <trkpt lat="19.079864" lon="-97.31531">
        <ele>3386.443</ele>
        <time>2020-11-08T12:49:41Z</time>
      </trkpt>
      <trkpt lat="19.079898" lon="-97.315353">
        <ele>3387.331</ele>
        <time>2020-11-08T12:49:45Z</time>
      </trkpt>
      <trkpt lat="19.079946" lon="-97.315407">
        <ele>3387.861</ele>
        <time>2020-11-08T12:49:48Z</time>
      </trkpt>
      <trkpt lat="19.079979" lon="-97.315445">
        <ele>3387.707</ele>
        <time>2020-11-08T12:49:50Z</time>
      </trkpt>
      <trkpt lat="19.080007" lon="-97.31549">
        <ele>3387.308</ele>
        <time>2020-11-08T12:49:52Z</time>
      </trkpt>
      <trkpt lat="19.080038" lon="-97.315551">
        <ele>3387.479</ele>
        <time>2020-11-08T12:49:55Z</time>
      </trkpt>
      <trkpt lat="19.080064" lon="-97.315591">
        <ele>3387.983</ele>
        <time>2020-11-08T12:49:57Z</time>
      </trkpt>
      <trkpt lat="19.080095" lon="-97.315642">
        <ele>3389.084</ele>
        <time>2020-11-08T12:49:59Z</time>
      </trkpt>
      <trkpt lat="19.080124" lon="-97.31569">
        <ele>3388.946</ele>
        <time>2020-11-08T12:50:01Z</time>
      </trkpt>
      <trkpt lat="19.080172" lon="-97.315732">
        <ele>3387.649</ele>
        <time>2020-11-08T12:50:04Z</time>
      </trkpt>
      <trkpt lat="19.080214" lon="-97.315783">
        <ele>3386.028</ele>
        <time>2020-11-08T12:50:06Z</time>
      </trkpt>
      <trkpt lat="19.080269" lon="-97.315828">
        <ele>3385.172</ele>
        <time>2020-11-08T12:50:08Z</time>
      </trkpt>
      <trkpt lat="19.080332" lon="-97.315848">
        <ele>3384.189</ele>
        <time>2020-11-08T12:50:10Z</time>
      </trkpt>
      <trkpt lat="19.080401" lon="-97.315844">
        <ele>3383.123</ele>
        <time>2020-11-08T12:50:12Z</time>
      </trkpt>
      <trkpt lat="19.080478" lon="-97.315832">
        <ele>3382.983</ele>
        <time>2020-11-08T12:50:14Z</time>
      </trkpt>
      <trkpt lat="19.080553" lon="-97.315816">
        <ele>3382.011</ele>
        <time>2020-11-08T12:50:16Z</time>
      </trkpt>
      <trkpt lat="19.080622" lon="-97.315807">
        <ele>3381.508</ele>
        <time>2020-11-08T12:50:18Z</time>
      </trkpt>
      <trkpt lat="19.080681" lon="-97.315794">
        <ele>3380.448</ele>
        <time>2020-11-08T12:50:20Z</time>
      </trkpt>
      <trkpt lat="19.080728" lon="-97.315783">
        <ele>3379.372</ele>
        <time>2020-11-08T12:50:22Z</time>
      </trkpt>
      <trkpt lat="19.080775" lon="-97.315792">
        <ele>3378.753</ele>
        <time>2020-11-08T12:50:26Z</time>
      </trkpt>
      <trkpt lat="19.080824" lon="-97.315775">
        <ele>3376.325</ele>
        <time>2020-11-08T12:50:41Z</time>
      </trkpt>
      <trkpt lat="19.080871" lon="-97.315777">
        <ele>3374.988</ele>
        <time>2020-11-08T12:50:45Z</time>
      </trkpt>
      <trkpt lat="19.080925" lon="-97.315774">
        <ele>3375.267</ele>
        <time>2020-11-08T12:50:49Z</time>
      </trkpt>
      <trkpt lat="19.080973" lon="-97.315768">
        <ele>3375.871</ele>
        <time>2020-11-08T12:50:55Z</time>
      </trkpt>
      <trkpt lat="19.081024" lon="-97.315747">
        <ele>3375.478</ele>
        <time>2020-11-08T12:51:00Z</time>
      </trkpt>
      <trkpt lat="19.081067" lon="-97.315733">
        <ele>3375.194</ele>
        <time>2020-11-08T12:51:04Z</time>
      </trkpt>
      <trkpt lat="19.081119" lon="-97.315724">
        <ele>3375.757</ele>
        <time>2020-11-08T12:51:11Z</time>
      </trkpt>
      <trkpt lat="19.081169" lon="-97.315719">
        <ele>3374.922</ele>
        <time>2020-11-08T12:51:16Z</time>
      </trkpt>
      <trkpt lat="19.081216" lon="-97.315706">
        <ele>3374.408</ele>
        <time>2020-11-08T12:51:23Z</time>
      </trkpt>
      <trkpt lat="19.081262" lon="-97.315687">
        <ele>3372.585</ele>
        <time>2020-11-08T12:51:29Z</time>
      </trkpt>
      <trkpt lat="19.081306" lon="-97.315667">
        <ele>3371.469</ele>
        <time>2020-11-08T12:51:34Z</time>
      </trkpt>
      <trkpt lat="19.081361" lon="-97.315668">
        <ele>3370.730</ele>
        <time>2020-11-08T12:51:41Z</time>
      </trkpt>
      <trkpt lat="19.081411" lon="-97.315669">
        <ele>3370.732</ele>
        <time>2020-11-08T12:51:46Z</time>
      </trkpt>
      <trkpt lat="19.081467" lon="-97.315673">
        <ele>3370.755</ele>
        <time>2020-11-08T12:51:51Z</time>
      </trkpt>
      <trkpt lat="19.081516" lon="-97.315674">
        <ele>3370.354</ele>
        <time>2020-11-08T12:51:56Z</time>
      </trkpt>
      <trkpt lat="19.081565" lon="-97.315682">
        <ele>3369.718</ele>
        <time>2020-11-08T12:52:01Z</time>
      </trkpt>
      <trkpt lat="19.081612" lon="-97.315685">
        <ele>3368.925</ele>
        <time>2020-11-08T12:52:06Z</time>
      </trkpt>
      <trkpt lat="19.081657" lon="-97.31568">
        <ele>3368.868</ele>
        <time>2020-11-08T12:52:11Z</time>
      </trkpt>
      <trkpt lat="19.081713" lon="-97.315678">
        <ele>3368.442</ele>
        <time>2020-11-08T12:52:16Z</time>
      </trkpt>
      <trkpt lat="19.08176" lon="-97.315667">
        <ele>3368.526</ele>
        <time>2020-11-08T12:52:20Z</time>
      </trkpt>
      <trkpt lat="19.081811" lon="-97.315663">
        <ele>3369.408</ele>
        <time>2020-11-08T12:52:24Z</time>
      </trkpt>
      <trkpt lat="19.081859" lon="-97.31566">
        <ele>3371.122</ele>
        <time>2020-11-08T12:52:29Z</time>
      </trkpt>
      <trkpt lat="19.081915" lon="-97.315652">
        <ele>3371.766</ele>
        <time>2020-11-08T12:52:34Z</time>
      </trkpt>
      <trkpt lat="19.081963" lon="-97.315641">
        <ele>3372.547</ele>
        <time>2020-11-08T12:52:39Z</time>
      </trkpt>
      <trkpt lat="19.082009" lon="-97.315621">
        <ele>3372.659</ele>
        <time>2020-11-08T12:52:43Z</time>
      </trkpt>
      <trkpt lat="19.082054" lon="-97.315618">
        <ele>3373.032</ele>
        <time>2020-11-08T12:52:47Z</time>
      </trkpt>
      <trkpt lat="19.082101" lon="-97.315611">
        <ele>3372.991</ele>
        <time>2020-11-08T12:52:51Z</time>
      </trkpt>
      <trkpt lat="19.082156" lon="-97.315597">
        <ele>3373.235</ele>
        <time>2020-11-08T12:52:56Z</time>
      </trkpt>
      <trkpt lat="19.082209" lon="-97.315595">
        <ele>3373.022</ele>
        <time>2020-11-08T12:53:01Z</time>
      </trkpt>
      <trkpt lat="19.082227" lon="-97.315642">
        <ele>3373.715</ele>
        <time>2020-11-08T12:53:10Z</time>
      </trkpt>
      <trkpt lat="19.082212" lon="-97.315688">
        <ele>3374.165</ele>
        <time>2020-11-08T12:53:14Z</time>
      </trkpt>
      <trkpt lat="19.082214" lon="-97.315752">
        <ele>3374.311</ele>
        <time>2020-11-08T12:53:18Z</time>
      </trkpt>
      <trkpt lat="19.082218" lon="-97.315813">
        <ele>3374.408</ele>
        <time>2020-11-08T12:53:22Z</time>
      </trkpt>
      <trkpt lat="19.082221" lon="-97.315864">
        <ele>3372.927</ele>
        <time>2020-11-08T12:53:26Z</time>
      </trkpt>
      <trkpt lat="19.082209" lon="-97.315924">
        <ele>3372.461</ele>
        <time>2020-11-08T12:53:33Z</time>
      </trkpt>
      <trkpt lat="19.082214" lon="-97.31598">
        <ele>3370.912</ele>
        <time>2020-11-08T12:53:37Z</time>
      </trkpt>
      <trkpt lat="19.082222" lon="-97.316036">
        <ele>3370.434</ele>
        <time>2020-11-08T12:53:42Z</time>
      </trkpt>
      <trkpt lat="19.082233" lon="-97.316092">
        <ele>3370.577</ele>
        <time>2020-11-08T12:53:47Z</time>
      </trkpt>
      <trkpt lat="19.082244" lon="-97.316141">
        <ele>3371.096</ele>
        <time>2020-11-08T12:53:51Z</time>
      </trkpt>
      <trkpt lat="19.082255" lon="-97.31619">
        <ele>3370.570</ele>
        <time>2020-11-08T12:53:55Z</time>
      </trkpt>
      <trkpt lat="19.082274" lon="-97.316247">
        <ele>3370.247</ele>
        <time>2020-11-08T12:53:59Z</time>
      </trkpt>
      <trkpt lat="19.082294" lon="-97.3163">
        <ele>3370.026</ele>
        <time>2020-11-08T12:54:03Z</time>
      </trkpt>
      <trkpt lat="19.082303" lon="-97.316363">
        <ele>3370.747</ele>
        <time>2020-11-08T12:54:07Z</time>
      </trkpt>
      <trkpt lat="19.08229" lon="-97.316415">
        <ele>3371.511</ele>
        <time>2020-11-08T12:54:11Z</time>
      </trkpt>
      <trkpt lat="19.082283" lon="-97.316471">
        <ele>3372.008</ele>
        <time>2020-11-08T12:54:15Z</time>
      </trkpt>
      <trkpt lat="19.082293" lon="-97.316518">
        <ele>3370.748</ele>
        <time>2020-11-08T12:54:21Z</time>
      </trkpt>
      <trkpt lat="19.0823" lon="-97.316568">
        <ele>3367.972</ele>
        <time>2020-11-08T12:54:27Z</time>
      </trkpt>
      <trkpt lat="19.082318" lon="-97.31662">
        <ele>3365.463</ele>
        <time>2020-11-08T12:54:33Z</time>
      </trkpt>
      <trkpt lat="19.08232" lon="-97.316674">
        <ele>3363.975</ele>
        <time>2020-11-08T12:54:38Z</time>
      </trkpt>
      <trkpt lat="19.08232" lon="-97.316726">
        <ele>3362.218</ele>
        <time>2020-11-08T12:54:42Z</time>
      </trkpt>
      <trkpt lat="19.082316" lon="-97.316787">
        <ele>3360.437</ele>
        <time>2020-11-08T12:54:46Z</time>
      </trkpt>
      <trkpt lat="19.082317" lon="-97.31684">
        <ele>3359.341</ele>
        <time>2020-11-08T12:54:50Z</time>
      </trkpt>
      <trkpt lat="19.082319" lon="-97.316899">
        <ele>3357.848</ele>
        <time>2020-11-08T12:54:55Z</time>
      </trkpt>
      <trkpt lat="19.08232" lon="-97.316949">
        <ele>3356.538</ele>
        <time>2020-11-08T12:55:00Z</time>
      </trkpt>
    </trkseg>
  </trk>
</gpx>
